<?xml version="1.0" encoding="UTF-8" standalone="no" ?>
<gpx xmlns="http://www.topografix.com/GPX/1/1" xmlns:xsi="http://www.w3.org/2001/XMLSchema-instance" xsi:schemaLocation="http://www.topografix.com/GPX/1/1 http://www.topografix.com/GPX/1/1/gpx.xsd" version="1.1" creator="VisuGPX - https://www.visugpx.com">
  <metadata>
    <name>Struthof - Champ du feu - Gravel bike</name>
  </metadata>
  <trk>
    <name><![CDATA[Struthof - Champ du feu - Gravel bike_1]]></name>
    <trkseg>
      <trkpt lat="48.41136" lon="7.15982">
        <ele>440</ele>
        <time>2022-12-25T07:55:17Z</time>
      </trkpt>
      <trkpt lat="48.41136" lon="7.15982">
        <ele>438.8</ele>
        <time>2022-12-25T07:55:18Z</time>
      </trkpt>
      <trkpt lat="48.41135" lon="7.1598">
        <ele>438.6</ele>
        <time>2022-12-25T07:55:21Z</time>
      </trkpt>
      <trkpt lat="48.41135" lon="7.15981">
        <ele>438.6</ele>
        <time>2022-12-25T07:55:23Z</time>
      </trkpt>
      <trkpt lat="48.41135" lon="7.1597">
        <ele>438.4</ele>
        <time>2022-12-25T07:55:27Z</time>
      </trkpt>
      <trkpt lat="48.41135" lon="7.15966">
        <ele>438</ele>
        <time>2022-12-25T07:55:28Z</time>
      </trkpt>
      <trkpt lat="48.41129" lon="7.15951">
        <ele>438.4</ele>
        <time>2022-12-25T07:55:31Z</time>
      </trkpt>
      <trkpt lat="48.41126" lon="7.15946">
        <ele>438.4</ele>
        <time>2022-12-25T07:55:32Z</time>
      </trkpt>
      <trkpt lat="48.41121" lon="7.15941">
        <ele>438.4</ele>
        <time>2022-12-25T07:55:33Z</time>
      </trkpt>
      <trkpt lat="48.41101" lon="7.15918">
        <ele>437.8</ele>
        <time>2022-12-25T07:55:37Z</time>
      </trkpt>
      <trkpt lat="48.41086" lon="7.159">
        <ele>436.6</ele>
        <time>2022-12-25T07:55:40Z</time>
      </trkpt>
      <trkpt lat="48.41077" lon="7.15895">
        <ele>435.8</ele>
        <time>2022-12-25T07:55:42Z</time>
      </trkpt>
      <trkpt lat="48.41071" lon="7.15902">
        <ele>435.4</ele>
        <time>2022-12-25T07:55:44Z</time>
      </trkpt>
      <trkpt lat="48.41069" lon="7.15909">
        <ele>435.4</ele>
        <time>2022-12-25T07:55:45Z</time>
      </trkpt>
      <trkpt lat="48.41063" lon="7.15931">
        <ele>435.2</ele>
        <time>2022-12-25T07:55:48Z</time>
      </trkpt>
      <trkpt lat="48.41059" lon="7.15945">
        <ele>435.2</ele>
        <time>2022-12-25T07:55:50Z</time>
      </trkpt>
      <trkpt lat="48.41052" lon="7.15968">
        <ele>435</ele>
        <time>2022-12-25T07:55:53Z</time>
      </trkpt>
      <trkpt lat="48.41037" lon="7.16019">
        <ele>434.8</ele>
        <time>2022-12-25T07:56:00Z</time>
      </trkpt>
      <trkpt lat="48.41036" lon="7.16027">
        <ele>434.6</ele>
        <time>2022-12-25T07:56:01Z</time>
      </trkpt>
      <trkpt lat="48.41032" lon="7.16053">
        <ele>434.6</ele>
        <time>2022-12-25T07:56:04Z</time>
      </trkpt>
      <trkpt lat="48.41029" lon="7.16072">
        <ele>434.6</ele>
        <time>2022-12-25T07:56:06Z</time>
      </trkpt>
      <trkpt lat="48.41027" lon="7.16082">
        <ele>434.4</ele>
        <time>2022-12-25T07:56:07Z</time>
      </trkpt>
      <trkpt lat="48.41026" lon="7.16091">
        <ele>434.4</ele>
        <time>2022-12-25T07:56:08Z</time>
      </trkpt>
      <trkpt lat="48.41025" lon="7.16108">
        <ele>434.2</ele>
        <time>2022-12-25T07:56:10Z</time>
      </trkpt>
      <trkpt lat="48.41023" lon="7.16121">
        <ele>433.8</ele>
        <time>2022-12-25T07:56:12Z</time>
      </trkpt>
      <trkpt lat="48.41025" lon="7.16129">
        <ele>433.2</ele>
        <time>2022-12-25T07:56:13Z</time>
      </trkpt>
      <trkpt lat="48.41028" lon="7.16136">
        <ele>432.8</ele>
        <time>2022-12-25T07:56:14Z</time>
      </trkpt>
      <trkpt lat="48.41033" lon="7.16144">
        <ele>432.6</ele>
        <time>2022-12-25T07:56:15Z</time>
      </trkpt>
      <trkpt lat="48.41037" lon="7.16149">
        <ele>432.2</ele>
        <time>2022-12-25T07:56:16Z</time>
      </trkpt>
      <trkpt lat="48.41051" lon="7.16166">
        <ele>431.6</ele>
        <time>2022-12-25T07:56:19Z</time>
      </trkpt>
      <trkpt lat="48.41075" lon="7.16191">
        <ele>431.2</ele>
        <time>2022-12-25T07:56:24Z</time>
      </trkpt>
      <trkpt lat="48.4108" lon="7.16196">
        <ele>431.2</ele>
        <time>2022-12-25T07:56:25Z</time>
      </trkpt>
      <trkpt lat="48.41087" lon="7.1621">
        <ele>431.2</ele>
        <time>2022-12-25T07:56:27Z</time>
      </trkpt>
      <trkpt lat="48.41091" lon="7.16238">
        <ele>431.2</ele>
        <time>2022-12-25T07:56:30Z</time>
      </trkpt>
      <trkpt lat="48.41091" lon="7.16248">
        <ele>431.2</ele>
        <time>2022-12-25T07:56:31Z</time>
      </trkpt>
      <trkpt lat="48.41092" lon="7.16269">
        <ele>431</ele>
        <time>2022-12-25T07:56:33Z</time>
      </trkpt>
      <trkpt lat="48.41096" lon="7.16292">
        <ele>431</ele>
        <time>2022-12-25T07:56:35Z</time>
      </trkpt>
      <trkpt lat="48.41098" lon="7.163">
        <ele>430.8</ele>
        <time>2022-12-25T07:56:36Z</time>
      </trkpt>
      <trkpt lat="48.41117" lon="7.16355">
        <ele>430</ele>
        <time>2022-12-25T07:56:42Z</time>
      </trkpt>
      <trkpt lat="48.41119" lon="7.16363">
        <ele>429.8</ele>
        <time>2022-12-25T07:56:43Z</time>
      </trkpt>
      <trkpt lat="48.41128" lon="7.16385">
        <ele>429.6</ele>
        <time>2022-12-25T07:56:46Z</time>
      </trkpt>
      <trkpt lat="48.41135" lon="7.16396">
        <ele>429.4</ele>
        <time>2022-12-25T07:56:48Z</time>
      </trkpt>
      <trkpt lat="48.41143" lon="7.16404">
        <ele>429.6</ele>
        <time>2022-12-25T07:56:51Z</time>
      </trkpt>
      <trkpt lat="48.41143" lon="7.16404">
        <ele>429.6</ele>
        <time>2022-12-25T07:56:52Z</time>
      </trkpt>
      <trkpt lat="48.41143" lon="7.16404">
        <ele>429.4</ele>
        <time>2022-12-25T07:56:56Z</time>
      </trkpt>
      <trkpt lat="48.41143" lon="7.16404">
        <ele>429.2</ele>
        <time>2022-12-25T07:56:59Z</time>
      </trkpt>
      <trkpt lat="48.41143" lon="7.16404">
        <ele>429</ele>
        <time>2022-12-25T07:57:02Z</time>
      </trkpt>
      <trkpt lat="48.41143" lon="7.16404">
        <ele>428.8</ele>
        <time>2022-12-25T07:57:05Z</time>
      </trkpt>
      <trkpt lat="48.41143" lon="7.16404">
        <ele>428.2</ele>
        <time>2022-12-25T07:57:20Z</time>
      </trkpt>
      <trkpt lat="48.41144" lon="7.16406">
        <ele>428.4</ele>
        <time>2022-12-25T07:57:23Z</time>
      </trkpt>
      <trkpt lat="48.41147" lon="7.16412">
        <ele>428.4</ele>
        <time>2022-12-25T07:57:25Z</time>
      </trkpt>
      <trkpt lat="48.4116" lon="7.16435">
        <ele>428.2</ele>
        <time>2022-12-25T07:57:30Z</time>
      </trkpt>
      <trkpt lat="48.41163" lon="7.1644">
        <ele>428.2</ele>
        <time>2022-12-25T07:57:31Z</time>
      </trkpt>
      <trkpt lat="48.41172" lon="7.16449">
        <ele>428.2</ele>
        <time>2022-12-25T07:57:33Z</time>
      </trkpt>
      <trkpt lat="48.41176" lon="7.16453">
        <ele>428</ele>
        <time>2022-12-25T07:57:34Z</time>
      </trkpt>
      <trkpt lat="48.41181" lon="7.16458">
        <ele>428</ele>
        <time>2022-12-25T07:57:35Z</time>
      </trkpt>
      <trkpt lat="48.41185" lon="7.16462">
        <ele>427.8</ele>
        <time>2022-12-25T07:57:36Z</time>
      </trkpt>
      <trkpt lat="48.41202" lon="7.16483">
        <ele>427.8</ele>
        <time>2022-12-25T07:57:40Z</time>
      </trkpt>
      <trkpt lat="48.41214" lon="7.16502">
        <ele>427.8</ele>
        <time>2022-12-25T07:57:43Z</time>
      </trkpt>
      <trkpt lat="48.4122" lon="7.16516">
        <ele>427.8</ele>
        <time>2022-12-25T07:57:45Z</time>
      </trkpt>
      <trkpt lat="48.41222" lon="7.16524">
        <ele>427.8</ele>
        <time>2022-12-25T07:57:46Z</time>
      </trkpt>
      <trkpt lat="48.41228" lon="7.16546">
        <ele>427.8</ele>
        <time>2022-12-25T07:57:49Z</time>
      </trkpt>
      <trkpt lat="48.41235" lon="7.16574">
        <ele>428</ele>
        <time>2022-12-25T07:57:53Z</time>
      </trkpt>
      <trkpt lat="48.41238" lon="7.16595">
        <ele>428.4</ele>
        <time>2022-12-25T07:57:56Z</time>
      </trkpt>
      <trkpt lat="48.41241" lon="7.16608">
        <ele>428.6</ele>
        <time>2022-12-25T07:57:58Z</time>
      </trkpt>
      <trkpt lat="48.41248" lon="7.16624">
        <ele>428.8</ele>
        <time>2022-12-25T07:58:01Z</time>
      </trkpt>
      <trkpt lat="48.41253" lon="7.16637">
        <ele>429.2</ele>
        <time>2022-12-25T07:58:04Z</time>
      </trkpt>
      <trkpt lat="48.41259" lon="7.16649">
        <ele>429.4</ele>
        <time>2022-12-25T07:58:07Z</time>
      </trkpt>
      <trkpt lat="48.41261" lon="7.16652">
        <ele>429.6</ele>
        <time>2022-12-25T07:58:08Z</time>
      </trkpt>
      <trkpt lat="48.41265" lon="7.16659">
        <ele>430.2</ele>
        <time>2022-12-25T07:58:10Z</time>
      </trkpt>
      <trkpt lat="48.41269" lon="7.16672">
        <ele>431</ele>
        <time>2022-12-25T07:58:13Z</time>
      </trkpt>
      <trkpt lat="48.4127" lon="7.16677">
        <ele>431.4</ele>
        <time>2022-12-25T07:58:14Z</time>
      </trkpt>
      <trkpt lat="48.4128" lon="7.16708">
        <ele>432.2</ele>
        <time>2022-12-25T07:58:20Z</time>
      </trkpt>
      <trkpt lat="48.41284" lon="7.16719">
        <ele>432.2</ele>
        <time>2022-12-25T07:58:22Z</time>
      </trkpt>
      <trkpt lat="48.41289" lon="7.1673">
        <ele>432.2</ele>
        <time>2022-12-25T07:58:24Z</time>
      </trkpt>
      <trkpt lat="48.41294" lon="7.1674">
        <ele>432.2</ele>
        <time>2022-12-25T07:58:26Z</time>
      </trkpt>
      <trkpt lat="48.41301" lon="7.16754">
        <ele>431.8</ele>
        <time>2022-12-25T07:58:28Z</time>
      </trkpt>
      <trkpt lat="48.41305" lon="7.16762">
        <ele>431.8</ele>
        <time>2022-12-25T07:58:29Z</time>
      </trkpt>
      <trkpt lat="48.41309" lon="7.1677">
        <ele>431.4</ele>
        <time>2022-12-25T07:58:30Z</time>
      </trkpt>
      <trkpt lat="48.41317" lon="7.16787">
        <ele>431</ele>
        <time>2022-12-25T07:58:32Z</time>
      </trkpt>
      <trkpt lat="48.41327" lon="7.16807">
        <ele>430.4</ele>
        <time>2022-12-25T07:58:34Z</time>
      </trkpt>
      <trkpt lat="48.41331" lon="7.16817">
        <ele>430</ele>
        <time>2022-12-25T07:58:35Z</time>
      </trkpt>
      <trkpt lat="48.4134" lon="7.1684">
        <ele>428.6</ele>
        <time>2022-12-25T07:58:37Z</time>
      </trkpt>
      <trkpt lat="48.41345" lon="7.16849">
        <ele>428</ele>
        <time>2022-12-25T07:58:38Z</time>
      </trkpt>
      <trkpt lat="48.41351" lon="7.16858">
        <ele>427.8</ele>
        <time>2022-12-25T07:58:39Z</time>
      </trkpt>
      <trkpt lat="48.41367" lon="7.16873">
        <ele>427.4</ele>
        <time>2022-12-25T07:58:41Z</time>
      </trkpt>
      <trkpt lat="48.41392" lon="7.16884">
        <ele>426.8</ele>
        <time>2022-12-25T07:58:45Z</time>
      </trkpt>
      <trkpt lat="48.41406" lon="7.16889">
        <ele>426.8</ele>
        <time>2022-12-25T07:58:48Z</time>
      </trkpt>
      <trkpt lat="48.41408" lon="7.1689">
        <ele>426.8</ele>
        <time>2022-12-25T07:58:49Z</time>
      </trkpt>
      <trkpt lat="48.41421" lon="7.16894">
        <ele>428</ele>
        <time>2022-12-25T07:58:54Z</time>
      </trkpt>
      <trkpt lat="48.41428" lon="7.16894">
        <ele>428.4</ele>
        <time>2022-12-25T07:58:56Z</time>
      </trkpt>
      <trkpt lat="48.41448" lon="7.16896">
        <ele>429.8</ele>
        <time>2022-12-25T07:59:02Z</time>
      </trkpt>
      <trkpt lat="48.41458" lon="7.16904">
        <ele>430.4</ele>
        <time>2022-12-25T07:59:06Z</time>
      </trkpt>
      <trkpt lat="48.41462" lon="7.16908">
        <ele>430.8</ele>
        <time>2022-12-25T07:59:08Z</time>
      </trkpt>
      <trkpt lat="48.41465" lon="7.16911">
        <ele>431.4</ele>
        <time>2022-12-25T07:59:10Z</time>
      </trkpt>
      <trkpt lat="48.41468" lon="7.16914">
        <ele>432</ele>
        <time>2022-12-25T07:59:12Z</time>
      </trkpt>
      <trkpt lat="48.41473" lon="7.16924">
        <ele>433</ele>
        <time>2022-12-25T07:59:16Z</time>
      </trkpt>
      <trkpt lat="48.41481" lon="7.16927">
        <ele>434</ele>
        <time>2022-12-25T07:59:20Z</time>
      </trkpt>
      <trkpt lat="48.41482" lon="7.16929">
        <ele>434.4</ele>
        <time>2022-12-25T07:59:21Z</time>
      </trkpt>
      <trkpt lat="48.41483" lon="7.16931">
        <ele>434.6</ele>
        <time>2022-12-25T07:59:22Z</time>
      </trkpt>
      <trkpt lat="48.41484" lon="7.16933">
        <ele>434.8</ele>
        <time>2022-12-25T07:59:23Z</time>
      </trkpt>
      <trkpt lat="48.41487" lon="7.16936">
        <ele>435.2</ele>
        <time>2022-12-25T07:59:25Z</time>
      </trkpt>
      <trkpt lat="48.41489" lon="7.16937">
        <ele>435.4</ele>
        <time>2022-12-25T07:59:26Z</time>
      </trkpt>
      <trkpt lat="48.41495" lon="7.16938">
        <ele>436.2</ele>
        <time>2022-12-25T07:59:29Z</time>
      </trkpt>
      <trkpt lat="48.41497" lon="7.16939">
        <ele>436.4</ele>
        <time>2022-12-25T07:59:30Z</time>
      </trkpt>
      <trkpt lat="48.41498" lon="7.1694">
        <ele>436.6</ele>
        <time>2022-12-25T07:59:31Z</time>
      </trkpt>
      <trkpt lat="48.415" lon="7.16941">
        <ele>436.8</ele>
        <time>2022-12-25T07:59:32Z</time>
      </trkpt>
      <trkpt lat="48.41502" lon="7.16945">
        <ele>437.4</ele>
        <time>2022-12-25T07:59:34Z</time>
      </trkpt>
      <trkpt lat="48.41505" lon="7.16947">
        <ele>437.6</ele>
        <time>2022-12-25T07:59:35Z</time>
      </trkpt>
      <trkpt lat="48.41511" lon="7.16957">
        <ele>438.6</ele>
        <time>2022-12-25T07:59:39Z</time>
      </trkpt>
      <trkpt lat="48.41514" lon="7.16962">
        <ele>439</ele>
        <time>2022-12-25T07:59:41Z</time>
      </trkpt>
      <trkpt lat="48.41523" lon="7.16975">
        <ele>439.6</ele>
        <time>2022-12-25T07:59:46Z</time>
      </trkpt>
      <trkpt lat="48.41527" lon="7.1698">
        <ele>439.8</ele>
        <time>2022-12-25T07:59:48Z</time>
      </trkpt>
      <trkpt lat="48.41537" lon="7.16998">
        <ele>440.4</ele>
        <time>2022-12-25T07:59:53Z</time>
      </trkpt>
      <trkpt lat="48.41541" lon="7.1701">
        <ele>440.4</ele>
        <time>2022-12-25T07:59:56Z</time>
      </trkpt>
      <trkpt lat="48.41543" lon="7.17018">
        <ele>440.4</ele>
        <time>2022-12-25T07:59:58Z</time>
      </trkpt>
      <trkpt lat="48.4155" lon="7.1704">
        <ele>440.6</ele>
        <time>2022-12-25T08:00:03Z</time>
      </trkpt>
      <trkpt lat="48.41553" lon="7.17045">
        <ele>440.6</ele>
        <time>2022-12-25T08:00:04Z</time>
      </trkpt>
      <trkpt lat="48.41564" lon="7.17062">
        <ele>441</ele>
        <time>2022-12-25T08:00:08Z</time>
      </trkpt>
      <trkpt lat="48.41567" lon="7.17066">
        <ele>441</ele>
        <time>2022-12-25T08:00:09Z</time>
      </trkpt>
      <trkpt lat="48.4158" lon="7.1708">
        <ele>441.4</ele>
        <time>2022-12-25T08:00:15Z</time>
      </trkpt>
      <trkpt lat="48.41583" lon="7.17081">
        <ele>441.8</ele>
        <time>2022-12-25T08:00:17Z</time>
      </trkpt>
      <trkpt lat="48.41586" lon="7.17083">
        <ele>442</ele>
        <time>2022-12-25T08:00:19Z</time>
      </trkpt>
      <trkpt lat="48.41595" lon="7.1709">
        <ele>442.6</ele>
        <time>2022-12-25T08:00:23Z</time>
      </trkpt>
      <trkpt lat="48.41599" lon="7.17093">
        <ele>443</ele>
        <time>2022-12-25T08:00:25Z</time>
      </trkpt>
      <trkpt lat="48.416" lon="7.17095">
        <ele>443.2</ele>
        <time>2022-12-25T08:00:26Z</time>
      </trkpt>
      <trkpt lat="48.41613" lon="7.17102">
        <ele>444</ele>
        <time>2022-12-25T08:00:32Z</time>
      </trkpt>
      <trkpt lat="48.41614" lon="7.17103">
        <ele>444</ele>
        <time>2022-12-25T08:00:33Z</time>
      </trkpt>
      <trkpt lat="48.41615" lon="7.17104">
        <ele>444.4</ele>
        <time>2022-12-25T08:00:34Z</time>
      </trkpt>
      <trkpt lat="48.41621" lon="7.17102">
        <ele>445.2</ele>
        <time>2022-12-25T08:00:38Z</time>
      </trkpt>
      <trkpt lat="48.41622" lon="7.17102">
        <ele>445.2</ele>
        <time>2022-12-25T08:00:39Z</time>
      </trkpt>
      <trkpt lat="48.41623" lon="7.17102">
        <ele>445.6</ele>
        <time>2022-12-25T08:00:40Z</time>
      </trkpt>
      <trkpt lat="48.4163" lon="7.17103">
        <ele>446.6</ele>
        <time>2022-12-25T08:00:44Z</time>
      </trkpt>
      <trkpt lat="48.41631" lon="7.17104">
        <ele>447</ele>
        <time>2022-12-25T08:00:45Z</time>
      </trkpt>
      <trkpt lat="48.41632" lon="7.17105">
        <ele>447.2</ele>
        <time>2022-12-25T08:00:46Z</time>
      </trkpt>
      <trkpt lat="48.41635" lon="7.17109">
        <ele>447.6</ele>
        <time>2022-12-25T08:00:48Z</time>
      </trkpt>
      <trkpt lat="48.41637" lon="7.1711">
        <ele>447.8</ele>
        <time>2022-12-25T08:00:49Z</time>
      </trkpt>
      <trkpt lat="48.41648" lon="7.17116">
        <ele>449</ele>
        <time>2022-12-25T08:00:54Z</time>
      </trkpt>
      <trkpt lat="48.41651" lon="7.17119">
        <ele>449.6</ele>
        <time>2022-12-25T08:00:56Z</time>
      </trkpt>
      <trkpt lat="48.41653" lon="7.1712">
        <ele>450.4</ele>
        <time>2022-12-25T08:00:58Z</time>
      </trkpt>
      <trkpt lat="48.41657" lon="7.17124">
        <ele>450.8</ele>
        <time>2022-12-25T08:01:01Z</time>
      </trkpt>
      <trkpt lat="48.41658" lon="7.17125">
        <ele>451.4</ele>
        <time>2022-12-25T08:01:02Z</time>
      </trkpt>
      <trkpt lat="48.41664" lon="7.1713">
        <ele>452.4</ele>
        <time>2022-12-25T08:01:07Z</time>
      </trkpt>
      <trkpt lat="48.41667" lon="7.17132">
        <ele>452.8</ele>
        <time>2022-12-25T08:01:09Z</time>
      </trkpt>
      <trkpt lat="48.41671" lon="7.17135">
        <ele>453.4</ele>
        <time>2022-12-25T08:01:12Z</time>
      </trkpt>
      <trkpt lat="48.41677" lon="7.17139">
        <ele>454.4</ele>
        <time>2022-12-25T08:01:16Z</time>
      </trkpt>
      <trkpt lat="48.4168" lon="7.17142">
        <ele>454.6</ele>
        <time>2022-12-25T08:01:18Z</time>
      </trkpt>
      <trkpt lat="48.41684" lon="7.17147">
        <ele>455.2</ele>
        <time>2022-12-25T08:01:21Z</time>
      </trkpt>
      <trkpt lat="48.41685" lon="7.17149">
        <ele>455.2</ele>
        <time>2022-12-25T08:01:22Z</time>
      </trkpt>
      <trkpt lat="48.4169" lon="7.17156">
        <ele>455.6</ele>
        <time>2022-12-25T08:01:26Z</time>
      </trkpt>
      <trkpt lat="48.41691" lon="7.1716">
        <ele>455.8</ele>
        <time>2022-12-25T08:01:28Z</time>
      </trkpt>
      <trkpt lat="48.41692" lon="7.17162">
        <ele>456</ele>
        <time>2022-12-25T08:01:29Z</time>
      </trkpt>
      <trkpt lat="48.41698" lon="7.1717">
        <ele>456.8</ele>
        <time>2022-12-25T08:01:33Z</time>
      </trkpt>
      <trkpt lat="48.41702" lon="7.17174">
        <ele>457</ele>
        <time>2022-12-25T08:01:35Z</time>
      </trkpt>
      <trkpt lat="48.4171" lon="7.17183">
        <ele>457.8</ele>
        <time>2022-12-25T08:01:40Z</time>
      </trkpt>
      <trkpt lat="48.41716" lon="7.1719">
        <ele>458.2</ele>
        <time>2022-12-25T08:01:43Z</time>
      </trkpt>
      <trkpt lat="48.41716" lon="7.17192">
        <ele>458.6</ele>
        <time>2022-12-25T08:01:44Z</time>
      </trkpt>
      <trkpt lat="48.4172" lon="7.17197">
        <ele>458.8</ele>
        <time>2022-12-25T08:01:46Z</time>
      </trkpt>
      <trkpt lat="48.41723" lon="7.172">
        <ele>459.2</ele>
        <time>2022-12-25T08:01:48Z</time>
      </trkpt>
      <trkpt lat="48.41729" lon="7.17208">
        <ele>460</ele>
        <time>2022-12-25T08:01:52Z</time>
      </trkpt>
      <trkpt lat="48.41732" lon="7.17211">
        <ele>460.2</ele>
        <time>2022-12-25T08:01:54Z</time>
      </trkpt>
      <trkpt lat="48.41736" lon="7.17214">
        <ele>460.6</ele>
        <time>2022-12-25T08:01:56Z</time>
      </trkpt>
      <trkpt lat="48.41738" lon="7.17214">
        <ele>461</ele>
        <time>2022-12-25T08:01:57Z</time>
      </trkpt>
      <trkpt lat="48.41743" lon="7.17218">
        <ele>461.2</ele>
        <time>2022-12-25T08:02:00Z</time>
      </trkpt>
      <trkpt lat="48.41751" lon="7.17221">
        <ele>462</ele>
        <time>2022-12-25T08:02:05Z</time>
      </trkpt>
      <trkpt lat="48.41753" lon="7.17222">
        <ele>462.2</ele>
        <time>2022-12-25T08:02:06Z</time>
      </trkpt>
      <trkpt lat="48.41762" lon="7.1723">
        <ele>463</ele>
        <time>2022-12-25T08:02:12Z</time>
      </trkpt>
      <trkpt lat="48.41766" lon="7.17232">
        <ele>463.2</ele>
        <time>2022-12-25T08:02:14Z</time>
      </trkpt>
      <trkpt lat="48.41773" lon="7.17237">
        <ele>464.2</ele>
        <time>2022-12-25T08:02:18Z</time>
      </trkpt>
      <trkpt lat="48.41777" lon="7.1724">
        <ele>464.4</ele>
        <time>2022-12-25T08:02:20Z</time>
      </trkpt>
      <trkpt lat="48.41782" lon="7.17245">
        <ele>465</ele>
        <time>2022-12-25T08:02:23Z</time>
      </trkpt>
      <trkpt lat="48.41786" lon="7.17247">
        <ele>465.2</ele>
        <time>2022-12-25T08:02:25Z</time>
      </trkpt>
      <trkpt lat="48.41789" lon="7.17248">
        <ele>465.4</ele>
        <time>2022-12-25T08:02:26Z</time>
      </trkpt>
      <trkpt lat="48.41802" lon="7.17255">
        <ele>466.2</ele>
        <time>2022-12-25T08:02:32Z</time>
      </trkpt>
      <trkpt lat="48.41805" lon="7.17257">
        <ele>466.4</ele>
        <time>2022-12-25T08:02:33Z</time>
      </trkpt>
      <trkpt lat="48.4181" lon="7.17261">
        <ele>466.8</ele>
        <time>2022-12-25T08:02:35Z</time>
      </trkpt>
      <trkpt lat="48.41817" lon="7.17265">
        <ele>467.2</ele>
        <time>2022-12-25T08:02:38Z</time>
      </trkpt>
      <trkpt lat="48.41819" lon="7.17266">
        <ele>467.4</ele>
        <time>2022-12-25T08:02:39Z</time>
      </trkpt>
      <trkpt lat="48.4183" lon="7.17278">
        <ele>468</ele>
        <time>2022-12-25T08:02:45Z</time>
      </trkpt>
      <trkpt lat="48.41837" lon="7.17286">
        <ele>468.2</ele>
        <time>2022-12-25T08:02:48Z</time>
      </trkpt>
      <trkpt lat="48.41839" lon="7.17289">
        <ele>468.2</ele>
        <time>2022-12-25T08:02:49Z</time>
      </trkpt>
      <trkpt lat="48.41842" lon="7.1729">
        <ele>468.4</ele>
        <time>2022-12-25T08:02:50Z</time>
      </trkpt>
      <trkpt lat="48.41861" lon="7.17305">
        <ele>468.4</ele>
        <time>2022-12-25T08:02:57Z</time>
      </trkpt>
      <trkpt lat="48.41869" lon="7.17309">
        <ele>468.2</ele>
        <time>2022-12-25T08:02:59Z</time>
      </trkpt>
      <trkpt lat="48.41876" lon="7.17314">
        <ele>468</ele>
        <time>2022-12-25T08:03:01Z</time>
      </trkpt>
      <trkpt lat="48.41883" lon="7.17319">
        <ele>468</ele>
        <time>2022-12-25T08:03:03Z</time>
      </trkpt>
      <trkpt lat="48.4189" lon="7.17325">
        <ele>467.8</ele>
        <time>2022-12-25T08:03:05Z</time>
      </trkpt>
      <trkpt lat="48.41894" lon="7.17327">
        <ele>467.8</ele>
        <time>2022-12-25T08:03:06Z</time>
      </trkpt>
      <trkpt lat="48.4191" lon="7.17336">
        <ele>467.6</ele>
        <time>2022-12-25T08:03:10Z</time>
      </trkpt>
      <trkpt lat="48.41926" lon="7.17348">
        <ele>467.4</ele>
        <time>2022-12-25T08:03:14Z</time>
      </trkpt>
      <trkpt lat="48.41933" lon="7.17352">
        <ele>467.4</ele>
        <time>2022-12-25T08:03:16Z</time>
      </trkpt>
      <trkpt lat="48.41946" lon="7.17356">
        <ele>467.4</ele>
        <time>2022-12-25T08:03:19Z</time>
      </trkpt>
      <trkpt lat="48.41951" lon="7.17356">
        <ele>467.4</ele>
        <time>2022-12-25T08:03:20Z</time>
      </trkpt>
      <trkpt lat="48.41955" lon="7.17356">
        <ele>467.4</ele>
        <time>2022-12-25T08:03:21Z</time>
      </trkpt>
      <trkpt lat="48.41962" lon="7.17354">
        <ele>467.4</ele>
        <time>2022-12-25T08:03:23Z</time>
      </trkpt>
      <trkpt lat="48.41966" lon="7.17353">
        <ele>467.4</ele>
        <time>2022-12-25T08:03:24Z</time>
      </trkpt>
      <trkpt lat="48.41976" lon="7.17353">
        <ele>467.4</ele>
        <time>2022-12-25T08:03:26Z</time>
      </trkpt>
      <trkpt lat="48.41992" lon="7.17352">
        <ele>467.4</ele>
        <time>2022-12-25T08:03:29Z</time>
      </trkpt>
      <trkpt lat="48.42004" lon="7.17364">
        <ele>467.2</ele>
        <time>2022-12-25T08:03:32Z</time>
      </trkpt>
      <trkpt lat="48.42008" lon="7.17368">
        <ele>467.2</ele>
        <time>2022-12-25T08:03:33Z</time>
      </trkpt>
      <trkpt lat="48.42023" lon="7.17386">
        <ele>466</ele>
        <time>2022-12-25T08:03:36Z</time>
      </trkpt>
      <trkpt lat="48.42027" lon="7.1739">
        <ele>465.2</ele>
        <time>2022-12-25T08:03:37Z</time>
      </trkpt>
      <trkpt lat="48.42034" lon="7.17395">
        <ele>464.6</ele>
        <time>2022-12-25T08:03:38Z</time>
      </trkpt>
      <trkpt lat="48.42042" lon="7.17402">
        <ele>463.4</ele>
        <time>2022-12-25T08:03:39Z</time>
      </trkpt>
      <trkpt lat="48.42048" lon="7.17412">
        <ele>462</ele>
        <time>2022-12-25T08:03:40Z</time>
      </trkpt>
      <trkpt lat="48.42055" lon="7.17433">
        <ele>460</ele>
        <time>2022-12-25T08:03:42Z</time>
      </trkpt>
      <trkpt lat="48.42061" lon="7.17455">
        <ele>458.2</ele>
        <time>2022-12-25T08:03:44Z</time>
      </trkpt>
      <trkpt lat="48.42067" lon="7.17476">
        <ele>457</ele>
        <time>2022-12-25T08:03:46Z</time>
      </trkpt>
      <trkpt lat="48.42071" lon="7.17501">
        <ele>456.4</ele>
        <time>2022-12-25T08:03:48Z</time>
      </trkpt>
      <trkpt lat="48.42073" lon="7.17512">
        <ele>456.2</ele>
        <time>2022-12-25T08:03:49Z</time>
      </trkpt>
      <trkpt lat="48.42075" lon="7.17522">
        <ele>455.6</ele>
        <time>2022-12-25T08:03:50Z</time>
      </trkpt>
      <trkpt lat="48.4208" lon="7.17554">
        <ele>454.8</ele>
        <time>2022-12-25T08:03:53Z</time>
      </trkpt>
      <trkpt lat="48.42082" lon="7.17561">
        <ele>454.6</ele>
        <time>2022-12-25T08:03:54Z</time>
      </trkpt>
      <trkpt lat="48.42086" lon="7.17578">
        <ele>454.2</ele>
        <time>2022-12-25T08:03:57Z</time>
      </trkpt>
      <trkpt lat="48.42087" lon="7.17608">
        <ele>454</ele>
        <time>2022-12-25T08:04:02Z</time>
      </trkpt>
      <trkpt lat="48.42082" lon="7.17646">
        <ele>454</ele>
        <time>2022-12-25T08:04:06Z</time>
      </trkpt>
      <trkpt lat="48.42076" lon="7.17681">
        <ele>453.4</ele>
        <time>2022-12-25T08:04:09Z</time>
      </trkpt>
      <trkpt lat="48.42075" lon="7.17693">
        <ele>453.4</ele>
        <time>2022-12-25T08:04:10Z</time>
      </trkpt>
      <trkpt lat="48.42068" lon="7.17738">
        <ele>452.2</ele>
        <time>2022-12-25T08:04:13Z</time>
      </trkpt>
      <trkpt lat="48.42067" lon="7.17754">
        <ele>451.6</ele>
        <time>2022-12-25T08:04:14Z</time>
      </trkpt>
      <trkpt lat="48.42064" lon="7.17772">
        <ele>450.8</ele>
        <time>2022-12-25T08:04:15Z</time>
      </trkpt>
      <trkpt lat="48.4206" lon="7.17806">
        <ele>449.4</ele>
        <time>2022-12-25T08:04:17Z</time>
      </trkpt>
      <trkpt lat="48.42057" lon="7.17823">
        <ele>448.8</ele>
        <time>2022-12-25T08:04:18Z</time>
      </trkpt>
      <trkpt lat="48.42053" lon="7.17839">
        <ele>447.4</ele>
        <time>2022-12-25T08:04:19Z</time>
      </trkpt>
      <trkpt lat="48.42047" lon="7.1787">
        <ele>445.4</ele>
        <time>2022-12-25T08:04:21Z</time>
      </trkpt>
      <trkpt lat="48.42044" lon="7.17886">
        <ele>443.8</ele>
        <time>2022-12-25T08:04:22Z</time>
      </trkpt>
      <trkpt lat="48.42041" lon="7.17901">
        <ele>443.4</ele>
        <time>2022-12-25T08:04:23Z</time>
      </trkpt>
      <trkpt lat="48.42038" lon="7.17916">
        <ele>441.6</ele>
        <time>2022-12-25T08:04:24Z</time>
      </trkpt>
      <trkpt lat="48.42031" lon="7.17946">
        <ele>439.4</ele>
        <time>2022-12-25T08:04:26Z</time>
      </trkpt>
      <trkpt lat="48.42028" lon="7.1796">
        <ele>438.6</ele>
        <time>2022-12-25T08:04:27Z</time>
      </trkpt>
      <trkpt lat="48.42027" lon="7.17976">
        <ele>437.8</ele>
        <time>2022-12-25T08:04:28Z</time>
      </trkpt>
      <trkpt lat="48.42027" lon="7.17991">
        <ele>437.4</ele>
        <time>2022-12-25T08:04:29Z</time>
      </trkpt>
      <trkpt lat="48.42027" lon="7.18005">
        <ele>436.2</ele>
        <time>2022-12-25T08:04:30Z</time>
      </trkpt>
      <trkpt lat="48.42029" lon="7.1803">
        <ele>434.6</ele>
        <time>2022-12-25T08:04:32Z</time>
      </trkpt>
      <trkpt lat="48.42029" lon="7.18047">
        <ele>432.4</ele>
        <time>2022-12-25T08:04:34Z</time>
      </trkpt>
      <trkpt lat="48.4203" lon="7.18051">
        <ele>431.6</ele>
        <time>2022-12-25T08:04:35Z</time>
      </trkpt>
      <trkpt lat="48.42031" lon="7.18053">
        <ele>430.2</ele>
        <time>2022-12-25T08:04:36Z</time>
      </trkpt>
      <trkpt lat="48.42031" lon="7.18053">
        <ele>429.6</ele>
        <time>2022-12-25T08:04:37Z</time>
      </trkpt>
      <trkpt lat="48.42001" lon="7.18213">
        <ele>414</ele>
        <time>2022-12-25T08:05:26Z</time>
      </trkpt>
      <trkpt lat="48.42025" lon="7.18263">
        <ele>413.2</ele>
        <time>2022-12-25T08:05:32Z</time>
      </trkpt>
      <trkpt lat="48.4203" lon="7.18271">
        <ele>413</ele>
        <time>2022-12-25T08:05:33Z</time>
      </trkpt>
      <trkpt lat="48.42052" lon="7.18305">
        <ele>411.8</ele>
        <time>2022-12-25T08:05:37Z</time>
      </trkpt>
      <trkpt lat="48.42058" lon="7.18313">
        <ele>411.4</ele>
        <time>2022-12-25T08:05:38Z</time>
      </trkpt>
      <trkpt lat="48.42071" lon="7.18329">
        <ele>410.4</ele>
        <time>2022-12-25T08:05:41Z</time>
      </trkpt>
      <trkpt lat="48.42075" lon="7.18332">
        <ele>410.6</ele>
        <time>2022-12-25T08:05:42Z</time>
      </trkpt>
      <trkpt lat="48.42078" lon="7.18335">
        <ele>410.2</ele>
        <time>2022-12-25T08:05:43Z</time>
      </trkpt>
      <trkpt lat="48.42087" lon="7.18342">
        <ele>409.4</ele>
        <time>2022-12-25T08:05:45Z</time>
      </trkpt>
      <trkpt lat="48.42101" lon="7.18353">
        <ele>408.6</ele>
        <time>2022-12-25T08:05:48Z</time>
      </trkpt>
      <trkpt lat="48.4211" lon="7.18359">
        <ele>408.4</ele>
        <time>2022-12-25T08:05:50Z</time>
      </trkpt>
      <trkpt lat="48.42125" lon="7.18368">
        <ele>408.2</ele>
        <time>2022-12-25T08:05:53Z</time>
      </trkpt>
      <trkpt lat="48.42137" lon="7.18378">
        <ele>408</ele>
        <time>2022-12-25T08:05:55Z</time>
      </trkpt>
      <trkpt lat="48.42156" lon="7.18398">
        <ele>407.4</ele>
        <time>2022-12-25T08:05:59Z</time>
      </trkpt>
      <trkpt lat="48.42158" lon="7.18402">
        <ele>407</ele>
        <time>2022-12-25T08:06:00Z</time>
      </trkpt>
      <trkpt lat="48.42154" lon="7.18413">
        <ele>406</ele>
        <time>2022-12-25T08:06:02Z</time>
      </trkpt>
      <trkpt lat="48.42151" lon="7.18419">
        <ele>405.8</ele>
        <time>2022-12-25T08:06:03Z</time>
      </trkpt>
      <trkpt lat="48.42142" lon="7.18437">
        <ele>404.8</ele>
        <time>2022-12-25T08:06:06Z</time>
      </trkpt>
      <trkpt lat="48.42127" lon="7.18469">
        <ele>404.6</ele>
        <time>2022-12-25T08:06:11Z</time>
      </trkpt>
      <trkpt lat="48.42112" lon="7.18499">
        <ele>404.6</ele>
        <time>2022-12-25T08:06:16Z</time>
      </trkpt>
      <trkpt lat="48.421" lon="7.18517">
        <ele>404.6</ele>
        <time>2022-12-25T08:06:20Z</time>
      </trkpt>
      <trkpt lat="48.42084" lon="7.18543">
        <ele>405.2</ele>
        <time>2022-12-25T08:06:26Z</time>
      </trkpt>
      <trkpt lat="48.42072" lon="7.18563">
        <ele>406</ele>
        <time>2022-12-25T08:06:31Z</time>
      </trkpt>
      <trkpt lat="48.4207" lon="7.18567">
        <ele>406.4</ele>
        <time>2022-12-25T08:06:32Z</time>
      </trkpt>
      <trkpt lat="48.42066" lon="7.18587">
        <ele>406.8</ele>
        <time>2022-12-25T08:06:37Z</time>
      </trkpt>
      <trkpt lat="48.42068" lon="7.18591">
        <ele>407.2</ele>
        <time>2022-12-25T08:06:38Z</time>
      </trkpt>
      <trkpt lat="48.42074" lon="7.18597">
        <ele>407.6</ele>
        <time>2022-12-25T08:06:40Z</time>
      </trkpt>
      <trkpt lat="48.42077" lon="7.18599">
        <ele>407.6</ele>
        <time>2022-12-25T08:06:41Z</time>
      </trkpt>
      <trkpt lat="48.42081" lon="7.18602">
        <ele>407.6</ele>
        <time>2022-12-25T08:06:42Z</time>
      </trkpt>
      <trkpt lat="48.421" lon="7.18613">
        <ele>407.8</ele>
        <time>2022-12-25T08:06:46Z</time>
      </trkpt>
      <trkpt lat="48.42104" lon="7.18615">
        <ele>407.8</ele>
        <time>2022-12-25T08:06:47Z</time>
      </trkpt>
      <trkpt lat="48.42122" lon="7.18628">
        <ele>407.6</ele>
        <time>2022-12-25T08:06:51Z</time>
      </trkpt>
      <trkpt lat="48.42126" lon="7.1863">
        <ele>407.6</ele>
        <time>2022-12-25T08:06:52Z</time>
      </trkpt>
      <trkpt lat="48.42133" lon="7.18636">
        <ele>407.6</ele>
        <time>2022-12-25T08:06:54Z</time>
      </trkpt>
      <trkpt lat="48.42137" lon="7.18639">
        <ele>407.6</ele>
        <time>2022-12-25T08:06:55Z</time>
      </trkpt>
      <trkpt lat="48.42149" lon="7.18651">
        <ele>408</ele>
        <time>2022-12-25T08:07:00Z</time>
      </trkpt>
      <trkpt lat="48.42157" lon="7.18655">
        <ele>408.4</ele>
        <time>2022-12-25T08:07:05Z</time>
      </trkpt>
      <trkpt lat="48.42174" lon="7.18655">
        <ele>409.6</ele>
        <time>2022-12-25T08:07:11Z</time>
      </trkpt>
      <trkpt lat="48.42196" lon="7.1865">
        <ele>410.6</ele>
        <time>2022-12-25T08:07:17Z</time>
      </trkpt>
      <trkpt lat="48.42212" lon="7.18646">
        <ele>410.6</ele>
        <time>2022-12-25T08:07:21Z</time>
      </trkpt>
      <trkpt lat="48.42226" lon="7.18643">
        <ele>410.8</ele>
        <time>2022-12-25T08:07:24Z</time>
      </trkpt>
      <trkpt lat="48.42263" lon="7.18636">
        <ele>410.8</ele>
        <time>2022-12-25T08:07:32Z</time>
      </trkpt>
      <trkpt lat="48.42268" lon="7.18636">
        <ele>410.8</ele>
        <time>2022-12-25T08:07:33Z</time>
      </trkpt>
      <trkpt lat="48.42293" lon="7.18645">
        <ele>410.8</ele>
        <time>2022-12-25T08:07:38Z</time>
      </trkpt>
      <trkpt lat="48.42323" lon="7.18664">
        <ele>411</ele>
        <time>2022-12-25T08:07:45Z</time>
      </trkpt>
      <trkpt lat="48.4236" lon="7.18691">
        <ele>411.6</ele>
        <time>2022-12-25T08:07:54Z</time>
      </trkpt>
      <trkpt lat="48.42376" lon="7.18704">
        <ele>411.6</ele>
        <time>2022-12-25T08:07:58Z</time>
      </trkpt>
      <trkpt lat="48.42397" lon="7.18721">
        <ele>411.8</ele>
        <time>2022-12-25T08:08:03Z</time>
      </trkpt>
      <trkpt lat="48.42422" lon="7.18741">
        <ele>412.2</ele>
        <time>2022-12-25T08:08:09Z</time>
      </trkpt>
      <trkpt lat="48.4243" lon="7.18748">
        <ele>412.4</ele>
        <time>2022-12-25T08:08:11Z</time>
      </trkpt>
      <trkpt lat="48.42434" lon="7.18751">
        <ele>412.8</ele>
        <time>2022-12-25T08:08:12Z</time>
      </trkpt>
      <trkpt lat="48.42443" lon="7.18756">
        <ele>413</ele>
        <time>2022-12-25T08:08:14Z</time>
      </trkpt>
      <trkpt lat="48.42454" lon="7.18766">
        <ele>413.4</ele>
        <time>2022-12-25T08:08:17Z</time>
      </trkpt>
      <trkpt lat="48.42458" lon="7.18769">
        <ele>413.6</ele>
        <time>2022-12-25T08:08:18Z</time>
      </trkpt>
      <trkpt lat="48.42466" lon="7.18775">
        <ele>413.8</ele>
        <time>2022-12-25T08:08:20Z</time>
      </trkpt>
      <trkpt lat="48.42492" lon="7.18791">
        <ele>414.4</ele>
        <time>2022-12-25T08:08:26Z</time>
      </trkpt>
      <trkpt lat="48.42496" lon="7.18793">
        <ele>414.4</ele>
        <time>2022-12-25T08:08:27Z</time>
      </trkpt>
      <trkpt lat="48.42536" lon="7.18801">
        <ele>414.6</ele>
        <time>2022-12-25T08:08:35Z</time>
      </trkpt>
      <trkpt lat="48.42565" lon="7.18806">
        <ele>414.6</ele>
        <time>2022-12-25T08:08:41Z</time>
      </trkpt>
      <trkpt lat="48.4257" lon="7.18808">
        <ele>414.6</ele>
        <time>2022-12-25T08:08:42Z</time>
      </trkpt>
      <trkpt lat="48.42589" lon="7.18819">
        <ele>414.6</ele>
        <time>2022-12-25T08:08:46Z</time>
      </trkpt>
      <trkpt lat="48.42608" lon="7.18831">
        <ele>414.6</ele>
        <time>2022-12-25T08:08:50Z</time>
      </trkpt>
      <trkpt lat="48.42647" lon="7.18851">
        <ele>414.4</ele>
        <time>2022-12-25T08:08:58Z</time>
      </trkpt>
      <trkpt lat="48.42656" lon="7.1885">
        <ele>414.4</ele>
        <time>2022-12-25T08:09:00Z</time>
      </trkpt>
      <trkpt lat="48.42659" lon="7.18848">
        <ele>414.4</ele>
        <time>2022-12-25T08:09:01Z</time>
      </trkpt>
      <trkpt lat="48.42672" lon="7.18841">
        <ele>414.2</ele>
        <time>2022-12-25T08:09:04Z</time>
      </trkpt>
      <trkpt lat="48.42685" lon="7.18835">
        <ele>414</ele>
        <time>2022-12-25T08:09:06Z</time>
      </trkpt>
      <trkpt lat="48.42702" lon="7.18826">
        <ele>413.6</ele>
        <time>2022-12-25T08:09:08Z</time>
      </trkpt>
      <trkpt lat="48.42711" lon="7.1882">
        <ele>413.4</ele>
        <time>2022-12-25T08:09:09Z</time>
      </trkpt>
      <trkpt lat="48.42719" lon="7.18812">
        <ele>412.8</ele>
        <time>2022-12-25T08:09:10Z</time>
      </trkpt>
      <trkpt lat="48.42732" lon="7.18794">
        <ele>411.8</ele>
        <time>2022-12-25T08:09:12Z</time>
      </trkpt>
      <trkpt lat="48.42738" lon="7.18783">
        <ele>411.4</ele>
        <time>2022-12-25T08:09:13Z</time>
      </trkpt>
      <trkpt lat="48.42744" lon="7.18772">
        <ele>410.8</ele>
        <time>2022-12-25T08:09:14Z</time>
      </trkpt>
      <trkpt lat="48.42754" lon="7.18751">
        <ele>410.2</ele>
        <time>2022-12-25T08:09:16Z</time>
      </trkpt>
      <trkpt lat="48.42759" lon="7.18741">
        <ele>410</ele>
        <time>2022-12-25T08:09:17Z</time>
      </trkpt>
      <trkpt lat="48.42764" lon="7.18732">
        <ele>409.6</ele>
        <time>2022-12-25T08:09:18Z</time>
      </trkpt>
      <trkpt lat="48.42774" lon="7.18717">
        <ele>409</ele>
        <time>2022-12-25T08:09:20Z</time>
      </trkpt>
      <trkpt lat="48.42779" lon="7.1871">
        <ele>409</ele>
        <time>2022-12-25T08:09:21Z</time>
      </trkpt>
      <trkpt lat="48.42785" lon="7.18703">
        <ele>409</ele>
        <time>2022-12-25T08:09:22Z</time>
      </trkpt>
      <trkpt lat="48.42797" lon="7.18692">
        <ele>408.8</ele>
        <time>2022-12-25T08:09:24Z</time>
      </trkpt>
      <trkpt lat="48.42833" lon="7.18655">
        <ele>408.8</ele>
        <time>2022-12-25T08:09:30Z</time>
      </trkpt>
      <trkpt lat="48.4285" lon="7.1864">
        <ele>408.8</ele>
        <time>2022-12-25T08:09:33Z</time>
      </trkpt>
      <trkpt lat="48.42868" lon="7.18624">
        <ele>408.8</ele>
        <time>2022-12-25T08:09:36Z</time>
      </trkpt>
      <trkpt lat="48.42887" lon="7.18606">
        <ele>408.6</ele>
        <time>2022-12-25T08:09:39Z</time>
      </trkpt>
      <trkpt lat="48.429" lon="7.18596">
        <ele>408.6</ele>
        <time>2022-12-25T08:09:41Z</time>
      </trkpt>
      <trkpt lat="48.42931" lon="7.18572">
        <ele>407.6</ele>
        <time>2022-12-25T08:09:45Z</time>
      </trkpt>
      <trkpt lat="48.4294" lon="7.18566">
        <ele>407.4</ele>
        <time>2022-12-25T08:09:46Z</time>
      </trkpt>
      <trkpt lat="48.42967" lon="7.18548">
        <ele>406.6</ele>
        <time>2022-12-25T08:09:49Z</time>
      </trkpt>
      <trkpt lat="48.42976" lon="7.18544">
        <ele>406</ele>
        <time>2022-12-25T08:09:50Z</time>
      </trkpt>
      <trkpt lat="48.42986" lon="7.1854">
        <ele>405</ele>
        <time>2022-12-25T08:09:51Z</time>
      </trkpt>
      <trkpt lat="48.43018" lon="7.18533">
        <ele>404</ele>
        <time>2022-12-25T08:09:54Z</time>
      </trkpt>
      <trkpt lat="48.43029" lon="7.18533">
        <ele>403.4</ele>
        <time>2022-12-25T08:09:55Z</time>
      </trkpt>
      <trkpt lat="48.4304" lon="7.18533">
        <ele>402.8</ele>
        <time>2022-12-25T08:09:56Z</time>
      </trkpt>
      <trkpt lat="48.43062" lon="7.18532">
        <ele>401.6</ele>
        <time>2022-12-25T08:09:58Z</time>
      </trkpt>
      <trkpt lat="48.43073" lon="7.1853">
        <ele>400.4</ele>
        <time>2022-12-25T08:09:59Z</time>
      </trkpt>
      <trkpt lat="48.43095" lon="7.18526">
        <ele>399.2</ele>
        <time>2022-12-25T08:10:01Z</time>
      </trkpt>
      <trkpt lat="48.43117" lon="7.18524">
        <ele>397.8</ele>
        <time>2022-12-25T08:10:03Z</time>
      </trkpt>
      <trkpt lat="48.43138" lon="7.18523">
        <ele>396.2</ele>
        <time>2022-12-25T08:10:05Z</time>
      </trkpt>
      <trkpt lat="48.43159" lon="7.1852">
        <ele>395</ele>
        <time>2022-12-25T08:10:07Z</time>
      </trkpt>
      <trkpt lat="48.4317" lon="7.18516">
        <ele>394.4</ele>
        <time>2022-12-25T08:10:08Z</time>
      </trkpt>
      <trkpt lat="48.4318" lon="7.18512">
        <ele>394</ele>
        <time>2022-12-25T08:10:09Z</time>
      </trkpt>
      <trkpt lat="48.43191" lon="7.18507">
        <ele>393.4</ele>
        <time>2022-12-25T08:10:10Z</time>
      </trkpt>
      <trkpt lat="48.43213" lon="7.18495">
        <ele>392.6</ele>
        <time>2022-12-25T08:10:12Z</time>
      </trkpt>
      <trkpt lat="48.4322" lon="7.18489">
        <ele>392.4</ele>
        <time>2022-12-25T08:10:13Z</time>
      </trkpt>
      <trkpt lat="48.43229" lon="7.1848">
        <ele>392</ele>
        <time>2022-12-25T08:10:14Z</time>
      </trkpt>
      <trkpt lat="48.43252" lon="7.18444">
        <ele>390.8</ele>
        <time>2022-12-25T08:10:17Z</time>
      </trkpt>
      <trkpt lat="48.43286" lon="7.18386">
        <ele>389.2</ele>
        <time>2022-12-25T08:10:22Z</time>
      </trkpt>
      <trkpt lat="48.43291" lon="7.18377">
        <ele>388.8</ele>
        <time>2022-12-25T08:10:23Z</time>
      </trkpt>
      <trkpt lat="48.43305" lon="7.18356">
        <ele>387.8</ele>
        <time>2022-12-25T08:10:25Z</time>
      </trkpt>
      <trkpt lat="48.43313" lon="7.18345">
        <ele>387.4</ele>
        <time>2022-12-25T08:10:27Z</time>
      </trkpt>
      <trkpt lat="48.43316" lon="7.18341">
        <ele>386.6</ele>
        <time>2022-12-25T08:10:28Z</time>
      </trkpt>
      <trkpt lat="48.43318" lon="7.18338">
        <ele>386.2</ele>
        <time>2022-12-25T08:10:29Z</time>
      </trkpt>
      <trkpt lat="48.43321" lon="7.18335">
        <ele>385.6</ele>
        <time>2022-12-25T08:10:30Z</time>
      </trkpt>
      <trkpt lat="48.43324" lon="7.18333">
        <ele>385.2</ele>
        <time>2022-12-25T08:10:31Z</time>
      </trkpt>
      <trkpt lat="48.43331" lon="7.18332">
        <ele>384.8</ele>
        <time>2022-12-25T08:10:33Z</time>
      </trkpt>
      <trkpt lat="48.43337" lon="7.18333">
        <ele>384.6</ele>
        <time>2022-12-25T08:10:34Z</time>
      </trkpt>
      <trkpt lat="48.43341" lon="7.18335">
        <ele>384.6</ele>
        <time>2022-12-25T08:10:35Z</time>
      </trkpt>
      <trkpt lat="48.43348" lon="7.18342">
        <ele>384.4</ele>
        <time>2022-12-25T08:10:37Z</time>
      </trkpt>
      <trkpt lat="48.43352" lon="7.18349">
        <ele>384.2</ele>
        <time>2022-12-25T08:10:38Z</time>
      </trkpt>
      <trkpt lat="48.43357" lon="7.18358">
        <ele>384</ele>
        <time>2022-12-25T08:10:40Z</time>
      </trkpt>
      <trkpt lat="48.43369" lon="7.18376">
        <ele>384</ele>
        <time>2022-12-25T08:10:44Z</time>
      </trkpt>
      <trkpt lat="48.43382" lon="7.18396">
        <ele>384</ele>
        <time>2022-12-25T08:10:47Z</time>
      </trkpt>
      <trkpt lat="48.4339" lon="7.18417">
        <ele>384.2</ele>
        <time>2022-12-25T08:10:50Z</time>
      </trkpt>
      <trkpt lat="48.43403" lon="7.18459">
        <ele>385</ele>
        <time>2022-12-25T08:10:56Z</time>
      </trkpt>
      <trkpt lat="48.43405" lon="7.18465">
        <ele>385.2</ele>
        <time>2022-12-25T08:10:57Z</time>
      </trkpt>
      <trkpt lat="48.43417" lon="7.18496">
        <ele>385.8</ele>
        <time>2022-12-25T08:11:01Z</time>
      </trkpt>
      <trkpt lat="48.43422" lon="7.18512">
        <ele>386</ele>
        <time>2022-12-25T08:11:03Z</time>
      </trkpt>
      <trkpt lat="48.43427" lon="7.18531">
        <ele>386.4</ele>
        <time>2022-12-25T08:11:06Z</time>
      </trkpt>
      <trkpt lat="48.4343" lon="7.18537">
        <ele>386.6</ele>
        <time>2022-12-25T08:11:07Z</time>
      </trkpt>
      <trkpt lat="48.43436" lon="7.18544">
        <ele>386.8</ele>
        <time>2022-12-25T08:11:09Z</time>
      </trkpt>
      <trkpt lat="48.43442" lon="7.18547">
        <ele>387</ele>
        <time>2022-12-25T08:11:11Z</time>
      </trkpt>
      <trkpt lat="48.43461" lon="7.18559">
        <ele>387.4</ele>
        <time>2022-12-25T08:11:15Z</time>
      </trkpt>
      <trkpt lat="48.43467" lon="7.18563">
        <ele>387.6</ele>
        <time>2022-12-25T08:11:16Z</time>
      </trkpt>
      <trkpt lat="48.43475" lon="7.18569">
        <ele>387.8</ele>
        <time>2022-12-25T08:11:18Z</time>
      </trkpt>
      <trkpt lat="48.43488" lon="7.18588">
        <ele>387.8</ele>
        <time>2022-12-25T08:11:21Z</time>
      </trkpt>
      <trkpt lat="48.43495" lon="7.18598">
        <ele>388</ele>
        <time>2022-12-25T08:11:22Z</time>
      </trkpt>
      <trkpt lat="48.43517" lon="7.18641">
        <ele>388.2</ele>
        <time>2022-12-25T08:11:28Z</time>
      </trkpt>
      <trkpt lat="48.43526" lon="7.18654">
        <ele>388.2</ele>
        <time>2022-12-25T08:11:30Z</time>
      </trkpt>
      <trkpt lat="48.43535" lon="7.18666">
        <ele>388.2</ele>
        <time>2022-12-25T08:11:32Z</time>
      </trkpt>
      <trkpt lat="48.43553" lon="7.18687">
        <ele>388</ele>
        <time>2022-12-25T08:11:36Z</time>
      </trkpt>
      <trkpt lat="48.43567" lon="7.18701">
        <ele>387.8</ele>
        <time>2022-12-25T08:11:39Z</time>
      </trkpt>
      <trkpt lat="48.43582" lon="7.18711">
        <ele>387.8</ele>
        <time>2022-12-25T08:11:42Z</time>
      </trkpt>
      <trkpt lat="48.43627" lon="7.18744">
        <ele>387.4</ele>
        <time>2022-12-25T08:11:50Z</time>
      </trkpt>
      <trkpt lat="48.43658" lon="7.18764">
        <ele>386.8</ele>
        <time>2022-12-25T08:11:56Z</time>
      </trkpt>
      <trkpt lat="48.43686" lon="7.18768">
        <ele>386.2</ele>
        <time>2022-12-25T08:12:00Z</time>
      </trkpt>
      <trkpt lat="48.43693" lon="7.18767">
        <ele>386</ele>
        <time>2022-12-25T08:12:01Z</time>
      </trkpt>
      <trkpt lat="48.437" lon="7.18767">
        <ele>385.8</ele>
        <time>2022-12-25T08:12:02Z</time>
      </trkpt>
      <trkpt lat="48.4372" lon="7.18769">
        <ele>385.2</ele>
        <time>2022-12-25T08:12:05Z</time>
      </trkpt>
      <trkpt lat="48.43726" lon="7.18771">
        <ele>385.2</ele>
        <time>2022-12-25T08:12:06Z</time>
      </trkpt>
      <trkpt lat="48.43733" lon="7.18774">
        <ele>385.2</ele>
        <time>2022-12-25T08:12:07Z</time>
      </trkpt>
      <trkpt lat="48.43738" lon="7.18777">
        <ele>385.2</ele>
        <time>2022-12-25T08:12:08Z</time>
      </trkpt>
      <trkpt lat="48.43743" lon="7.1878">
        <ele>385.2</ele>
        <time>2022-12-25T08:12:09Z</time>
      </trkpt>
      <trkpt lat="48.43763" lon="7.18789">
        <ele>385.2</ele>
        <time>2022-12-25T08:12:13Z</time>
      </trkpt>
      <trkpt lat="48.43775" lon="7.18793">
        <ele>385.2</ele>
        <time>2022-12-25T08:12:15Z</time>
      </trkpt>
      <trkpt lat="48.43781" lon="7.18795">
        <ele>385.2</ele>
        <time>2022-12-25T08:12:16Z</time>
      </trkpt>
      <trkpt lat="48.43795" lon="7.18796">
        <ele>385.4</ele>
        <time>2022-12-25T08:12:18Z</time>
      </trkpt>
      <trkpt lat="48.43799" lon="7.18796">
        <ele>385.4</ele>
        <time>2022-12-25T08:12:19Z</time>
      </trkpt>
      <trkpt lat="48.43805" lon="7.18794">
        <ele>385.4</ele>
        <time>2022-12-25T08:12:20Z</time>
      </trkpt>
      <trkpt lat="48.43824" lon="7.1879">
        <ele>385.6</ele>
        <time>2022-12-25T08:12:23Z</time>
      </trkpt>
      <trkpt lat="48.43829" lon="7.18788">
        <ele>385.6</ele>
        <time>2022-12-25T08:12:24Z</time>
      </trkpt>
      <trkpt lat="48.43842" lon="7.18792">
        <ele>385.6</ele>
        <time>2022-12-25T08:12:27Z</time>
      </trkpt>
      <trkpt lat="48.43847" lon="7.18796">
        <ele>385.8</ele>
        <time>2022-12-25T08:12:28Z</time>
      </trkpt>
      <trkpt lat="48.4386" lon="7.18809">
        <ele>386</ele>
        <time>2022-12-25T08:12:31Z</time>
      </trkpt>
      <trkpt lat="48.43863" lon="7.1881">
        <ele>385.8</ele>
        <time>2022-12-25T08:12:32Z</time>
      </trkpt>
      <trkpt lat="48.43865" lon="7.1881">
        <ele>385.6</ele>
        <time>2022-12-25T08:12:33Z</time>
      </trkpt>
      <trkpt lat="48.43865" lon="7.1881">
        <ele>385</ele>
        <time>2022-12-25T08:13:00Z</time>
      </trkpt>
      <trkpt lat="48.43865" lon="7.1881">
        <ele>385</ele>
        <time>2022-12-25T08:13:01Z</time>
      </trkpt>
      <trkpt lat="48.43865" lon="7.1881">
        <ele>385.2</ele>
        <time>2022-12-25T08:13:04Z</time>
      </trkpt>
      <trkpt lat="48.43865" lon="7.1881">
        <ele>385.2</ele>
        <time>2022-12-25T08:13:09Z</time>
      </trkpt>
      <trkpt lat="48.43871" lon="7.18813">
        <ele>385.4</ele>
        <time>2022-12-25T08:13:12Z</time>
      </trkpt>
      <trkpt lat="48.43879" lon="7.18818">
        <ele>385.4</ele>
        <time>2022-12-25T08:13:16Z</time>
      </trkpt>
      <trkpt lat="48.43887" lon="7.18822">
        <ele>385.4</ele>
        <time>2022-12-25T08:13:20Z</time>
      </trkpt>
      <trkpt lat="48.43892" lon="7.18824">
        <ele>385.4</ele>
        <time>2022-12-25T08:13:23Z</time>
      </trkpt>
      <trkpt lat="48.43894" lon="7.18826">
        <ele>385.6</ele>
        <time>2022-12-25T08:13:27Z</time>
      </trkpt>
      <trkpt lat="48.43894" lon="7.18826">
        <ele>385.6</ele>
        <time>2022-12-25T08:13:34Z</time>
      </trkpt>
      <trkpt lat="48.43897" lon="7.1883">
        <ele>385.8</ele>
        <time>2022-12-25T08:13:40Z</time>
      </trkpt>
      <trkpt lat="48.43898" lon="7.1883">
        <ele>385.8</ele>
        <time>2022-12-25T08:13:47Z</time>
      </trkpt>
      <trkpt lat="48.4391" lon="7.18835">
        <ele>385.6</ele>
        <time>2022-12-25T08:13:54Z</time>
      </trkpt>
      <trkpt lat="48.43923" lon="7.18844">
        <ele>385.6</ele>
        <time>2022-12-25T08:13:58Z</time>
      </trkpt>
      <trkpt lat="48.4393" lon="7.1885">
        <ele>385.6</ele>
        <time>2022-12-25T08:14:00Z</time>
      </trkpt>
      <trkpt lat="48.43935" lon="7.18857">
        <ele>385.6</ele>
        <time>2022-12-25T08:14:02Z</time>
      </trkpt>
      <trkpt lat="48.43938" lon="7.1886">
        <ele>385.6</ele>
        <time>2022-12-25T08:14:03Z</time>
      </trkpt>
      <trkpt lat="48.4394" lon="7.18864">
        <ele>385.6</ele>
        <time>2022-12-25T08:14:04Z</time>
      </trkpt>
      <trkpt lat="48.43947" lon="7.1887">
        <ele>385.4</ele>
        <time>2022-12-25T08:14:06Z</time>
      </trkpt>
      <trkpt lat="48.43953" lon="7.18872">
        <ele>385.4</ele>
        <time>2022-12-25T08:14:07Z</time>
      </trkpt>
      <trkpt lat="48.43959" lon="7.18872">
        <ele>385.4</ele>
        <time>2022-12-25T08:14:08Z</time>
      </trkpt>
      <trkpt lat="48.43969" lon="7.18872">
        <ele>385.4</ele>
        <time>2022-12-25T08:14:10Z</time>
      </trkpt>
      <trkpt lat="48.43975" lon="7.1887">
        <ele>385.4</ele>
        <time>2022-12-25T08:14:11Z</time>
      </trkpt>
      <trkpt lat="48.43992" lon="7.18866">
        <ele>385</ele>
        <time>2022-12-25T08:14:14Z</time>
      </trkpt>
      <trkpt lat="48.44007" lon="7.18861">
        <ele>384.4</ele>
        <time>2022-12-25T08:14:16Z</time>
      </trkpt>
      <trkpt lat="48.44017" lon="7.1886">
        <ele>384</ele>
        <time>2022-12-25T08:14:17Z</time>
      </trkpt>
      <trkpt lat="48.44027" lon="7.18861">
        <ele>383.8</ele>
        <time>2022-12-25T08:14:18Z</time>
      </trkpt>
      <trkpt lat="48.44041" lon="7.18867">
        <ele>383.2</ele>
        <time>2022-12-25T08:14:20Z</time>
      </trkpt>
      <trkpt lat="48.44058" lon="7.18874">
        <ele>382.8</ele>
        <time>2022-12-25T08:14:22Z</time>
      </trkpt>
      <trkpt lat="48.44066" lon="7.18876">
        <ele>382.4</ele>
        <time>2022-12-25T08:14:23Z</time>
      </trkpt>
      <trkpt lat="48.44083" lon="7.1888">
        <ele>381.6</ele>
        <time>2022-12-25T08:14:25Z</time>
      </trkpt>
      <trkpt lat="48.44119" lon="7.18896">
        <ele>380.6</ele>
        <time>2022-12-25T08:14:29Z</time>
      </trkpt>
      <trkpt lat="48.44136" lon="7.1891">
        <ele>379.8</ele>
        <time>2022-12-25T08:14:31Z</time>
      </trkpt>
      <trkpt lat="48.44143" lon="7.18919">
        <ele>379.2</ele>
        <time>2022-12-25T08:14:32Z</time>
      </trkpt>
      <trkpt lat="48.44149" lon="7.18928">
        <ele>379</ele>
        <time>2022-12-25T08:14:33Z</time>
      </trkpt>
      <trkpt lat="48.44168" lon="7.18961">
        <ele>377.6</ele>
        <time>2022-12-25T08:14:36Z</time>
      </trkpt>
      <trkpt lat="48.44185" lon="7.19">
        <ele>376.6</ele>
        <time>2022-12-25T08:14:39Z</time>
      </trkpt>
      <trkpt lat="48.44192" lon="7.19012">
        <ele>376.2</ele>
        <time>2022-12-25T08:14:40Z</time>
      </trkpt>
      <trkpt lat="48.44202" lon="7.19039">
        <ele>375</ele>
        <time>2022-12-25T08:14:42Z</time>
      </trkpt>
      <trkpt lat="48.44208" lon="7.19051">
        <ele>374.4</ele>
        <time>2022-12-25T08:14:43Z</time>
      </trkpt>
      <trkpt lat="48.44214" lon="7.19062">
        <ele>373.6</ele>
        <time>2022-12-25T08:14:44Z</time>
      </trkpt>
      <trkpt lat="48.44239" lon="7.19104">
        <ele>372.2</ele>
        <time>2022-12-25T08:14:48Z</time>
      </trkpt>
      <trkpt lat="48.44244" lon="7.19116">
        <ele>372</ele>
        <time>2022-12-25T08:14:49Z</time>
      </trkpt>
      <trkpt lat="48.44261" lon="7.19149">
        <ele>371</ele>
        <time>2022-12-25T08:14:52Z</time>
      </trkpt>
      <trkpt lat="48.44267" lon="7.19158">
        <ele>371</ele>
        <time>2022-12-25T08:14:53Z</time>
      </trkpt>
      <trkpt lat="48.44273" lon="7.19166">
        <ele>370.8</ele>
        <time>2022-12-25T08:14:54Z</time>
      </trkpt>
      <trkpt lat="48.44292" lon="7.19192">
        <ele>370</ele>
        <time>2022-12-25T08:14:57Z</time>
      </trkpt>
      <trkpt lat="48.44307" lon="7.19232">
        <ele>369.2</ele>
        <time>2022-12-25T08:15:01Z</time>
      </trkpt>
      <trkpt lat="48.44314" lon="7.19251">
        <ele>368.8</ele>
        <time>2022-12-25T08:15:03Z</time>
      </trkpt>
      <trkpt lat="48.44326" lon="7.19275">
        <ele>368.4</ele>
        <time>2022-12-25T08:15:06Z</time>
      </trkpt>
      <trkpt lat="48.44345" lon="7.19303">
        <ele>367.8</ele>
        <time>2022-12-25T08:15:10Z</time>
      </trkpt>
      <trkpt lat="48.44349" lon="7.19309">
        <ele>367.8</ele>
        <time>2022-12-25T08:15:11Z</time>
      </trkpt>
      <trkpt lat="48.44359" lon="7.19329">
        <ele>367.8</ele>
        <time>2022-12-25T08:15:14Z</time>
      </trkpt>
      <trkpt lat="48.44361" lon="7.19336">
        <ele>367.8</ele>
        <time>2022-12-25T08:15:15Z</time>
      </trkpt>
      <trkpt lat="48.44364" lon="7.1935">
        <ele>368</ele>
        <time>2022-12-25T08:15:17Z</time>
      </trkpt>
      <trkpt lat="48.44369" lon="7.19365">
        <ele>368.2</ele>
        <time>2022-12-25T08:15:19Z</time>
      </trkpt>
      <trkpt lat="48.44373" lon="7.19382">
        <ele>368.2</ele>
        <time>2022-12-25T08:15:21Z</time>
      </trkpt>
      <trkpt lat="48.44377" lon="7.1939">
        <ele>368.4</ele>
        <time>2022-12-25T08:15:22Z</time>
      </trkpt>
      <trkpt lat="48.44383" lon="7.19401">
        <ele>368.2</ele>
        <time>2022-12-25T08:15:23Z</time>
      </trkpt>
      <trkpt lat="48.44395" lon="7.19432">
        <ele>368.2</ele>
        <time>2022-12-25T08:15:26Z</time>
      </trkpt>
      <trkpt lat="48.44413" lon="7.19469">
        <ele>368</ele>
        <time>2022-12-25T08:15:30Z</time>
      </trkpt>
      <trkpt lat="48.44419" lon="7.19485">
        <ele>368</ele>
        <time>2022-12-25T08:15:32Z</time>
      </trkpt>
      <trkpt lat="48.44429" lon="7.19519">
        <ele>368</ele>
        <time>2022-12-25T08:15:37Z</time>
      </trkpt>
      <trkpt lat="48.44431" lon="7.19526">
        <ele>368</ele>
        <time>2022-12-25T08:15:38Z</time>
      </trkpt>
      <trkpt lat="48.44436" lon="7.19541">
        <ele>368.2</ele>
        <time>2022-12-25T08:15:40Z</time>
      </trkpt>
      <trkpt lat="48.44441" lon="7.19551">
        <ele>368.2</ele>
        <time>2022-12-25T08:15:42Z</time>
      </trkpt>
      <trkpt lat="48.44453" lon="7.19563">
        <ele>368.4</ele>
        <time>2022-12-25T08:15:45Z</time>
      </trkpt>
      <trkpt lat="48.44457" lon="7.19567">
        <ele>368.4</ele>
        <time>2022-12-25T08:15:46Z</time>
      </trkpt>
      <trkpt lat="48.44473" lon="7.19588">
        <ele>368.8</ele>
        <time>2022-12-25T08:15:50Z</time>
      </trkpt>
      <trkpt lat="48.44477" lon="7.19602">
        <ele>369</ele>
        <time>2022-12-25T08:15:52Z</time>
      </trkpt>
      <trkpt lat="48.4448" lon="7.19616">
        <ele>369.2</ele>
        <time>2022-12-25T08:15:54Z</time>
      </trkpt>
      <trkpt lat="48.44484" lon="7.19629">
        <ele>369.4</ele>
        <time>2022-12-25T08:15:56Z</time>
      </trkpt>
      <trkpt lat="48.44488" lon="7.19634">
        <ele>369.4</ele>
        <time>2022-12-25T08:15:57Z</time>
      </trkpt>
      <trkpt lat="48.44494" lon="7.19643">
        <ele>369.6</ele>
        <time>2022-12-25T08:15:59Z</time>
      </trkpt>
      <trkpt lat="48.44499" lon="7.19653">
        <ele>369.8</ele>
        <time>2022-12-25T08:16:01Z</time>
      </trkpt>
      <trkpt lat="48.44506" lon="7.19662">
        <ele>369.8</ele>
        <time>2022-12-25T08:16:03Z</time>
      </trkpt>
      <trkpt lat="48.44514" lon="7.19674">
        <ele>370.2</ele>
        <time>2022-12-25T08:16:06Z</time>
      </trkpt>
      <trkpt lat="48.44517" lon="7.19677">
        <ele>370.4</ele>
        <time>2022-12-25T08:16:07Z</time>
      </trkpt>
      <trkpt lat="48.44524" lon="7.19683">
        <ele>370.6</ele>
        <time>2022-12-25T08:16:09Z</time>
      </trkpt>
      <trkpt lat="48.44531" lon="7.1969">
        <ele>370.8</ele>
        <time>2022-12-25T08:16:11Z</time>
      </trkpt>
      <trkpt lat="48.44537" lon="7.19698">
        <ele>371</ele>
        <time>2022-12-25T08:16:13Z</time>
      </trkpt>
      <trkpt lat="48.44539" lon="7.19702">
        <ele>371</ele>
        <time>2022-12-25T08:16:14Z</time>
      </trkpt>
      <trkpt lat="48.44546" lon="7.19716">
        <ele>371</ele>
        <time>2022-12-25T08:16:17Z</time>
      </trkpt>
      <trkpt lat="48.44548" lon="7.19727">
        <ele>371</ele>
        <time>2022-12-25T08:16:19Z</time>
      </trkpt>
      <trkpt lat="48.4455" lon="7.19737">
        <ele>371.2</ele>
        <time>2022-12-25T08:16:21Z</time>
      </trkpt>
      <trkpt lat="48.44554" lon="7.19752">
        <ele>371.4</ele>
        <time>2022-12-25T08:16:24Z</time>
      </trkpt>
      <trkpt lat="48.44568" lon="7.19778">
        <ele>372</ele>
        <time>2022-12-25T08:16:29Z</time>
      </trkpt>
      <trkpt lat="48.44579" lon="7.1979">
        <ele>372</ele>
        <time>2022-12-25T08:16:32Z</time>
      </trkpt>
      <trkpt lat="48.4459" lon="7.198">
        <ele>372.2</ele>
        <time>2022-12-25T08:16:35Z</time>
      </trkpt>
      <trkpt lat="48.44603" lon="7.19811">
        <ele>372.2</ele>
        <time>2022-12-25T08:16:38Z</time>
      </trkpt>
      <trkpt lat="48.4461" lon="7.19822">
        <ele>372.2</ele>
        <time>2022-12-25T08:16:40Z</time>
      </trkpt>
      <trkpt lat="48.44613" lon="7.19828">
        <ele>372.2</ele>
        <time>2022-12-25T08:16:41Z</time>
      </trkpt>
      <trkpt lat="48.44619" lon="7.1984">
        <ele>372.2</ele>
        <time>2022-12-25T08:16:43Z</time>
      </trkpt>
      <trkpt lat="48.44628" lon="7.19853">
        <ele>372.2</ele>
        <time>2022-12-25T08:16:45Z</time>
      </trkpt>
      <trkpt lat="48.4464" lon="7.19871">
        <ele>372.2</ele>
        <time>2022-12-25T08:16:48Z</time>
      </trkpt>
      <trkpt lat="48.44652" lon="7.19877">
        <ele>372.2</ele>
        <time>2022-12-25T08:16:50Z</time>
      </trkpt>
      <trkpt lat="48.44689" lon="7.1989">
        <ele>371.8</ele>
        <time>2022-12-25T08:16:56Z</time>
      </trkpt>
      <trkpt lat="48.44695" lon="7.19892">
        <ele>371.8</ele>
        <time>2022-12-25T08:16:57Z</time>
      </trkpt>
      <trkpt lat="48.44707" lon="7.19894">
        <ele>371.6</ele>
        <time>2022-12-25T08:16:59Z</time>
      </trkpt>
      <trkpt lat="48.44712" lon="7.19894">
        <ele>371.6</ele>
        <time>2022-12-25T08:17:00Z</time>
      </trkpt>
      <trkpt lat="48.44724" lon="7.19891">
        <ele>371.4</ele>
        <time>2022-12-25T08:17:02Z</time>
      </trkpt>
      <trkpt lat="48.44735" lon="7.19887">
        <ele>371.2</ele>
        <time>2022-12-25T08:17:04Z</time>
      </trkpt>
      <trkpt lat="48.4474" lon="7.19884">
        <ele>371.2</ele>
        <time>2022-12-25T08:17:05Z</time>
      </trkpt>
      <trkpt lat="48.44745" lon="7.19881">
        <ele>371.2</ele>
        <time>2022-12-25T08:17:06Z</time>
      </trkpt>
      <trkpt lat="48.44755" lon="7.19876">
        <ele>371.2</ele>
        <time>2022-12-25T08:17:08Z</time>
      </trkpt>
      <trkpt lat="48.44761" lon="7.19874">
        <ele>371.2</ele>
        <time>2022-12-25T08:17:09Z</time>
      </trkpt>
      <trkpt lat="48.44767" lon="7.19872">
        <ele>371</ele>
        <time>2022-12-25T08:17:10Z</time>
      </trkpt>
      <trkpt lat="48.44784" lon="7.19856">
        <ele>371</ele>
        <time>2022-12-25T08:17:13Z</time>
      </trkpt>
      <trkpt lat="48.44797" lon="7.19844">
        <ele>370.8</ele>
        <time>2022-12-25T08:17:15Z</time>
      </trkpt>
      <trkpt lat="48.44809" lon="7.19831">
        <ele>370.2</ele>
        <time>2022-12-25T08:17:17Z</time>
      </trkpt>
      <trkpt lat="48.44814" lon="7.19822">
        <ele>369.8</ele>
        <time>2022-12-25T08:17:18Z</time>
      </trkpt>
      <trkpt lat="48.44831" lon="7.19795">
        <ele>369.2</ele>
        <time>2022-12-25T08:17:21Z</time>
      </trkpt>
      <trkpt lat="48.44838" lon="7.19787">
        <ele>369</ele>
        <time>2022-12-25T08:17:22Z</time>
      </trkpt>
      <trkpt lat="48.44845" lon="7.1978">
        <ele>368.8</ele>
        <time>2022-12-25T08:17:23Z</time>
      </trkpt>
      <trkpt lat="48.44859" lon="7.19768">
        <ele>368.4</ele>
        <time>2022-12-25T08:17:25Z</time>
      </trkpt>
      <trkpt lat="48.44867" lon="7.19764">
        <ele>368.2</ele>
        <time>2022-12-25T08:17:26Z</time>
      </trkpt>
      <trkpt lat="48.44888" lon="7.19753">
        <ele>367.6</ele>
        <time>2022-12-25T08:17:29Z</time>
      </trkpt>
      <trkpt lat="48.449" lon="7.1975">
        <ele>367.2</ele>
        <time>2022-12-25T08:17:31Z</time>
      </trkpt>
      <trkpt lat="48.44909" lon="7.19748">
        <ele>366.6</ele>
        <time>2022-12-25T08:17:33Z</time>
      </trkpt>
      <trkpt lat="48.44914" lon="7.19747">
        <ele>366.4</ele>
        <time>2022-12-25T08:17:34Z</time>
      </trkpt>
      <trkpt lat="48.44926" lon="7.19747">
        <ele>365.6</ele>
        <time>2022-12-25T08:17:36Z</time>
      </trkpt>
      <trkpt lat="48.44942" lon="7.19747">
        <ele>364.6</ele>
        <time>2022-12-25T08:17:38Z</time>
      </trkpt>
      <trkpt lat="48.4495" lon="7.19746">
        <ele>364.2</ele>
        <time>2022-12-25T08:17:39Z</time>
      </trkpt>
      <trkpt lat="48.44967" lon="7.19747">
        <ele>363.6</ele>
        <time>2022-12-25T08:17:41Z</time>
      </trkpt>
      <trkpt lat="48.44983" lon="7.19751">
        <ele>362.8</ele>
        <time>2022-12-25T08:17:43Z</time>
      </trkpt>
      <trkpt lat="48.45004" lon="7.19761">
        <ele>361.8</ele>
        <time>2022-12-25T08:17:46Z</time>
      </trkpt>
      <trkpt lat="48.45011" lon="7.19765">
        <ele>361.6</ele>
        <time>2022-12-25T08:17:47Z</time>
      </trkpt>
      <trkpt lat="48.45031" lon="7.19778">
        <ele>361.4</ele>
        <time>2022-12-25T08:17:50Z</time>
      </trkpt>
      <trkpt lat="48.4505" lon="7.19793">
        <ele>361.6</ele>
        <time>2022-12-25T08:17:53Z</time>
      </trkpt>
      <trkpt lat="48.45068" lon="7.19813">
        <ele>361.8</ele>
        <time>2022-12-25T08:17:56Z</time>
      </trkpt>
      <trkpt lat="48.45104" lon="7.19858">
        <ele>362</ele>
        <time>2022-12-25T08:18:02Z</time>
      </trkpt>
      <trkpt lat="48.45148" lon="7.19911">
        <ele>360.6</ele>
        <time>2022-12-25T08:18:09Z</time>
      </trkpt>
      <trkpt lat="48.45154" lon="7.19918">
        <ele>360.2</ele>
        <time>2022-12-25T08:18:10Z</time>
      </trkpt>
      <trkpt lat="48.4518" lon="7.19944">
        <ele>359.2</ele>
        <time>2022-12-25T08:18:14Z</time>
      </trkpt>
      <trkpt lat="48.45187" lon="7.19948">
        <ele>359</ele>
        <time>2022-12-25T08:18:15Z</time>
      </trkpt>
      <trkpt lat="48.45207" lon="7.19963">
        <ele>358.6</ele>
        <time>2022-12-25T08:18:18Z</time>
      </trkpt>
      <trkpt lat="48.45214" lon="7.19968">
        <ele>358.6</ele>
        <time>2022-12-25T08:18:19Z</time>
      </trkpt>
      <trkpt lat="48.45253" lon="7.19995">
        <ele>357.8</ele>
        <time>2022-12-25T08:18:24Z</time>
      </trkpt>
      <trkpt lat="48.4527" lon="7.20007">
        <ele>356.6</ele>
        <time>2022-12-25T08:18:26Z</time>
      </trkpt>
      <trkpt lat="48.45278" lon="7.20014">
        <ele>356.4</ele>
        <time>2022-12-25T08:18:27Z</time>
      </trkpt>
      <trkpt lat="48.45286" lon="7.20023">
        <ele>355.8</ele>
        <time>2022-12-25T08:18:28Z</time>
      </trkpt>
      <trkpt lat="48.45292" lon="7.20033">
        <ele>355.6</ele>
        <time>2022-12-25T08:18:29Z</time>
      </trkpt>
      <trkpt lat="48.45297" lon="7.20043">
        <ele>354.4</ele>
        <time>2022-12-25T08:18:30Z</time>
      </trkpt>
      <trkpt lat="48.45303" lon="7.20052">
        <ele>353.8</ele>
        <time>2022-12-25T08:18:31Z</time>
      </trkpt>
      <trkpt lat="48.45309" lon="7.2006">
        <ele>353.2</ele>
        <time>2022-12-25T08:18:32Z</time>
      </trkpt>
      <trkpt lat="48.45327" lon="7.20078">
        <ele>352.6</ele>
        <time>2022-12-25T08:18:35Z</time>
      </trkpt>
      <trkpt lat="48.4534" lon="7.20087">
        <ele>352.2</ele>
        <time>2022-12-25T08:18:37Z</time>
      </trkpt>
      <trkpt lat="48.45353" lon="7.20095">
        <ele>352.2</ele>
        <time>2022-12-25T08:18:39Z</time>
      </trkpt>
      <trkpt lat="48.45359" lon="7.201">
        <ele>352.2</ele>
        <time>2022-12-25T08:18:40Z</time>
      </trkpt>
      <trkpt lat="48.4537" lon="7.20113">
        <ele>352</ele>
        <time>2022-12-25T08:18:42Z</time>
      </trkpt>
      <trkpt lat="48.45379" lon="7.20127">
        <ele>351.8</ele>
        <time>2022-12-25T08:18:44Z</time>
      </trkpt>
      <trkpt lat="48.45385" lon="7.20141">
        <ele>351.4</ele>
        <time>2022-12-25T08:18:46Z</time>
      </trkpt>
      <trkpt lat="48.45389" lon="7.20164">
        <ele>351.2</ele>
        <time>2022-12-25T08:18:49Z</time>
      </trkpt>
      <trkpt lat="48.45393" lon="7.20168">
        <ele>351.2</ele>
        <time>2022-12-25T08:18:50Z</time>
      </trkpt>
      <trkpt lat="48.4541" lon="7.20166">
        <ele>350.8</ele>
        <time>2022-12-25T08:18:53Z</time>
      </trkpt>
      <trkpt lat="48.45444" lon="7.20161">
        <ele>350</ele>
        <time>2022-12-25T08:18:58Z</time>
      </trkpt>
      <trkpt lat="48.45449" lon="7.20163">
        <ele>349.8</ele>
        <time>2022-12-25T08:18:59Z</time>
      </trkpt>
      <trkpt lat="48.45451" lon="7.20167">
        <ele>349.6</ele>
        <time>2022-12-25T08:19:00Z</time>
      </trkpt>
      <trkpt lat="48.45452" lon="7.20172">
        <ele>349</ele>
        <time>2022-12-25T08:19:01Z</time>
      </trkpt>
      <trkpt lat="48.45454" lon="7.20177">
        <ele>348.8</ele>
        <time>2022-12-25T08:19:02Z</time>
      </trkpt>
      <trkpt lat="48.45458" lon="7.20191">
        <ele>348.4</ele>
        <time>2022-12-25T08:19:04Z</time>
      </trkpt>
      <trkpt lat="48.45459" lon="7.20199">
        <ele>348.2</ele>
        <time>2022-12-25T08:19:05Z</time>
      </trkpt>
      <trkpt lat="48.45461" lon="7.20207">
        <ele>348</ele>
        <time>2022-12-25T08:19:06Z</time>
      </trkpt>
      <trkpt lat="48.45461" lon="7.20216">
        <ele>348</ele>
        <time>2022-12-25T08:19:07Z</time>
      </trkpt>
      <trkpt lat="48.45462" lon="7.20223">
        <ele>347.8</ele>
        <time>2022-12-25T08:19:08Z</time>
      </trkpt>
      <trkpt lat="48.45461" lon="7.20232">
        <ele>347.8</ele>
        <time>2022-12-25T08:19:09Z</time>
      </trkpt>
      <trkpt lat="48.45461" lon="7.20241">
        <ele>347.6</ele>
        <time>2022-12-25T08:19:10Z</time>
      </trkpt>
      <trkpt lat="48.45466" lon="7.20267">
        <ele>347.4</ele>
        <time>2022-12-25T08:19:13Z</time>
      </trkpt>
      <trkpt lat="48.45473" lon="7.20299">
        <ele>347</ele>
        <time>2022-12-25T08:19:17Z</time>
      </trkpt>
      <trkpt lat="48.4548" lon="7.20332">
        <ele>347</ele>
        <time>2022-12-25T08:19:21Z</time>
      </trkpt>
      <trkpt lat="48.45481" lon="7.20341">
        <ele>347</ele>
        <time>2022-12-25T08:19:22Z</time>
      </trkpt>
      <trkpt lat="48.45481" lon="7.20358">
        <ele>347</ele>
        <time>2022-12-25T08:19:24Z</time>
      </trkpt>
      <trkpt lat="48.4548" lon="7.20366">
        <ele>347</ele>
        <time>2022-12-25T08:19:25Z</time>
      </trkpt>
      <trkpt lat="48.45476" lon="7.20391">
        <ele>347</ele>
        <time>2022-12-25T08:19:28Z</time>
      </trkpt>
      <trkpt lat="48.45477" lon="7.20407">
        <ele>347</ele>
        <time>2022-12-25T08:19:30Z</time>
      </trkpt>
      <trkpt lat="48.45489" lon="7.20458">
        <ele>347</ele>
        <time>2022-12-25T08:19:36Z</time>
      </trkpt>
      <trkpt lat="48.45491" lon="7.20467">
        <ele>346.8</ele>
        <time>2022-12-25T08:19:37Z</time>
      </trkpt>
      <trkpt lat="48.45502" lon="7.20516">
        <ele>346.4</ele>
        <time>2022-12-25T08:19:43Z</time>
      </trkpt>
      <trkpt lat="48.45516" lon="7.20573">
        <ele>345.8</ele>
        <time>2022-12-25T08:19:49Z</time>
      </trkpt>
      <trkpt lat="48.45521" lon="7.20591">
        <ele>345.6</ele>
        <time>2022-12-25T08:19:51Z</time>
      </trkpt>
      <trkpt lat="48.45528" lon="7.20607">
        <ele>345.2</ele>
        <time>2022-12-25T08:19:53Z</time>
      </trkpt>
      <trkpt lat="48.45531" lon="7.20614">
        <ele>345.2</ele>
        <time>2022-12-25T08:19:54Z</time>
      </trkpt>
      <trkpt lat="48.45535" lon="7.20621">
        <ele>345</ele>
        <time>2022-12-25T08:19:55Z</time>
      </trkpt>
      <trkpt lat="48.45545" lon="7.20629">
        <ele>344.8</ele>
        <time>2022-12-25T08:19:57Z</time>
      </trkpt>
      <trkpt lat="48.45557" lon="7.20635">
        <ele>344.6</ele>
        <time>2022-12-25T08:19:59Z</time>
      </trkpt>
      <trkpt lat="48.4557" lon="7.2064">
        <ele>344.6</ele>
        <time>2022-12-25T08:20:01Z</time>
      </trkpt>
      <trkpt lat="48.45581" lon="7.20642">
        <ele>344.6</ele>
        <time>2022-12-25T08:20:03Z</time>
      </trkpt>
      <trkpt lat="48.45622" lon="7.20643">
        <ele>344.4</ele>
        <time>2022-12-25T08:20:10Z</time>
      </trkpt>
      <trkpt lat="48.45628" lon="7.20643">
        <ele>344.6</ele>
        <time>2022-12-25T08:20:11Z</time>
      </trkpt>
      <trkpt lat="48.45638" lon="7.20641">
        <ele>344.4</ele>
        <time>2022-12-25T08:20:13Z</time>
      </trkpt>
      <trkpt lat="48.45648" lon="7.20638">
        <ele>344.4</ele>
        <time>2022-12-25T08:20:15Z</time>
      </trkpt>
      <trkpt lat="48.4566" lon="7.20642">
        <ele>344.2</ele>
        <time>2022-12-25T08:20:18Z</time>
      </trkpt>
      <trkpt lat="48.45662" lon="7.20646">
        <ele>344.2</ele>
        <time>2022-12-25T08:20:19Z</time>
      </trkpt>
      <trkpt lat="48.45662" lon="7.20668">
        <ele>344.6</ele>
        <time>2022-12-25T08:20:24Z</time>
      </trkpt>
      <trkpt lat="48.45661" lon="7.20685">
        <ele>345</ele>
        <time>2022-12-25T08:20:28Z</time>
      </trkpt>
      <trkpt lat="48.4566" lon="7.20701">
        <ele>345.4</ele>
        <time>2022-12-25T08:20:32Z</time>
      </trkpt>
      <trkpt lat="48.45662" lon="7.20705">
        <ele>345.4</ele>
        <time>2022-12-25T08:20:33Z</time>
      </trkpt>
      <trkpt lat="48.45668" lon="7.20712">
        <ele>345.8</ele>
        <time>2022-12-25T08:20:35Z</time>
      </trkpt>
      <trkpt lat="48.45671" lon="7.20715">
        <ele>345.8</ele>
        <time>2022-12-25T08:20:36Z</time>
      </trkpt>
      <trkpt lat="48.45677" lon="7.20722">
        <ele>346</ele>
        <time>2022-12-25T08:20:38Z</time>
      </trkpt>
      <trkpt lat="48.45683" lon="7.20732">
        <ele>346</ele>
        <time>2022-12-25T08:20:40Z</time>
      </trkpt>
      <trkpt lat="48.45685" lon="7.20737">
        <ele>346</ele>
        <time>2022-12-25T08:20:41Z</time>
      </trkpt>
      <trkpt lat="48.45695" lon="7.20756">
        <ele>346.6</ele>
        <time>2022-12-25T08:20:45Z</time>
      </trkpt>
      <trkpt lat="48.45699" lon="7.20764">
        <ele>346.6</ele>
        <time>2022-12-25T08:20:47Z</time>
      </trkpt>
      <trkpt lat="48.45704" lon="7.20774">
        <ele>346.8</ele>
        <time>2022-12-25T08:20:49Z</time>
      </trkpt>
      <trkpt lat="48.45715" lon="7.20797">
        <ele>347.6</ele>
        <time>2022-12-25T08:20:54Z</time>
      </trkpt>
      <trkpt lat="48.45722" lon="7.20814">
        <ele>347.8</ele>
        <time>2022-12-25T08:20:58Z</time>
      </trkpt>
      <trkpt lat="48.45726" lon="7.20823">
        <ele>348</ele>
        <time>2022-12-25T08:21:00Z</time>
      </trkpt>
      <trkpt lat="48.45743" lon="7.20854">
        <ele>348.4</ele>
        <time>2022-12-25T08:21:08Z</time>
      </trkpt>
      <trkpt lat="48.45752" lon="7.20873">
        <ele>349</ele>
        <time>2022-12-25T08:21:13Z</time>
      </trkpt>
      <trkpt lat="48.45753" lon="7.20877">
        <ele>349</ele>
        <time>2022-12-25T08:21:14Z</time>
      </trkpt>
      <trkpt lat="48.4575" lon="7.20903">
        <ele>349.6</ele>
        <time>2022-12-25T08:21:20Z</time>
      </trkpt>
      <trkpt lat="48.45748" lon="7.20914">
        <ele>350.2</ele>
        <time>2022-12-25T08:21:23Z</time>
      </trkpt>
      <trkpt lat="48.45744" lon="7.20932">
        <ele>350.6</ele>
        <time>2022-12-25T08:21:27Z</time>
      </trkpt>
      <trkpt lat="48.45741" lon="7.20941">
        <ele>351</ele>
        <time>2022-12-25T08:21:29Z</time>
      </trkpt>
      <trkpt lat="48.4574" lon="7.20949">
        <ele>351.2</ele>
        <time>2022-12-25T08:21:31Z</time>
      </trkpt>
      <trkpt lat="48.45738" lon="7.20957">
        <ele>352</ele>
        <time>2022-12-25T08:21:35Z</time>
      </trkpt>
      <trkpt lat="48.45738" lon="7.20957">
        <ele>352.2</ele>
        <time>2022-12-25T08:21:36Z</time>
      </trkpt>
      <trkpt lat="48.45738" lon="7.20958">
        <ele>352.4</ele>
        <time>2022-12-25T08:21:41Z</time>
      </trkpt>
      <trkpt lat="48.45738" lon="7.20958">
        <ele>352.6</ele>
        <time>2022-12-25T08:21:49Z</time>
      </trkpt>
      <trkpt lat="48.45737" lon="7.20965">
        <ele>352.6</ele>
        <time>2022-12-25T08:21:55Z</time>
      </trkpt>
      <trkpt lat="48.45733" lon="7.20986">
        <ele>353</ele>
        <time>2022-12-25T08:22:01Z</time>
      </trkpt>
      <trkpt lat="48.45732" lon="7.20998">
        <ele>353.2</ele>
        <time>2022-12-25T08:22:04Z</time>
      </trkpt>
      <trkpt lat="48.4573" lon="7.21014">
        <ele>353.8</ele>
        <time>2022-12-25T08:22:08Z</time>
      </trkpt>
      <trkpt lat="48.45727" lon="7.21026">
        <ele>354.4</ele>
        <time>2022-12-25T08:22:11Z</time>
      </trkpt>
      <trkpt lat="48.45718" lon="7.21044">
        <ele>355</ele>
        <time>2022-12-25T08:22:16Z</time>
      </trkpt>
      <trkpt lat="48.45712" lon="7.2106">
        <ele>355.4</ele>
        <time>2022-12-25T08:22:20Z</time>
      </trkpt>
      <trkpt lat="48.45704" lon="7.21076">
        <ele>355.8</ele>
        <time>2022-12-25T08:22:24Z</time>
      </trkpt>
      <trkpt lat="48.45692" lon="7.21102">
        <ele>356</ele>
        <time>2022-12-25T08:22:30Z</time>
      </trkpt>
      <trkpt lat="48.45689" lon="7.2111">
        <ele>356.2</ele>
        <time>2022-12-25T08:22:32Z</time>
      </trkpt>
      <trkpt lat="48.45683" lon="7.2112">
        <ele>356.6</ele>
        <time>2022-12-25T08:22:35Z</time>
      </trkpt>
      <trkpt lat="48.45678" lon="7.21132">
        <ele>356.8</ele>
        <time>2022-12-25T08:22:38Z</time>
      </trkpt>
      <trkpt lat="48.45675" lon="7.21141">
        <ele>356.8</ele>
        <time>2022-12-25T08:22:40Z</time>
      </trkpt>
      <trkpt lat="48.45659" lon="7.21178">
        <ele>357.6</ele>
        <time>2022-12-25T08:22:49Z</time>
      </trkpt>
      <trkpt lat="48.45657" lon="7.21183">
        <ele>357.6</ele>
        <time>2022-12-25T08:22:50Z</time>
      </trkpt>
      <trkpt lat="48.45643" lon="7.21212">
        <ele>358.2</ele>
        <time>2022-12-25T08:22:57Z</time>
      </trkpt>
      <trkpt lat="48.45633" lon="7.21231">
        <ele>358.8</ele>
        <time>2022-12-25T08:23:02Z</time>
      </trkpt>
      <trkpt lat="48.4563" lon="7.21238">
        <ele>358.8</ele>
        <time>2022-12-25T08:23:04Z</time>
      </trkpt>
      <trkpt lat="48.45618" lon="7.21266">
        <ele>359.8</ele>
        <time>2022-12-25T08:23:11Z</time>
      </trkpt>
      <trkpt lat="48.45605" lon="7.21295">
        <ele>360.6</ele>
        <time>2022-12-25T08:23:19Z</time>
      </trkpt>
      <trkpt lat="48.45601" lon="7.21302">
        <ele>360.8</ele>
        <time>2022-12-25T08:23:21Z</time>
      </trkpt>
      <trkpt lat="48.45588" lon="7.21326">
        <ele>362</ele>
        <time>2022-12-25T08:23:28Z</time>
      </trkpt>
      <trkpt lat="48.45576" lon="7.21348">
        <ele>363</ele>
        <time>2022-12-25T08:23:35Z</time>
      </trkpt>
      <trkpt lat="48.45565" lon="7.21367">
        <ele>364</ele>
        <time>2022-12-25T08:23:41Z</time>
      </trkpt>
      <trkpt lat="48.45559" lon="7.21377">
        <ele>364.4</ele>
        <time>2022-12-25T08:23:44Z</time>
      </trkpt>
      <trkpt lat="48.45547" lon="7.21396">
        <ele>365.4</ele>
        <time>2022-12-25T08:23:50Z</time>
      </trkpt>
      <trkpt lat="48.4553" lon="7.21411">
        <ele>366.2</ele>
        <time>2022-12-25T08:23:56Z</time>
      </trkpt>
      <trkpt lat="48.45525" lon="7.21416">
        <ele>366.6</ele>
        <time>2022-12-25T08:23:58Z</time>
      </trkpt>
      <trkpt lat="48.45509" lon="7.21427">
        <ele>367.2</ele>
        <time>2022-12-25T08:24:04Z</time>
      </trkpt>
      <trkpt lat="48.45498" lon="7.21434">
        <ele>367.6</ele>
        <time>2022-12-25T08:24:08Z</time>
      </trkpt>
      <trkpt lat="48.45491" lon="7.21439">
        <ele>368.2</ele>
        <time>2022-12-25T08:24:11Z</time>
      </trkpt>
      <trkpt lat="48.45477" lon="7.21447">
        <ele>368.8</ele>
        <time>2022-12-25T08:24:16Z</time>
      </trkpt>
      <trkpt lat="48.45463" lon="7.21452">
        <ele>369.2</ele>
        <time>2022-12-25T08:24:21Z</time>
      </trkpt>
      <trkpt lat="48.45454" lon="7.21458">
        <ele>369.8</ele>
        <time>2022-12-25T08:24:24Z</time>
      </trkpt>
      <trkpt lat="48.45439" lon="7.21466">
        <ele>370.6</ele>
        <time>2022-12-25T08:24:29Z</time>
      </trkpt>
      <trkpt lat="48.45427" lon="7.21475">
        <ele>370.8</ele>
        <time>2022-12-25T08:24:33Z</time>
      </trkpt>
      <trkpt lat="48.45413" lon="7.21485">
        <ele>371</ele>
        <time>2022-12-25T08:24:38Z</time>
      </trkpt>
      <trkpt lat="48.45399" lon="7.21495">
        <ele>371.2</ele>
        <time>2022-12-25T08:24:43Z</time>
      </trkpt>
      <trkpt lat="48.45384" lon="7.21505">
        <ele>371.6</ele>
        <time>2022-12-25T08:24:48Z</time>
      </trkpt>
      <trkpt lat="48.45376" lon="7.21511">
        <ele>371.8</ele>
        <time>2022-12-25T08:24:51Z</time>
      </trkpt>
      <trkpt lat="48.45351" lon="7.21529">
        <ele>373</ele>
        <time>2022-12-25T08:25:00Z</time>
      </trkpt>
      <trkpt lat="48.45336" lon="7.21545">
        <ele>374</ele>
        <time>2022-12-25T08:25:06Z</time>
      </trkpt>
      <trkpt lat="48.45335" lon="7.21547">
        <ele>374</ele>
        <time>2022-12-25T08:25:07Z</time>
      </trkpt>
      <trkpt lat="48.45327" lon="7.21558">
        <ele>374.4</ele>
        <time>2022-12-25T08:25:10Z</time>
      </trkpt>
      <trkpt lat="48.45313" lon="7.21577">
        <ele>374.8</ele>
        <time>2022-12-25T08:25:16Z</time>
      </trkpt>
      <trkpt lat="48.45304" lon="7.21599">
        <ele>376.2</ele>
        <time>2022-12-25T08:25:22Z</time>
      </trkpt>
      <trkpt lat="48.45302" lon="7.21606">
        <ele>376</ele>
        <time>2022-12-25T08:25:24Z</time>
      </trkpt>
      <trkpt lat="48.453" lon="7.21619">
        <ele>376.4</ele>
        <time>2022-12-25T08:25:27Z</time>
      </trkpt>
      <trkpt lat="48.45295" lon="7.21646">
        <ele>377.2</ele>
        <time>2022-12-25T08:25:33Z</time>
      </trkpt>
      <trkpt lat="48.45294" lon="7.21654">
        <ele>377.6</ele>
        <time>2022-12-25T08:25:35Z</time>
      </trkpt>
      <trkpt lat="48.45292" lon="7.21672">
        <ele>378.2</ele>
        <time>2022-12-25T08:25:39Z</time>
      </trkpt>
      <trkpt lat="48.4529" lon="7.2168">
        <ele>378.8</ele>
        <time>2022-12-25T08:25:41Z</time>
      </trkpt>
      <trkpt lat="48.45288" lon="7.21694">
        <ele>379.4</ele>
        <time>2022-12-25T08:25:45Z</time>
      </trkpt>
      <trkpt lat="48.45287" lon="7.21705">
        <ele>379.8</ele>
        <time>2022-12-25T08:25:48Z</time>
      </trkpt>
      <trkpt lat="48.45284" lon="7.21719">
        <ele>380.2</ele>
        <time>2022-12-25T08:25:52Z</time>
      </trkpt>
      <trkpt lat="48.45281" lon="7.21729">
        <ele>381</ele>
        <time>2022-12-25T08:25:55Z</time>
      </trkpt>
      <trkpt lat="48.45279" lon="7.21739">
        <ele>381.4</ele>
        <time>2022-12-25T08:25:58Z</time>
      </trkpt>
      <trkpt lat="48.45277" lon="7.21749">
        <ele>382</ele>
        <time>2022-12-25T08:26:01Z</time>
      </trkpt>
      <trkpt lat="48.45274" lon="7.21754">
        <ele>382.4</ele>
        <time>2022-12-25T08:26:03Z</time>
      </trkpt>
      <trkpt lat="48.45268" lon="7.2177">
        <ele>383.6</ele>
        <time>2022-12-25T08:26:08Z</time>
      </trkpt>
      <trkpt lat="48.45267" lon="7.21774">
        <ele>383.6</ele>
        <time>2022-12-25T08:26:09Z</time>
      </trkpt>
      <trkpt lat="48.45261" lon="7.21785">
        <ele>384.6</ele>
        <time>2022-12-25T08:26:13Z</time>
      </trkpt>
      <trkpt lat="48.45259" lon="7.21794">
        <ele>385.2</ele>
        <time>2022-12-25T08:26:16Z</time>
      </trkpt>
      <trkpt lat="48.45256" lon="7.218">
        <ele>385.8</ele>
        <time>2022-12-25T08:26:18Z</time>
      </trkpt>
      <trkpt lat="48.45249" lon="7.21816">
        <ele>386.8</ele>
        <time>2022-12-25T08:26:23Z</time>
      </trkpt>
      <trkpt lat="48.45247" lon="7.21823">
        <ele>387.2</ele>
        <time>2022-12-25T08:26:25Z</time>
      </trkpt>
      <trkpt lat="48.45243" lon="7.21837">
        <ele>387.8</ele>
        <time>2022-12-25T08:26:29Z</time>
      </trkpt>
      <trkpt lat="48.45242" lon="7.2184">
        <ele>388</ele>
        <time>2022-12-25T08:26:30Z</time>
      </trkpt>
      <trkpt lat="48.45235" lon="7.21859">
        <ele>389</ele>
        <time>2022-12-25T08:26:36Z</time>
      </trkpt>
      <trkpt lat="48.45234" lon="7.21862">
        <ele>389.2</ele>
        <time>2022-12-25T08:26:37Z</time>
      </trkpt>
      <trkpt lat="48.45229" lon="7.21878">
        <ele>390</ele>
        <time>2022-12-25T08:26:42Z</time>
      </trkpt>
      <trkpt lat="48.45228" lon="7.21885">
        <ele>390.4</ele>
        <time>2022-12-25T08:26:44Z</time>
      </trkpt>
      <trkpt lat="48.45225" lon="7.21897">
        <ele>391.2</ele>
        <time>2022-12-25T08:26:48Z</time>
      </trkpt>
      <trkpt lat="48.4522" lon="7.21911">
        <ele>391.8</ele>
        <time>2022-12-25T08:26:53Z</time>
      </trkpt>
      <trkpt lat="48.45219" lon="7.21919">
        <ele>392.2</ele>
        <time>2022-12-25T08:26:56Z</time>
      </trkpt>
      <trkpt lat="48.45216" lon="7.2193">
        <ele>393</ele>
        <time>2022-12-25T08:27:00Z</time>
      </trkpt>
      <trkpt lat="48.45215" lon="7.21933">
        <ele>393.2</ele>
        <time>2022-12-25T08:27:01Z</time>
      </trkpt>
      <trkpt lat="48.45213" lon="7.21939">
        <ele>393.6</ele>
        <time>2022-12-25T08:27:03Z</time>
      </trkpt>
      <trkpt lat="48.4521" lon="7.21947">
        <ele>394</ele>
        <time>2022-12-25T08:27:06Z</time>
      </trkpt>
      <trkpt lat="48.45209" lon="7.2195">
        <ele>394.4</ele>
        <time>2022-12-25T08:27:07Z</time>
      </trkpt>
      <trkpt lat="48.45205" lon="7.2196">
        <ele>394.8</ele>
        <time>2022-12-25T08:27:11Z</time>
      </trkpt>
      <trkpt lat="48.45202" lon="7.21965">
        <ele>395.2</ele>
        <time>2022-12-25T08:27:13Z</time>
      </trkpt>
      <trkpt lat="48.45201" lon="7.21968">
        <ele>395.4</ele>
        <time>2022-12-25T08:27:14Z</time>
      </trkpt>
      <trkpt lat="48.45197" lon="7.21976">
        <ele>396.2</ele>
        <time>2022-12-25T08:27:17Z</time>
      </trkpt>
      <trkpt lat="48.45195" lon="7.2198">
        <ele>396.2</ele>
        <time>2022-12-25T08:27:18Z</time>
      </trkpt>
      <trkpt lat="48.45188" lon="7.21992">
        <ele>397</ele>
        <time>2022-12-25T08:27:23Z</time>
      </trkpt>
      <trkpt lat="48.45185" lon="7.21997">
        <ele>397.4</ele>
        <time>2022-12-25T08:27:25Z</time>
      </trkpt>
      <trkpt lat="48.45179" lon="7.22013">
        <ele>398.4</ele>
        <time>2022-12-25T08:27:30Z</time>
      </trkpt>
      <trkpt lat="48.45178" lon="7.22016">
        <ele>398.6</ele>
        <time>2022-12-25T08:27:31Z</time>
      </trkpt>
      <trkpt lat="48.4517" lon="7.22033">
        <ele>399.4</ele>
        <time>2022-12-25T08:27:37Z</time>
      </trkpt>
      <trkpt lat="48.45169" lon="7.22035">
        <ele>399.6</ele>
        <time>2022-12-25T08:27:38Z</time>
      </trkpt>
      <trkpt lat="48.45162" lon="7.22052">
        <ele>400.6</ele>
        <time>2022-12-25T08:27:44Z</time>
      </trkpt>
      <trkpt lat="48.4516" lon="7.22059">
        <ele>400.8</ele>
        <time>2022-12-25T08:27:46Z</time>
      </trkpt>
      <trkpt lat="48.45154" lon="7.22083">
        <ele>401.4</ele>
        <time>2022-12-25T08:27:53Z</time>
      </trkpt>
      <trkpt lat="48.45153" lon="7.22087">
        <ele>401.6</ele>
        <time>2022-12-25T08:27:54Z</time>
      </trkpt>
      <trkpt lat="48.4515" lon="7.22099">
        <ele>401.8</ele>
        <time>2022-12-25T08:27:57Z</time>
      </trkpt>
      <trkpt lat="48.45147" lon="7.22116">
        <ele>402.2</ele>
        <time>2022-12-25T08:28:01Z</time>
      </trkpt>
      <trkpt lat="48.4514" lon="7.22147">
        <ele>403</ele>
        <time>2022-12-25T08:28:08Z</time>
      </trkpt>
      <trkpt lat="48.4514" lon="7.22151">
        <ele>403</ele>
        <time>2022-12-25T08:28:09Z</time>
      </trkpt>
      <trkpt lat="48.45137" lon="7.22179">
        <ele>403.4</ele>
        <time>2022-12-25T08:28:16Z</time>
      </trkpt>
      <trkpt lat="48.45134" lon="7.22206">
        <ele>404</ele>
        <time>2022-12-25T08:28:22Z</time>
      </trkpt>
      <trkpt lat="48.45131" lon="7.22221">
        <ele>404.4</ele>
        <time>2022-12-25T08:28:26Z</time>
      </trkpt>
      <trkpt lat="48.45127" lon="7.22249">
        <ele>405</ele>
        <time>2022-12-25T08:28:33Z</time>
      </trkpt>
      <trkpt lat="48.45126" lon="7.22253">
        <ele>405.2</ele>
        <time>2022-12-25T08:28:34Z</time>
      </trkpt>
      <trkpt lat="48.45123" lon="7.22276">
        <ele>405.8</ele>
        <time>2022-12-25T08:28:40Z</time>
      </trkpt>
      <trkpt lat="48.4512" lon="7.22298">
        <ele>406.2</ele>
        <time>2022-12-25T08:28:45Z</time>
      </trkpt>
      <trkpt lat="48.45113" lon="7.2234">
        <ele>406.8</ele>
        <time>2022-12-25T08:28:53Z</time>
      </trkpt>
      <trkpt lat="48.45107" lon="7.22366">
        <ele>407.2</ele>
        <time>2022-12-25T08:28:59Z</time>
      </trkpt>
      <trkpt lat="48.45103" lon="7.22381">
        <ele>407.4</ele>
        <time>2022-12-25T08:29:03Z</time>
      </trkpt>
      <trkpt lat="48.45095" lon="7.22398">
        <ele>408.2</ele>
        <time>2022-12-25T08:29:08Z</time>
      </trkpt>
      <trkpt lat="48.45085" lon="7.22425">
        <ele>409</ele>
        <time>2022-12-25T08:29:16Z</time>
      </trkpt>
      <trkpt lat="48.45079" lon="7.22436">
        <ele>409.2</ele>
        <time>2022-12-25T08:29:19Z</time>
      </trkpt>
      <trkpt lat="48.45076" lon="7.22447">
        <ele>409.4</ele>
        <time>2022-12-25T08:29:22Z</time>
      </trkpt>
      <trkpt lat="48.45075" lon="7.2245">
        <ele>409.4</ele>
        <time>2022-12-25T08:29:23Z</time>
      </trkpt>
      <trkpt lat="48.45067" lon="7.22469">
        <ele>409.8</ele>
        <time>2022-12-25T08:29:27Z</time>
      </trkpt>
      <trkpt lat="48.45061" lon="7.22489">
        <ele>410.2</ele>
        <time>2022-12-25T08:29:32Z</time>
      </trkpt>
      <trkpt lat="48.45057" lon="7.22496">
        <ele>410.4</ele>
        <time>2022-12-25T08:29:34Z</time>
      </trkpt>
      <trkpt lat="48.45042" lon="7.22526">
        <ele>411.2</ele>
        <time>2022-12-25T08:29:42Z</time>
      </trkpt>
      <trkpt lat="48.4504" lon="7.22529">
        <ele>411.4</ele>
        <time>2022-12-25T08:29:43Z</time>
      </trkpt>
      <trkpt lat="48.45022" lon="7.2255">
        <ele>411.8</ele>
        <time>2022-12-25T08:29:50Z</time>
      </trkpt>
      <trkpt lat="48.45012" lon="7.22562">
        <ele>412.4</ele>
        <time>2022-12-25T08:29:54Z</time>
      </trkpt>
      <trkpt lat="48.44999" lon="7.22576">
        <ele>412.8</ele>
        <time>2022-12-25T08:29:59Z</time>
      </trkpt>
      <trkpt lat="48.44983" lon="7.22591">
        <ele>413.4</ele>
        <time>2022-12-25T08:30:05Z</time>
      </trkpt>
      <trkpt lat="48.44974" lon="7.22597">
        <ele>413.8</ele>
        <time>2022-12-25T08:30:08Z</time>
      </trkpt>
      <trkpt lat="48.44957" lon="7.22613">
        <ele>414.4</ele>
        <time>2022-12-25T08:30:15Z</time>
      </trkpt>
      <trkpt lat="48.4495" lon="7.22623">
        <ele>414.8</ele>
        <time>2022-12-25T08:30:18Z</time>
      </trkpt>
      <trkpt lat="48.44941" lon="7.22648">
        <ele>415.4</ele>
        <time>2022-12-25T08:30:24Z</time>
      </trkpt>
      <trkpt lat="48.4494" lon="7.22653">
        <ele>415.6</ele>
        <time>2022-12-25T08:30:25Z</time>
      </trkpt>
      <trkpt lat="48.44937" lon="7.22701">
        <ele>416.4</ele>
        <time>2022-12-25T08:30:35Z</time>
      </trkpt>
      <trkpt lat="48.44939" lon="7.22738">
        <ele>417.6</ele>
        <time>2022-12-25T08:30:44Z</time>
      </trkpt>
      <trkpt lat="48.44939" lon="7.22743">
        <ele>417.6</ele>
        <time>2022-12-25T08:30:45Z</time>
      </trkpt>
      <trkpt lat="48.44938" lon="7.22776">
        <ele>418.8</ele>
        <time>2022-12-25T08:30:52Z</time>
      </trkpt>
      <trkpt lat="48.44938" lon="7.2278">
        <ele>419</ele>
        <time>2022-12-25T08:30:53Z</time>
      </trkpt>
      <trkpt lat="48.44938" lon="7.2281">
        <ele>420</ele>
        <time>2022-12-25T08:31:00Z</time>
      </trkpt>
      <trkpt lat="48.44938" lon="7.22818">
        <ele>420.2</ele>
        <time>2022-12-25T08:31:02Z</time>
      </trkpt>
      <trkpt lat="48.44936" lon="7.22837">
        <ele>421</ele>
        <time>2022-12-25T08:31:07Z</time>
      </trkpt>
      <trkpt lat="48.44935" lon="7.22849">
        <ele>421.4</ele>
        <time>2022-12-25T08:31:10Z</time>
      </trkpt>
      <trkpt lat="48.44933" lon="7.22862">
        <ele>422</ele>
        <time>2022-12-25T08:31:14Z</time>
      </trkpt>
      <trkpt lat="48.44931" lon="7.22876">
        <ele>422.8</ele>
        <time>2022-12-25T08:31:18Z</time>
      </trkpt>
      <trkpt lat="48.4493" lon="7.22886">
        <ele>423.2</ele>
        <time>2022-12-25T08:31:21Z</time>
      </trkpt>
      <trkpt lat="48.44927" lon="7.229">
        <ele>423.8</ele>
        <time>2022-12-25T08:31:25Z</time>
      </trkpt>
      <trkpt lat="48.44924" lon="7.2291">
        <ele>424.2</ele>
        <time>2022-12-25T08:31:28Z</time>
      </trkpt>
      <trkpt lat="48.44923" lon="7.22919">
        <ele>424.8</ele>
        <time>2022-12-25T08:31:31Z</time>
      </trkpt>
      <trkpt lat="48.44921" lon="7.22929">
        <ele>425.4</ele>
        <time>2022-12-25T08:31:34Z</time>
      </trkpt>
      <trkpt lat="48.44916" lon="7.22946">
        <ele>426.2</ele>
        <time>2022-12-25T08:31:39Z</time>
      </trkpt>
      <trkpt lat="48.44915" lon="7.22953">
        <ele>426.6</ele>
        <time>2022-12-25T08:31:41Z</time>
      </trkpt>
      <trkpt lat="48.44909" lon="7.22968">
        <ele>427</ele>
        <time>2022-12-25T08:31:46Z</time>
      </trkpt>
      <trkpt lat="48.44906" lon="7.22978">
        <ele>427.6</ele>
        <time>2022-12-25T08:31:49Z</time>
      </trkpt>
      <trkpt lat="48.44902" lon="7.22984">
        <ele>428</ele>
        <time>2022-12-25T08:31:51Z</time>
      </trkpt>
      <trkpt lat="48.44895" lon="7.22998">
        <ele>428.6</ele>
        <time>2022-12-25T08:31:56Z</time>
      </trkpt>
      <trkpt lat="48.44893" lon="7.23002">
        <ele>428.8</ele>
        <time>2022-12-25T08:31:57Z</time>
      </trkpt>
      <trkpt lat="48.44888" lon="7.2302">
        <ele>429.6</ele>
        <time>2022-12-25T08:32:02Z</time>
      </trkpt>
      <trkpt lat="48.44885" lon="7.23028">
        <ele>430.2</ele>
        <time>2022-12-25T08:32:05Z</time>
      </trkpt>
      <trkpt lat="48.44878" lon="7.23041">
        <ele>430.8</ele>
        <time>2022-12-25T08:32:10Z</time>
      </trkpt>
      <trkpt lat="48.44876" lon="7.23043">
        <ele>431</ele>
        <time>2022-12-25T08:32:11Z</time>
      </trkpt>
      <trkpt lat="48.4487" lon="7.23058">
        <ele>431.8</ele>
        <time>2022-12-25T08:32:16Z</time>
      </trkpt>
      <trkpt lat="48.44868" lon="7.23061">
        <ele>431.8</ele>
        <time>2022-12-25T08:32:17Z</time>
      </trkpt>
      <trkpt lat="48.4486" lon="7.23083">
        <ele>433</ele>
        <time>2022-12-25T08:32:24Z</time>
      </trkpt>
      <trkpt lat="48.44851" lon="7.23101">
        <ele>433.6</ele>
        <time>2022-12-25T08:32:30Z</time>
      </trkpt>
      <trkpt lat="48.44844" lon="7.23112">
        <ele>434</ele>
        <time>2022-12-25T08:32:34Z</time>
      </trkpt>
      <trkpt lat="48.44842" lon="7.23114">
        <ele>434.2</ele>
        <time>2022-12-25T08:32:35Z</time>
      </trkpt>
      <trkpt lat="48.4484" lon="7.23117">
        <ele>434.4</ele>
        <time>2022-12-25T08:32:36Z</time>
      </trkpt>
      <trkpt lat="48.4483" lon="7.23131">
        <ele>435.2</ele>
        <time>2022-12-25T08:32:42Z</time>
      </trkpt>
      <trkpt lat="48.44827" lon="7.23134">
        <ele>435.6</ele>
        <time>2022-12-25T08:32:43Z</time>
      </trkpt>
      <trkpt lat="48.44822" lon="7.2314">
        <ele>435.8</ele>
        <time>2022-12-25T08:32:45Z</time>
      </trkpt>
      <trkpt lat="48.44811" lon="7.2315">
        <ele>436.4</ele>
        <time>2022-12-25T08:32:49Z</time>
      </trkpt>
      <trkpt lat="48.44807" lon="7.23156">
        <ele>436.6</ele>
        <time>2022-12-25T08:32:51Z</time>
      </trkpt>
      <trkpt lat="48.44798" lon="7.23166">
        <ele>437.2</ele>
        <time>2022-12-25T08:32:55Z</time>
      </trkpt>
      <trkpt lat="48.44789" lon="7.2318">
        <ele>437.6</ele>
        <time>2022-12-25T08:33:00Z</time>
      </trkpt>
      <trkpt lat="48.44783" lon="7.2319">
        <ele>438.2</ele>
        <time>2022-12-25T08:33:03Z</time>
      </trkpt>
      <trkpt lat="48.44777" lon="7.23203">
        <ele>438.8</ele>
        <time>2022-12-25T08:33:07Z</time>
      </trkpt>
      <trkpt lat="48.44773" lon="7.23217">
        <ele>439.2</ele>
        <time>2022-12-25T08:33:11Z</time>
      </trkpt>
      <trkpt lat="48.44766" lon="7.23232">
        <ele>439.8</ele>
        <time>2022-12-25T08:33:16Z</time>
      </trkpt>
      <trkpt lat="48.44765" lon="7.23235">
        <ele>439.8</ele>
        <time>2022-12-25T08:33:17Z</time>
      </trkpt>
      <trkpt lat="48.44756" lon="7.2326">
        <ele>440.6</ele>
        <time>2022-12-25T08:33:24Z</time>
      </trkpt>
      <trkpt lat="48.44751" lon="7.23274">
        <ele>441</ele>
        <time>2022-12-25T08:33:28Z</time>
      </trkpt>
      <trkpt lat="48.44746" lon="7.23288">
        <ele>441.6</ele>
        <time>2022-12-25T08:33:32Z</time>
      </trkpt>
      <trkpt lat="48.44739" lon="7.23306">
        <ele>442</ele>
        <time>2022-12-25T08:33:37Z</time>
      </trkpt>
      <trkpt lat="48.44735" lon="7.23317">
        <ele>442.2</ele>
        <time>2022-12-25T08:33:40Z</time>
      </trkpt>
      <trkpt lat="48.44723" lon="7.23344">
        <ele>442.8</ele>
        <time>2022-12-25T08:33:48Z</time>
      </trkpt>
      <trkpt lat="48.44706" lon="7.23371">
        <ele>444</ele>
        <time>2022-12-25T08:33:57Z</time>
      </trkpt>
      <trkpt lat="48.447" lon="7.23379">
        <ele>444.4</ele>
        <time>2022-12-25T08:34:00Z</time>
      </trkpt>
      <trkpt lat="48.44693" lon="7.2339">
        <ele>445</ele>
        <time>2022-12-25T08:34:04Z</time>
      </trkpt>
      <trkpt lat="48.44688" lon="7.23395">
        <ele>445.4</ele>
        <time>2022-12-25T08:34:06Z</time>
      </trkpt>
      <trkpt lat="48.44677" lon="7.23409">
        <ele>446</ele>
        <time>2022-12-25T08:34:11Z</time>
      </trkpt>
      <trkpt lat="48.44668" lon="7.23419">
        <ele>446.4</ele>
        <time>2022-12-25T08:34:15Z</time>
      </trkpt>
      <trkpt lat="48.44659" lon="7.23429">
        <ele>447</ele>
        <time>2022-12-25T08:34:19Z</time>
      </trkpt>
      <trkpt lat="48.44643" lon="7.23445">
        <ele>447.4</ele>
        <time>2022-12-25T08:34:26Z</time>
      </trkpt>
      <trkpt lat="48.4463" lon="7.23454">
        <ele>448</ele>
        <time>2022-12-25T08:34:31Z</time>
      </trkpt>
      <trkpt lat="48.44621" lon="7.23462">
        <ele>448.8</ele>
        <time>2022-12-25T08:34:35Z</time>
      </trkpt>
      <trkpt lat="48.44616" lon="7.23467">
        <ele>449.2</ele>
        <time>2022-12-25T08:34:37Z</time>
      </trkpt>
      <trkpt lat="48.44602" lon="7.2348">
        <ele>449.6</ele>
        <time>2022-12-25T08:34:43Z</time>
      </trkpt>
      <trkpt lat="48.44591" lon="7.23493">
        <ele>450.2</ele>
        <time>2022-12-25T08:34:48Z</time>
      </trkpt>
      <trkpt lat="48.44582" lon="7.23503">
        <ele>450.8</ele>
        <time>2022-12-25T08:34:52Z</time>
      </trkpt>
      <trkpt lat="48.44574" lon="7.23513">
        <ele>451.4</ele>
        <time>2022-12-25T08:34:56Z</time>
      </trkpt>
      <trkpt lat="48.44565" lon="7.23523">
        <ele>451.8</ele>
        <time>2022-12-25T08:35:00Z</time>
      </trkpt>
      <trkpt lat="48.44563" lon="7.23525">
        <ele>451.8</ele>
        <time>2022-12-25T08:35:01Z</time>
      </trkpt>
      <trkpt lat="48.4455" lon="7.23542">
        <ele>452.4</ele>
        <time>2022-12-25T08:35:07Z</time>
      </trkpt>
      <trkpt lat="48.44541" lon="7.23552">
        <ele>452.8</ele>
        <time>2022-12-25T08:35:11Z</time>
      </trkpt>
      <trkpt lat="48.44531" lon="7.23563">
        <ele>453.4</ele>
        <time>2022-12-25T08:35:16Z</time>
      </trkpt>
      <trkpt lat="48.44524" lon="7.23569">
        <ele>453.6</ele>
        <time>2022-12-25T08:35:19Z</time>
      </trkpt>
      <trkpt lat="48.44508" lon="7.23586">
        <ele>454.4</ele>
        <time>2022-12-25T08:35:26Z</time>
      </trkpt>
      <trkpt lat="48.44498" lon="7.23596">
        <ele>454.8</ele>
        <time>2022-12-25T08:35:30Z</time>
      </trkpt>
      <trkpt lat="48.44489" lon="7.23606">
        <ele>455.4</ele>
        <time>2022-12-25T08:35:34Z</time>
      </trkpt>
      <trkpt lat="48.4448" lon="7.23617">
        <ele>456</ele>
        <time>2022-12-25T08:35:38Z</time>
      </trkpt>
      <trkpt lat="48.44468" lon="7.23636">
        <ele>456.6</ele>
        <time>2022-12-25T08:35:44Z</time>
      </trkpt>
      <trkpt lat="48.44466" lon="7.23639">
        <ele>456.6</ele>
        <time>2022-12-25T08:35:45Z</time>
      </trkpt>
      <trkpt lat="48.44452" lon="7.23665">
        <ele>457.2</ele>
        <time>2022-12-25T08:35:53Z</time>
      </trkpt>
      <trkpt lat="48.44446" lon="7.23674">
        <ele>457.6</ele>
        <time>2022-12-25T08:35:56Z</time>
      </trkpt>
      <trkpt lat="48.44437" lon="7.23691">
        <ele>458</ele>
        <time>2022-12-25T08:36:01Z</time>
      </trkpt>
      <trkpt lat="48.44427" lon="7.23712">
        <ele>458.8</ele>
        <time>2022-12-25T08:36:07Z</time>
      </trkpt>
      <trkpt lat="48.44424" lon="7.23719">
        <ele>458.8</ele>
        <time>2022-12-25T08:36:09Z</time>
      </trkpt>
      <trkpt lat="48.44417" lon="7.23738">
        <ele>459.2</ele>
        <time>2022-12-25T08:36:14Z</time>
      </trkpt>
      <trkpt lat="48.44411" lon="7.23751">
        <ele>459.8</ele>
        <time>2022-12-25T08:36:18Z</time>
      </trkpt>
      <trkpt lat="48.44407" lon="7.23758">
        <ele>460.2</ele>
        <time>2022-12-25T08:36:20Z</time>
      </trkpt>
      <trkpt lat="48.44394" lon="7.23779">
        <ele>460.8</ele>
        <time>2022-12-25T08:36:26Z</time>
      </trkpt>
      <trkpt lat="48.44392" lon="7.23783">
        <ele>460.8</ele>
        <time>2022-12-25T08:36:27Z</time>
      </trkpt>
      <trkpt lat="48.44378" lon="7.23806">
        <ele>461.6</ele>
        <time>2022-12-25T08:36:33Z</time>
      </trkpt>
      <trkpt lat="48.44371" lon="7.23815">
        <ele>461.8</ele>
        <time>2022-12-25T08:36:36Z</time>
      </trkpt>
      <trkpt lat="48.44361" lon="7.23827">
        <ele>462.2</ele>
        <time>2022-12-25T08:36:40Z</time>
      </trkpt>
      <trkpt lat="48.44344" lon="7.23848">
        <ele>463</ele>
        <time>2022-12-25T08:36:47Z</time>
      </trkpt>
      <trkpt lat="48.44331" lon="7.23862">
        <ele>463.4</ele>
        <time>2022-12-25T08:36:52Z</time>
      </trkpt>
      <trkpt lat="48.44312" lon="7.23886">
        <ele>463.6</ele>
        <time>2022-12-25T08:36:59Z</time>
      </trkpt>
      <trkpt lat="48.44309" lon="7.23889">
        <ele>463.8</ele>
        <time>2022-12-25T08:37:00Z</time>
      </trkpt>
      <trkpt lat="48.4429" lon="7.2392">
        <ele>464.4</ele>
        <time>2022-12-25T08:37:07Z</time>
      </trkpt>
      <trkpt lat="48.4428" lon="7.23938">
        <ele>464.8</ele>
        <time>2022-12-25T08:37:12Z</time>
      </trkpt>
      <trkpt lat="48.4427" lon="7.23955">
        <ele>465.2</ele>
        <time>2022-12-25T08:37:16Z</time>
      </trkpt>
      <trkpt lat="48.44256" lon="7.23979">
        <ele>465.6</ele>
        <time>2022-12-25T08:37:22Z</time>
      </trkpt>
      <trkpt lat="48.44251" lon="7.23987">
        <ele>465.8</ele>
        <time>2022-12-25T08:37:24Z</time>
      </trkpt>
      <trkpt lat="48.44242" lon="7.24006">
        <ele>466</ele>
        <time>2022-12-25T08:37:28Z</time>
      </trkpt>
      <trkpt lat="48.44235" lon="7.24018">
        <ele>466.2</ele>
        <time>2022-12-25T08:37:31Z</time>
      </trkpt>
      <trkpt lat="48.44225" lon="7.24039">
        <ele>466.6</ele>
        <time>2022-12-25T08:37:36Z</time>
      </trkpt>
      <trkpt lat="48.44222" lon="7.24048">
        <ele>466.8</ele>
        <time>2022-12-25T08:37:38Z</time>
      </trkpt>
      <trkpt lat="48.4421" lon="7.24075">
        <ele>467.2</ele>
        <time>2022-12-25T08:37:44Z</time>
      </trkpt>
      <trkpt lat="48.44203" lon="7.2409">
        <ele>467.8</ele>
        <time>2022-12-25T08:37:48Z</time>
      </trkpt>
      <trkpt lat="48.44197" lon="7.24103">
        <ele>468.2</ele>
        <time>2022-12-25T08:37:51Z</time>
      </trkpt>
      <trkpt lat="48.44192" lon="7.2412">
        <ele>468.8</ele>
        <time>2022-12-25T08:37:55Z</time>
      </trkpt>
      <trkpt lat="48.44188" lon="7.24131">
        <ele>469.2</ele>
        <time>2022-12-25T08:37:58Z</time>
      </trkpt>
      <trkpt lat="48.44185" lon="7.24148">
        <ele>470</ele>
        <time>2022-12-25T08:38:02Z</time>
      </trkpt>
      <trkpt lat="48.44184" lon="7.24153">
        <ele>470</ele>
        <time>2022-12-25T08:38:03Z</time>
      </trkpt>
      <trkpt lat="48.44179" lon="7.24183">
        <ele>471</ele>
        <time>2022-12-25T08:38:09Z</time>
      </trkpt>
      <trkpt lat="48.44178" lon="7.24209">
        <ele>472</ele>
        <time>2022-12-25T08:38:15Z</time>
      </trkpt>
      <trkpt lat="48.44179" lon="7.24218">
        <ele>472.2</ele>
        <time>2022-12-25T08:38:17Z</time>
      </trkpt>
      <trkpt lat="48.44179" lon="7.24235">
        <ele>473.2</ele>
        <time>2022-12-25T08:38:21Z</time>
      </trkpt>
      <trkpt lat="48.44181" lon="7.24252">
        <ele>473.6</ele>
        <time>2022-12-25T08:38:26Z</time>
      </trkpt>
      <trkpt lat="48.44182" lon="7.24263">
        <ele>474</ele>
        <time>2022-12-25T08:38:29Z</time>
      </trkpt>
      <trkpt lat="48.44181" lon="7.24281">
        <ele>475.2</ele>
        <time>2022-12-25T08:38:34Z</time>
      </trkpt>
      <trkpt lat="48.4418" lon="7.24307">
        <ele>475.8</ele>
        <time>2022-12-25T08:38:41Z</time>
      </trkpt>
      <trkpt lat="48.44179" lon="7.24319">
        <ele>476</ele>
        <time>2022-12-25T08:38:44Z</time>
      </trkpt>
      <trkpt lat="48.44177" lon="7.24342">
        <ele>476.8</ele>
        <time>2022-12-25T08:38:50Z</time>
      </trkpt>
      <trkpt lat="48.44175" lon="7.2436">
        <ele>477.2</ele>
        <time>2022-12-25T08:38:55Z</time>
      </trkpt>
      <trkpt lat="48.44175" lon="7.24373">
        <ele>477.8</ele>
        <time>2022-12-25T08:38:59Z</time>
      </trkpt>
      <trkpt lat="48.44172" lon="7.24386">
        <ele>478.4</ele>
        <time>2022-12-25T08:39:03Z</time>
      </trkpt>
      <trkpt lat="48.44172" lon="7.24393">
        <ele>478.6</ele>
        <time>2022-12-25T08:39:05Z</time>
      </trkpt>
      <trkpt lat="48.44168" lon="7.24411">
        <ele>479.6</ele>
        <time>2022-12-25T08:39:11Z</time>
      </trkpt>
      <trkpt lat="48.44166" lon="7.24418">
        <ele>480</ele>
        <time>2022-12-25T08:39:13Z</time>
      </trkpt>
      <trkpt lat="48.44162" lon="7.24434">
        <ele>480.6</ele>
        <time>2022-12-25T08:39:18Z</time>
      </trkpt>
      <trkpt lat="48.44157" lon="7.24449">
        <ele>481.2</ele>
        <time>2022-12-25T08:39:23Z</time>
      </trkpt>
      <trkpt lat="48.44153" lon="7.24462">
        <ele>481.6</ele>
        <time>2022-12-25T08:39:27Z</time>
      </trkpt>
      <trkpt lat="48.44148" lon="7.2448">
        <ele>482.6</ele>
        <time>2022-12-25T08:39:33Z</time>
      </trkpt>
      <trkpt lat="48.44148" lon="7.24483">
        <ele>482.8</ele>
        <time>2022-12-25T08:39:34Z</time>
      </trkpt>
      <trkpt lat="48.44145" lon="7.24499">
        <ele>483.6</ele>
        <time>2022-12-25T08:39:39Z</time>
      </trkpt>
      <trkpt lat="48.44144" lon="7.24505">
        <ele>483.8</ele>
        <time>2022-12-25T08:39:41Z</time>
      </trkpt>
      <trkpt lat="48.44142" lon="7.24521">
        <ele>485</ele>
        <time>2022-12-25T08:39:46Z</time>
      </trkpt>
      <trkpt lat="48.44139" lon="7.24542">
        <ele>486</ele>
        <time>2022-12-25T08:39:53Z</time>
      </trkpt>
      <trkpt lat="48.44138" lon="7.24547">
        <ele>486.4</ele>
        <time>2022-12-25T08:39:55Z</time>
      </trkpt>
      <trkpt lat="48.44137" lon="7.2456">
        <ele>487.2</ele>
        <time>2022-12-25T08:39:59Z</time>
      </trkpt>
      <trkpt lat="48.44134" lon="7.24572">
        <ele>487.6</ele>
        <time>2022-12-25T08:40:03Z</time>
      </trkpt>
      <trkpt lat="48.44131" lon="7.2458">
        <ele>488.2</ele>
        <time>2022-12-25T08:40:06Z</time>
      </trkpt>
      <trkpt lat="48.44123" lon="7.24595">
        <ele>489</ele>
        <time>2022-12-25T08:40:12Z</time>
      </trkpt>
      <trkpt lat="48.44121" lon="7.246">
        <ele>489.4</ele>
        <time>2022-12-25T08:40:14Z</time>
      </trkpt>
      <trkpt lat="48.44112" lon="7.24614">
        <ele>490.2</ele>
        <time>2022-12-25T08:40:20Z</time>
      </trkpt>
      <trkpt lat="48.4411" lon="7.24616">
        <ele>490.4</ele>
        <time>2022-12-25T08:40:21Z</time>
      </trkpt>
      <trkpt lat="48.44099" lon="7.24632">
        <ele>491.4</ele>
        <time>2022-12-25T08:40:28Z</time>
      </trkpt>
      <trkpt lat="48.44096" lon="7.24636">
        <ele>491.6</ele>
        <time>2022-12-25T08:40:30Z</time>
      </trkpt>
      <trkpt lat="48.4409" lon="7.24647">
        <ele>492.4</ele>
        <time>2022-12-25T08:40:35Z</time>
      </trkpt>
      <trkpt lat="48.44087" lon="7.24651">
        <ele>492.8</ele>
        <time>2022-12-25T08:40:37Z</time>
      </trkpt>
      <trkpt lat="48.44077" lon="7.24666">
        <ele>493.4</ele>
        <time>2022-12-25T08:40:44Z</time>
      </trkpt>
      <trkpt lat="48.44074" lon="7.2467">
        <ele>493.6</ele>
        <time>2022-12-25T08:40:46Z</time>
      </trkpt>
      <trkpt lat="48.44063" lon="7.24685">
        <ele>494.6</ele>
        <time>2022-12-25T08:40:53Z</time>
      </trkpt>
      <trkpt lat="48.44056" lon="7.24694">
        <ele>495.2</ele>
        <time>2022-12-25T08:40:58Z</time>
      </trkpt>
      <trkpt lat="48.44051" lon="7.24701">
        <ele>495.8</ele>
        <time>2022-12-25T08:41:01Z</time>
      </trkpt>
      <trkpt lat="48.44043" lon="7.24711">
        <ele>496.2</ele>
        <time>2022-12-25T08:41:05Z</time>
      </trkpt>
      <trkpt lat="48.44037" lon="7.24718">
        <ele>496.8</ele>
        <time>2022-12-25T08:41:09Z</time>
      </trkpt>
      <trkpt lat="48.44024" lon="7.24735">
        <ele>497.6</ele>
        <time>2022-12-25T08:41:17Z</time>
      </trkpt>
      <trkpt lat="48.44022" lon="7.24739">
        <ele>498</ele>
        <time>2022-12-25T08:41:19Z</time>
      </trkpt>
      <trkpt lat="48.44011" lon="7.24756">
        <ele>499</ele>
        <time>2022-12-25T08:41:26Z</time>
      </trkpt>
      <trkpt lat="48.4401" lon="7.24758">
        <ele>499</ele>
        <time>2022-12-25T08:41:27Z</time>
      </trkpt>
      <trkpt lat="48.44003" lon="7.2477">
        <ele>500</ele>
        <time>2022-12-25T08:41:32Z</time>
      </trkpt>
      <trkpt lat="48.43999" lon="7.24778">
        <ele>500.4</ele>
        <time>2022-12-25T08:41:35Z</time>
      </trkpt>
      <trkpt lat="48.43993" lon="7.24789">
        <ele>501.4</ele>
        <time>2022-12-25T08:41:40Z</time>
      </trkpt>
      <trkpt lat="48.4399" lon="7.24794">
        <ele>501.8</ele>
        <time>2022-12-25T08:41:42Z</time>
      </trkpt>
      <trkpt lat="48.43984" lon="7.24808">
        <ele>502.4</ele>
        <time>2022-12-25T08:41:48Z</time>
      </trkpt>
      <trkpt lat="48.43983" lon="7.24811">
        <ele>502.4</ele>
        <time>2022-12-25T08:41:49Z</time>
      </trkpt>
      <trkpt lat="48.43977" lon="7.2483">
        <ele>503.4</ele>
        <time>2022-12-25T08:41:56Z</time>
      </trkpt>
      <trkpt lat="48.43976" lon="7.24833">
        <ele>503.6</ele>
        <time>2022-12-25T08:41:57Z</time>
      </trkpt>
      <trkpt lat="48.43972" lon="7.24847">
        <ele>504.4</ele>
        <time>2022-12-25T08:42:02Z</time>
      </trkpt>
      <trkpt lat="48.4397" lon="7.24853">
        <ele>504.6</ele>
        <time>2022-12-25T08:42:04Z</time>
      </trkpt>
      <trkpt lat="48.43963" lon="7.24872">
        <ele>505.6</ele>
        <time>2022-12-25T08:42:11Z</time>
      </trkpt>
      <trkpt lat="48.43955" lon="7.24894">
        <ele>506.8</ele>
        <time>2022-12-25T08:42:19Z</time>
      </trkpt>
      <trkpt lat="48.43945" lon="7.24913">
        <ele>507.8</ele>
        <time>2022-12-25T08:42:27Z</time>
      </trkpt>
      <trkpt lat="48.43942" lon="7.24917">
        <ele>508</ele>
        <time>2022-12-25T08:42:29Z</time>
      </trkpt>
      <trkpt lat="48.43933" lon="7.2493">
        <ele>508.8</ele>
        <time>2022-12-25T08:42:35Z</time>
      </trkpt>
      <trkpt lat="48.43931" lon="7.24933">
        <ele>508.8</ele>
        <time>2022-12-25T08:42:36Z</time>
      </trkpt>
      <trkpt lat="48.43919" lon="7.24945">
        <ele>510</ele>
        <time>2022-12-25T08:42:43Z</time>
      </trkpt>
      <trkpt lat="48.43908" lon="7.24958">
        <ele>510.8</ele>
        <time>2022-12-25T08:42:50Z</time>
      </trkpt>
      <trkpt lat="48.43906" lon="7.24959">
        <ele>511</ele>
        <time>2022-12-25T08:42:51Z</time>
      </trkpt>
      <trkpt lat="48.43897" lon="7.24968">
        <ele>511.8</ele>
        <time>2022-12-25T08:42:57Z</time>
      </trkpt>
      <trkpt lat="48.43891" lon="7.24974">
        <ele>512</ele>
        <time>2022-12-25T08:43:00Z</time>
      </trkpt>
      <trkpt lat="48.43886" lon="7.24979">
        <ele>512.4</ele>
        <time>2022-12-25T08:43:03Z</time>
      </trkpt>
      <trkpt lat="48.43877" lon="7.24988">
        <ele>513</ele>
        <time>2022-12-25T08:43:09Z</time>
      </trkpt>
      <trkpt lat="48.43874" lon="7.24991">
        <ele>513.2</ele>
        <time>2022-12-25T08:43:11Z</time>
      </trkpt>
      <trkpt lat="48.43861" lon="7.25004">
        <ele>514</ele>
        <time>2022-12-25T08:43:19Z</time>
      </trkpt>
      <trkpt lat="48.4386" lon="7.25005">
        <ele>514.4</ele>
        <time>2022-12-25T08:43:20Z</time>
      </trkpt>
      <trkpt lat="48.43849" lon="7.25016">
        <ele>515.4</ele>
        <time>2022-12-25T08:43:26Z</time>
      </trkpt>
      <trkpt lat="48.43846" lon="7.25019">
        <ele>515.6</ele>
        <time>2022-12-25T08:43:28Z</time>
      </trkpt>
      <trkpt lat="48.43835" lon="7.25029">
        <ele>516.4</ele>
        <time>2022-12-25T08:43:34Z</time>
      </trkpt>
      <trkpt lat="48.43832" lon="7.25032">
        <ele>516.8</ele>
        <time>2022-12-25T08:43:36Z</time>
      </trkpt>
      <trkpt lat="48.43823" lon="7.25043">
        <ele>517.6</ele>
        <time>2022-12-25T08:43:42Z</time>
      </trkpt>
      <trkpt lat="48.43817" lon="7.25048">
        <ele>518</ele>
        <time>2022-12-25T08:43:45Z</time>
      </trkpt>
      <trkpt lat="48.4381" lon="7.25058">
        <ele>518.4</ele>
        <time>2022-12-25T08:43:50Z</time>
      </trkpt>
      <trkpt lat="48.43803" lon="7.25066">
        <ele>519</ele>
        <time>2022-12-25T08:43:54Z</time>
      </trkpt>
      <trkpt lat="48.438" lon="7.2507">
        <ele>519.2</ele>
        <time>2022-12-25T08:43:56Z</time>
      </trkpt>
      <trkpt lat="48.43786" lon="7.25085">
        <ele>520</ele>
        <time>2022-12-25T08:44:03Z</time>
      </trkpt>
      <trkpt lat="48.43784" lon="7.25087">
        <ele>520</ele>
        <time>2022-12-25T08:44:04Z</time>
      </trkpt>
      <trkpt lat="48.43775" lon="7.251">
        <ele>520.6</ele>
        <time>2022-12-25T08:44:10Z</time>
      </trkpt>
      <trkpt lat="48.4377" lon="7.25123">
        <ele>521</ele>
        <time>2022-12-25T08:44:17Z</time>
      </trkpt>
      <trkpt lat="48.4377" lon="7.25127">
        <ele>521</ele>
        <time>2022-12-25T08:44:18Z</time>
      </trkpt>
      <trkpt lat="48.43772" lon="7.2516">
        <ele>521.4</ele>
        <time>2022-12-25T08:44:26Z</time>
      </trkpt>
      <trkpt lat="48.43773" lon="7.25185">
        <ele>521.6</ele>
        <time>2022-12-25T08:44:32Z</time>
      </trkpt>
      <trkpt lat="48.43771" lon="7.25199">
        <ele>521.8</ele>
        <time>2022-12-25T08:44:36Z</time>
      </trkpt>
      <trkpt lat="48.43769" lon="7.2521">
        <ele>521.8</ele>
        <time>2022-12-25T08:44:39Z</time>
      </trkpt>
      <trkpt lat="48.43767" lon="7.25222">
        <ele>522.2</ele>
        <time>2022-12-25T08:44:43Z</time>
      </trkpt>
      <trkpt lat="48.43766" lon="7.25235">
        <ele>522.6</ele>
        <time>2022-12-25T08:44:47Z</time>
      </trkpt>
      <trkpt lat="48.43765" lon="7.25266">
        <ele>523</ele>
        <time>2022-12-25T08:44:55Z</time>
      </trkpt>
      <trkpt lat="48.43765" lon="7.2527">
        <ele>523.2</ele>
        <time>2022-12-25T08:44:56Z</time>
      </trkpt>
      <trkpt lat="48.43762" lon="7.25309">
        <ele>522.8</ele>
        <time>2022-12-25T08:45:05Z</time>
      </trkpt>
      <trkpt lat="48.43758" lon="7.25337">
        <ele>522.6</ele>
        <time>2022-12-25T08:45:11Z</time>
      </trkpt>
      <trkpt lat="48.43755" lon="7.25357">
        <ele>522.4</ele>
        <time>2022-12-25T08:45:16Z</time>
      </trkpt>
      <trkpt lat="48.43747" lon="7.25378">
        <ele>522.4</ele>
        <time>2022-12-25T08:45:22Z</time>
      </trkpt>
      <trkpt lat="48.43745" lon="7.25381">
        <ele>522.4</ele>
        <time>2022-12-25T08:45:23Z</time>
      </trkpt>
      <trkpt lat="48.43734" lon="7.25403">
        <ele>522.6</ele>
        <time>2022-12-25T08:45:30Z</time>
      </trkpt>
      <trkpt lat="48.43732" lon="7.25417">
        <ele>522.8</ele>
        <time>2022-12-25T08:45:34Z</time>
      </trkpt>
      <trkpt lat="48.43732" lon="7.2542">
        <ele>523.2</ele>
        <time>2022-12-25T08:45:35Z</time>
      </trkpt>
      <trkpt lat="48.43732" lon="7.25435">
        <ele>524.2</ele>
        <time>2022-12-25T08:45:40Z</time>
      </trkpt>
      <trkpt lat="48.43733" lon="7.25438">
        <ele>524.4</ele>
        <time>2022-12-25T08:45:41Z</time>
      </trkpt>
      <trkpt lat="48.43736" lon="7.25449">
        <ele>524.6</ele>
        <time>2022-12-25T08:45:45Z</time>
      </trkpt>
      <trkpt lat="48.43738" lon="7.25457">
        <ele>524.8</ele>
        <time>2022-12-25T08:45:48Z</time>
      </trkpt>
      <trkpt lat="48.43739" lon="7.25463">
        <ele>525</ele>
        <time>2022-12-25T08:45:50Z</time>
      </trkpt>
      <trkpt lat="48.43742" lon="7.25471">
        <ele>525</ele>
        <time>2022-12-25T08:45:53Z</time>
      </trkpt>
      <trkpt lat="48.43743" lon="7.25477">
        <ele>525.4</ele>
        <time>2022-12-25T08:45:55Z</time>
      </trkpt>
      <trkpt lat="48.43743" lon="7.2548">
        <ele>525.4</ele>
        <time>2022-12-25T08:45:56Z</time>
      </trkpt>
      <trkpt lat="48.43739" lon="7.25493">
        <ele>526</ele>
        <time>2022-12-25T08:46:00Z</time>
      </trkpt>
      <trkpt lat="48.43737" lon="7.25498">
        <ele>526.4</ele>
        <time>2022-12-25T08:46:02Z</time>
      </trkpt>
      <trkpt lat="48.43735" lon="7.25503">
        <ele>526.6</ele>
        <time>2022-12-25T08:46:04Z</time>
      </trkpt>
      <trkpt lat="48.43731" lon="7.25514">
        <ele>527.8</ele>
        <time>2022-12-25T08:46:08Z</time>
      </trkpt>
      <trkpt lat="48.43721" lon="7.2554">
        <ele>528.8</ele>
        <time>2022-12-25T08:46:17Z</time>
      </trkpt>
      <trkpt lat="48.4372" lon="7.25543">
        <ele>528.8</ele>
        <time>2022-12-25T08:46:18Z</time>
      </trkpt>
      <trkpt lat="48.43715" lon="7.25557">
        <ele>529.4</ele>
        <time>2022-12-25T08:46:23Z</time>
      </trkpt>
      <trkpt lat="48.43712" lon="7.25565">
        <ele>529.8</ele>
        <time>2022-12-25T08:46:26Z</time>
      </trkpt>
      <trkpt lat="48.4371" lon="7.25574">
        <ele>530</ele>
        <time>2022-12-25T08:46:29Z</time>
      </trkpt>
      <trkpt lat="48.43708" lon="7.25589">
        <ele>530.8</ele>
        <time>2022-12-25T08:46:34Z</time>
      </trkpt>
      <trkpt lat="48.43708" lon="7.25592">
        <ele>531</ele>
        <time>2022-12-25T08:46:35Z</time>
      </trkpt>
      <trkpt lat="48.43707" lon="7.25614">
        <ele>532</ele>
        <time>2022-12-25T08:46:42Z</time>
      </trkpt>
      <trkpt lat="48.43707" lon="7.25617">
        <ele>532.2</ele>
        <time>2022-12-25T08:46:43Z</time>
      </trkpt>
      <trkpt lat="48.43704" lon="7.25642">
        <ele>533.2</ele>
        <time>2022-12-25T08:46:51Z</time>
      </trkpt>
      <trkpt lat="48.43695" lon="7.25658">
        <ele>534.2</ele>
        <time>2022-12-25T08:46:58Z</time>
      </trkpt>
      <trkpt lat="48.43694" lon="7.25661">
        <ele>534.4</ele>
        <time>2022-12-25T08:46:59Z</time>
      </trkpt>
      <trkpt lat="48.43691" lon="7.25665">
        <ele>534.6</ele>
        <time>2022-12-25T08:47:01Z</time>
      </trkpt>
      <trkpt lat="48.43688" lon="7.2567">
        <ele>535</ele>
        <time>2022-12-25T08:47:03Z</time>
      </trkpt>
      <trkpt lat="48.43685" lon="7.25675">
        <ele>535.4</ele>
        <time>2022-12-25T08:47:05Z</time>
      </trkpt>
      <trkpt lat="48.43678" lon="7.25686">
        <ele>536</ele>
        <time>2022-12-25T08:47:10Z</time>
      </trkpt>
      <trkpt lat="48.43676" lon="7.2569">
        <ele>536.4</ele>
        <time>2022-12-25T08:47:12Z</time>
      </trkpt>
      <trkpt lat="48.43669" lon="7.25706">
        <ele>537.6</ele>
        <time>2022-12-25T08:47:18Z</time>
      </trkpt>
      <trkpt lat="48.43668" lon="7.25709">
        <ele>537.6</ele>
        <time>2022-12-25T08:47:19Z</time>
      </trkpt>
      <trkpt lat="48.43664" lon="7.25731">
        <ele>538.4</ele>
        <time>2022-12-25T08:47:26Z</time>
      </trkpt>
      <trkpt lat="48.43662" lon="7.25737">
        <ele>538.6</ele>
        <time>2022-12-25T08:47:28Z</time>
      </trkpt>
      <trkpt lat="48.4366" lon="7.25747">
        <ele>539</ele>
        <time>2022-12-25T08:47:31Z</time>
      </trkpt>
      <trkpt lat="48.43656" lon="7.25762">
        <ele>539.8</ele>
        <time>2022-12-25T08:47:36Z</time>
      </trkpt>
      <trkpt lat="48.43654" lon="7.25768">
        <ele>540</ele>
        <time>2022-12-25T08:47:38Z</time>
      </trkpt>
      <trkpt lat="48.43651" lon="7.25786">
        <ele>540.8</ele>
        <time>2022-12-25T08:47:44Z</time>
      </trkpt>
      <trkpt lat="48.43649" lon="7.25794">
        <ele>541.4</ele>
        <time>2022-12-25T08:47:47Z</time>
      </trkpt>
      <trkpt lat="48.43647" lon="7.25802">
        <ele>541.8</ele>
        <time>2022-12-25T08:47:50Z</time>
      </trkpt>
      <trkpt lat="48.43645" lon="7.25805">
        <ele>542</ele>
        <time>2022-12-25T08:47:52Z</time>
      </trkpt>
      <trkpt lat="48.43645" lon="7.25809">
        <ele>542.6</ele>
        <time>2022-12-25T08:50:02Z</time>
      </trkpt>
      <trkpt lat="48.43645" lon="7.25809">
        <ele>542.6</ele>
        <time>2022-12-25T08:50:05Z</time>
      </trkpt>
      <trkpt lat="48.43645" lon="7.25809">
        <ele>542.8</ele>
        <time>2022-12-25T08:50:08Z</time>
      </trkpt>
      <trkpt lat="48.43645" lon="7.25812">
        <ele>543</ele>
        <time>2022-12-25T08:50:09Z</time>
      </trkpt>
      <trkpt lat="48.43644" lon="7.2582">
        <ele>543</ele>
        <time>2022-12-25T08:50:12Z</time>
      </trkpt>
      <trkpt lat="48.43642" lon="7.25836">
        <ele>543.6</ele>
        <time>2022-12-25T08:50:18Z</time>
      </trkpt>
      <trkpt lat="48.43641" lon="7.25845">
        <ele>544.2</ele>
        <time>2022-12-25T08:50:22Z</time>
      </trkpt>
      <trkpt lat="48.4364" lon="7.2585">
        <ele>544.6</ele>
        <time>2022-12-25T08:50:24Z</time>
      </trkpt>
      <trkpt lat="48.4364" lon="7.25853">
        <ele>544.6</ele>
        <time>2022-12-25T08:50:25Z</time>
      </trkpt>
      <trkpt lat="48.43637" lon="7.25867">
        <ele>545.4</ele>
        <time>2022-12-25T08:50:31Z</time>
      </trkpt>
      <trkpt lat="48.43635" lon="7.25872">
        <ele>545.4</ele>
        <time>2022-12-25T08:50:33Z</time>
      </trkpt>
      <trkpt lat="48.43633" lon="7.25884">
        <ele>546.4</ele>
        <time>2022-12-25T08:50:38Z</time>
      </trkpt>
      <trkpt lat="48.43632" lon="7.25887">
        <ele>546.4</ele>
        <time>2022-12-25T08:50:39Z</time>
      </trkpt>
      <trkpt lat="48.43626" lon="7.25904">
        <ele>547.4</ele>
        <time>2022-12-25T08:50:47Z</time>
      </trkpt>
      <trkpt lat="48.43626" lon="7.25904">
        <ele>547.6</ele>
        <time>2022-12-25T08:50:48Z</time>
      </trkpt>
      <trkpt lat="48.43626" lon="7.25904">
        <ele>548.2</ele>
        <time>2022-12-25T08:51:00Z</time>
      </trkpt>
      <trkpt lat="48.43626" lon="7.25904">
        <ele>548.2</ele>
        <time>2022-12-25T08:51:04Z</time>
      </trkpt>
      <trkpt lat="48.43626" lon="7.25904">
        <ele>548</ele>
        <time>2022-12-25T08:51:13Z</time>
      </trkpt>
      <trkpt lat="48.43626" lon="7.25904">
        <ele>548</ele>
        <time>2022-12-25T08:51:22Z</time>
      </trkpt>
      <trkpt lat="48.43626" lon="7.25904">
        <ele>548</ele>
        <time>2022-12-25T08:51:24Z</time>
      </trkpt>
      <trkpt lat="48.43626" lon="7.25904">
        <ele>548</ele>
        <time>2022-12-25T08:51:25Z</time>
      </trkpt>
      <trkpt lat="48.43626" lon="7.25904">
        <ele>547.8</ele>
        <time>2022-12-25T08:51:39Z</time>
      </trkpt>
      <trkpt lat="48.43623" lon="7.25911">
        <ele>548.2</ele>
        <time>2022-12-25T08:51:47Z</time>
      </trkpt>
      <trkpt lat="48.4362" lon="7.25919">
        <ele>548.4</ele>
        <time>2022-12-25T08:51:50Z</time>
      </trkpt>
      <trkpt lat="48.43616" lon="7.25927">
        <ele>549</ele>
        <time>2022-12-25T08:51:53Z</time>
      </trkpt>
      <trkpt lat="48.43614" lon="7.25931">
        <ele>549</ele>
        <time>2022-12-25T08:51:55Z</time>
      </trkpt>
      <trkpt lat="48.43611" lon="7.25937">
        <ele>549.6</ele>
        <time>2022-12-25T08:51:58Z</time>
      </trkpt>
      <trkpt lat="48.43607" lon="7.25944">
        <ele>550</ele>
        <time>2022-12-25T08:52:01Z</time>
      </trkpt>
      <trkpt lat="48.43606" lon="7.25946">
        <ele>550.2</ele>
        <time>2022-12-25T08:52:02Z</time>
      </trkpt>
      <trkpt lat="48.43601" lon="7.25955">
        <ele>550.8</ele>
        <time>2022-12-25T08:52:06Z</time>
      </trkpt>
      <trkpt lat="48.43597" lon="7.25964">
        <ele>551.4</ele>
        <time>2022-12-25T08:52:10Z</time>
      </trkpt>
      <trkpt lat="48.43594" lon="7.25969">
        <ele>551.6</ele>
        <time>2022-12-25T08:52:12Z</time>
      </trkpt>
      <trkpt lat="48.43591" lon="7.25974">
        <ele>552</ele>
        <time>2022-12-25T08:52:14Z</time>
      </trkpt>
      <trkpt lat="48.43587" lon="7.25981">
        <ele>552.6</ele>
        <time>2022-12-25T08:52:17Z</time>
      </trkpt>
      <trkpt lat="48.43584" lon="7.25988">
        <ele>553.2</ele>
        <time>2022-12-25T08:52:20Z</time>
      </trkpt>
      <trkpt lat="48.43579" lon="7.25997">
        <ele>553.8</ele>
        <time>2022-12-25T08:52:24Z</time>
      </trkpt>
      <trkpt lat="48.43577" lon="7.26001">
        <ele>554.2</ele>
        <time>2022-12-25T08:52:26Z</time>
      </trkpt>
      <trkpt lat="48.43573" lon="7.26013">
        <ele>554.8</ele>
        <time>2022-12-25T08:52:31Z</time>
      </trkpt>
      <trkpt lat="48.43572" lon="7.26019">
        <ele>555.4</ele>
        <time>2022-12-25T08:52:33Z</time>
      </trkpt>
      <trkpt lat="48.43573" lon="7.26033">
        <ele>556.2</ele>
        <time>2022-12-25T08:52:38Z</time>
      </trkpt>
      <trkpt lat="48.43575" lon="7.26037">
        <ele>556.4</ele>
        <time>2022-12-25T08:52:40Z</time>
      </trkpt>
      <trkpt lat="48.43581" lon="7.26042">
        <ele>556.8</ele>
        <time>2022-12-25T08:52:43Z</time>
      </trkpt>
      <trkpt lat="48.43591" lon="7.26045">
        <ele>557.4</ele>
        <time>2022-12-25T08:52:48Z</time>
      </trkpt>
      <trkpt lat="48.43595" lon="7.26045">
        <ele>557.6</ele>
        <time>2022-12-25T08:52:50Z</time>
      </trkpt>
      <trkpt lat="48.43605" lon="7.26038">
        <ele>558.6</ele>
        <time>2022-12-25T08:52:55Z</time>
      </trkpt>
      <trkpt lat="48.43608" lon="7.26034">
        <ele>559</ele>
        <time>2022-12-25T08:52:57Z</time>
      </trkpt>
      <trkpt lat="48.43621" lon="7.26022">
        <ele>559.6</ele>
        <time>2022-12-25T08:53:04Z</time>
      </trkpt>
      <trkpt lat="48.43625" lon="7.26019">
        <ele>560</ele>
        <time>2022-12-25T08:53:06Z</time>
      </trkpt>
      <trkpt lat="48.43638" lon="7.26007">
        <ele>560.6</ele>
        <time>2022-12-25T08:53:13Z</time>
      </trkpt>
      <trkpt lat="48.43639" lon="7.26005">
        <ele>560.8</ele>
        <time>2022-12-25T08:53:14Z</time>
      </trkpt>
      <trkpt lat="48.43653" lon="7.25991">
        <ele>561.2</ele>
        <time>2022-12-25T08:53:20Z</time>
      </trkpt>
      <trkpt lat="48.43667" lon="7.25983">
        <ele>561.4</ele>
        <time>2022-12-25T08:53:25Z</time>
      </trkpt>
      <trkpt lat="48.43685" lon="7.2596">
        <ele>561.8</ele>
        <time>2022-12-25T08:53:32Z</time>
      </trkpt>
      <trkpt lat="48.43705" lon="7.25929">
        <ele>562</ele>
        <time>2022-12-25T08:53:40Z</time>
      </trkpt>
      <trkpt lat="48.43716" lon="7.25908">
        <ele>561.6</ele>
        <time>2022-12-25T08:53:45Z</time>
      </trkpt>
      <trkpt lat="48.43725" lon="7.25892">
        <ele>561.4</ele>
        <time>2022-12-25T08:53:49Z</time>
      </trkpt>
      <trkpt lat="48.43738" lon="7.25869">
        <ele>561.2</ele>
        <time>2022-12-25T08:53:55Z</time>
      </trkpt>
      <trkpt lat="48.43744" lon="7.25858">
        <ele>561</ele>
        <time>2022-12-25T08:53:58Z</time>
      </trkpt>
      <trkpt lat="48.43753" lon="7.25844">
        <ele>561</ele>
        <time>2022-12-25T08:54:02Z</time>
      </trkpt>
      <trkpt lat="48.43756" lon="7.25838">
        <ele>561</ele>
        <time>2022-12-25T08:54:04Z</time>
      </trkpt>
      <trkpt lat="48.4376" lon="7.25831">
        <ele>561.2</ele>
        <time>2022-12-25T08:54:06Z</time>
      </trkpt>
      <trkpt lat="48.43773" lon="7.25811">
        <ele>561.6</ele>
        <time>2022-12-25T08:54:13Z</time>
      </trkpt>
      <trkpt lat="48.43787" lon="7.25793">
        <ele>562.4</ele>
        <time>2022-12-25T08:54:20Z</time>
      </trkpt>
      <trkpt lat="48.43797" lon="7.25777">
        <ele>563</ele>
        <time>2022-12-25T08:54:26Z</time>
      </trkpt>
      <trkpt lat="48.43799" lon="7.25775">
        <ele>563.2</ele>
        <time>2022-12-25T08:54:27Z</time>
      </trkpt>
      <trkpt lat="48.43811" lon="7.25762">
        <ele>563.8</ele>
        <time>2022-12-25T08:54:33Z</time>
      </trkpt>
      <trkpt lat="48.43817" lon="7.25753">
        <ele>564.2</ele>
        <time>2022-12-25T08:54:37Z</time>
      </trkpt>
      <trkpt lat="48.43824" lon="7.25743">
        <ele>564.8</ele>
        <time>2022-12-25T08:54:41Z</time>
      </trkpt>
      <trkpt lat="48.43828" lon="7.25738">
        <ele>565.2</ele>
        <time>2022-12-25T08:54:43Z</time>
      </trkpt>
      <trkpt lat="48.4383" lon="7.25732">
        <ele>565.2</ele>
        <time>2022-12-25T08:54:45Z</time>
      </trkpt>
      <trkpt lat="48.43836" lon="7.25717">
        <ele>565.6</ele>
        <time>2022-12-25T08:54:50Z</time>
      </trkpt>
      <trkpt lat="48.43838" lon="7.25701">
        <ele>566.2</ele>
        <time>2022-12-25T08:54:55Z</time>
      </trkpt>
      <trkpt lat="48.43839" lon="7.25691">
        <ele>566.6</ele>
        <time>2022-12-25T08:54:58Z</time>
      </trkpt>
      <trkpt lat="48.43839" lon="7.25669">
        <ele>567.2</ele>
        <time>2022-12-25T08:55:04Z</time>
      </trkpt>
      <trkpt lat="48.43842" lon="7.25643">
        <ele>568</ele>
        <time>2022-12-25T08:55:11Z</time>
      </trkpt>
      <trkpt lat="48.43847" lon="7.25623">
        <ele>568.4</ele>
        <time>2022-12-25T08:55:17Z</time>
      </trkpt>
      <trkpt lat="48.43848" lon="7.2562">
        <ele>568.4</ele>
        <time>2022-12-25T08:55:18Z</time>
      </trkpt>
      <trkpt lat="48.43854" lon="7.25597">
        <ele>569.2</ele>
        <time>2022-12-25T08:55:25Z</time>
      </trkpt>
      <trkpt lat="48.43856" lon="7.25591">
        <ele>569.4</ele>
        <time>2022-12-25T08:55:27Z</time>
      </trkpt>
      <trkpt lat="48.43862" lon="7.25572">
        <ele>570</ele>
        <time>2022-12-25T08:55:33Z</time>
      </trkpt>
      <trkpt lat="48.43865" lon="7.25563">
        <ele>570.4</ele>
        <time>2022-12-25T08:55:36Z</time>
      </trkpt>
      <trkpt lat="48.43873" lon="7.25545">
        <ele>571.2</ele>
        <time>2022-12-25T08:55:42Z</time>
      </trkpt>
      <trkpt lat="48.43877" lon="7.25536">
        <ele>571.6</ele>
        <time>2022-12-25T08:55:45Z</time>
      </trkpt>
      <trkpt lat="48.43886" lon="7.2552">
        <ele>572</ele>
        <time>2022-12-25T08:55:51Z</time>
      </trkpt>
      <trkpt lat="48.43896" lon="7.25505">
        <ele>572.6</ele>
        <time>2022-12-25T08:55:57Z</time>
      </trkpt>
      <trkpt lat="48.43902" lon="7.25498">
        <ele>573</ele>
        <time>2022-12-25T08:56:00Z</time>
      </trkpt>
      <trkpt lat="48.43915" lon="7.25483">
        <ele>573.6</ele>
        <time>2022-12-25T08:56:07Z</time>
      </trkpt>
      <trkpt lat="48.4392" lon="7.25479">
        <ele>573.8</ele>
        <time>2022-12-25T08:56:09Z</time>
      </trkpt>
      <trkpt lat="48.43931" lon="7.25471">
        <ele>574.4</ele>
        <time>2022-12-25T08:56:14Z</time>
      </trkpt>
      <trkpt lat="48.43944" lon="7.25461">
        <ele>574.6</ele>
        <time>2022-12-25T08:56:20Z</time>
      </trkpt>
      <trkpt lat="48.43949" lon="7.25457">
        <ele>574.8</ele>
        <time>2022-12-25T08:56:22Z</time>
      </trkpt>
      <trkpt lat="48.43963" lon="7.25445">
        <ele>574.8</ele>
        <time>2022-12-25T08:56:28Z</time>
      </trkpt>
      <trkpt lat="48.43966" lon="7.25443">
        <ele>574.8</ele>
        <time>2022-12-25T08:56:29Z</time>
      </trkpt>
      <trkpt lat="48.4398" lon="7.25427">
        <ele>574.8</ele>
        <time>2022-12-25T08:56:34Z</time>
      </trkpt>
      <trkpt lat="48.43999" lon="7.25413">
        <ele>574.4</ele>
        <time>2022-12-25T08:56:40Z</time>
      </trkpt>
      <trkpt lat="48.44003" lon="7.2541">
        <ele>574.4</ele>
        <time>2022-12-25T08:56:42Z</time>
      </trkpt>
      <trkpt lat="48.44007" lon="7.25407">
        <ele>574.4</ele>
        <time>2022-12-25T08:56:44Z</time>
      </trkpt>
      <trkpt lat="48.4401" lon="7.25403">
        <ele>574.6</ele>
        <time>2022-12-25T08:56:46Z</time>
      </trkpt>
      <trkpt lat="48.44013" lon="7.25386">
        <ele>575.6</ele>
        <time>2022-12-25T08:56:51Z</time>
      </trkpt>
      <trkpt lat="48.44013" lon="7.25383">
        <ele>575.8</ele>
        <time>2022-12-25T08:56:52Z</time>
      </trkpt>
      <trkpt lat="48.4401" lon="7.25361">
        <ele>576.4</ele>
        <time>2022-12-25T08:56:59Z</time>
      </trkpt>
      <trkpt lat="48.44001" lon="7.25334">
        <ele>576.8</ele>
        <time>2022-12-25T08:57:06Z</time>
      </trkpt>
      <trkpt lat="48.43988" lon="7.25315">
        <ele>577</ele>
        <time>2022-12-25T08:57:12Z</time>
      </trkpt>
      <trkpt lat="48.43973" lon="7.25302">
        <ele>577.6</ele>
        <time>2022-12-25T08:57:19Z</time>
      </trkpt>
      <trkpt lat="48.43968" lon="7.25299">
        <ele>578</ele>
        <time>2022-12-25T08:57:21Z</time>
      </trkpt>
      <trkpt lat="48.43957" lon="7.25289">
        <ele>579</ele>
        <time>2022-12-25T08:57:26Z</time>
      </trkpt>
      <trkpt lat="48.43955" lon="7.25287">
        <ele>579.2</ele>
        <time>2022-12-25T08:57:27Z</time>
      </trkpt>
      <trkpt lat="48.43952" lon="7.2527">
        <ele>580</ele>
        <time>2022-12-25T08:57:32Z</time>
      </trkpt>
      <trkpt lat="48.43952" lon="7.25266">
        <ele>580.4</ele>
        <time>2022-12-25T08:57:33Z</time>
      </trkpt>
      <trkpt lat="48.43953" lon="7.25259">
        <ele>580.8</ele>
        <time>2022-12-25T08:57:35Z</time>
      </trkpt>
      <trkpt lat="48.43955" lon="7.25248">
        <ele>581.2</ele>
        <time>2022-12-25T08:57:38Z</time>
      </trkpt>
      <trkpt lat="48.43957" lon="7.25236">
        <ele>581.4</ele>
        <time>2022-12-25T08:57:41Z</time>
      </trkpt>
      <trkpt lat="48.43962" lon="7.25214">
        <ele>582</ele>
        <time>2022-12-25T08:57:47Z</time>
      </trkpt>
      <trkpt lat="48.4397" lon="7.25193">
        <ele>582.4</ele>
        <time>2022-12-25T08:57:53Z</time>
      </trkpt>
      <trkpt lat="48.43976" lon="7.2518">
        <ele>582.8</ele>
        <time>2022-12-25T08:57:57Z</time>
      </trkpt>
      <trkpt lat="48.43991" lon="7.2515">
        <ele>583.4</ele>
        <time>2022-12-25T08:58:06Z</time>
      </trkpt>
      <trkpt lat="48.44008" lon="7.25133">
        <ele>584.2</ele>
        <time>2022-12-25T08:58:14Z</time>
      </trkpt>
      <trkpt lat="48.44015" lon="7.2513">
        <ele>584.4</ele>
        <time>2022-12-25T08:58:17Z</time>
      </trkpt>
      <trkpt lat="48.44037" lon="7.25119">
        <ele>585.4</ele>
        <time>2022-12-25T08:58:26Z</time>
      </trkpt>
      <trkpt lat="48.44044" lon="7.25116">
        <ele>585.6</ele>
        <time>2022-12-25T08:58:29Z</time>
      </trkpt>
      <trkpt lat="48.44057" lon="7.2511">
        <ele>586</ele>
        <time>2022-12-25T08:58:34Z</time>
      </trkpt>
      <trkpt lat="48.44071" lon="7.25106">
        <ele>586.8</ele>
        <time>2022-12-25T08:58:40Z</time>
      </trkpt>
      <trkpt lat="48.44076" lon="7.25106">
        <ele>586.8</ele>
        <time>2022-12-25T08:58:42Z</time>
      </trkpt>
      <trkpt lat="48.44095" lon="7.25113">
        <ele>587.8</ele>
        <time>2022-12-25T08:58:50Z</time>
      </trkpt>
      <trkpt lat="48.44098" lon="7.25114">
        <ele>588</ele>
        <time>2022-12-25T08:58:51Z</time>
      </trkpt>
      <trkpt lat="48.44109" lon="7.25127">
        <ele>589</ele>
        <time>2022-12-25T08:58:57Z</time>
      </trkpt>
      <trkpt lat="48.44111" lon="7.25129">
        <ele>589</ele>
        <time>2022-12-25T08:58:58Z</time>
      </trkpt>
      <trkpt lat="48.4412" lon="7.25143">
        <ele>590</ele>
        <time>2022-12-25T08:59:04Z</time>
      </trkpt>
      <trkpt lat="48.44126" lon="7.25152">
        <ele>590.6</ele>
        <time>2022-12-25T08:59:08Z</time>
      </trkpt>
      <trkpt lat="48.4413" lon="7.2516">
        <ele>591</ele>
        <time>2022-12-25T08:59:11Z</time>
      </trkpt>
      <trkpt lat="48.44137" lon="7.25168">
        <ele>591.8</ele>
        <time>2022-12-25T08:59:15Z</time>
      </trkpt>
      <trkpt lat="48.4414" lon="7.25172">
        <ele>592.2</ele>
        <time>2022-12-25T08:59:17Z</time>
      </trkpt>
      <trkpt lat="48.4415" lon="7.25181">
        <ele>593</ele>
        <time>2022-12-25T08:59:22Z</time>
      </trkpt>
      <trkpt lat="48.44154" lon="7.25185">
        <ele>593.4</ele>
        <time>2022-12-25T08:59:24Z</time>
      </trkpt>
      <trkpt lat="48.44167" lon="7.25195">
        <ele>594.2</ele>
        <time>2022-12-25T08:59:31Z</time>
      </trkpt>
      <trkpt lat="48.44169" lon="7.25196">
        <ele>594.4</ele>
        <time>2022-12-25T08:59:32Z</time>
      </trkpt>
      <trkpt lat="48.44187" lon="7.25201">
        <ele>595.4</ele>
        <time>2022-12-25T08:59:40Z</time>
      </trkpt>
      <trkpt lat="48.442" lon="7.25198">
        <ele>596.4</ele>
        <time>2022-12-25T08:59:46Z</time>
      </trkpt>
      <trkpt lat="48.44206" lon="7.25195">
        <ele>596.8</ele>
        <time>2022-12-25T08:59:49Z</time>
      </trkpt>
      <trkpt lat="48.44216" lon="7.25189">
        <ele>597.6</ele>
        <time>2022-12-25T08:59:54Z</time>
      </trkpt>
      <trkpt lat="48.44221" lon="7.25185">
        <ele>598</ele>
        <time>2022-12-25T08:59:57Z</time>
      </trkpt>
      <trkpt lat="48.44233" lon="7.25178">
        <ele>598.6</ele>
        <time>2022-12-25T09:00:03Z</time>
      </trkpt>
      <trkpt lat="48.44236" lon="7.25176">
        <ele>598.8</ele>
        <time>2022-12-25T09:00:05Z</time>
      </trkpt>
      <trkpt lat="48.44245" lon="7.25172">
        <ele>599.6</ele>
        <time>2022-12-25T09:00:09Z</time>
      </trkpt>
      <trkpt lat="48.44255" lon="7.25162">
        <ele>600.2</ele>
        <time>2022-12-25T09:00:14Z</time>
      </trkpt>
      <trkpt lat="48.4426" lon="7.25155">
        <ele>600.6</ele>
        <time>2022-12-25T09:00:17Z</time>
      </trkpt>
      <trkpt lat="48.44269" lon="7.25139">
        <ele>601.8</ele>
        <time>2022-12-25T09:00:24Z</time>
      </trkpt>
      <trkpt lat="48.44283" lon="7.25118">
        <ele>602.8</ele>
        <time>2022-12-25T09:00:32Z</time>
      </trkpt>
      <trkpt lat="48.44283" lon="7.25118">
        <ele>603</ele>
        <time>2022-12-25T09:00:33Z</time>
      </trkpt>
      <trkpt lat="48.44295" lon="7.25108">
        <ele>603.8</ele>
        <time>2022-12-25T09:00:39Z</time>
      </trkpt>
      <trkpt lat="48.44297" lon="7.25106">
        <ele>604</ele>
        <time>2022-12-25T09:00:40Z</time>
      </trkpt>
      <trkpt lat="48.44307" lon="7.25097">
        <ele>604.8</ele>
        <time>2022-12-25T09:00:47Z</time>
      </trkpt>
      <trkpt lat="48.44311" lon="7.25094">
        <ele>605.2</ele>
        <time>2022-12-25T09:00:49Z</time>
      </trkpt>
      <trkpt lat="48.44324" lon="7.25084">
        <ele>606.2</ele>
        <time>2022-12-25T09:00:56Z</time>
      </trkpt>
      <trkpt lat="48.44337" lon="7.25074">
        <ele>607</ele>
        <time>2022-12-25T09:01:02Z</time>
      </trkpt>
      <trkpt lat="48.44339" lon="7.25073">
        <ele>607.2</ele>
        <time>2022-12-25T09:01:04Z</time>
      </trkpt>
      <trkpt lat="48.44345" lon="7.25071">
        <ele>607.6</ele>
        <time>2022-12-25T09:01:07Z</time>
      </trkpt>
      <trkpt lat="48.44351" lon="7.2507">
        <ele>608.2</ele>
        <time>2022-12-25T09:01:10Z</time>
      </trkpt>
      <trkpt lat="48.44366" lon="7.25068">
        <ele>609.4</ele>
        <time>2022-12-25T09:01:17Z</time>
      </trkpt>
      <trkpt lat="48.44381" lon="7.25066">
        <ele>610.2</ele>
        <time>2022-12-25T09:01:24Z</time>
      </trkpt>
      <trkpt lat="48.44385" lon="7.25065">
        <ele>610.4</ele>
        <time>2022-12-25T09:01:26Z</time>
      </trkpt>
      <trkpt lat="48.44397" lon="7.25066">
        <ele>611.4</ele>
        <time>2022-12-25T09:01:32Z</time>
      </trkpt>
      <trkpt lat="48.44399" lon="7.25067">
        <ele>611.4</ele>
        <time>2022-12-25T09:01:33Z</time>
      </trkpt>
      <trkpt lat="48.44412" lon="7.25071">
        <ele>612.4</ele>
        <time>2022-12-25T09:01:39Z</time>
      </trkpt>
      <trkpt lat="48.44414" lon="7.25071">
        <ele>612.4</ele>
        <time>2022-12-25T09:01:40Z</time>
      </trkpt>
      <trkpt lat="48.44416" lon="7.25071">
        <ele>612.6</ele>
        <time>2022-12-25T09:01:41Z</time>
      </trkpt>
      <trkpt lat="48.44419" lon="7.25073">
        <ele>613</ele>
        <time>2022-12-25T09:01:43Z</time>
      </trkpt>
      <trkpt lat="48.44424" lon="7.25076">
        <ele>613.6</ele>
        <time>2022-12-25T09:01:46Z</time>
      </trkpt>
      <trkpt lat="48.4443" lon="7.25079">
        <ele>614.2</ele>
        <time>2022-12-25T09:01:49Z</time>
      </trkpt>
      <trkpt lat="48.44437" lon="7.25081">
        <ele>614.6</ele>
        <time>2022-12-25T09:01:52Z</time>
      </trkpt>
      <trkpt lat="48.44448" lon="7.25077">
        <ele>615.4</ele>
        <time>2022-12-25T09:01:57Z</time>
      </trkpt>
      <trkpt lat="48.44456" lon="7.25065">
        <ele>615.8</ele>
        <time>2022-12-25T09:02:02Z</time>
      </trkpt>
      <trkpt lat="48.4446" lon="7.25056">
        <ele>616.2</ele>
        <time>2022-12-25T09:02:05Z</time>
      </trkpt>
      <trkpt lat="48.44463" lon="7.25041">
        <ele>617</ele>
        <time>2022-12-25T09:02:10Z</time>
      </trkpt>
      <trkpt lat="48.44464" lon="7.25033">
        <ele>617.2</ele>
        <time>2022-12-25T09:02:12Z</time>
      </trkpt>
      <trkpt lat="48.44472" lon="7.25009">
        <ele>618</ele>
        <time>2022-12-25T09:02:20Z</time>
      </trkpt>
      <trkpt lat="48.44472" lon="7.25009">
        <ele>618.2</ele>
        <time>2022-12-25T09:02:21Z</time>
      </trkpt>
      <trkpt lat="48.44477" lon="7.25002">
        <ele>618.4</ele>
        <time>2022-12-25T09:02:24Z</time>
      </trkpt>
      <trkpt lat="48.44483" lon="7.25">
        <ele>618.8</ele>
        <time>2022-12-25T09:02:27Z</time>
      </trkpt>
      <trkpt lat="48.44489" lon="7.24999">
        <ele>619</ele>
        <time>2022-12-25T09:02:29Z</time>
      </trkpt>
      <trkpt lat="48.44495" lon="7.24998">
        <ele>619.2</ele>
        <time>2022-12-25T09:02:32Z</time>
      </trkpt>
      <trkpt lat="48.44506" lon="7.24998">
        <ele>620.2</ele>
        <time>2022-12-25T09:02:38Z</time>
      </trkpt>
      <trkpt lat="48.44508" lon="7.24999">
        <ele>620.2</ele>
        <time>2022-12-25T09:02:39Z</time>
      </trkpt>
      <trkpt lat="48.44518" lon="7.25004">
        <ele>621.2</ele>
        <time>2022-12-25T09:02:44Z</time>
      </trkpt>
      <trkpt lat="48.44525" lon="7.2501">
        <ele>622</ele>
        <time>2022-12-25T09:02:48Z</time>
      </trkpt>
      <trkpt lat="48.44528" lon="7.25011">
        <ele>622.2</ele>
        <time>2022-12-25T09:02:50Z</time>
      </trkpt>
      <trkpt lat="48.44536" lon="7.25012">
        <ele>623.4</ele>
        <time>2022-12-25T09:02:54Z</time>
      </trkpt>
      <trkpt lat="48.44543" lon="7.25021">
        <ele>624.4</ele>
        <time>2022-12-25T09:03:00Z</time>
      </trkpt>
      <trkpt lat="48.44547" lon="7.25025">
        <ele>624.8</ele>
        <time>2022-12-25T09:03:03Z</time>
      </trkpt>
      <trkpt lat="48.44556" lon="7.25027">
        <ele>625.4</ele>
        <time>2022-12-25T09:03:06Z</time>
      </trkpt>
      <trkpt lat="48.44559" lon="7.25027">
        <ele>625.4</ele>
        <time>2022-12-25T09:03:07Z</time>
      </trkpt>
      <trkpt lat="48.44564" lon="7.25026">
        <ele>625.8</ele>
        <time>2022-12-25T09:03:09Z</time>
      </trkpt>
      <trkpt lat="48.44571" lon="7.2502">
        <ele>626.2</ele>
        <time>2022-12-25T09:03:13Z</time>
      </trkpt>
      <trkpt lat="48.44575" lon="7.25016">
        <ele>626.6</ele>
        <time>2022-12-25T09:03:15Z</time>
      </trkpt>
      <trkpt lat="48.44577" lon="7.25013">
        <ele>626.6</ele>
        <time>2022-12-25T09:03:16Z</time>
      </trkpt>
      <trkpt lat="48.44582" lon="7.24997">
        <ele>627.4</ele>
        <time>2022-12-25T09:03:22Z</time>
      </trkpt>
      <trkpt lat="48.44585" lon="7.24989">
        <ele>627.6</ele>
        <time>2022-12-25T09:03:24Z</time>
      </trkpt>
      <trkpt lat="48.44589" lon="7.24979">
        <ele>628.4</ele>
        <time>2022-12-25T09:03:29Z</time>
      </trkpt>
      <trkpt lat="48.44591" lon="7.24973">
        <ele>628.4</ele>
        <time>2022-12-25T09:03:30Z</time>
      </trkpt>
      <trkpt lat="48.44592" lon="7.2497">
        <ele>628.6</ele>
        <time>2022-12-25T09:03:31Z</time>
      </trkpt>
      <trkpt lat="48.44599" lon="7.24955">
        <ele>629.4</ele>
        <time>2022-12-25T09:03:37Z</time>
      </trkpt>
      <trkpt lat="48.446" lon="7.24953">
        <ele>629.4</ele>
        <time>2022-12-25T09:03:38Z</time>
      </trkpt>
      <trkpt lat="48.44605" lon="7.24943">
        <ele>629.8</ele>
        <time>2022-12-25T09:03:43Z</time>
      </trkpt>
      <trkpt lat="48.4461" lon="7.24937">
        <ele>630.4</ele>
        <time>2022-12-25T09:03:46Z</time>
      </trkpt>
      <trkpt lat="48.44612" lon="7.24932">
        <ele>630.6</ele>
        <time>2022-12-25T09:03:47Z</time>
      </trkpt>
      <trkpt lat="48.44615" lon="7.24923">
        <ele>631</ele>
        <time>2022-12-25T09:03:50Z</time>
      </trkpt>
      <trkpt lat="48.44618" lon="7.2491">
        <ele>631.6</ele>
        <time>2022-12-25T09:03:55Z</time>
      </trkpt>
      <trkpt lat="48.44622" lon="7.24901">
        <ele>632</ele>
        <time>2022-12-25T09:03:58Z</time>
      </trkpt>
      <trkpt lat="48.44625" lon="7.24888">
        <ele>632.8</ele>
        <time>2022-12-25T09:04:03Z</time>
      </trkpt>
      <trkpt lat="48.44627" lon="7.24883">
        <ele>633</ele>
        <time>2022-12-25T09:04:04Z</time>
      </trkpt>
      <trkpt lat="48.4463" lon="7.24864">
        <ele>633.8</ele>
        <time>2022-12-25T09:04:11Z</time>
      </trkpt>
      <trkpt lat="48.44631" lon="7.24849">
        <ele>635</ele>
        <time>2022-12-25T09:04:18Z</time>
      </trkpt>
      <trkpt lat="48.44631" lon="7.24843">
        <ele>635.2</ele>
        <time>2022-12-25T09:04:19Z</time>
      </trkpt>
      <trkpt lat="48.4463" lon="7.2483">
        <ele>635.4</ele>
        <time>2022-12-25T09:04:22Z</time>
      </trkpt>
      <trkpt lat="48.44629" lon="7.24825">
        <ele>635.8</ele>
        <time>2022-12-25T09:04:24Z</time>
      </trkpt>
      <trkpt lat="48.44625" lon="7.24816">
        <ele>636</ele>
        <time>2022-12-25T09:04:27Z</time>
      </trkpt>
      <trkpt lat="48.44622" lon="7.24802">
        <ele>636.8</ele>
        <time>2022-12-25T09:04:32Z</time>
      </trkpt>
      <trkpt lat="48.44622" lon="7.24793">
        <ele>637</ele>
        <time>2022-12-25T09:04:35Z</time>
      </trkpt>
      <trkpt lat="48.44621" lon="7.24788">
        <ele>637.4</ele>
        <time>2022-12-25T09:04:38Z</time>
      </trkpt>
      <trkpt lat="48.44617" lon="7.24773">
        <ele>638</ele>
        <time>2022-12-25T09:04:42Z</time>
      </trkpt>
      <trkpt lat="48.44614" lon="7.24765">
        <ele>638.4</ele>
        <time>2022-12-25T09:04:45Z</time>
      </trkpt>
      <trkpt lat="48.44608" lon="7.24748">
        <ele>639</ele>
        <time>2022-12-25T09:04:51Z</time>
      </trkpt>
      <trkpt lat="48.44607" lon="7.24745">
        <ele>639.2</ele>
        <time>2022-12-25T09:04:52Z</time>
      </trkpt>
      <trkpt lat="48.44599" lon="7.24725">
        <ele>640</ele>
        <time>2022-12-25T09:04:59Z</time>
      </trkpt>
      <trkpt lat="48.44599" lon="7.24721">
        <ele>640</ele>
        <time>2022-12-25T09:05:00Z</time>
      </trkpt>
      <trkpt lat="48.44597" lon="7.24707">
        <ele>640.4</ele>
        <time>2022-12-25T09:05:05Z</time>
      </trkpt>
      <trkpt lat="48.44596" lon="7.24684">
        <ele>641.4</ele>
        <time>2022-12-25T09:05:12Z</time>
      </trkpt>
      <trkpt lat="48.44596" lon="7.24681">
        <ele>641.4</ele>
        <time>2022-12-25T09:05:13Z</time>
      </trkpt>
      <trkpt lat="48.44597" lon="7.24657">
        <ele>642.4</ele>
        <time>2022-12-25T09:05:20Z</time>
      </trkpt>
      <trkpt lat="48.44599" lon="7.24639">
        <ele>643.4</ele>
        <time>2022-12-25T09:05:26Z</time>
      </trkpt>
      <trkpt lat="48.446" lon="7.24636">
        <ele>643.6</ele>
        <time>2022-12-25T09:05:27Z</time>
      </trkpt>
      <trkpt lat="48.44601" lon="7.24624">
        <ele>644.2</ele>
        <time>2022-12-25T09:05:31Z</time>
      </trkpt>
      <trkpt lat="48.44602" lon="7.24621">
        <ele>644.4</ele>
        <time>2022-12-25T09:05:32Z</time>
      </trkpt>
      <trkpt lat="48.44602" lon="7.24618">
        <ele>644.6</ele>
        <time>2022-12-25T09:05:33Z</time>
      </trkpt>
      <trkpt lat="48.44602" lon="7.24618">
        <ele>644.6</ele>
        <time>2022-12-25T09:05:34Z</time>
      </trkpt>
      <trkpt lat="48.44606" lon="7.24596">
        <ele>645.4</ele>
        <time>2022-12-25T09:05:40Z</time>
      </trkpt>
      <trkpt lat="48.44608" lon="7.24586">
        <ele>645.8</ele>
        <time>2022-12-25T09:05:43Z</time>
      </trkpt>
      <trkpt lat="48.4461" lon="7.24577">
        <ele>646.4</ele>
        <time>2022-12-25T09:05:47Z</time>
      </trkpt>
      <trkpt lat="48.44613" lon="7.24568">
        <ele>646.8</ele>
        <time>2022-12-25T09:05:50Z</time>
      </trkpt>
      <trkpt lat="48.44618" lon="7.24554">
        <ele>647.6</ele>
        <time>2022-12-25T09:05:55Z</time>
      </trkpt>
      <trkpt lat="48.44621" lon="7.24543">
        <ele>648</ele>
        <time>2022-12-25T09:05:59Z</time>
      </trkpt>
      <trkpt lat="48.44624" lon="7.24534">
        <ele>648.2</ele>
        <time>2022-12-25T09:06:01Z</time>
      </trkpt>
      <trkpt lat="48.44628" lon="7.24517">
        <ele>649</ele>
        <time>2022-12-25T09:06:07Z</time>
      </trkpt>
      <trkpt lat="48.4463" lon="7.24511">
        <ele>649.4</ele>
        <time>2022-12-25T09:06:09Z</time>
      </trkpt>
      <trkpt lat="48.44633" lon="7.24503">
        <ele>650</ele>
        <time>2022-12-25T09:06:13Z</time>
      </trkpt>
      <trkpt lat="48.44635" lon="7.24493">
        <ele>650.6</ele>
        <time>2022-12-25T09:06:16Z</time>
      </trkpt>
      <trkpt lat="48.44638" lon="7.24487">
        <ele>651.2</ele>
        <time>2022-12-25T09:06:19Z</time>
      </trkpt>
      <trkpt lat="48.44645" lon="7.24468">
        <ele>651.8</ele>
        <time>2022-12-25T09:06:25Z</time>
      </trkpt>
      <trkpt lat="48.4465" lon="7.2446">
        <ele>652.2</ele>
        <time>2022-12-25T09:06:29Z</time>
      </trkpt>
      <trkpt lat="48.44654" lon="7.24452">
        <ele>652.6</ele>
        <time>2022-12-25T09:06:32Z</time>
      </trkpt>
      <trkpt lat="48.44662" lon="7.24438">
        <ele>653.4</ele>
        <time>2022-12-25T09:06:38Z</time>
      </trkpt>
      <trkpt lat="48.44665" lon="7.24434">
        <ele>653.6</ele>
        <time>2022-12-25T09:06:40Z</time>
      </trkpt>
      <trkpt lat="48.44673" lon="7.24423">
        <ele>654.4</ele>
        <time>2022-12-25T09:06:46Z</time>
      </trkpt>
      <trkpt lat="48.44677" lon="7.24421">
        <ele>654.6</ele>
        <time>2022-12-25T09:06:48Z</time>
      </trkpt>
      <trkpt lat="48.44688" lon="7.24416">
        <ele>655.2</ele>
        <time>2022-12-25T09:06:54Z</time>
      </trkpt>
      <trkpt lat="48.4469" lon="7.24415">
        <ele>655.6</ele>
        <time>2022-12-25T09:06:55Z</time>
      </trkpt>
      <trkpt lat="48.44699" lon="7.24411">
        <ele>656.2</ele>
        <time>2022-12-25T09:07:00Z</time>
      </trkpt>
      <trkpt lat="48.44705" lon="7.2441">
        <ele>656.8</ele>
        <time>2022-12-25T09:07:03Z</time>
      </trkpt>
      <trkpt lat="48.44718" lon="7.24409">
        <ele>657.4</ele>
        <time>2022-12-25T09:07:09Z</time>
      </trkpt>
      <trkpt lat="48.44727" lon="7.2441">
        <ele>657.8</ele>
        <time>2022-12-25T09:07:12Z</time>
      </trkpt>
      <trkpt lat="48.44733" lon="7.24411">
        <ele>658.2</ele>
        <time>2022-12-25T09:07:15Z</time>
      </trkpt>
      <trkpt lat="48.44745" lon="7.2441">
        <ele>658.8</ele>
        <time>2022-12-25T09:07:20Z</time>
      </trkpt>
      <trkpt lat="48.44754" lon="7.24412">
        <ele>659.6</ele>
        <time>2022-12-25T09:07:24Z</time>
      </trkpt>
      <trkpt lat="48.44763" lon="7.24412">
        <ele>660.2</ele>
        <time>2022-12-25T09:07:28Z</time>
      </trkpt>
      <trkpt lat="48.44767" lon="7.24411">
        <ele>660.6</ele>
        <time>2022-12-25T09:07:30Z</time>
      </trkpt>
      <trkpt lat="48.44768" lon="7.2441">
        <ele>660.8</ele>
        <time>2022-12-25T09:07:31Z</time>
      </trkpt>
      <trkpt lat="48.44776" lon="7.2441">
        <ele>661.2</ele>
        <time>2022-12-25T09:07:35Z</time>
      </trkpt>
      <trkpt lat="48.44778" lon="7.2441">
        <ele>661.6</ele>
        <time>2022-12-25T09:07:36Z</time>
      </trkpt>
      <trkpt lat="48.44792" lon="7.24412">
        <ele>662.4</ele>
        <time>2022-12-25T09:07:42Z</time>
      </trkpt>
      <trkpt lat="48.44793" lon="7.24412">
        <ele>662.4</ele>
        <time>2022-12-25T09:07:43Z</time>
      </trkpt>
      <trkpt lat="48.44795" lon="7.24413">
        <ele>662.6</ele>
        <time>2022-12-25T09:07:44Z</time>
      </trkpt>
      <trkpt lat="48.448" lon="7.24413">
        <ele>662.8</ele>
        <time>2022-12-25T09:07:46Z</time>
      </trkpt>
      <trkpt lat="48.44803" lon="7.24413">
        <ele>663</ele>
        <time>2022-12-25T09:07:48Z</time>
      </trkpt>
      <trkpt lat="48.44808" lon="7.24413">
        <ele>663.4</ele>
        <time>2022-12-25T09:07:51Z</time>
      </trkpt>
      <trkpt lat="48.4481" lon="7.24415">
        <ele>663.6</ele>
        <time>2022-12-25T09:07:53Z</time>
      </trkpt>
      <trkpt lat="48.44824" lon="7.24418">
        <ele>664.2</ele>
        <time>2022-12-25T09:07:59Z</time>
      </trkpt>
      <trkpt lat="48.4483" lon="7.2442">
        <ele>664.6</ele>
        <time>2022-12-25T09:08:02Z</time>
      </trkpt>
      <trkpt lat="48.44834" lon="7.24421">
        <ele>664.8</ele>
        <time>2022-12-25T09:08:04Z</time>
      </trkpt>
      <trkpt lat="48.44835" lon="7.24422">
        <ele>664.8</ele>
        <time>2022-12-25T09:08:05Z</time>
      </trkpt>
      <trkpt lat="48.44849" lon="7.24425">
        <ele>665.6</ele>
        <time>2022-12-25T09:08:12Z</time>
      </trkpt>
      <trkpt lat="48.44851" lon="7.24425">
        <ele>665.6</ele>
        <time>2022-12-25T09:08:13Z</time>
      </trkpt>
      <trkpt lat="48.44859" lon="7.24428">
        <ele>666</ele>
        <time>2022-12-25T09:08:17Z</time>
      </trkpt>
      <trkpt lat="48.44864" lon="7.24428">
        <ele>666.4</ele>
        <time>2022-12-25T09:08:19Z</time>
      </trkpt>
      <trkpt lat="48.44868" lon="7.2443">
        <ele>666.6</ele>
        <time>2022-12-25T09:08:21Z</time>
      </trkpt>
      <trkpt lat="48.44885" lon="7.24432">
        <ele>667.8</ele>
        <time>2022-12-25T09:08:29Z</time>
      </trkpt>
      <trkpt lat="48.44888" lon="7.24434">
        <ele>668</ele>
        <time>2022-12-25T09:08:31Z</time>
      </trkpt>
      <trkpt lat="48.44896" lon="7.24436">
        <ele>668.4</ele>
        <time>2022-12-25T09:08:35Z</time>
      </trkpt>
      <trkpt lat="48.44906" lon="7.24438">
        <ele>669.2</ele>
        <time>2022-12-25T09:08:40Z</time>
      </trkpt>
      <trkpt lat="48.4491" lon="7.2444">
        <ele>669.4</ele>
        <time>2022-12-25T09:08:43Z</time>
      </trkpt>
      <trkpt lat="48.44925" lon="7.24442">
        <ele>670</ele>
        <time>2022-12-25T09:08:49Z</time>
      </trkpt>
      <trkpt lat="48.44929" lon="7.24442">
        <ele>670.2</ele>
        <time>2022-12-25T09:08:51Z</time>
      </trkpt>
      <trkpt lat="48.44942" lon="7.24434">
        <ele>671</ele>
        <time>2022-12-25T09:08:58Z</time>
      </trkpt>
      <trkpt lat="48.44948" lon="7.2443">
        <ele>671.4</ele>
        <time>2022-12-25T09:09:01Z</time>
      </trkpt>
      <trkpt lat="48.44957" lon="7.24424">
        <ele>671.8</ele>
        <time>2022-12-25T09:09:06Z</time>
      </trkpt>
      <trkpt lat="48.44966" lon="7.24416">
        <ele>672.4</ele>
        <time>2022-12-25T09:09:11Z</time>
      </trkpt>
      <trkpt lat="48.44975" lon="7.24406">
        <ele>672.8</ele>
        <time>2022-12-25T09:09:16Z</time>
      </trkpt>
      <trkpt lat="48.44981" lon="7.24399">
        <ele>673.4</ele>
        <time>2022-12-25T09:09:20Z</time>
      </trkpt>
      <trkpt lat="48.44989" lon="7.24388">
        <ele>673.8</ele>
        <time>2022-12-25T09:09:25Z</time>
      </trkpt>
      <trkpt lat="48.44995" lon="7.24376">
        <ele>674.6</ele>
        <time>2022-12-25T09:09:30Z</time>
      </trkpt>
      <trkpt lat="48.45" lon="7.24369">
        <ele>674.8</ele>
        <time>2022-12-25T09:09:33Z</time>
      </trkpt>
      <trkpt lat="48.45007" lon="7.24354">
        <ele>675.4</ele>
        <time>2022-12-25T09:09:39Z</time>
      </trkpt>
      <trkpt lat="48.45009" lon="7.24347">
        <ele>675.6</ele>
        <time>2022-12-25T09:09:42Z</time>
      </trkpt>
      <trkpt lat="48.45019" lon="7.24327">
        <ele>676.2</ele>
        <time>2022-12-25T09:09:50Z</time>
      </trkpt>
      <trkpt lat="48.4502" lon="7.24325">
        <ele>676.4</ele>
        <time>2022-12-25T09:09:51Z</time>
      </trkpt>
      <trkpt lat="48.45029" lon="7.24309">
        <ele>677.4</ele>
        <time>2022-12-25T09:09:58Z</time>
      </trkpt>
      <trkpt lat="48.45031" lon="7.24307">
        <ele>677.4</ele>
        <time>2022-12-25T09:09:59Z</time>
      </trkpt>
      <trkpt lat="48.45039" lon="7.24291">
        <ele>678.2</ele>
        <time>2022-12-25T09:10:06Z</time>
      </trkpt>
      <trkpt lat="48.45043" lon="7.24284">
        <ele>678.4</ele>
        <time>2022-12-25T09:10:09Z</time>
      </trkpt>
      <trkpt lat="48.45051" lon="7.24271">
        <ele>679.2</ele>
        <time>2022-12-25T09:10:15Z</time>
      </trkpt>
      <trkpt lat="48.45055" lon="7.24264">
        <ele>679.6</ele>
        <time>2022-12-25T09:10:18Z</time>
      </trkpt>
      <trkpt lat="48.45059" lon="7.24256">
        <ele>680</ele>
        <time>2022-12-25T09:10:21Z</time>
      </trkpt>
      <trkpt lat="48.45063" lon="7.24251">
        <ele>680.8</ele>
        <time>2022-12-25T09:10:25Z</time>
      </trkpt>
      <trkpt lat="48.45069" lon="7.24242">
        <ele>681.2</ele>
        <time>2022-12-25T09:10:28Z</time>
      </trkpt>
      <trkpt lat="48.45077" lon="7.24232">
        <ele>681.8</ele>
        <time>2022-12-25T09:10:33Z</time>
      </trkpt>
      <trkpt lat="48.45083" lon="7.24224">
        <ele>682.4</ele>
        <time>2022-12-25T09:10:37Z</time>
      </trkpt>
      <trkpt lat="48.4509" lon="7.24214">
        <ele>683</ele>
        <time>2022-12-25T09:10:42Z</time>
      </trkpt>
      <trkpt lat="48.45096" lon="7.24207">
        <ele>683.2</ele>
        <time>2022-12-25T09:10:46Z</time>
      </trkpt>
      <trkpt lat="48.45106" lon="7.24199">
        <ele>684.2</ele>
        <time>2022-12-25T09:10:52Z</time>
      </trkpt>
      <trkpt lat="48.45116" lon="7.24185">
        <ele>685</ele>
        <time>2022-12-25T09:10:59Z</time>
      </trkpt>
      <trkpt lat="48.45119" lon="7.2418">
        <ele>685.2</ele>
        <time>2022-12-25T09:11:01Z</time>
      </trkpt>
      <trkpt lat="48.45124" lon="7.24168">
        <ele>685.8</ele>
        <time>2022-12-25T09:11:05Z</time>
      </trkpt>
      <trkpt lat="48.45128" lon="7.24157">
        <ele>686.2</ele>
        <time>2022-12-25T09:11:09Z</time>
      </trkpt>
      <trkpt lat="48.45133" lon="7.2415">
        <ele>686.6</ele>
        <time>2022-12-25T09:11:12Z</time>
      </trkpt>
      <trkpt lat="48.45139" lon="7.24141">
        <ele>687.2</ele>
        <time>2022-12-25T09:11:17Z</time>
      </trkpt>
      <trkpt lat="48.45141" lon="7.24137">
        <ele>687.4</ele>
        <time>2022-12-25T09:11:19Z</time>
      </trkpt>
      <trkpt lat="48.45155" lon="7.24126">
        <ele>688.4</ele>
        <time>2022-12-25T09:11:28Z</time>
      </trkpt>
      <trkpt lat="48.45157" lon="7.24125">
        <ele>688.4</ele>
        <time>2022-12-25T09:11:29Z</time>
      </trkpt>
      <trkpt lat="48.45172" lon="7.24126">
        <ele>689.4</ele>
        <time>2022-12-25T09:11:37Z</time>
      </trkpt>
      <trkpt lat="48.45181" lon="7.24135">
        <ele>690.6</ele>
        <time>2022-12-25T09:11:44Z</time>
      </trkpt>
      <trkpt lat="48.45184" lon="7.24139">
        <ele>690.8</ele>
        <time>2022-12-25T09:11:45Z</time>
      </trkpt>
      <trkpt lat="48.4519" lon="7.2415">
        <ele>691.6</ele>
        <time>2022-12-25T09:11:50Z</time>
      </trkpt>
      <trkpt lat="48.45194" lon="7.24156">
        <ele>692.2</ele>
        <time>2022-12-25T09:11:53Z</time>
      </trkpt>
      <trkpt lat="48.45199" lon="7.24163">
        <ele>692.6</ele>
        <time>2022-12-25T09:11:56Z</time>
      </trkpt>
      <trkpt lat="48.45202" lon="7.2417">
        <ele>693.2</ele>
        <time>2022-12-25T09:12:00Z</time>
      </trkpt>
      <trkpt lat="48.45202" lon="7.2417">
        <ele>693.8</ele>
        <time>2022-12-25T09:12:04Z</time>
      </trkpt>
      <trkpt lat="48.45202" lon="7.2417">
        <ele>694</ele>
        <time>2022-12-25T09:12:07Z</time>
      </trkpt>
      <trkpt lat="48.45202" lon="7.2417">
        <ele>694.2</ele>
        <time>2022-12-25T09:12:29Z</time>
      </trkpt>
      <trkpt lat="48.45202" lon="7.2417">
        <ele>694.2</ele>
        <time>2022-12-25T09:12:31Z</time>
      </trkpt>
      <trkpt lat="48.45202" lon="7.2417">
        <ele>694.2</ele>
        <time>2022-12-25T09:12:41Z</time>
      </trkpt>
      <trkpt lat="48.45202" lon="7.2417">
        <ele>694</ele>
        <time>2022-12-25T09:12:49Z</time>
      </trkpt>
      <trkpt lat="48.45204" lon="7.24166">
        <ele>694.2</ele>
        <time>2022-12-25T09:13:09Z</time>
      </trkpt>
      <trkpt lat="48.45206" lon="7.24162">
        <ele>694.2</ele>
        <time>2022-12-25T09:13:10Z</time>
      </trkpt>
      <trkpt lat="48.45212" lon="7.24165">
        <ele>694.2</ele>
        <time>2022-12-25T09:13:13Z</time>
      </trkpt>
      <trkpt lat="48.45218" lon="7.24179">
        <ele>694.6</ele>
        <time>2022-12-25T09:13:18Z</time>
      </trkpt>
      <trkpt lat="48.45218" lon="7.24179">
        <ele>694.6</ele>
        <time>2022-12-25T09:13:19Z</time>
      </trkpt>
      <trkpt lat="48.45224" lon="7.24189">
        <ele>694.6</ele>
        <time>2022-12-25T09:13:22Z</time>
      </trkpt>
      <trkpt lat="48.4523" lon="7.24197">
        <ele>694.8</ele>
        <time>2022-12-25T09:13:25Z</time>
      </trkpt>
      <trkpt lat="48.45232" lon="7.24198">
        <ele>695</ele>
        <time>2022-12-25T09:13:26Z</time>
      </trkpt>
      <trkpt lat="48.45236" lon="7.24203">
        <ele>695.2</ele>
        <time>2022-12-25T09:13:28Z</time>
      </trkpt>
      <trkpt lat="48.45248" lon="7.24214">
        <ele>695.6</ele>
        <time>2022-12-25T09:13:34Z</time>
      </trkpt>
      <trkpt lat="48.45253" lon="7.2422">
        <ele>696</ele>
        <time>2022-12-25T09:13:37Z</time>
      </trkpt>
      <trkpt lat="48.45258" lon="7.24222">
        <ele>696.4</ele>
        <time>2022-12-25T09:13:40Z</time>
      </trkpt>
      <trkpt lat="48.45264" lon="7.24228">
        <ele>696.8</ele>
        <time>2022-12-25T09:13:44Z</time>
      </trkpt>
      <trkpt lat="48.45267" lon="7.24231">
        <ele>697.2</ele>
        <time>2022-12-25T09:13:46Z</time>
      </trkpt>
      <trkpt lat="48.45269" lon="7.24234">
        <ele>697.2</ele>
        <time>2022-12-25T09:13:48Z</time>
      </trkpt>
      <trkpt lat="48.45282" lon="7.2424">
        <ele>698.2</ele>
        <time>2022-12-25T09:13:54Z</time>
      </trkpt>
      <trkpt lat="48.45298" lon="7.24246">
        <ele>699</ele>
        <time>2022-12-25T09:14:01Z</time>
      </trkpt>
      <trkpt lat="48.45305" lon="7.2425">
        <ele>699.2</ele>
        <time>2022-12-25T09:14:04Z</time>
      </trkpt>
      <trkpt lat="48.45318" lon="7.24256">
        <ele>700</ele>
        <time>2022-12-25T09:14:11Z</time>
      </trkpt>
      <trkpt lat="48.45325" lon="7.24263">
        <ele>700.2</ele>
        <time>2022-12-25T09:14:14Z</time>
      </trkpt>
      <trkpt lat="48.4533" lon="7.24267">
        <ele>700.6</ele>
        <time>2022-12-25T09:14:17Z</time>
      </trkpt>
      <trkpt lat="48.45339" lon="7.24273">
        <ele>701</ele>
        <time>2022-12-25T09:14:23Z</time>
      </trkpt>
      <trkpt lat="48.45342" lon="7.24275">
        <ele>701.2</ele>
        <time>2022-12-25T09:14:25Z</time>
      </trkpt>
      <trkpt lat="48.45346" lon="7.24277">
        <ele>701.4</ele>
        <time>2022-12-25T09:14:28Z</time>
      </trkpt>
      <trkpt lat="48.45356" lon="7.24288">
        <ele>702.4</ele>
        <time>2022-12-25T09:14:35Z</time>
      </trkpt>
      <trkpt lat="48.45357" lon="7.2429">
        <ele>702.6</ele>
        <time>2022-12-25T09:14:36Z</time>
      </trkpt>
      <trkpt lat="48.45369" lon="7.24303">
        <ele>703.2</ele>
        <time>2022-12-25T09:14:46Z</time>
      </trkpt>
      <trkpt lat="48.45372" lon="7.24305">
        <ele>703.4</ele>
        <time>2022-12-25T09:14:47Z</time>
      </trkpt>
      <trkpt lat="48.45385" lon="7.24315">
        <ele>704</ele>
        <time>2022-12-25T09:14:53Z</time>
      </trkpt>
      <trkpt lat="48.45394" lon="7.24319">
        <ele>704.4</ele>
        <time>2022-12-25T09:14:57Z</time>
      </trkpt>
      <trkpt lat="48.45398" lon="7.24323">
        <ele>704.6</ele>
        <time>2022-12-25T09:14:59Z</time>
      </trkpt>
      <trkpt lat="48.45411" lon="7.24334">
        <ele>705.4</ele>
        <time>2022-12-25T09:15:06Z</time>
      </trkpt>
      <trkpt lat="48.45413" lon="7.24336">
        <ele>705.6</ele>
        <time>2022-12-25T09:15:07Z</time>
      </trkpt>
      <trkpt lat="48.45416" lon="7.2434">
        <ele>706</ele>
        <time>2022-12-25T09:15:10Z</time>
      </trkpt>
      <trkpt lat="48.45419" lon="7.24345">
        <ele>706.2</ele>
        <time>2022-12-25T09:15:12Z</time>
      </trkpt>
      <trkpt lat="48.45424" lon="7.2435">
        <ele>706.6</ele>
        <time>2022-12-25T09:15:16Z</time>
      </trkpt>
      <trkpt lat="48.45425" lon="7.24351">
        <ele>706.8</ele>
        <time>2022-12-25T09:15:17Z</time>
      </trkpt>
      <trkpt lat="48.45428" lon="7.24353">
        <ele>707</ele>
        <time>2022-12-25T09:15:19Z</time>
      </trkpt>
      <trkpt lat="48.45437" lon="7.2436">
        <ele>707.8</ele>
        <time>2022-12-25T09:15:25Z</time>
      </trkpt>
      <trkpt lat="48.45442" lon="7.24365">
        <ele>708</ele>
        <time>2022-12-25T09:15:28Z</time>
      </trkpt>
      <trkpt lat="48.45443" lon="7.24366">
        <ele>708.2</ele>
        <time>2022-12-25T09:15:29Z</time>
      </trkpt>
      <trkpt lat="48.45451" lon="7.24371">
        <ele>708.6</ele>
        <time>2022-12-25T09:15:33Z</time>
      </trkpt>
      <trkpt lat="48.45453" lon="7.24372">
        <ele>708.8</ele>
        <time>2022-12-25T09:15:34Z</time>
      </trkpt>
      <trkpt lat="48.45466" lon="7.24383">
        <ele>709.8</ele>
        <time>2022-12-25T09:15:41Z</time>
      </trkpt>
      <trkpt lat="48.45481" lon="7.24395">
        <ele>710.8</ele>
        <time>2022-12-25T09:15:49Z</time>
      </trkpt>
      <trkpt lat="48.45482" lon="7.24397">
        <ele>711</ele>
        <time>2022-12-25T09:15:50Z</time>
      </trkpt>
      <trkpt lat="48.455" lon="7.24409">
        <ele>711.6</ele>
        <time>2022-12-25T09:15:59Z</time>
      </trkpt>
      <trkpt lat="48.45502" lon="7.2441">
        <ele>711.8</ele>
        <time>2022-12-25T09:16:00Z</time>
      </trkpt>
      <trkpt lat="48.4551" lon="7.24416">
        <ele>712.4</ele>
        <time>2022-12-25T09:16:06Z</time>
      </trkpt>
      <trkpt lat="48.45523" lon="7.2442">
        <ele>712.8</ele>
        <time>2022-12-25T09:16:12Z</time>
      </trkpt>
      <trkpt lat="48.45529" lon="7.24422">
        <ele>713.4</ele>
        <time>2022-12-25T09:16:15Z</time>
      </trkpt>
      <trkpt lat="48.4554" lon="7.24429">
        <ele>713.6</ele>
        <time>2022-12-25T09:16:21Z</time>
      </trkpt>
      <trkpt lat="48.45544" lon="7.24432">
        <ele>713.8</ele>
        <time>2022-12-25T09:16:23Z</time>
      </trkpt>
      <trkpt lat="48.45552" lon="7.24438">
        <ele>714.2</ele>
        <time>2022-12-25T09:16:28Z</time>
      </trkpt>
      <trkpt lat="48.45559" lon="7.24446">
        <ele>714.6</ele>
        <time>2022-12-25T09:16:33Z</time>
      </trkpt>
      <trkpt lat="48.4556" lon="7.24447">
        <ele>714.8</ele>
        <time>2022-12-25T09:16:34Z</time>
      </trkpt>
      <trkpt lat="48.45561" lon="7.24452">
        <ele>714.8</ele>
        <time>2022-12-25T09:16:36Z</time>
      </trkpt>
      <trkpt lat="48.45559" lon="7.24454">
        <ele>715</ele>
        <time>2022-12-25T09:16:37Z</time>
      </trkpt>
      <trkpt lat="48.45553" lon="7.24453">
        <ele>715.2</ele>
        <time>2022-12-25T09:16:41Z</time>
      </trkpt>
      <trkpt lat="48.45549" lon="7.24451">
        <ele>715.2</ele>
        <time>2022-12-25T09:16:42Z</time>
      </trkpt>
      <trkpt lat="48.4554" lon="7.24446">
        <ele>715.6</ele>
        <time>2022-12-25T09:16:47Z</time>
      </trkpt>
      <trkpt lat="48.45542" lon="7.24452">
        <ele>715.8</ele>
        <time>2022-12-25T09:16:50Z</time>
      </trkpt>
      <trkpt lat="48.45546" lon="7.24456">
        <ele>716</ele>
        <time>2022-12-25T09:16:56Z</time>
      </trkpt>
      <trkpt lat="48.45546" lon="7.24456">
        <ele>716</ele>
        <time>2022-12-25T09:17:04Z</time>
      </trkpt>
      <trkpt lat="48.45546" lon="7.24456">
        <ele>716</ele>
        <time>2022-12-25T09:17:08Z</time>
      </trkpt>
      <trkpt lat="48.45546" lon="7.24456">
        <ele>716</ele>
        <time>2022-12-25T09:17:11Z</time>
      </trkpt>
      <trkpt lat="48.45546" lon="7.24456">
        <ele>716</ele>
        <time>2022-12-25T09:17:12Z</time>
      </trkpt>
      <trkpt lat="48.45549" lon="7.24457">
        <ele>716</ele>
        <time>2022-12-25T09:17:19Z</time>
      </trkpt>
      <trkpt lat="48.45553" lon="7.24458">
        <ele>716</ele>
        <time>2022-12-25T09:17:21Z</time>
      </trkpt>
      <trkpt lat="48.45563" lon="7.24465">
        <ele>716.2</ele>
        <time>2022-12-25T09:17:27Z</time>
      </trkpt>
      <trkpt lat="48.45564" lon="7.24466">
        <ele>716.2</ele>
        <time>2022-12-25T09:17:28Z</time>
      </trkpt>
      <trkpt lat="48.45566" lon="7.24473">
        <ele>716.4</ele>
        <time>2022-12-25T09:17:31Z</time>
      </trkpt>
      <trkpt lat="48.4557" lon="7.24477">
        <ele>716.4</ele>
        <time>2022-12-25T09:17:34Z</time>
      </trkpt>
      <trkpt lat="48.45574" lon="7.24487">
        <ele>717.4</ele>
        <time>2022-12-25T09:17:40Z</time>
      </trkpt>
      <trkpt lat="48.45575" lon="7.24493">
        <ele>717.6</ele>
        <time>2022-12-25T09:17:41Z</time>
      </trkpt>
      <trkpt lat="48.45577" lon="7.24502">
        <ele>718.2</ele>
        <time>2022-12-25T09:17:45Z</time>
      </trkpt>
      <trkpt lat="48.45577" lon="7.24506">
        <ele>718.4</ele>
        <time>2022-12-25T09:17:47Z</time>
      </trkpt>
      <trkpt lat="48.45576" lon="7.24508">
        <ele>718.6</ele>
        <time>2022-12-25T09:17:48Z</time>
      </trkpt>
      <trkpt lat="48.4557" lon="7.24519">
        <ele>719.8</ele>
        <time>2022-12-25T09:17:54Z</time>
      </trkpt>
      <trkpt lat="48.45567" lon="7.2452">
        <ele>720</ele>
        <time>2022-12-25T09:17:56Z</time>
      </trkpt>
      <trkpt lat="48.45561" lon="7.2452">
        <ele>720.8</ele>
        <time>2022-12-25T09:18:00Z</time>
      </trkpt>
      <trkpt lat="48.45554" lon="7.24519">
        <ele>721</ele>
        <time>2022-12-25T09:18:04Z</time>
      </trkpt>
      <trkpt lat="48.45547" lon="7.24517">
        <ele>721.8</ele>
        <time>2022-12-25T09:18:08Z</time>
      </trkpt>
      <trkpt lat="48.45542" lon="7.24513">
        <ele>722.4</ele>
        <time>2022-12-25T09:18:11Z</time>
      </trkpt>
      <trkpt lat="48.45536" lon="7.24511">
        <ele>722.6</ele>
        <time>2022-12-25T09:18:14Z</time>
      </trkpt>
      <trkpt lat="48.45534" lon="7.2451">
        <ele>722.8</ele>
        <time>2022-12-25T09:18:15Z</time>
      </trkpt>
      <trkpt lat="48.45526" lon="7.24507">
        <ele>724</ele>
        <time>2022-12-25T09:18:20Z</time>
      </trkpt>
      <trkpt lat="48.45524" lon="7.24507">
        <ele>724</ele>
        <time>2022-12-25T09:18:21Z</time>
      </trkpt>
      <trkpt lat="48.4552" lon="7.24509">
        <ele>724.4</ele>
        <time>2022-12-25T09:18:23Z</time>
      </trkpt>
      <trkpt lat="48.45514" lon="7.24513">
        <ele>725.2</ele>
        <time>2022-12-25T09:18:26Z</time>
      </trkpt>
      <trkpt lat="48.45511" lon="7.24515">
        <ele>725.4</ele>
        <time>2022-12-25T09:18:28Z</time>
      </trkpt>
      <trkpt lat="48.45506" lon="7.24523">
        <ele>725.6</ele>
        <time>2022-12-25T09:18:32Z</time>
      </trkpt>
      <trkpt lat="48.45506" lon="7.24526">
        <ele>725.6</ele>
        <time>2022-12-25T09:18:34Z</time>
      </trkpt>
      <trkpt lat="48.45512" lon="7.24542">
        <ele>726.2</ele>
        <time>2022-12-25T09:18:40Z</time>
      </trkpt>
      <trkpt lat="48.45513" lon="7.24544">
        <ele>726.2</ele>
        <time>2022-12-25T09:18:41Z</time>
      </trkpt>
      <trkpt lat="48.45518" lon="7.24559">
        <ele>727.2</ele>
        <time>2022-12-25T09:18:47Z</time>
      </trkpt>
      <trkpt lat="48.45519" lon="7.24561">
        <ele>727.2</ele>
        <time>2022-12-25T09:18:48Z</time>
      </trkpt>
      <trkpt lat="48.45528" lon="7.24577">
        <ele>728.2</ele>
        <time>2022-12-25T09:18:55Z</time>
      </trkpt>
      <trkpt lat="48.45529" lon="7.24579">
        <ele>728.2</ele>
        <time>2022-12-25T09:18:56Z</time>
      </trkpt>
      <trkpt lat="48.45534" lon="7.24594">
        <ele>729</ele>
        <time>2022-12-25T09:19:01Z</time>
      </trkpt>
      <trkpt lat="48.45537" lon="7.24597">
        <ele>729</ele>
        <time>2022-12-25T09:19:03Z</time>
      </trkpt>
      <trkpt lat="48.45539" lon="7.24602">
        <ele>729.4</ele>
        <time>2022-12-25T09:19:05Z</time>
      </trkpt>
      <trkpt lat="48.4554" lon="7.24604">
        <ele>729.8</ele>
        <time>2022-12-25T09:19:06Z</time>
      </trkpt>
      <trkpt lat="48.45544" lon="7.2462">
        <ele>730.4</ele>
        <time>2022-12-25T09:19:12Z</time>
      </trkpt>
      <trkpt lat="48.45546" lon="7.24624">
        <ele>730.6</ele>
        <time>2022-12-25T09:19:14Z</time>
      </trkpt>
      <trkpt lat="48.4555" lon="7.24645">
        <ele>731.6</ele>
        <time>2022-12-25T09:19:22Z</time>
      </trkpt>
      <trkpt lat="48.4555" lon="7.24647">
        <ele>731.8</ele>
        <time>2022-12-25T09:19:23Z</time>
      </trkpt>
      <trkpt lat="48.45549" lon="7.2465">
        <ele>732</ele>
        <time>2022-12-25T09:19:24Z</time>
      </trkpt>
      <trkpt lat="48.4555" lon="7.24657">
        <ele>732.6</ele>
        <time>2022-12-25T09:19:27Z</time>
      </trkpt>
      <trkpt lat="48.4555" lon="7.24659">
        <ele>732.8</ele>
        <time>2022-12-25T09:19:28Z</time>
      </trkpt>
      <trkpt lat="48.45549" lon="7.24674">
        <ele>733.4</ele>
        <time>2022-12-25T09:19:34Z</time>
      </trkpt>
      <trkpt lat="48.45546" lon="7.24679">
        <ele>733.8</ele>
        <time>2022-12-25T09:19:37Z</time>
      </trkpt>
      <trkpt lat="48.45545" lon="7.24682">
        <ele>734.2</ele>
        <time>2022-12-25T09:19:39Z</time>
      </trkpt>
      <trkpt lat="48.45543" lon="7.24684">
        <ele>734.2</ele>
        <time>2022-12-25T09:19:40Z</time>
      </trkpt>
      <trkpt lat="48.45532" lon="7.24688">
        <ele>734.8</ele>
        <time>2022-12-25T09:19:45Z</time>
      </trkpt>
      <trkpt lat="48.45525" lon="7.24691">
        <ele>735.2</ele>
        <time>2022-12-25T09:19:47Z</time>
      </trkpt>
      <trkpt lat="48.45518" lon="7.2469">
        <ele>736</ele>
        <time>2022-12-25T09:19:50Z</time>
      </trkpt>
      <trkpt lat="48.45513" lon="7.24683">
        <ele>736.4</ele>
        <time>2022-12-25T09:19:54Z</time>
      </trkpt>
      <trkpt lat="48.45509" lon="7.24678">
        <ele>737</ele>
        <time>2022-12-25T09:19:57Z</time>
      </trkpt>
      <trkpt lat="48.45503" lon="7.24672">
        <ele>738</ele>
        <time>2022-12-25T09:20:02Z</time>
      </trkpt>
      <trkpt lat="48.45501" lon="7.24669">
        <ele>738.2</ele>
        <time>2022-12-25T09:20:03Z</time>
      </trkpt>
      <trkpt lat="48.45495" lon="7.24655">
        <ele>738.8</ele>
        <time>2022-12-25T09:20:09Z</time>
      </trkpt>
      <trkpt lat="48.45494" lon="7.24651">
        <ele>739.4</ele>
        <time>2022-12-25T09:20:11Z</time>
      </trkpt>
      <trkpt lat="48.45487" lon="7.24643">
        <ele>740.2</ele>
        <time>2022-12-25T09:20:16Z</time>
      </trkpt>
      <trkpt lat="48.45486" lon="7.24641">
        <ele>740.4</ele>
        <time>2022-12-25T09:20:17Z</time>
      </trkpt>
      <trkpt lat="48.45478" lon="7.2463">
        <ele>741</ele>
        <time>2022-12-25T09:20:23Z</time>
      </trkpt>
      <trkpt lat="48.45477" lon="7.24629">
        <ele>741</ele>
        <time>2022-12-25T09:20:24Z</time>
      </trkpt>
      <trkpt lat="48.45473" lon="7.24626">
        <ele>741.2</ele>
        <time>2022-12-25T09:20:27Z</time>
      </trkpt>
      <trkpt lat="48.45472" lon="7.24625">
        <ele>741.6</ele>
        <time>2022-12-25T09:20:28Z</time>
      </trkpt>
      <trkpt lat="48.45469" lon="7.24618">
        <ele>742</ele>
        <time>2022-12-25T09:20:31Z</time>
      </trkpt>
      <trkpt lat="48.45466" lon="7.24616">
        <ele>742.2</ele>
        <time>2022-12-25T09:20:33Z</time>
      </trkpt>
      <trkpt lat="48.45462" lon="7.24611">
        <ele>742.6</ele>
        <time>2022-12-25T09:20:36Z</time>
      </trkpt>
      <trkpt lat="48.4546" lon="7.24609">
        <ele>742.8</ele>
        <time>2022-12-25T09:20:38Z</time>
      </trkpt>
      <trkpt lat="48.45449" lon="7.24605">
        <ele>743.6</ele>
        <time>2022-12-25T09:20:44Z</time>
      </trkpt>
      <trkpt lat="48.45443" lon="7.24602">
        <ele>744.4</ele>
        <time>2022-12-25T09:20:48Z</time>
      </trkpt>
      <trkpt lat="48.45439" lon="7.24599">
        <ele>744.8</ele>
        <time>2022-12-25T09:20:50Z</time>
      </trkpt>
      <trkpt lat="48.45429" lon="7.24595">
        <ele>745.4</ele>
        <time>2022-12-25T09:20:56Z</time>
      </trkpt>
      <trkpt lat="48.45416" lon="7.24588">
        <ele>746</ele>
        <time>2022-12-25T09:21:04Z</time>
      </trkpt>
      <trkpt lat="48.45413" lon="7.24587">
        <ele>747.2</ele>
        <time>2022-12-25T09:21:06Z</time>
      </trkpt>
      <trkpt lat="48.45407" lon="7.24588">
        <ele>748</ele>
        <time>2022-12-25T09:21:09Z</time>
      </trkpt>
      <trkpt lat="48.454" lon="7.24586">
        <ele>748.6</ele>
        <time>2022-12-25T09:21:13Z</time>
      </trkpt>
      <trkpt lat="48.45393" lon="7.24586">
        <ele>749</ele>
        <time>2022-12-25T09:21:17Z</time>
      </trkpt>
      <trkpt lat="48.4539" lon="7.24587">
        <ele>749.2</ele>
        <time>2022-12-25T09:21:19Z</time>
      </trkpt>
      <trkpt lat="48.45379" lon="7.24588">
        <ele>749.8</ele>
        <time>2022-12-25T09:21:26Z</time>
      </trkpt>
      <trkpt lat="48.45374" lon="7.24588">
        <ele>750</ele>
        <time>2022-12-25T09:21:29Z</time>
      </trkpt>
      <trkpt lat="48.45368" lon="7.24587">
        <ele>750.4</ele>
        <time>2022-12-25T09:21:33Z</time>
      </trkpt>
      <trkpt lat="48.45357" lon="7.24587">
        <ele>751.2</ele>
        <time>2022-12-25T09:21:39Z</time>
      </trkpt>
      <trkpt lat="48.45355" lon="7.24588">
        <ele>751.2</ele>
        <time>2022-12-25T09:21:40Z</time>
      </trkpt>
      <trkpt lat="48.45344" lon="7.24587">
        <ele>752.2</ele>
        <time>2022-12-25T09:21:47Z</time>
      </trkpt>
      <trkpt lat="48.45343" lon="7.24587">
        <ele>752.2</ele>
        <time>2022-12-25T09:21:48Z</time>
      </trkpt>
      <trkpt lat="48.45331" lon="7.24585">
        <ele>753.2</ele>
        <time>2022-12-25T09:21:55Z</time>
      </trkpt>
      <trkpt lat="48.45329" lon="7.24585">
        <ele>753.4</ele>
        <time>2022-12-25T09:21:56Z</time>
      </trkpt>
      <trkpt lat="48.45317" lon="7.24583">
        <ele>754.4</ele>
        <time>2022-12-25T09:22:03Z</time>
      </trkpt>
      <trkpt lat="48.45315" lon="7.24583">
        <ele>754.6</ele>
        <time>2022-12-25T09:22:04Z</time>
      </trkpt>
      <trkpt lat="48.45302" lon="7.24582">
        <ele>755.8</ele>
        <time>2022-12-25T09:22:11Z</time>
      </trkpt>
      <trkpt lat="48.45291" lon="7.24581">
        <ele>756.4</ele>
        <time>2022-12-25T09:22:17Z</time>
      </trkpt>
      <trkpt lat="48.45284" lon="7.2458">
        <ele>757</ele>
        <time>2022-12-25T09:22:21Z</time>
      </trkpt>
      <trkpt lat="48.4528" lon="7.24579">
        <ele>757.2</ele>
        <time>2022-12-25T09:22:23Z</time>
      </trkpt>
      <trkpt lat="48.45272" lon="7.24577">
        <ele>758.2</ele>
        <time>2022-12-25T09:22:28Z</time>
      </trkpt>
      <trkpt lat="48.4527" lon="7.24577">
        <ele>758.2</ele>
        <time>2022-12-25T09:22:29Z</time>
      </trkpt>
      <trkpt lat="48.45268" lon="7.24577">
        <ele>758.4</ele>
        <time>2022-12-25T09:22:30Z</time>
      </trkpt>
      <trkpt lat="48.45265" lon="7.24577">
        <ele>758.6</ele>
        <time>2022-12-25T09:22:32Z</time>
      </trkpt>
      <trkpt lat="48.45261" lon="7.24576">
        <ele>758.8</ele>
        <time>2022-12-25T09:22:34Z</time>
      </trkpt>
      <trkpt lat="48.45257" lon="7.24576">
        <ele>759.2</ele>
        <time>2022-12-25T09:22:36Z</time>
      </trkpt>
      <trkpt lat="48.45245" lon="7.24571">
        <ele>760</ele>
        <time>2022-12-25T09:22:43Z</time>
      </trkpt>
      <trkpt lat="48.45244" lon="7.24571">
        <ele>760.4</ele>
        <time>2022-12-25T09:22:44Z</time>
      </trkpt>
      <trkpt lat="48.45232" lon="7.24571">
        <ele>761.4</ele>
        <time>2022-12-25T09:22:52Z</time>
      </trkpt>
      <trkpt lat="48.4523" lon="7.24571">
        <ele>761.6</ele>
        <time>2022-12-25T09:22:53Z</time>
      </trkpt>
      <trkpt lat="48.45221" lon="7.24571">
        <ele>762.4</ele>
        <time>2022-12-25T09:23:00Z</time>
      </trkpt>
      <trkpt lat="48.45218" lon="7.24571">
        <ele>762.8</ele>
        <time>2022-12-25T09:23:02Z</time>
      </trkpt>
      <trkpt lat="48.45209" lon="7.24569">
        <ele>763.6</ele>
        <time>2022-12-25T09:23:08Z</time>
      </trkpt>
      <trkpt lat="48.45208" lon="7.24569">
        <ele>763.6</ele>
        <time>2022-12-25T09:23:09Z</time>
      </trkpt>
      <trkpt lat="48.45197" lon="7.24568">
        <ele>764.8</ele>
        <time>2022-12-25T09:23:16Z</time>
      </trkpt>
      <trkpt lat="48.45192" lon="7.24568">
        <ele>765</ele>
        <time>2022-12-25T09:23:19Z</time>
      </trkpt>
      <trkpt lat="48.45185" lon="7.24568">
        <ele>765.8</ele>
        <time>2022-12-25T09:23:24Z</time>
      </trkpt>
      <trkpt lat="48.45179" lon="7.24567">
        <ele>766.6</ele>
        <time>2022-12-25T09:23:28Z</time>
      </trkpt>
      <trkpt lat="48.45174" lon="7.24566">
        <ele>767</ele>
        <time>2022-12-25T09:23:31Z</time>
      </trkpt>
      <trkpt lat="48.45167" lon="7.24567">
        <ele>767.6</ele>
        <time>2022-12-25T09:23:36Z</time>
      </trkpt>
      <trkpt lat="48.45163" lon="7.24569">
        <ele>768</ele>
        <time>2022-12-25T09:23:38Z</time>
      </trkpt>
      <trkpt lat="48.45151" lon="7.24572">
        <ele>769</ele>
        <time>2022-12-25T09:23:46Z</time>
      </trkpt>
      <trkpt lat="48.4514" lon="7.2458">
        <ele>770</ele>
        <time>2022-12-25T09:23:54Z</time>
      </trkpt>
      <trkpt lat="48.45139" lon="7.24581">
        <ele>770</ele>
        <time>2022-12-25T09:23:55Z</time>
      </trkpt>
      <trkpt lat="48.45127" lon="7.24592">
        <ele>771</ele>
        <time>2022-12-25T09:24:04Z</time>
      </trkpt>
      <trkpt lat="48.45125" lon="7.24594">
        <ele>771</ele>
        <time>2022-12-25T09:24:05Z</time>
      </trkpt>
      <trkpt lat="48.45119" lon="7.24602">
        <ele>772.2</ele>
        <time>2022-12-25T09:24:11Z</time>
      </trkpt>
      <trkpt lat="48.45116" lon="7.24606">
        <ele>772.4</ele>
        <time>2022-12-25T09:24:13Z</time>
      </trkpt>
      <trkpt lat="48.45112" lon="7.24611">
        <ele>772.6</ele>
        <time>2022-12-25T09:24:17Z</time>
      </trkpt>
      <trkpt lat="48.45109" lon="7.24616">
        <ele>772.8</ele>
        <time>2022-12-25T09:24:19Z</time>
      </trkpt>
      <trkpt lat="48.45105" lon="7.24623">
        <ele>773.4</ele>
        <time>2022-12-25T09:24:22Z</time>
      </trkpt>
      <trkpt lat="48.45101" lon="7.24633">
        <ele>773.8</ele>
        <time>2022-12-25T09:24:26Z</time>
      </trkpt>
      <trkpt lat="48.45097" lon="7.24646">
        <ele>774.4</ele>
        <time>2022-12-25T09:24:31Z</time>
      </trkpt>
      <trkpt lat="48.45095" lon="7.24651">
        <ele>774.8</ele>
        <time>2022-12-25T09:24:33Z</time>
      </trkpt>
      <trkpt lat="48.45091" lon="7.24666">
        <ele>775.4</ele>
        <time>2022-12-25T09:24:41Z</time>
      </trkpt>
      <trkpt lat="48.45089" lon="7.24672">
        <ele>775.6</ele>
        <time>2022-12-25T09:24:44Z</time>
      </trkpt>
      <trkpt lat="48.45085" lon="7.2468">
        <ele>776</ele>
        <time>2022-12-25T09:24:48Z</time>
      </trkpt>
      <trkpt lat="48.45081" lon="7.24689">
        <ele>776.8</ele>
        <time>2022-12-25T09:24:53Z</time>
      </trkpt>
      <trkpt lat="48.45077" lon="7.24701">
        <ele>777.4</ele>
        <time>2022-12-25T09:24:59Z</time>
      </trkpt>
      <trkpt lat="48.45075" lon="7.24704">
        <ele>777.6</ele>
        <time>2022-12-25T09:25:01Z</time>
      </trkpt>
      <trkpt lat="48.45074" lon="7.24708">
        <ele>777.8</ele>
        <time>2022-12-25T09:25:03Z</time>
      </trkpt>
      <trkpt lat="48.45072" lon="7.24712">
        <ele>778.2</ele>
        <time>2022-12-25T09:25:05Z</time>
      </trkpt>
      <trkpt lat="48.45066" lon="7.24721">
        <ele>779</ele>
        <time>2022-12-25T09:25:10Z</time>
      </trkpt>
      <trkpt lat="48.45064" lon="7.24728">
        <ele>779.4</ele>
        <time>2022-12-25T09:25:13Z</time>
      </trkpt>
      <trkpt lat="48.45062" lon="7.24734">
        <ele>780</ele>
        <time>2022-12-25T09:25:16Z</time>
      </trkpt>
      <trkpt lat="48.4506" lon="7.24748">
        <ele>781.2</ele>
        <time>2022-12-25T09:25:22Z</time>
      </trkpt>
      <trkpt lat="48.4506" lon="7.2476">
        <ele>781.8</ele>
        <time>2022-12-25T09:25:26Z</time>
      </trkpt>
      <trkpt lat="48.45063" lon="7.24765">
        <ele>782</ele>
        <time>2022-12-25T09:25:28Z</time>
      </trkpt>
      <trkpt lat="48.45066" lon="7.24768">
        <ele>782.2</ele>
        <time>2022-12-25T09:25:30Z</time>
      </trkpt>
      <trkpt lat="48.45074" lon="7.24771">
        <ele>782.8</ele>
        <time>2022-12-25T09:25:35Z</time>
      </trkpt>
      <trkpt lat="48.45086" lon="7.2476">
        <ele>783.2</ele>
        <time>2022-12-25T09:25:41Z</time>
      </trkpt>
      <trkpt lat="48.45089" lon="7.24757">
        <ele>783.4</ele>
        <time>2022-12-25T09:25:42Z</time>
      </trkpt>
      <trkpt lat="48.45101" lon="7.24741">
        <ele>783.8</ele>
        <time>2022-12-25T09:25:49Z</time>
      </trkpt>
      <trkpt lat="48.45111" lon="7.2473">
        <ele>784.4</ele>
        <time>2022-12-25T09:25:54Z</time>
      </trkpt>
      <trkpt lat="48.45113" lon="7.24728">
        <ele>784.6</ele>
        <time>2022-12-25T09:25:55Z</time>
      </trkpt>
      <trkpt lat="48.45128" lon="7.2471">
        <ele>785.4</ele>
        <time>2022-12-25T09:26:03Z</time>
      </trkpt>
      <trkpt lat="48.4514" lon="7.24695">
        <ele>786.4</ele>
        <time>2022-12-25T09:26:10Z</time>
      </trkpt>
      <trkpt lat="48.45145" lon="7.24691">
        <ele>786.6</ele>
        <time>2022-12-25T09:26:12Z</time>
      </trkpt>
      <trkpt lat="48.45164" lon="7.24676">
        <ele>787.2</ele>
        <time>2022-12-25T09:26:19Z</time>
      </trkpt>
      <trkpt lat="48.45175" lon="7.2467">
        <ele>787.4</ele>
        <time>2022-12-25T09:26:24Z</time>
      </trkpt>
      <trkpt lat="48.45182" lon="7.2467">
        <ele>787.6</ele>
        <time>2022-12-25T09:26:25Z</time>
      </trkpt>
      <trkpt lat="48.45195" lon="7.24672">
        <ele>788</ele>
        <time>2022-12-25T09:26:29Z</time>
      </trkpt>
      <trkpt lat="48.45201" lon="7.24675">
        <ele>788.2</ele>
        <time>2022-12-25T09:26:31Z</time>
      </trkpt>
      <trkpt lat="48.45214" lon="7.24681">
        <ele>788.2</ele>
        <time>2022-12-25T09:26:34Z</time>
      </trkpt>
      <trkpt lat="48.45233" lon="7.24694">
        <ele>788.4</ele>
        <time>2022-12-25T09:26:39Z</time>
      </trkpt>
      <trkpt lat="48.45259" lon="7.24713">
        <ele>788.6</ele>
        <time>2022-12-25T09:26:46Z</time>
      </trkpt>
      <trkpt lat="48.45263" lon="7.24717">
        <ele>788.6</ele>
        <time>2022-12-25T09:26:47Z</time>
      </trkpt>
      <trkpt lat="48.45286" lon="7.24733">
        <ele>788.8</ele>
        <time>2022-12-25T09:26:54Z</time>
      </trkpt>
      <trkpt lat="48.45306" lon="7.24764">
        <ele>789</ele>
        <time>2022-12-25T09:27:01Z</time>
      </trkpt>
      <trkpt lat="48.45315" lon="7.24778">
        <ele>789.2</ele>
        <time>2022-12-25T09:27:05Z</time>
      </trkpt>
      <trkpt lat="48.45323" lon="7.2479">
        <ele>789.6</ele>
        <time>2022-12-25T09:27:09Z</time>
      </trkpt>
      <trkpt lat="48.45327" lon="7.24797">
        <ele>789.8</ele>
        <time>2022-12-25T09:27:11Z</time>
      </trkpt>
      <trkpt lat="48.45336" lon="7.24814">
        <ele>790.6</ele>
        <time>2022-12-25T09:27:16Z</time>
      </trkpt>
      <trkpt lat="48.45342" lon="7.24823">
        <ele>791</ele>
        <time>2022-12-25T09:27:19Z</time>
      </trkpt>
      <trkpt lat="48.45352" lon="7.24848">
        <ele>791.6</ele>
        <time>2022-12-25T09:27:25Z</time>
      </trkpt>
      <trkpt lat="48.45355" lon="7.24858">
        <ele>791.6</ele>
        <time>2022-12-25T09:27:27Z</time>
      </trkpt>
      <trkpt lat="48.45356" lon="7.24862">
        <ele>791.6</ele>
        <time>2022-12-25T09:27:28Z</time>
      </trkpt>
      <trkpt lat="48.45362" lon="7.24899">
        <ele>792</ele>
        <time>2022-12-25T09:27:36Z</time>
      </trkpt>
      <trkpt lat="48.45365" lon="7.24927">
        <ele>792.4</ele>
        <time>2022-12-25T09:27:42Z</time>
      </trkpt>
      <trkpt lat="48.45367" lon="7.24931">
        <ele>792.4</ele>
        <time>2022-12-25T09:27:43Z</time>
      </trkpt>
      <trkpt lat="48.45375" lon="7.24937">
        <ele>792.6</ele>
        <time>2022-12-25T09:27:46Z</time>
      </trkpt>
      <trkpt lat="48.4539" lon="7.24951">
        <ele>793</ele>
        <time>2022-12-25T09:27:51Z</time>
      </trkpt>
      <trkpt lat="48.45396" lon="7.24974">
        <ele>793.2</ele>
        <time>2022-12-25T09:27:57Z</time>
      </trkpt>
      <trkpt lat="48.45412" lon="7.24995">
        <ele>793.4</ele>
        <time>2022-12-25T09:28:03Z</time>
      </trkpt>
      <trkpt lat="48.45424" lon="7.2503">
        <ele>793.4</ele>
        <time>2022-12-25T09:28:10Z</time>
      </trkpt>
      <trkpt lat="48.45424" lon="7.25042">
        <ele>793.4</ele>
        <time>2022-12-25T09:28:13Z</time>
      </trkpt>
      <trkpt lat="48.45423" lon="7.25046">
        <ele>793.4</ele>
        <time>2022-12-25T09:28:14Z</time>
      </trkpt>
      <trkpt lat="48.45411" lon="7.25052">
        <ele>793.4</ele>
        <time>2022-12-25T09:28:19Z</time>
      </trkpt>
      <trkpt lat="48.45406" lon="7.25049">
        <ele>793.6</ele>
        <time>2022-12-25T09:28:21Z</time>
      </trkpt>
      <trkpt lat="48.45404" lon="7.25043">
        <ele>793.6</ele>
        <time>2022-12-25T09:28:23Z</time>
      </trkpt>
      <trkpt lat="48.454" lon="7.25014">
        <ele>793.8</ele>
        <time>2022-12-25T09:28:29Z</time>
      </trkpt>
      <trkpt lat="48.45397" lon="7.24979">
        <ele>793.6</ele>
        <time>2022-12-25T09:28:36Z</time>
      </trkpt>
      <trkpt lat="48.45396" lon="7.24975">
        <ele>793.6</ele>
        <time>2022-12-25T09:28:37Z</time>
      </trkpt>
      <trkpt lat="48.4539" lon="7.24968">
        <ele>793.6</ele>
        <time>2022-12-25T09:28:39Z</time>
      </trkpt>
      <trkpt lat="48.45384" lon="7.2497">
        <ele>793.4</ele>
        <time>2022-12-25T09:28:42Z</time>
      </trkpt>
      <trkpt lat="48.45382" lon="7.24971">
        <ele>793.4</ele>
        <time>2022-12-25T09:28:43Z</time>
      </trkpt>
      <trkpt lat="48.45378" lon="7.24979">
        <ele>793.6</ele>
        <time>2022-12-25T09:28:46Z</time>
      </trkpt>
      <trkpt lat="48.45375" lon="7.24995">
        <ele>793.8</ele>
        <time>2022-12-25T09:28:51Z</time>
      </trkpt>
      <trkpt lat="48.45375" lon="7.25002">
        <ele>793.8</ele>
        <time>2022-12-25T09:28:53Z</time>
      </trkpt>
      <trkpt lat="48.45377" lon="7.25005">
        <ele>794</ele>
        <time>2022-12-25T09:28:55Z</time>
      </trkpt>
      <trkpt lat="48.45378" lon="7.24997">
        <ele>794.2</ele>
        <time>2022-12-25T09:28:58Z</time>
      </trkpt>
      <trkpt lat="48.45377" lon="7.24988">
        <ele>794.2</ele>
        <time>2022-12-25T09:29:00Z</time>
      </trkpt>
      <trkpt lat="48.45379" lon="7.24985">
        <ele>794.2</ele>
        <time>2022-12-25T09:29:01Z</time>
      </trkpt>
      <trkpt lat="48.4538" lon="7.24984">
        <ele>794.2</ele>
        <time>2022-12-25T09:29:02Z</time>
      </trkpt>
      <trkpt lat="48.45386" lon="7.24984">
        <ele>794.2</ele>
        <time>2022-12-25T09:29:04Z</time>
      </trkpt>
      <trkpt lat="48.45394" lon="7.25009">
        <ele>794.2</ele>
        <time>2022-12-25T09:29:09Z</time>
      </trkpt>
      <trkpt lat="48.45399" lon="7.25045">
        <ele>794.6</ele>
        <time>2022-12-25T09:29:16Z</time>
      </trkpt>
      <trkpt lat="48.45403" lon="7.25067">
        <ele>795</ele>
        <time>2022-12-25T09:29:20Z</time>
      </trkpt>
      <trkpt lat="48.45406" lon="7.25093">
        <ele>795.6</ele>
        <time>2022-12-25T09:29:25Z</time>
      </trkpt>
      <trkpt lat="48.45411" lon="7.2512">
        <ele>796.2</ele>
        <time>2022-12-25T09:29:30Z</time>
      </trkpt>
      <trkpt lat="48.45418" lon="7.25155">
        <ele>796.4</ele>
        <time>2022-12-25T09:29:36Z</time>
      </trkpt>
      <trkpt lat="48.45428" lon="7.25216">
        <ele>796</ele>
        <time>2022-12-25T09:29:46Z</time>
      </trkpt>
      <trkpt lat="48.45432" lon="7.25244">
        <ele>795.8</ele>
        <time>2022-12-25T09:29:52Z</time>
      </trkpt>
      <trkpt lat="48.45438" lon="7.25271">
        <ele>796</ele>
        <time>2022-12-25T09:29:58Z</time>
      </trkpt>
      <trkpt lat="48.45442" lon="7.2529">
        <ele>796.2</ele>
        <time>2022-12-25T09:30:03Z</time>
      </trkpt>
      <trkpt lat="48.45445" lon="7.25301">
        <ele>796.6</ele>
        <time>2022-12-25T09:30:07Z</time>
      </trkpt>
      <trkpt lat="48.45449" lon="7.25304">
        <ele>797</ele>
        <time>2022-12-25T09:33:00Z</time>
      </trkpt>
      <trkpt lat="48.4545" lon="7.25307">
        <ele>797</ele>
        <time>2022-12-25T09:33:01Z</time>
      </trkpt>
      <trkpt lat="48.45451" lon="7.25315">
        <ele>797</ele>
        <time>2022-12-25T09:33:04Z</time>
      </trkpt>
      <trkpt lat="48.45451" lon="7.25318">
        <ele>797</ele>
        <time>2022-12-25T09:33:05Z</time>
      </trkpt>
      <trkpt lat="48.45454" lon="7.25319">
        <ele>797</ele>
        <time>2022-12-25T09:33:07Z</time>
      </trkpt>
      <trkpt lat="48.45456" lon="7.25317">
        <ele>797</ele>
        <time>2022-12-25T09:33:08Z</time>
      </trkpt>
      <trkpt lat="48.45457" lon="7.2531">
        <ele>797</ele>
        <time>2022-12-25T09:33:10Z</time>
      </trkpt>
      <trkpt lat="48.45456" lon="7.25305">
        <ele>797</ele>
        <time>2022-12-25T09:33:11Z</time>
      </trkpt>
      <trkpt lat="48.45452" lon="7.25299">
        <ele>797</ele>
        <time>2022-12-25T09:33:13Z</time>
      </trkpt>
      <trkpt lat="48.45446" lon="7.25299">
        <ele>797</ele>
        <time>2022-12-25T09:33:15Z</time>
      </trkpt>
      <trkpt lat="48.45441" lon="7.2531">
        <ele>797</ele>
        <time>2022-12-25T09:33:19Z</time>
      </trkpt>
      <trkpt lat="48.45441" lon="7.25318">
        <ele>797.4</ele>
        <time>2022-12-25T09:33:22Z</time>
      </trkpt>
      <trkpt lat="48.4544" lon="7.25323">
        <ele>797.8</ele>
        <time>2022-12-25T09:33:24Z</time>
      </trkpt>
      <trkpt lat="48.4544" lon="7.25332">
        <ele>798.4</ele>
        <time>2022-12-25T09:33:28Z</time>
      </trkpt>
      <trkpt lat="48.45438" lon="7.25336">
        <ele>799.4</ele>
        <time>2022-12-25T09:33:31Z</time>
      </trkpt>
      <trkpt lat="48.45438" lon="7.25338">
        <ele>799.6</ele>
        <time>2022-12-25T09:33:32Z</time>
      </trkpt>
      <trkpt lat="48.45437" lon="7.25339">
        <ele>799.8</ele>
        <time>2022-12-25T09:33:33Z</time>
      </trkpt>
      <trkpt lat="48.45439" lon="7.25349">
        <ele>800.6</ele>
        <time>2022-12-25T09:33:37Z</time>
      </trkpt>
      <trkpt lat="48.45441" lon="7.25364">
        <ele>800.8</ele>
        <time>2022-12-25T09:33:41Z</time>
      </trkpt>
      <trkpt lat="48.45443" lon="7.25372">
        <ele>801</ele>
        <time>2022-12-25T09:33:43Z</time>
      </trkpt>
      <trkpt lat="48.45444" lon="7.25375">
        <ele>801</ele>
        <time>2022-12-25T09:33:44Z</time>
      </trkpt>
      <trkpt lat="48.45445" lon="7.2539">
        <ele>801</ele>
        <time>2022-12-25T09:33:48Z</time>
      </trkpt>
      <trkpt lat="48.45444" lon="7.25409">
        <ele>800.8</ele>
        <time>2022-12-25T09:33:54Z</time>
      </trkpt>
      <trkpt lat="48.45442" lon="7.25414">
        <ele>800.8</ele>
        <time>2022-12-25T09:33:56Z</time>
      </trkpt>
      <trkpt lat="48.45442" lon="7.25422">
        <ele>801</ele>
        <time>2022-12-25T09:33:59Z</time>
      </trkpt>
      <trkpt lat="48.45443" lon="7.25434">
        <ele>801</ele>
        <time>2022-12-25T09:34:06Z</time>
      </trkpt>
      <trkpt lat="48.45443" lon="7.25436">
        <ele>800.8</ele>
        <time>2022-12-25T09:34:12Z</time>
      </trkpt>
      <trkpt lat="48.45443" lon="7.25436">
        <ele>800.6</ele>
        <time>2022-12-25T09:34:17Z</time>
      </trkpt>
      <trkpt lat="48.45443" lon="7.25436">
        <ele>800.6</ele>
        <time>2022-12-25T09:34:24Z</time>
      </trkpt>
      <trkpt lat="48.45443" lon="7.25436">
        <ele>800.8</ele>
        <time>2022-12-25T09:34:31Z</time>
      </trkpt>
      <trkpt lat="48.45445" lon="7.2544">
        <ele>800.8</ele>
        <time>2022-12-25T09:34:41Z</time>
      </trkpt>
      <trkpt lat="48.45446" lon="7.25442">
        <ele>800.8</ele>
        <time>2022-12-25T09:34:42Z</time>
      </trkpt>
      <trkpt lat="48.45449" lon="7.25449">
        <ele>800.8</ele>
        <time>2022-12-25T09:34:45Z</time>
      </trkpt>
      <trkpt lat="48.45451" lon="7.25448">
        <ele>800.8</ele>
        <time>2022-12-25T09:34:46Z</time>
      </trkpt>
      <trkpt lat="48.45454" lon="7.25442">
        <ele>800.6</ele>
        <time>2022-12-25T09:34:48Z</time>
      </trkpt>
      <trkpt lat="48.45453" lon="7.25438">
        <ele>800.6</ele>
        <time>2022-12-25T09:34:49Z</time>
      </trkpt>
      <trkpt lat="48.45451" lon="7.25419">
        <ele>800.4</ele>
        <time>2022-12-25T09:34:55Z</time>
      </trkpt>
      <trkpt lat="48.45449" lon="7.25402">
        <ele>800.4</ele>
        <time>2022-12-25T09:35:00Z</time>
      </trkpt>
      <trkpt lat="48.45448" lon="7.25395">
        <ele>800.4</ele>
        <time>2022-12-25T09:35:02Z</time>
      </trkpt>
      <trkpt lat="48.45443" lon="7.2537">
        <ele>800.6</ele>
        <time>2022-12-25T09:35:10Z</time>
      </trkpt>
      <trkpt lat="48.45442" lon="7.25364">
        <ele>800.6</ele>
        <time>2022-12-25T09:35:12Z</time>
      </trkpt>
      <trkpt lat="48.45437" lon="7.25346">
        <ele>801</ele>
        <time>2022-12-25T09:35:18Z</time>
      </trkpt>
      <trkpt lat="48.45426" lon="7.2532">
        <ele>801.2</ele>
        <time>2022-12-25T09:35:27Z</time>
      </trkpt>
      <trkpt lat="48.45424" lon="7.2531">
        <ele>801.6</ele>
        <time>2022-12-25T09:35:30Z</time>
      </trkpt>
      <trkpt lat="48.45421" lon="7.25294">
        <ele>802</ele>
        <time>2022-12-25T09:35:35Z</time>
      </trkpt>
      <trkpt lat="48.45417" lon="7.25278">
        <ele>802.2</ele>
        <time>2022-12-25T09:35:40Z</time>
      </trkpt>
      <trkpt lat="48.45417" lon="7.25276">
        <ele>802.4</ele>
        <time>2022-12-25T09:35:41Z</time>
      </trkpt>
      <trkpt lat="48.45415" lon="7.25271">
        <ele>802.6</ele>
        <time>2022-12-25T09:35:43Z</time>
      </trkpt>
      <trkpt lat="48.45414" lon="7.25266">
        <ele>802.8</ele>
        <time>2022-12-25T09:35:45Z</time>
      </trkpt>
      <trkpt lat="48.45415" lon="7.25259">
        <ele>803.4</ele>
        <time>2022-12-25T09:35:48Z</time>
      </trkpt>
      <trkpt lat="48.45414" lon="7.25257">
        <ele>803.6</ele>
        <time>2022-12-25T09:35:49Z</time>
      </trkpt>
      <trkpt lat="48.4541" lon="7.25246">
        <ele>804</ele>
        <time>2022-12-25T09:35:54Z</time>
      </trkpt>
      <trkpt lat="48.45406" lon="7.2524">
        <ele>804.4</ele>
        <time>2022-12-25T09:35:58Z</time>
      </trkpt>
      <trkpt lat="48.45404" lon="7.25239">
        <ele>804.6</ele>
        <time>2022-12-25T09:35:59Z</time>
      </trkpt>
      <trkpt lat="48.45402" lon="7.2524">
        <ele>804.6</ele>
        <time>2022-12-25T09:36:00Z</time>
      </trkpt>
      <trkpt lat="48.45399" lon="7.25241">
        <ele>804.8</ele>
        <time>2022-12-25T09:36:02Z</time>
      </trkpt>
      <trkpt lat="48.45398" lon="7.25249">
        <ele>805</ele>
        <time>2022-12-25T09:36:05Z</time>
      </trkpt>
      <trkpt lat="48.454" lon="7.2527">
        <ele>805.6</ele>
        <time>2022-12-25T09:36:12Z</time>
      </trkpt>
      <trkpt lat="48.45402" lon="7.25279">
        <ele>805.8</ele>
        <time>2022-12-25T09:36:15Z</time>
      </trkpt>
      <trkpt lat="48.45404" lon="7.25297">
        <ele>806.6</ele>
        <time>2022-12-25T09:36:21Z</time>
      </trkpt>
      <trkpt lat="48.45405" lon="7.253">
        <ele>806.8</ele>
        <time>2022-12-25T09:36:22Z</time>
      </trkpt>
      <trkpt lat="48.45405" lon="7.25327">
        <ele>807.8</ele>
        <time>2022-12-25T09:36:31Z</time>
      </trkpt>
      <trkpt lat="48.45405" lon="7.2533">
        <ele>807.8</ele>
        <time>2022-12-25T09:36:32Z</time>
      </trkpt>
      <trkpt lat="48.45404" lon="7.25354">
        <ele>808.8</ele>
        <time>2022-12-25T09:36:40Z</time>
      </trkpt>
      <trkpt lat="48.45403" lon="7.25374">
        <ele>809.6</ele>
        <time>2022-12-25T09:36:47Z</time>
      </trkpt>
      <trkpt lat="48.45402" lon="7.25376">
        <ele>810</ele>
        <time>2022-12-25T09:36:48Z</time>
      </trkpt>
      <trkpt lat="48.45399" lon="7.25402">
        <ele>810.6</ele>
        <time>2022-12-25T09:36:58Z</time>
      </trkpt>
      <trkpt lat="48.45397" lon="7.25407">
        <ele>811</ele>
        <time>2022-12-25T09:37:00Z</time>
      </trkpt>
      <trkpt lat="48.45392" lon="7.25422">
        <ele>812</ele>
        <time>2022-12-25T09:37:07Z</time>
      </trkpt>
      <trkpt lat="48.45391" lon="7.25426">
        <ele>812.4</ele>
        <time>2022-12-25T09:37:09Z</time>
      </trkpt>
      <trkpt lat="48.45386" lon="7.25437">
        <ele>813</ele>
        <time>2022-12-25T09:37:14Z</time>
      </trkpt>
      <trkpt lat="48.45383" lon="7.25443">
        <ele>813.6</ele>
        <time>2022-12-25T09:37:17Z</time>
      </trkpt>
      <trkpt lat="48.45381" lon="7.25447">
        <ele>814</ele>
        <time>2022-12-25T09:37:19Z</time>
      </trkpt>
      <trkpt lat="48.45372" lon="7.25458">
        <ele>815.4</ele>
        <time>2022-12-25T09:37:26Z</time>
      </trkpt>
      <trkpt lat="48.45367" lon="7.25465">
        <ele>816</ele>
        <time>2022-12-25T09:37:31Z</time>
      </trkpt>
      <trkpt lat="48.45364" lon="7.25468">
        <ele>816.4</ele>
        <time>2022-12-25T09:37:33Z</time>
      </trkpt>
      <trkpt lat="48.45362" lon="7.2547">
        <ele>816.8</ele>
        <time>2022-12-25T09:37:35Z</time>
      </trkpt>
      <trkpt lat="48.45354" lon="7.25477">
        <ele>817.4</ele>
        <time>2022-12-25T09:37:41Z</time>
      </trkpt>
      <trkpt lat="48.45353" lon="7.25478">
        <ele>817.8</ele>
        <time>2022-12-25T09:37:42Z</time>
      </trkpt>
      <trkpt lat="48.45345" lon="7.25485">
        <ele>818.8</ele>
        <time>2022-12-25T09:37:48Z</time>
      </trkpt>
      <trkpt lat="48.4534" lon="7.25487">
        <ele>819.2</ele>
        <time>2022-12-25T09:37:51Z</time>
      </trkpt>
      <trkpt lat="48.45336" lon="7.2549">
        <ele>819.8</ele>
        <time>2022-12-25T09:37:54Z</time>
      </trkpt>
      <trkpt lat="48.45329" lon="7.25493">
        <ele>820.2</ele>
        <time>2022-12-25T09:37:59Z</time>
      </trkpt>
      <trkpt lat="48.45324" lon="7.25494">
        <ele>820.8</ele>
        <time>2022-12-25T09:38:02Z</time>
      </trkpt>
      <trkpt lat="48.45317" lon="7.25497">
        <ele>821.4</ele>
        <time>2022-12-25T09:38:07Z</time>
      </trkpt>
      <trkpt lat="48.45314" lon="7.25497">
        <ele>822</ele>
        <time>2022-12-25T09:38:09Z</time>
      </trkpt>
      <trkpt lat="48.45306" lon="7.25498">
        <ele>823</ele>
        <time>2022-12-25T09:38:14Z</time>
      </trkpt>
      <trkpt lat="48.45298" lon="7.25499">
        <ele>823.2</ele>
        <time>2022-12-25T09:38:18Z</time>
      </trkpt>
      <trkpt lat="48.45289" lon="7.255">
        <ele>823.6</ele>
        <time>2022-12-25T09:38:23Z</time>
      </trkpt>
      <trkpt lat="48.4528" lon="7.25501">
        <ele>824.2</ele>
        <time>2022-12-25T09:38:28Z</time>
      </trkpt>
      <trkpt lat="48.45276" lon="7.25501">
        <ele>824.4</ele>
        <time>2022-12-25T09:38:30Z</time>
      </trkpt>
      <trkpt lat="48.45261" lon="7.25501">
        <ele>825.4</ele>
        <time>2022-12-25T09:38:37Z</time>
      </trkpt>
      <trkpt lat="48.45243" lon="7.25502">
        <ele>826.2</ele>
        <time>2022-12-25T09:38:46Z</time>
      </trkpt>
      <trkpt lat="48.45239" lon="7.25503">
        <ele>826.4</ele>
        <time>2022-12-25T09:38:48Z</time>
      </trkpt>
      <trkpt lat="48.45233" lon="7.25503">
        <ele>827.4</ele>
        <time>2022-12-25T09:38:51Z</time>
      </trkpt>
      <trkpt lat="48.45226" lon="7.25503">
        <ele>828</ele>
        <time>2022-12-25T09:38:55Z</time>
      </trkpt>
      <trkpt lat="48.4521" lon="7.25502">
        <ele>828.4</ele>
        <time>2022-12-25T09:39:03Z</time>
      </trkpt>
      <trkpt lat="48.45208" lon="7.25502">
        <ele>828.6</ele>
        <time>2022-12-25T09:39:04Z</time>
      </trkpt>
      <trkpt lat="48.45188" lon="7.25501">
        <ele>829.4</ele>
        <time>2022-12-25T09:39:13Z</time>
      </trkpt>
      <trkpt lat="48.45182" lon="7.25501">
        <ele>829.6</ele>
        <time>2022-12-25T09:39:16Z</time>
      </trkpt>
      <trkpt lat="48.45173" lon="7.25502">
        <ele>830.2</ele>
        <time>2022-12-25T09:39:20Z</time>
      </trkpt>
      <trkpt lat="48.45158" lon="7.25501">
        <ele>830.6</ele>
        <time>2022-12-25T09:39:26Z</time>
      </trkpt>
      <trkpt lat="48.45156" lon="7.25502">
        <ele>830.8</ele>
        <time>2022-12-25T09:39:27Z</time>
      </trkpt>
      <trkpt lat="48.4515" lon="7.25503">
        <ele>831</ele>
        <time>2022-12-25T09:39:30Z</time>
      </trkpt>
      <trkpt lat="48.45133" lon="7.25506">
        <ele>831.6</ele>
        <time>2022-12-25T09:39:37Z</time>
      </trkpt>
      <trkpt lat="48.45131" lon="7.25508">
        <ele>831.8</ele>
        <time>2022-12-25T09:39:38Z</time>
      </trkpt>
      <trkpt lat="48.45121" lon="7.25511">
        <ele>832.4</ele>
        <time>2022-12-25T09:39:43Z</time>
      </trkpt>
      <trkpt lat="48.45116" lon="7.25514">
        <ele>832.8</ele>
        <time>2022-12-25T09:39:46Z</time>
      </trkpt>
      <trkpt lat="48.45105" lon="7.25521">
        <ele>833.2</ele>
        <time>2022-12-25T09:39:51Z</time>
      </trkpt>
      <trkpt lat="48.45088" lon="7.2553">
        <ele>834</ele>
        <time>2022-12-25T09:39:58Z</time>
      </trkpt>
      <trkpt lat="48.45086" lon="7.25532">
        <ele>834</ele>
        <time>2022-12-25T09:39:59Z</time>
      </trkpt>
      <trkpt lat="48.45074" lon="7.25537">
        <ele>835</ele>
        <time>2022-12-25T09:40:04Z</time>
      </trkpt>
      <trkpt lat="48.45062" lon="7.25544">
        <ele>835.6</ele>
        <time>2022-12-25T09:40:09Z</time>
      </trkpt>
      <trkpt lat="48.45053" lon="7.2555">
        <ele>836</ele>
        <time>2022-12-25T09:40:13Z</time>
      </trkpt>
      <trkpt lat="48.45042" lon="7.25554">
        <ele>836.6</ele>
        <time>2022-12-25T09:40:18Z</time>
      </trkpt>
      <trkpt lat="48.45033" lon="7.2556">
        <ele>837</ele>
        <time>2022-12-25T09:40:22Z</time>
      </trkpt>
      <trkpt lat="48.45024" lon="7.25563">
        <ele>837.6</ele>
        <time>2022-12-25T09:40:26Z</time>
      </trkpt>
      <trkpt lat="48.45014" lon="7.25567">
        <ele>838.2</ele>
        <time>2022-12-25T09:40:30Z</time>
      </trkpt>
      <trkpt lat="48.45004" lon="7.25569">
        <ele>838.8</ele>
        <time>2022-12-25T09:40:34Z</time>
      </trkpt>
      <trkpt lat="48.44997" lon="7.25571">
        <ele>839.2</ele>
        <time>2022-12-25T09:40:37Z</time>
      </trkpt>
      <trkpt lat="48.44986" lon="7.25573">
        <ele>839.8</ele>
        <time>2022-12-25T09:40:42Z</time>
      </trkpt>
      <trkpt lat="48.44974" lon="7.25572">
        <ele>840.2</ele>
        <time>2022-12-25T09:40:47Z</time>
      </trkpt>
      <trkpt lat="48.44964" lon="7.25573">
        <ele>840.6</ele>
        <time>2022-12-25T09:40:51Z</time>
      </trkpt>
      <trkpt lat="48.44945" lon="7.25573">
        <ele>841.2</ele>
        <time>2022-12-25T09:40:58Z</time>
      </trkpt>
      <trkpt lat="48.4494" lon="7.25572">
        <ele>841.4</ele>
        <time>2022-12-25T09:41:00Z</time>
      </trkpt>
      <trkpt lat="48.44914" lon="7.25573">
        <ele>842.4</ele>
        <time>2022-12-25T09:41:10Z</time>
      </trkpt>
      <trkpt lat="48.44893" lon="7.25578">
        <ele>843</ele>
        <time>2022-12-25T09:41:18Z</time>
      </trkpt>
      <trkpt lat="48.44881" lon="7.25583">
        <ele>843.6</ele>
        <time>2022-12-25T09:41:23Z</time>
      </trkpt>
      <trkpt lat="48.44872" lon="7.25588">
        <ele>844</ele>
        <time>2022-12-25T09:41:27Z</time>
      </trkpt>
      <trkpt lat="48.44858" lon="7.25596">
        <ele>844.6</ele>
        <time>2022-12-25T09:41:33Z</time>
      </trkpt>
      <trkpt lat="48.44854" lon="7.25598">
        <ele>844.8</ele>
        <time>2022-12-25T09:41:35Z</time>
      </trkpt>
      <trkpt lat="48.4484" lon="7.25608">
        <ele>845.2</ele>
        <time>2022-12-25T09:41:42Z</time>
      </trkpt>
      <trkpt lat="48.4483" lon="7.25615">
        <ele>845.8</ele>
        <time>2022-12-25T09:41:47Z</time>
      </trkpt>
      <trkpt lat="48.44822" lon="7.25621">
        <ele>846.4</ele>
        <time>2022-12-25T09:41:51Z</time>
      </trkpt>
      <trkpt lat="48.44815" lon="7.25627">
        <ele>847</ele>
        <time>2022-12-25T09:41:55Z</time>
      </trkpt>
      <trkpt lat="48.4481" lon="7.25632">
        <ele>847.4</ele>
        <time>2022-12-25T09:41:58Z</time>
      </trkpt>
      <trkpt lat="48.44801" lon="7.25641">
        <ele>848.2</ele>
        <time>2022-12-25T09:42:03Z</time>
      </trkpt>
      <trkpt lat="48.44798" lon="7.25644">
        <ele>848.4</ele>
        <time>2022-12-25T09:42:05Z</time>
      </trkpt>
      <trkpt lat="48.44788" lon="7.25655">
        <ele>849.2</ele>
        <time>2022-12-25T09:42:11Z</time>
      </trkpt>
      <trkpt lat="48.44781" lon="7.25661">
        <ele>849.6</ele>
        <time>2022-12-25T09:42:15Z</time>
      </trkpt>
      <trkpt lat="48.44777" lon="7.25667">
        <ele>850.4</ele>
        <time>2022-12-25T09:42:18Z</time>
      </trkpt>
      <trkpt lat="48.44772" lon="7.25673">
        <ele>851</ele>
        <time>2022-12-25T09:42:21Z</time>
      </trkpt>
      <trkpt lat="48.4477" lon="7.25676">
        <ele>851.2</ele>
        <time>2022-12-25T09:42:22Z</time>
      </trkpt>
      <trkpt lat="48.44762" lon="7.25687">
        <ele>851.6</ele>
        <time>2022-12-25T09:42:28Z</time>
      </trkpt>
      <trkpt lat="48.44759" lon="7.25692">
        <ele>852</ele>
        <time>2022-12-25T09:42:30Z</time>
      </trkpt>
      <trkpt lat="48.44754" lon="7.25701">
        <ele>852.6</ele>
        <time>2022-12-25T09:42:34Z</time>
      </trkpt>
      <trkpt lat="48.4475" lon="7.25708">
        <ele>853.4</ele>
        <time>2022-12-25T09:42:37Z</time>
      </trkpt>
      <trkpt lat="48.44745" lon="7.25716">
        <ele>854</ele>
        <time>2022-12-25T09:42:41Z</time>
      </trkpt>
      <trkpt lat="48.4474" lon="7.25725">
        <ele>854.8</ele>
        <time>2022-12-25T09:42:45Z</time>
      </trkpt>
      <trkpt lat="48.44738" lon="7.25729">
        <ele>855.2</ele>
        <time>2022-12-25T09:42:47Z</time>
      </trkpt>
      <trkpt lat="48.44731" lon="7.25744">
        <ele>856.2</ele>
        <time>2022-12-25T09:42:54Z</time>
      </trkpt>
      <trkpt lat="48.4473" lon="7.25746">
        <ele>856.2</ele>
        <time>2022-12-25T09:42:55Z</time>
      </trkpt>
      <trkpt lat="48.44724" lon="7.25758">
        <ele>857.2</ele>
        <time>2022-12-25T09:43:01Z</time>
      </trkpt>
      <trkpt lat="48.44722" lon="7.25762">
        <ele>857.8</ele>
        <time>2022-12-25T09:43:03Z</time>
      </trkpt>
      <trkpt lat="48.44718" lon="7.25769">
        <ele>858.6</ele>
        <time>2022-12-25T09:43:07Z</time>
      </trkpt>
      <trkpt lat="48.44714" lon="7.25776">
        <ele>859.2</ele>
        <time>2022-12-25T09:43:11Z</time>
      </trkpt>
      <trkpt lat="48.44711" lon="7.25782">
        <ele>859.8</ele>
        <time>2022-12-25T09:43:14Z</time>
      </trkpt>
      <trkpt lat="48.44703" lon="7.25794">
        <ele>860.8</ele>
        <time>2022-12-25T09:43:21Z</time>
      </trkpt>
      <trkpt lat="48.44702" lon="7.25796">
        <ele>860.8</ele>
        <time>2022-12-25T09:43:22Z</time>
      </trkpt>
      <trkpt lat="48.44694" lon="7.25806">
        <ele>861.8</ele>
        <time>2022-12-25T09:43:28Z</time>
      </trkpt>
      <trkpt lat="48.44692" lon="7.25809">
        <ele>862</ele>
        <time>2022-12-25T09:43:30Z</time>
      </trkpt>
      <trkpt lat="48.44683" lon="7.2582">
        <ele>862.8</ele>
        <time>2022-12-25T09:43:37Z</time>
      </trkpt>
      <trkpt lat="48.44681" lon="7.25821">
        <ele>863</ele>
        <time>2022-12-25T09:43:38Z</time>
      </trkpt>
      <trkpt lat="48.44676" lon="7.25826">
        <ele>863.8</ele>
        <time>2022-12-25T09:43:42Z</time>
      </trkpt>
      <trkpt lat="48.44671" lon="7.2583">
        <ele>864.6</ele>
        <time>2022-12-25T09:43:46Z</time>
      </trkpt>
      <trkpt lat="48.44665" lon="7.25835">
        <ele>865</ele>
        <time>2022-12-25T09:43:50Z</time>
      </trkpt>
      <trkpt lat="48.44661" lon="7.25838">
        <ele>865.6</ele>
        <time>2022-12-25T09:43:53Z</time>
      </trkpt>
      <trkpt lat="48.44656" lon="7.25842">
        <ele>866</ele>
        <time>2022-12-25T09:43:57Z</time>
      </trkpt>
      <trkpt lat="48.44652" lon="7.25848">
        <ele>866.8</ele>
        <time>2022-12-25T09:44:01Z</time>
      </trkpt>
      <trkpt lat="48.44651" lon="7.25849">
        <ele>867.2</ele>
        <time>2022-12-25T09:44:02Z</time>
      </trkpt>
      <trkpt lat="48.44642" lon="7.25863">
        <ele>868.2</ele>
        <time>2022-12-25T09:44:10Z</time>
      </trkpt>
      <trkpt lat="48.44641" lon="7.25868">
        <ele>868.2</ele>
        <time>2022-12-25T09:44:12Z</time>
      </trkpt>
      <trkpt lat="48.44638" lon="7.25873">
        <ele>868.8</ele>
        <time>2022-12-25T09:44:15Z</time>
      </trkpt>
      <trkpt lat="48.44637" lon="7.25878">
        <ele>869</ele>
        <time>2022-12-25T09:44:17Z</time>
      </trkpt>
      <trkpt lat="48.44636" lon="7.25882">
        <ele>869.4</ele>
        <time>2022-12-25T09:44:19Z</time>
      </trkpt>
      <trkpt lat="48.44635" lon="7.25897">
        <ele>870.2</ele>
        <time>2022-12-25T09:44:25Z</time>
      </trkpt>
      <trkpt lat="48.44636" lon="7.25913">
        <ele>870.8</ele>
        <time>2022-12-25T09:44:31Z</time>
      </trkpt>
      <trkpt lat="48.44636" lon="7.25916">
        <ele>870.8</ele>
        <time>2022-12-25T09:44:32Z</time>
      </trkpt>
      <trkpt lat="48.44641" lon="7.25934">
        <ele>871.6</ele>
        <time>2022-12-25T09:44:40Z</time>
      </trkpt>
      <trkpt lat="48.44642" lon="7.25939">
        <ele>871.8</ele>
        <time>2022-12-25T09:44:42Z</time>
      </trkpt>
      <trkpt lat="48.44647" lon="7.2595">
        <ele>872</ele>
        <time>2022-12-25T09:44:47Z</time>
      </trkpt>
      <trkpt lat="48.44651" lon="7.25966">
        <ele>873</ele>
        <time>2022-12-25T09:44:54Z</time>
      </trkpt>
      <trkpt lat="48.44652" lon="7.25968">
        <ele>873</ele>
        <time>2022-12-25T09:44:55Z</time>
      </trkpt>
      <trkpt lat="48.44657" lon="7.25983">
        <ele>873.8</ele>
        <time>2022-12-25T09:45:02Z</time>
      </trkpt>
      <trkpt lat="48.44658" lon="7.2599">
        <ele>874.2</ele>
        <time>2022-12-25T09:45:05Z</time>
      </trkpt>
      <trkpt lat="48.44661" lon="7.26004">
        <ele>875</ele>
        <time>2022-12-25T09:45:11Z</time>
      </trkpt>
      <trkpt lat="48.44662" lon="7.26009">
        <ele>875.2</ele>
        <time>2022-12-25T09:45:13Z</time>
      </trkpt>
      <trkpt lat="48.44665" lon="7.26022">
        <ele>876</ele>
        <time>2022-12-25T09:45:18Z</time>
      </trkpt>
      <trkpt lat="48.44665" lon="7.26027">
        <ele>876.4</ele>
        <time>2022-12-25T09:45:20Z</time>
      </trkpt>
      <trkpt lat="48.44666" lon="7.26039">
        <ele>877</ele>
        <time>2022-12-25T09:45:24Z</time>
      </trkpt>
      <trkpt lat="48.44667" lon="7.26044">
        <ele>877.4</ele>
        <time>2022-12-25T09:45:26Z</time>
      </trkpt>
      <trkpt lat="48.44669" lon="7.26059">
        <ele>878</ele>
        <time>2022-12-25T09:45:32Z</time>
      </trkpt>
      <trkpt lat="48.4467" lon="7.26067">
        <ele>878.6</ele>
        <time>2022-12-25T09:45:35Z</time>
      </trkpt>
      <trkpt lat="48.44669" lon="7.26085">
        <ele>879.4</ele>
        <time>2022-12-25T09:45:43Z</time>
      </trkpt>
      <trkpt lat="48.44669" lon="7.26089">
        <ele>879.6</ele>
        <time>2022-12-25T09:45:45Z</time>
      </trkpt>
      <trkpt lat="48.44669" lon="7.26091">
        <ele>879.8</ele>
        <time>2022-12-25T09:45:46Z</time>
      </trkpt>
      <trkpt lat="48.44668" lon="7.26096">
        <ele>879.8</ele>
        <time>2022-12-25T09:45:48Z</time>
      </trkpt>
      <trkpt lat="48.44668" lon="7.261">
        <ele>880</ele>
        <time>2022-12-25T09:45:50Z</time>
      </trkpt>
      <trkpt lat="48.44669" lon="7.26116">
        <ele>880.8</ele>
        <time>2022-12-25T09:45:56Z</time>
      </trkpt>
      <trkpt lat="48.4467" lon="7.26124">
        <ele>881.2</ele>
        <time>2022-12-25T09:45:59Z</time>
      </trkpt>
      <trkpt lat="48.44671" lon="7.26135">
        <ele>881.8</ele>
        <time>2022-12-25T09:46:03Z</time>
      </trkpt>
      <trkpt lat="48.44671" lon="7.26147">
        <ele>882.4</ele>
        <time>2022-12-25T09:46:07Z</time>
      </trkpt>
      <trkpt lat="48.44671" lon="7.26156">
        <ele>883</ele>
        <time>2022-12-25T09:46:10Z</time>
      </trkpt>
      <trkpt lat="48.44671" lon="7.26165">
        <ele>883.2</ele>
        <time>2022-12-25T09:46:13Z</time>
      </trkpt>
      <trkpt lat="48.44672" lon="7.26184">
        <ele>883.8</ele>
        <time>2022-12-25T09:46:20Z</time>
      </trkpt>
      <trkpt lat="48.44673" lon="7.2619">
        <ele>884</ele>
        <time>2022-12-25T09:46:22Z</time>
      </trkpt>
      <trkpt lat="48.44675" lon="7.26205">
        <ele>884.4</ele>
        <time>2022-12-25T09:46:27Z</time>
      </trkpt>
      <trkpt lat="48.44678" lon="7.26222">
        <ele>884.8</ele>
        <time>2022-12-25T09:46:33Z</time>
      </trkpt>
      <trkpt lat="48.44679" lon="7.26229">
        <ele>885</ele>
        <time>2022-12-25T09:46:35Z</time>
      </trkpt>
      <trkpt lat="48.4468" lon="7.26251">
        <ele>885.8</ele>
        <time>2022-12-25T09:46:42Z</time>
      </trkpt>
      <trkpt lat="48.4468" lon="7.26256">
        <ele>886</ele>
        <time>2022-12-25T09:46:44Z</time>
      </trkpt>
      <trkpt lat="48.4468" lon="7.2627">
        <ele>886.4</ele>
        <time>2022-12-25T09:46:49Z</time>
      </trkpt>
      <trkpt lat="48.44676" lon="7.26287">
        <ele>887.2</ele>
        <time>2022-12-25T09:46:55Z</time>
      </trkpt>
      <trkpt lat="48.44675" lon="7.26296">
        <ele>887.4</ele>
        <time>2022-12-25T09:46:58Z</time>
      </trkpt>
      <trkpt lat="48.44674" lon="7.26312">
        <ele>888.2</ele>
        <time>2022-12-25T09:47:03Z</time>
      </trkpt>
      <trkpt lat="48.44672" lon="7.26319">
        <ele>888.4</ele>
        <time>2022-12-25T09:47:06Z</time>
      </trkpt>
      <trkpt lat="48.4467" lon="7.26339">
        <ele>889.2</ele>
        <time>2022-12-25T09:47:12Z</time>
      </trkpt>
      <trkpt lat="48.44669" lon="7.26345">
        <ele>889.6</ele>
        <time>2022-12-25T09:47:14Z</time>
      </trkpt>
      <trkpt lat="48.44667" lon="7.26362">
        <ele>890.4</ele>
        <time>2022-12-25T09:47:20Z</time>
      </trkpt>
      <trkpt lat="48.44666" lon="7.26367">
        <ele>890.6</ele>
        <time>2022-12-25T09:47:22Z</time>
      </trkpt>
      <trkpt lat="48.44662" lon="7.26379">
        <ele>891.4</ele>
        <time>2022-12-25T09:47:27Z</time>
      </trkpt>
      <trkpt lat="48.44662" lon="7.26382">
        <ele>891.4</ele>
        <time>2022-12-25T09:47:28Z</time>
      </trkpt>
      <trkpt lat="48.44658" lon="7.26402">
        <ele>892.4</ele>
        <time>2022-12-25T09:47:35Z</time>
      </trkpt>
      <trkpt lat="48.44653" lon="7.26426">
        <ele>893.6</ele>
        <time>2022-12-25T09:47:44Z</time>
      </trkpt>
      <trkpt lat="48.44648" lon="7.26445">
        <ele>894.4</ele>
        <time>2022-12-25T09:47:50Z</time>
      </trkpt>
      <trkpt lat="48.44647" lon="7.26449">
        <ele>894.6</ele>
        <time>2022-12-25T09:47:51Z</time>
      </trkpt>
      <trkpt lat="48.44645" lon="7.26466">
        <ele>895.2</ele>
        <time>2022-12-25T09:47:56Z</time>
      </trkpt>
      <trkpt lat="48.44644" lon="7.26468">
        <ele>895.4</ele>
        <time>2022-12-25T09:47:57Z</time>
      </trkpt>
      <trkpt lat="48.44642" lon="7.26475">
        <ele>895.6</ele>
        <time>2022-12-25T09:47:59Z</time>
      </trkpt>
      <trkpt lat="48.44636" lon="7.26492">
        <ele>896.6</ele>
        <time>2022-12-25T09:48:06Z</time>
      </trkpt>
      <trkpt lat="48.44634" lon="7.26494">
        <ele>897</ele>
        <time>2022-12-25T09:48:07Z</time>
      </trkpt>
      <trkpt lat="48.44626" lon="7.26508">
        <ele>897.8</ele>
        <time>2022-12-25T09:48:13Z</time>
      </trkpt>
      <trkpt lat="48.44617" lon="7.26523">
        <ele>898.6</ele>
        <time>2022-12-25T09:48:20Z</time>
      </trkpt>
      <trkpt lat="48.44615" lon="7.26525">
        <ele>898.8</ele>
        <time>2022-12-25T09:48:21Z</time>
      </trkpt>
      <trkpt lat="48.44607" lon="7.26539">
        <ele>899.6</ele>
        <time>2022-12-25T09:48:27Z</time>
      </trkpt>
      <trkpt lat="48.44605" lon="7.26544">
        <ele>899.8</ele>
        <time>2022-12-25T09:48:29Z</time>
      </trkpt>
      <trkpt lat="48.446" lon="7.26551">
        <ele>900.4</ele>
        <time>2022-12-25T09:48:33Z</time>
      </trkpt>
      <trkpt lat="48.44592" lon="7.26559">
        <ele>901</ele>
        <time>2022-12-25T09:48:38Z</time>
      </trkpt>
      <trkpt lat="48.4459" lon="7.26563">
        <ele>901.4</ele>
        <time>2022-12-25T09:48:40Z</time>
      </trkpt>
      <trkpt lat="48.4458" lon="7.26575">
        <ele>902</ele>
        <time>2022-12-25T09:48:47Z</time>
      </trkpt>
      <trkpt lat="48.44578" lon="7.26576">
        <ele>902.2</ele>
        <time>2022-12-25T09:48:48Z</time>
      </trkpt>
      <trkpt lat="48.44571" lon="7.26583">
        <ele>903</ele>
        <time>2022-12-25T09:48:53Z</time>
      </trkpt>
      <trkpt lat="48.44569" lon="7.26583">
        <ele>903</ele>
        <time>2022-12-25T09:48:54Z</time>
      </trkpt>
      <trkpt lat="48.44559" lon="7.26589">
        <ele>904</ele>
        <time>2022-12-25T09:49:00Z</time>
      </trkpt>
      <trkpt lat="48.44555" lon="7.26591">
        <ele>904.2</ele>
        <time>2022-12-25T09:49:02Z</time>
      </trkpt>
      <trkpt lat="48.44545" lon="7.26596">
        <ele>905.2</ele>
        <time>2022-12-25T09:49:08Z</time>
      </trkpt>
      <trkpt lat="48.44535" lon="7.26602">
        <ele>906.2</ele>
        <time>2022-12-25T09:49:15Z</time>
      </trkpt>
      <trkpt lat="48.44522" lon="7.26605">
        <ele>907.4</ele>
        <time>2022-12-25T09:49:22Z</time>
      </trkpt>
      <trkpt lat="48.44514" lon="7.26607">
        <ele>908</ele>
        <time>2022-12-25T09:49:27Z</time>
      </trkpt>
      <trkpt lat="48.4451" lon="7.26608">
        <ele>908.4</ele>
        <time>2022-12-25T09:49:29Z</time>
      </trkpt>
      <trkpt lat="48.44496" lon="7.26611">
        <ele>909.2</ele>
        <time>2022-12-25T09:49:37Z</time>
      </trkpt>
      <trkpt lat="48.44494" lon="7.26611">
        <ele>909.4</ele>
        <time>2022-12-25T09:49:38Z</time>
      </trkpt>
      <trkpt lat="48.44483" lon="7.26612">
        <ele>910.6</ele>
        <time>2022-12-25T09:49:44Z</time>
      </trkpt>
      <trkpt lat="48.44473" lon="7.26614">
        <ele>911.2</ele>
        <time>2022-12-25T09:49:49Z</time>
      </trkpt>
      <trkpt lat="48.44466" lon="7.26614">
        <ele>911.6</ele>
        <time>2022-12-25T09:49:53Z</time>
      </trkpt>
      <trkpt lat="48.4446" lon="7.26615">
        <ele>912.2</ele>
        <time>2022-12-25T09:49:56Z</time>
      </trkpt>
      <trkpt lat="48.44457" lon="7.26616">
        <ele>912.4</ele>
        <time>2022-12-25T09:49:58Z</time>
      </trkpt>
      <trkpt lat="48.44453" lon="7.26617">
        <ele>912.8</ele>
        <time>2022-12-25T09:50:00Z</time>
      </trkpt>
      <trkpt lat="48.44443" lon="7.26621">
        <ele>913.6</ele>
        <time>2022-12-25T09:50:06Z</time>
      </trkpt>
      <trkpt lat="48.44439" lon="7.26622">
        <ele>913.8</ele>
        <time>2022-12-25T09:50:08Z</time>
      </trkpt>
      <trkpt lat="48.44429" lon="7.26627">
        <ele>914.8</ele>
        <time>2022-12-25T09:50:14Z</time>
      </trkpt>
      <trkpt lat="48.44423" lon="7.26631">
        <ele>915.4</ele>
        <time>2022-12-25T09:50:17Z</time>
      </trkpt>
      <trkpt lat="48.44415" lon="7.26637">
        <ele>916</ele>
        <time>2022-12-25T09:50:22Z</time>
      </trkpt>
      <trkpt lat="48.44408" lon="7.26643">
        <ele>916.4</ele>
        <time>2022-12-25T09:50:26Z</time>
      </trkpt>
      <trkpt lat="48.44403" lon="7.26649">
        <ele>917</ele>
        <time>2022-12-25T09:50:30Z</time>
      </trkpt>
      <trkpt lat="48.44397" lon="7.26656">
        <ele>917.6</ele>
        <time>2022-12-25T09:50:34Z</time>
      </trkpt>
      <trkpt lat="48.44395" lon="7.2666">
        <ele>917.8</ele>
        <time>2022-12-25T09:50:36Z</time>
      </trkpt>
      <trkpt lat="48.44393" lon="7.26662">
        <ele>918</ele>
        <time>2022-12-25T09:50:37Z</time>
      </trkpt>
      <trkpt lat="48.4439" lon="7.26668">
        <ele>918.4</ele>
        <time>2022-12-25T09:50:40Z</time>
      </trkpt>
      <trkpt lat="48.44385" lon="7.2668">
        <ele>919.2</ele>
        <time>2022-12-25T09:50:45Z</time>
      </trkpt>
      <trkpt lat="48.44381" lon="7.26689">
        <ele>919.6</ele>
        <time>2022-12-25T09:50:49Z</time>
      </trkpt>
      <trkpt lat="48.44379" lon="7.26696">
        <ele>920.2</ele>
        <time>2022-12-25T09:50:52Z</time>
      </trkpt>
      <trkpt lat="48.44378" lon="7.26699">
        <ele>920.4</ele>
        <time>2022-12-25T09:50:53Z</time>
      </trkpt>
      <trkpt lat="48.44376" lon="7.26709">
        <ele>920.8</ele>
        <time>2022-12-25T09:50:57Z</time>
      </trkpt>
      <trkpt lat="48.44375" lon="7.26723">
        <ele>921.4</ele>
        <time>2022-12-25T09:51:02Z</time>
      </trkpt>
      <trkpt lat="48.44374" lon="7.26728">
        <ele>921.6</ele>
        <time>2022-12-25T09:51:04Z</time>
      </trkpt>
      <trkpt lat="48.44372" lon="7.26746">
        <ele>922.6</ele>
        <time>2022-12-25T09:51:10Z</time>
      </trkpt>
      <trkpt lat="48.44372" lon="7.26749">
        <ele>922.6</ele>
        <time>2022-12-25T09:51:11Z</time>
      </trkpt>
      <trkpt lat="48.4437" lon="7.26765">
        <ele>923.6</ele>
        <time>2022-12-25T09:51:17Z</time>
      </trkpt>
      <trkpt lat="48.44369" lon="7.26767">
        <ele>923.8</ele>
        <time>2022-12-25T09:51:18Z</time>
      </trkpt>
      <trkpt lat="48.44366" lon="7.26785">
        <ele>924.4</ele>
        <time>2022-12-25T09:51:25Z</time>
      </trkpt>
      <trkpt lat="48.44364" lon="7.26797">
        <ele>924.8</ele>
        <time>2022-12-25T09:51:29Z</time>
      </trkpt>
      <trkpt lat="48.44362" lon="7.26809">
        <ele>925.4</ele>
        <time>2022-12-25T09:51:33Z</time>
      </trkpt>
      <trkpt lat="48.44362" lon="7.26818">
        <ele>925.8</ele>
        <time>2022-12-25T09:51:36Z</time>
      </trkpt>
      <trkpt lat="48.4436" lon="7.26839">
        <ele>926.6</ele>
        <time>2022-12-25T09:51:42Z</time>
      </trkpt>
      <trkpt lat="48.44359" lon="7.26845">
        <ele>927</ele>
        <time>2022-12-25T09:51:44Z</time>
      </trkpt>
      <trkpt lat="48.44355" lon="7.26862">
        <ele>927.6</ele>
        <time>2022-12-25T09:51:49Z</time>
      </trkpt>
      <trkpt lat="48.44354" lon="7.2687">
        <ele>928.2</ele>
        <time>2022-12-25T09:51:51Z</time>
      </trkpt>
      <trkpt lat="48.44353" lon="7.26885">
        <ele>928.8</ele>
        <time>2022-12-25T09:51:56Z</time>
      </trkpt>
      <trkpt lat="48.44352" lon="7.26894">
        <ele>929.4</ele>
        <time>2022-12-25T09:51:59Z</time>
      </trkpt>
      <trkpt lat="48.44351" lon="7.26906">
        <ele>930</ele>
        <time>2022-12-25T09:52:03Z</time>
      </trkpt>
      <trkpt lat="48.4435" lon="7.26914">
        <ele>930.4</ele>
        <time>2022-12-25T09:52:06Z</time>
      </trkpt>
      <trkpt lat="48.44349" lon="7.26928">
        <ele>931.2</ele>
        <time>2022-12-25T09:52:11Z</time>
      </trkpt>
      <trkpt lat="48.44349" lon="7.26937">
        <ele>931.6</ele>
        <time>2022-12-25T09:52:14Z</time>
      </trkpt>
      <trkpt lat="48.44346" lon="7.2696">
        <ele>932.6</ele>
        <time>2022-12-25T09:52:22Z</time>
      </trkpt>
      <trkpt lat="48.44346" lon="7.26963">
        <ele>932.8</ele>
        <time>2022-12-25T09:52:23Z</time>
      </trkpt>
      <trkpt lat="48.44345" lon="7.26975">
        <ele>933.8</ele>
        <time>2022-12-25T09:52:28Z</time>
      </trkpt>
      <trkpt lat="48.44341" lon="7.26996">
        <ele>934.6</ele>
        <time>2022-12-25T09:52:36Z</time>
      </trkpt>
      <trkpt lat="48.4434" lon="7.27002">
        <ele>934.8</ele>
        <time>2022-12-25T09:52:38Z</time>
      </trkpt>
      <trkpt lat="48.44338" lon="7.27018">
        <ele>935.8</ele>
        <time>2022-12-25T09:52:44Z</time>
      </trkpt>
      <trkpt lat="48.44337" lon="7.27021">
        <ele>936</ele>
        <time>2022-12-25T09:52:45Z</time>
      </trkpt>
      <trkpt lat="48.44333" lon="7.27036">
        <ele>936.8</ele>
        <time>2022-12-25T09:52:51Z</time>
      </trkpt>
      <trkpt lat="48.44332" lon="7.27042">
        <ele>937.2</ele>
        <time>2022-12-25T09:52:53Z</time>
      </trkpt>
      <trkpt lat="48.44329" lon="7.27051">
        <ele>938</ele>
        <time>2022-12-25T09:52:57Z</time>
      </trkpt>
      <trkpt lat="48.44327" lon="7.27061">
        <ele>938.4</ele>
        <time>2022-12-25T09:53:01Z</time>
      </trkpt>
      <trkpt lat="48.44326" lon="7.27069">
        <ele>939</ele>
        <time>2022-12-25T09:53:04Z</time>
      </trkpt>
      <trkpt lat="48.44322" lon="7.27081">
        <ele>939.6</ele>
        <time>2022-12-25T09:53:09Z</time>
      </trkpt>
      <trkpt lat="48.44319" lon="7.27091">
        <ele>940</ele>
        <time>2022-12-25T09:53:13Z</time>
      </trkpt>
      <trkpt lat="48.44318" lon="7.27099">
        <ele>940.8</ele>
        <time>2022-12-25T09:53:16Z</time>
      </trkpt>
      <trkpt lat="48.44318" lon="7.27104">
        <ele>941.2</ele>
        <time>2022-12-25T09:53:18Z</time>
      </trkpt>
      <trkpt lat="48.44315" lon="7.27118">
        <ele>941.8</ele>
        <time>2022-12-25T09:53:24Z</time>
      </trkpt>
      <trkpt lat="48.44314" lon="7.27126">
        <ele>942.2</ele>
        <time>2022-12-25T09:53:27Z</time>
      </trkpt>
      <trkpt lat="48.44314" lon="7.27137">
        <ele>942.8</ele>
        <time>2022-12-25T09:53:31Z</time>
      </trkpt>
      <trkpt lat="48.44313" lon="7.27152">
        <ele>943.2</ele>
        <time>2022-12-25T09:53:36Z</time>
      </trkpt>
      <trkpt lat="48.44313" lon="7.2716">
        <ele>943.6</ele>
        <time>2022-12-25T09:53:39Z</time>
      </trkpt>
      <trkpt lat="48.44315" lon="7.27173">
        <ele>944.4</ele>
        <time>2022-12-25T09:53:44Z</time>
      </trkpt>
      <trkpt lat="48.44315" lon="7.27177">
        <ele>944.6</ele>
        <time>2022-12-25T09:53:45Z</time>
      </trkpt>
      <trkpt lat="48.44315" lon="7.27182">
        <ele>944.8</ele>
        <time>2022-12-25T09:53:47Z</time>
      </trkpt>
      <trkpt lat="48.44316" lon="7.27193">
        <ele>945.2</ele>
        <time>2022-12-25T09:53:51Z</time>
      </trkpt>
      <trkpt lat="48.44317" lon="7.27202">
        <ele>945.8</ele>
        <time>2022-12-25T09:53:54Z</time>
      </trkpt>
      <trkpt lat="48.44318" lon="7.27212">
        <ele>946.2</ele>
        <time>2022-12-25T09:53:58Z</time>
      </trkpt>
      <trkpt lat="48.4432" lon="7.27219">
        <ele>946.8</ele>
        <time>2022-12-25T09:54:01Z</time>
      </trkpt>
      <trkpt lat="48.44323" lon="7.27226">
        <ele>947.4</ele>
        <time>2022-12-25T09:54:04Z</time>
      </trkpt>
      <trkpt lat="48.44325" lon="7.27237">
        <ele>948.2</ele>
        <time>2022-12-25T09:54:08Z</time>
      </trkpt>
      <trkpt lat="48.44325" lon="7.2724">
        <ele>948.4</ele>
        <time>2022-12-25T09:54:09Z</time>
      </trkpt>
      <trkpt lat="48.44332" lon="7.27255">
        <ele>949.6</ele>
        <time>2022-12-25T09:54:16Z</time>
      </trkpt>
      <trkpt lat="48.44332" lon="7.27257">
        <ele>949.8</ele>
        <time>2022-12-25T09:54:17Z</time>
      </trkpt>
      <trkpt lat="48.44338" lon="7.27271">
        <ele>950.6</ele>
        <time>2022-12-25T09:54:23Z</time>
      </trkpt>
      <trkpt lat="48.44339" lon="7.27273">
        <ele>950.8</ele>
        <time>2022-12-25T09:54:24Z</time>
      </trkpt>
      <trkpt lat="48.44344" lon="7.27284">
        <ele>951.8</ele>
        <time>2022-12-25T09:54:29Z</time>
      </trkpt>
      <trkpt lat="48.44345" lon="7.27286">
        <ele>951.8</ele>
        <time>2022-12-25T09:54:30Z</time>
      </trkpt>
      <trkpt lat="48.44349" lon="7.27294">
        <ele>952.8</ele>
        <time>2022-12-25T09:54:34Z</time>
      </trkpt>
      <trkpt lat="48.44352" lon="7.27298">
        <ele>953.4</ele>
        <time>2022-12-25T09:54:36Z</time>
      </trkpt>
      <trkpt lat="48.44356" lon="7.27305">
        <ele>953.8</ele>
        <time>2022-12-25T09:54:40Z</time>
      </trkpt>
      <trkpt lat="48.44362" lon="7.27312">
        <ele>954.6</ele>
        <time>2022-12-25T09:54:45Z</time>
      </trkpt>
      <trkpt lat="48.44365" lon="7.27316">
        <ele>955</ele>
        <time>2022-12-25T09:54:47Z</time>
      </trkpt>
      <trkpt lat="48.44373" lon="7.27324">
        <ele>955.8</ele>
        <time>2022-12-25T09:54:53Z</time>
      </trkpt>
      <trkpt lat="48.44375" lon="7.27327">
        <ele>956.2</ele>
        <time>2022-12-25T09:54:55Z</time>
      </trkpt>
      <trkpt lat="48.44382" lon="7.27334">
        <ele>957.2</ele>
        <time>2022-12-25T09:55:01Z</time>
      </trkpt>
      <trkpt lat="48.44388" lon="7.27343">
        <ele>958.6</ele>
        <time>2022-12-25T09:55:07Z</time>
      </trkpt>
      <trkpt lat="48.4439" lon="7.27344">
        <ele>958.6</ele>
        <time>2022-12-25T09:55:08Z</time>
      </trkpt>
      <trkpt lat="48.44392" lon="7.27346">
        <ele>958.8</ele>
        <time>2022-12-25T09:55:10Z</time>
      </trkpt>
      <trkpt lat="48.44397" lon="7.27352">
        <ele>959.4</ele>
        <time>2022-12-25T09:55:14Z</time>
      </trkpt>
      <trkpt lat="48.44405" lon="7.27363">
        <ele>960.4</ele>
        <time>2022-12-25T09:55:20Z</time>
      </trkpt>
      <trkpt lat="48.44406" lon="7.27365">
        <ele>960.4</ele>
        <time>2022-12-25T09:55:21Z</time>
      </trkpt>
      <trkpt lat="48.44414" lon="7.27373">
        <ele>961.6</ele>
        <time>2022-12-25T09:55:27Z</time>
      </trkpt>
      <trkpt lat="48.44415" lon="7.27375">
        <ele>961.6</ele>
        <time>2022-12-25T09:55:28Z</time>
      </trkpt>
      <trkpt lat="48.44422" lon="7.27386">
        <ele>962.6</ele>
        <time>2022-12-25T09:55:34Z</time>
      </trkpt>
      <trkpt lat="48.44425" lon="7.27389">
        <ele>963.2</ele>
        <time>2022-12-25T09:55:36Z</time>
      </trkpt>
      <trkpt lat="48.44426" lon="7.27393">
        <ele>963.6</ele>
        <time>2022-12-25T09:55:38Z</time>
      </trkpt>
      <trkpt lat="48.44432" lon="7.27401">
        <ele>964.8</ele>
        <time>2022-12-25T09:55:44Z</time>
      </trkpt>
      <trkpt lat="48.44442" lon="7.27412">
        <ele>966</ele>
        <time>2022-12-25T09:55:52Z</time>
      </trkpt>
      <trkpt lat="48.44443" lon="7.27413">
        <ele>966.2</ele>
        <time>2022-12-25T09:55:53Z</time>
      </trkpt>
      <trkpt lat="48.44452" lon="7.27427">
        <ele>967</ele>
        <time>2022-12-25T09:56:01Z</time>
      </trkpt>
      <trkpt lat="48.44455" lon="7.27431">
        <ele>967.4</ele>
        <time>2022-12-25T09:56:03Z</time>
      </trkpt>
      <trkpt lat="48.44459" lon="7.27434">
        <ele>967.6</ele>
        <time>2022-12-25T09:56:05Z</time>
      </trkpt>
      <trkpt lat="48.4446" lon="7.27436">
        <ele>967.6</ele>
        <time>2022-12-25T09:56:06Z</time>
      </trkpt>
      <trkpt lat="48.44466" lon="7.27445">
        <ele>968.2</ele>
        <time>2022-12-25T09:56:10Z</time>
      </trkpt>
      <trkpt lat="48.44471" lon="7.27458">
        <ele>968.6</ele>
        <time>2022-12-25T09:56:14Z</time>
      </trkpt>
      <trkpt lat="48.44483" lon="7.2748">
        <ele>968.8</ele>
        <time>2022-12-25T09:56:23Z</time>
      </trkpt>
      <trkpt lat="48.44484" lon="7.27482">
        <ele>969</ele>
        <time>2022-12-25T09:56:24Z</time>
      </trkpt>
      <trkpt lat="48.44491" lon="7.27494">
        <ele>969.4</ele>
        <time>2022-12-25T09:56:30Z</time>
      </trkpt>
      <trkpt lat="48.44493" lon="7.27495">
        <ele>969.6</ele>
        <time>2022-12-25T09:56:31Z</time>
      </trkpt>
      <trkpt lat="48.44498" lon="7.27502">
        <ele>970</ele>
        <time>2022-12-25T09:56:35Z</time>
      </trkpt>
      <trkpt lat="48.445" lon="7.27507">
        <ele>970.2</ele>
        <time>2022-12-25T09:56:37Z</time>
      </trkpt>
      <trkpt lat="48.44514" lon="7.27528">
        <ele>971</ele>
        <time>2022-12-25T09:56:47Z</time>
      </trkpt>
      <trkpt lat="48.44516" lon="7.27531">
        <ele>971.2</ele>
        <time>2022-12-25T09:56:48Z</time>
      </trkpt>
      <trkpt lat="48.44525" lon="7.27544">
        <ele>972</ele>
        <time>2022-12-25T09:56:55Z</time>
      </trkpt>
      <trkpt lat="48.44526" lon="7.27546">
        <ele>972</ele>
        <time>2022-12-25T09:56:56Z</time>
      </trkpt>
      <trkpt lat="48.44534" lon="7.27561">
        <ele>972.8</ele>
        <time>2022-12-25T09:57:03Z</time>
      </trkpt>
      <trkpt lat="48.44535" lon="7.27563">
        <ele>973</ele>
        <time>2022-12-25T09:57:04Z</time>
      </trkpt>
      <trkpt lat="48.44539" lon="7.27569">
        <ele>973.2</ele>
        <time>2022-12-25T09:57:07Z</time>
      </trkpt>
      <trkpt lat="48.44543" lon="7.27575">
        <ele>973.6</ele>
        <time>2022-12-25T09:57:10Z</time>
      </trkpt>
      <trkpt lat="48.44544" lon="7.27576">
        <ele>974.2</ele>
        <time>2022-12-25T09:57:11Z</time>
      </trkpt>
      <trkpt lat="48.44549" lon="7.2759">
        <ele>974.8</ele>
        <time>2022-12-25T09:57:17Z</time>
      </trkpt>
      <trkpt lat="48.44554" lon="7.27599">
        <ele>975.2</ele>
        <time>2022-12-25T09:57:21Z</time>
      </trkpt>
      <trkpt lat="48.44559" lon="7.27612">
        <ele>975.8</ele>
        <time>2022-12-25T09:57:26Z</time>
      </trkpt>
      <trkpt lat="48.44566" lon="7.27625">
        <ele>976.2</ele>
        <time>2022-12-25T09:57:31Z</time>
      </trkpt>
      <trkpt lat="48.44567" lon="7.27628">
        <ele>976.4</ele>
        <time>2022-12-25T09:57:32Z</time>
      </trkpt>
      <trkpt lat="48.44577" lon="7.27649">
        <ele>977.2</ele>
        <time>2022-12-25T09:57:40Z</time>
      </trkpt>
      <trkpt lat="48.44578" lon="7.27652">
        <ele>977.4</ele>
        <time>2022-12-25T09:57:41Z</time>
      </trkpt>
      <trkpt lat="48.44581" lon="7.27663">
        <ele>977.8</ele>
        <time>2022-12-25T09:57:45Z</time>
      </trkpt>
      <trkpt lat="48.44588" lon="7.27676">
        <ele>978.2</ele>
        <time>2022-12-25T09:57:50Z</time>
      </trkpt>
      <trkpt lat="48.44593" lon="7.27687">
        <ele>978.8</ele>
        <time>2022-12-25T09:57:54Z</time>
      </trkpt>
      <trkpt lat="48.44596" lon="7.27692">
        <ele>979.2</ele>
        <time>2022-12-25T09:57:56Z</time>
      </trkpt>
      <trkpt lat="48.44602" lon="7.27707">
        <ele>980.4</ele>
        <time>2022-12-25T09:58:02Z</time>
      </trkpt>
      <trkpt lat="48.44609" lon="7.27725">
        <ele>981.4</ele>
        <time>2022-12-25T09:58:08Z</time>
      </trkpt>
      <trkpt lat="48.44611" lon="7.27728">
        <ele>981.6</ele>
        <time>2022-12-25T09:58:09Z</time>
      </trkpt>
      <trkpt lat="48.44614" lon="7.27738">
        <ele>982.2</ele>
        <time>2022-12-25T09:58:12Z</time>
      </trkpt>
      <trkpt lat="48.44616" lon="7.27744">
        <ele>982.4</ele>
        <time>2022-12-25T09:58:14Z</time>
      </trkpt>
      <trkpt lat="48.4462" lon="7.2775">
        <ele>982.6</ele>
        <time>2022-12-25T09:58:16Z</time>
      </trkpt>
      <trkpt lat="48.44627" lon="7.27779">
        <ele>983.6</ele>
        <time>2022-12-25T09:58:23Z</time>
      </trkpt>
      <trkpt lat="48.44629" lon="7.27787">
        <ele>983.8</ele>
        <time>2022-12-25T09:58:25Z</time>
      </trkpt>
      <trkpt lat="48.44635" lon="7.27801">
        <ele>984.2</ele>
        <time>2022-12-25T09:58:29Z</time>
      </trkpt>
      <trkpt lat="48.4464" lon="7.27818">
        <ele>984.8</ele>
        <time>2022-12-25T09:58:34Z</time>
      </trkpt>
      <trkpt lat="48.44645" lon="7.2783">
        <ele>985.2</ele>
        <time>2022-12-25T09:58:38Z</time>
      </trkpt>
      <trkpt lat="48.44655" lon="7.27859">
        <ele>985.6</ele>
        <time>2022-12-25T09:58:46Z</time>
      </trkpt>
      <trkpt lat="48.44656" lon="7.27863">
        <ele>985.8</ele>
        <time>2022-12-25T09:58:47Z</time>
      </trkpt>
      <trkpt lat="48.44664" lon="7.2789">
        <ele>986.2</ele>
        <time>2022-12-25T09:58:54Z</time>
      </trkpt>
      <trkpt lat="48.44671" lon="7.27919">
        <ele>986.6</ele>
        <time>2022-12-25T09:59:01Z</time>
      </trkpt>
      <trkpt lat="48.44677" lon="7.27939">
        <ele>987</ele>
        <time>2022-12-25T09:59:06Z</time>
      </trkpt>
      <trkpt lat="48.44682" lon="7.27953">
        <ele>987.2</ele>
        <time>2022-12-25T09:59:10Z</time>
      </trkpt>
      <trkpt lat="48.44686" lon="7.27965">
        <ele>987.4</ele>
        <time>2022-12-25T09:59:13Z</time>
      </trkpt>
      <trkpt lat="48.44693" lon="7.27988">
        <ele>987.6</ele>
        <time>2022-12-25T09:59:19Z</time>
      </trkpt>
      <trkpt lat="48.44694" lon="7.27992">
        <ele>987.8</ele>
        <time>2022-12-25T09:59:20Z</time>
      </trkpt>
      <trkpt lat="48.44697" lon="7.28">
        <ele>987.8</ele>
        <time>2022-12-25T09:59:23Z</time>
      </trkpt>
      <trkpt lat="48.44703" lon="7.28023">
        <ele>988.2</ele>
        <time>2022-12-25T09:59:29Z</time>
      </trkpt>
      <trkpt lat="48.44711" lon="7.28047">
        <ele>988.6</ele>
        <time>2022-12-25T09:59:35Z</time>
      </trkpt>
      <trkpt lat="48.44712" lon="7.28052">
        <ele>988.6</ele>
        <time>2022-12-25T09:59:36Z</time>
      </trkpt>
      <trkpt lat="48.44719" lon="7.28065">
        <ele>988.8</ele>
        <time>2022-12-25T09:59:40Z</time>
      </trkpt>
      <trkpt lat="48.44722" lon="7.28066">
        <ele>988.8</ele>
        <time>2022-12-25T09:59:41Z</time>
      </trkpt>
      <trkpt lat="48.4473" lon="7.28065">
        <ele>989</ele>
        <time>2022-12-25T09:59:44Z</time>
      </trkpt>
      <trkpt lat="48.44737" lon="7.28064">
        <ele>989</ele>
        <time>2022-12-25T09:59:47Z</time>
      </trkpt>
      <trkpt lat="48.44739" lon="7.28063">
        <ele>989</ele>
        <time>2022-12-25T09:59:48Z</time>
      </trkpt>
      <trkpt lat="48.4474" lon="7.28061">
        <ele>989</ele>
        <time>2022-12-25T09:59:49Z</time>
      </trkpt>
      <trkpt lat="48.44741" lon="7.28051">
        <ele>989</ele>
        <time>2022-12-25T09:59:52Z</time>
      </trkpt>
      <trkpt lat="48.44739" lon="7.28031">
        <ele>989.4</ele>
        <time>2022-12-25T09:59:58Z</time>
      </trkpt>
      <trkpt lat="48.44739" lon="7.2803">
        <ele>989.4</ele>
        <time>2022-12-25T09:59:59Z</time>
      </trkpt>
      <trkpt lat="48.44738" lon="7.2803">
        <ele>989.4</ele>
        <time>2022-12-25T10:02:58Z</time>
      </trkpt>
      <trkpt lat="48.44738" lon="7.2803">
        <ele>989.4</ele>
        <time>2022-12-25T10:03:00Z</time>
      </trkpt>
      <trkpt lat="48.44738" lon="7.28031">
        <ele>989.6</ele>
        <time>2022-12-25T10:03:02Z</time>
      </trkpt>
      <trkpt lat="48.44739" lon="7.28039">
        <ele>989.6</ele>
        <time>2022-12-25T10:03:05Z</time>
      </trkpt>
      <trkpt lat="48.44739" lon="7.28051">
        <ele>989.4</ele>
        <time>2022-12-25T10:03:09Z</time>
      </trkpt>
      <trkpt lat="48.44739" lon="7.28054">
        <ele>989.2</ele>
        <time>2022-12-25T10:03:10Z</time>
      </trkpt>
      <trkpt lat="48.44738" lon="7.28069">
        <ele>989</ele>
        <time>2022-12-25T10:03:15Z</time>
      </trkpt>
      <trkpt lat="48.44739" lon="7.28079">
        <ele>989</ele>
        <time>2022-12-25T10:03:18Z</time>
      </trkpt>
      <trkpt lat="48.44736" lon="7.28105">
        <ele>988.8</ele>
        <time>2022-12-25T10:03:25Z</time>
      </trkpt>
      <trkpt lat="48.44728" lon="7.28126">
        <ele>988.8</ele>
        <time>2022-12-25T10:03:33Z</time>
      </trkpt>
      <trkpt lat="48.44715" lon="7.2813">
        <ele>989.8</ele>
        <time>2022-12-25T10:03:39Z</time>
      </trkpt>
      <trkpt lat="48.44713" lon="7.28136">
        <ele>990.2</ele>
        <time>2022-12-25T10:03:41Z</time>
      </trkpt>
      <trkpt lat="48.44712" lon="7.28142">
        <ele>990.2</ele>
        <time>2022-12-25T10:03:43Z</time>
      </trkpt>
      <trkpt lat="48.4471" lon="7.28161">
        <ele>990.8</ele>
        <time>2022-12-25T10:03:49Z</time>
      </trkpt>
      <trkpt lat="48.4471" lon="7.28164">
        <ele>991</ele>
        <time>2022-12-25T10:03:50Z</time>
      </trkpt>
      <trkpt lat="48.44709" lon="7.28169">
        <ele>991.2</ele>
        <time>2022-12-25T10:03:52Z</time>
      </trkpt>
      <trkpt lat="48.44706" lon="7.28185">
        <ele>992.4</ele>
        <time>2022-12-25T10:03:58Z</time>
      </trkpt>
      <trkpt lat="48.44703" lon="7.28196">
        <ele>993</ele>
        <time>2022-12-25T10:04:02Z</time>
      </trkpt>
      <trkpt lat="48.44702" lon="7.28205">
        <ele>993.4</ele>
        <time>2022-12-25T10:04:05Z</time>
      </trkpt>
      <trkpt lat="48.44701" lon="7.28207">
        <ele>993.6</ele>
        <time>2022-12-25T10:04:06Z</time>
      </trkpt>
      <trkpt lat="48.44697" lon="7.28223">
        <ele>994.6</ele>
        <time>2022-12-25T10:04:12Z</time>
      </trkpt>
      <trkpt lat="48.44694" lon="7.28237">
        <ele>995.6</ele>
        <time>2022-12-25T10:04:18Z</time>
      </trkpt>
      <trkpt lat="48.44693" lon="7.2824">
        <ele>995.8</ele>
        <time>2022-12-25T10:04:19Z</time>
      </trkpt>
      <trkpt lat="48.4469" lon="7.28252">
        <ele>997</ele>
        <time>2022-12-25T10:04:25Z</time>
      </trkpt>
      <trkpt lat="48.44686" lon="7.28261">
        <ele>997.6</ele>
        <time>2022-12-25T10:04:29Z</time>
      </trkpt>
      <trkpt lat="48.44682" lon="7.28272">
        <ele>998.2</ele>
        <time>2022-12-25T10:04:34Z</time>
      </trkpt>
      <trkpt lat="48.44679" lon="7.28279">
        <ele>998.6</ele>
        <time>2022-12-25T10:04:37Z</time>
      </trkpt>
      <trkpt lat="48.44677" lon="7.28288">
        <ele>999.2</ele>
        <time>2022-12-25T10:04:41Z</time>
      </trkpt>
      <trkpt lat="48.44673" lon="7.28296">
        <ele>999.8</ele>
        <time>2022-12-25T10:04:45Z</time>
      </trkpt>
      <trkpt lat="48.4467" lon="7.28304">
        <ele>1000.4</ele>
        <time>2022-12-25T10:04:49Z</time>
      </trkpt>
      <trkpt lat="48.44664" lon="7.28316">
        <ele>1001.2</ele>
        <time>2022-12-25T10:04:55Z</time>
      </trkpt>
      <trkpt lat="48.44663" lon="7.28321">
        <ele>1001.4</ele>
        <time>2022-12-25T10:04:57Z</time>
      </trkpt>
      <trkpt lat="48.44656" lon="7.28339">
        <ele>1002.4</ele>
        <time>2022-12-25T10:05:05Z</time>
      </trkpt>
      <trkpt lat="48.44648" lon="7.28356">
        <ele>1003.6</ele>
        <time>2022-12-25T10:05:13Z</time>
      </trkpt>
      <trkpt lat="48.44647" lon="7.28359">
        <ele>1003.8</ele>
        <time>2022-12-25T10:05:14Z</time>
      </trkpt>
      <trkpt lat="48.44646" lon="7.28363">
        <ele>1004.6</ele>
        <time>2022-12-25T10:05:16Z</time>
      </trkpt>
      <trkpt lat="48.44641" lon="7.28373">
        <ele>1005.2</ele>
        <time>2022-12-25T10:05:21Z</time>
      </trkpt>
      <trkpt lat="48.44639" lon="7.28378">
        <ele>1005.6</ele>
        <time>2022-12-25T10:05:23Z</time>
      </trkpt>
      <trkpt lat="48.44633" lon="7.28391">
        <ele>1006.6</ele>
        <time>2022-12-25T10:05:29Z</time>
      </trkpt>
      <trkpt lat="48.44624" lon="7.28411">
        <ele>1007.8</ele>
        <time>2022-12-25T10:05:38Z</time>
      </trkpt>
      <trkpt lat="48.44615" lon="7.2843">
        <ele>1009</ele>
        <time>2022-12-25T10:05:46Z</time>
      </trkpt>
      <trkpt lat="48.44613" lon="7.28432">
        <ele>1009.2</ele>
        <time>2022-12-25T10:05:47Z</time>
      </trkpt>
      <trkpt lat="48.44605" lon="7.28448">
        <ele>1010.4</ele>
        <time>2022-12-25T10:05:54Z</time>
      </trkpt>
      <trkpt lat="48.44602" lon="7.28452">
        <ele>1010.6</ele>
        <time>2022-12-25T10:05:56Z</time>
      </trkpt>
      <trkpt lat="48.44595" lon="7.28462">
        <ele>1011.4</ele>
        <time>2022-12-25T10:06:01Z</time>
      </trkpt>
      <trkpt lat="48.44593" lon="7.28467">
        <ele>1011.8</ele>
        <time>2022-12-25T10:06:03Z</time>
      </trkpt>
      <trkpt lat="48.44588" lon="7.28473">
        <ele>1012.4</ele>
        <time>2022-12-25T10:06:06Z</time>
      </trkpt>
      <trkpt lat="48.44581" lon="7.2848">
        <ele>1012.8</ele>
        <time>2022-12-25T10:06:10Z</time>
      </trkpt>
      <trkpt lat="48.44575" lon="7.28488">
        <ele>1013.6</ele>
        <time>2022-12-25T10:06:14Z</time>
      </trkpt>
      <trkpt lat="48.44569" lon="7.28493">
        <ele>1014</ele>
        <time>2022-12-25T10:06:17Z</time>
      </trkpt>
      <trkpt lat="48.44561" lon="7.28504">
        <ele>1014.8</ele>
        <time>2022-12-25T10:06:22Z</time>
      </trkpt>
      <trkpt lat="48.44557" lon="7.28507">
        <ele>1015</ele>
        <time>2022-12-25T10:06:24Z</time>
      </trkpt>
      <trkpt lat="48.44547" lon="7.28514">
        <ele>1015.8</ele>
        <time>2022-12-25T10:06:29Z</time>
      </trkpt>
      <trkpt lat="48.44543" lon="7.28517">
        <ele>1016.2</ele>
        <time>2022-12-25T10:06:31Z</time>
      </trkpt>
      <trkpt lat="48.44531" lon="7.28524">
        <ele>1016.8</ele>
        <time>2022-12-25T10:06:36Z</time>
      </trkpt>
      <trkpt lat="48.44525" lon="7.28527">
        <ele>1017.4</ele>
        <time>2022-12-25T10:06:39Z</time>
      </trkpt>
      <trkpt lat="48.4452" lon="7.28529">
        <ele>1018.2</ele>
        <time>2022-12-25T10:06:41Z</time>
      </trkpt>
      <trkpt lat="48.44508" lon="7.28532">
        <ele>1018.8</ele>
        <time>2022-12-25T10:06:46Z</time>
      </trkpt>
      <trkpt lat="48.44498" lon="7.28534">
        <ele>1019.2</ele>
        <time>2022-12-25T10:06:50Z</time>
      </trkpt>
      <trkpt lat="48.44491" lon="7.28537">
        <ele>1019.6</ele>
        <time>2022-12-25T10:06:53Z</time>
      </trkpt>
      <trkpt lat="48.44486" lon="7.28538">
        <ele>1020.2</ele>
        <time>2022-12-25T10:06:55Z</time>
      </trkpt>
      <trkpt lat="48.44467" lon="7.28541">
        <ele>1021.4</ele>
        <time>2022-12-25T10:07:03Z</time>
      </trkpt>
      <trkpt lat="48.44453" lon="7.28543">
        <ele>1022.6</ele>
        <time>2022-12-25T10:07:09Z</time>
      </trkpt>
      <trkpt lat="48.44451" lon="7.28544">
        <ele>1022.6</ele>
        <time>2022-12-25T10:07:10Z</time>
      </trkpt>
      <trkpt lat="48.44438" lon="7.28545">
        <ele>1023.8</ele>
        <time>2022-12-25T10:07:15Z</time>
      </trkpt>
      <trkpt lat="48.44423" lon="7.28547">
        <ele>1024.8</ele>
        <time>2022-12-25T10:07:21Z</time>
      </trkpt>
      <trkpt lat="48.44406" lon="7.28551">
        <ele>1025.8</ele>
        <time>2022-12-25T10:07:28Z</time>
      </trkpt>
      <trkpt lat="48.44399" lon="7.28553">
        <ele>1026</ele>
        <time>2022-12-25T10:07:31Z</time>
      </trkpt>
      <trkpt lat="48.44387" lon="7.28561">
        <ele>1026.8</ele>
        <time>2022-12-25T10:07:36Z</time>
      </trkpt>
      <trkpt lat="48.44381" lon="7.28567">
        <ele>1027.6</ele>
        <time>2022-12-25T10:07:39Z</time>
      </trkpt>
      <trkpt lat="48.44376" lon="7.28571">
        <ele>1028</ele>
        <time>2022-12-25T10:07:41Z</time>
      </trkpt>
      <trkpt lat="48.44359" lon="7.28589">
        <ele>1029</ele>
        <time>2022-12-25T10:07:49Z</time>
      </trkpt>
      <trkpt lat="48.44356" lon="7.28595">
        <ele>1029.2</ele>
        <time>2022-12-25T10:07:51Z</time>
      </trkpt>
      <trkpt lat="48.44347" lon="7.28609">
        <ele>1029.6</ele>
        <time>2022-12-25T10:07:56Z</time>
      </trkpt>
      <trkpt lat="48.44342" lon="7.28621">
        <ele>1030.2</ele>
        <time>2022-12-25T10:08:00Z</time>
      </trkpt>
      <trkpt lat="48.44337" lon="7.28634">
        <ele>1031</ele>
        <time>2022-12-25T10:08:04Z</time>
      </trkpt>
      <trkpt lat="48.44334" lon="7.28641">
        <ele>1031.2</ele>
        <time>2022-12-25T10:08:06Z</time>
      </trkpt>
      <trkpt lat="48.44325" lon="7.28668">
        <ele>1031.8</ele>
        <time>2022-12-25T10:08:13Z</time>
      </trkpt>
      <trkpt lat="48.44321" lon="7.28684">
        <ele>1032.2</ele>
        <time>2022-12-25T10:08:17Z</time>
      </trkpt>
      <trkpt lat="48.44313" lon="7.28708">
        <ele>1032.8</ele>
        <time>2022-12-25T10:08:23Z</time>
      </trkpt>
      <trkpt lat="48.44305" lon="7.28737">
        <ele>1033.2</ele>
        <time>2022-12-25T10:08:30Z</time>
      </trkpt>
      <trkpt lat="48.44303" lon="7.28746">
        <ele>1033.4</ele>
        <time>2022-12-25T10:08:32Z</time>
      </trkpt>
      <trkpt lat="48.44294" lon="7.28768">
        <ele>1033.8</ele>
        <time>2022-12-25T10:08:37Z</time>
      </trkpt>
      <trkpt lat="48.44282" lon="7.28805">
        <ele>1033.8</ele>
        <time>2022-12-25T10:08:43Z</time>
      </trkpt>
      <trkpt lat="48.44267" lon="7.28849">
        <ele>1033.4</ele>
        <time>2022-12-25T10:08:48Z</time>
      </trkpt>
      <trkpt lat="48.44253" lon="7.28882">
        <ele>1032.6</ele>
        <time>2022-12-25T10:08:51Z</time>
      </trkpt>
      <trkpt lat="48.44249" lon="7.28894">
        <ele>1032.2</ele>
        <time>2022-12-25T10:08:52Z</time>
      </trkpt>
      <trkpt lat="48.44244" lon="7.28905">
        <ele>1031.6</ele>
        <time>2022-12-25T10:08:53Z</time>
      </trkpt>
      <trkpt lat="48.44235" lon="7.28928">
        <ele>1030.2</ele>
        <time>2022-12-25T10:08:55Z</time>
      </trkpt>
      <trkpt lat="48.44214" lon="7.28976">
        <ele>1028.8</ele>
        <time>2022-12-25T10:08:59Z</time>
      </trkpt>
      <trkpt lat="48.44209" lon="7.28988">
        <ele>1028.8</ele>
        <time>2022-12-25T10:09:00Z</time>
      </trkpt>
      <trkpt lat="48.44193" lon="7.2902">
        <ele>1027.6</ele>
        <time>2022-12-25T10:09:03Z</time>
      </trkpt>
      <trkpt lat="48.44178" lon="7.29052">
        <ele>1026.4</ele>
        <time>2022-12-25T10:09:06Z</time>
      </trkpt>
      <trkpt lat="48.44174" lon="7.29063">
        <ele>1026.2</ele>
        <time>2022-12-25T10:09:07Z</time>
      </trkpt>
      <trkpt lat="48.44141" lon="7.2913">
        <ele>1025.6</ele>
        <time>2022-12-25T10:09:14Z</time>
      </trkpt>
      <trkpt lat="48.44115" lon="7.29185">
        <ele>1025.8</ele>
        <time>2022-12-25T10:09:20Z</time>
      </trkpt>
      <trkpt lat="48.44098" lon="7.29228">
        <ele>1025.8</ele>
        <time>2022-12-25T10:09:25Z</time>
      </trkpt>
      <trkpt lat="48.44078" lon="7.29273">
        <ele>1026.4</ele>
        <time>2022-12-25T10:09:31Z</time>
      </trkpt>
      <trkpt lat="48.44068" lon="7.29295">
        <ele>1026.6</ele>
        <time>2022-12-25T10:09:34Z</time>
      </trkpt>
      <trkpt lat="48.44057" lon="7.29315">
        <ele>1026.8</ele>
        <time>2022-12-25T10:09:37Z</time>
      </trkpt>
      <trkpt lat="48.44054" lon="7.29321">
        <ele>1027</ele>
        <time>2022-12-25T10:09:38Z</time>
      </trkpt>
      <trkpt lat="48.44033" lon="7.29351">
        <ele>1027.2</ele>
        <time>2022-12-25T10:09:43Z</time>
      </trkpt>
      <trkpt lat="48.43998" lon="7.29392">
        <ele>1027.2</ele>
        <time>2022-12-25T10:09:51Z</time>
      </trkpt>
      <trkpt lat="48.43957" lon="7.29426">
        <ele>1026.6</ele>
        <time>2022-12-25T10:09:59Z</time>
      </trkpt>
      <trkpt lat="48.43926" lon="7.29447">
        <ele>1025.8</ele>
        <time>2022-12-25T10:10:04Z</time>
      </trkpt>
      <trkpt lat="48.43919" lon="7.29451">
        <ele>1025.6</ele>
        <time>2022-12-25T10:10:05Z</time>
      </trkpt>
      <trkpt lat="48.43911" lon="7.29456">
        <ele>1025.6</ele>
        <time>2022-12-25T10:10:06Z</time>
      </trkpt>
      <trkpt lat="48.43876" lon="7.29475">
        <ele>1024.4</ele>
        <time>2022-12-25T10:10:10Z</time>
      </trkpt>
      <trkpt lat="48.43866" lon="7.2948">
        <ele>1024.2</ele>
        <time>2022-12-25T10:10:11Z</time>
      </trkpt>
      <trkpt lat="48.43845" lon="7.29489">
        <ele>1023.2</ele>
        <time>2022-12-25T10:10:13Z</time>
      </trkpt>
      <trkpt lat="48.43824" lon="7.29498">
        <ele>1022.2</ele>
        <time>2022-12-25T10:10:15Z</time>
      </trkpt>
      <trkpt lat="48.43812" lon="7.29502">
        <ele>1021</ele>
        <time>2022-12-25T10:10:16Z</time>
      </trkpt>
      <trkpt lat="48.43789" lon="7.2951">
        <ele>1019.2</ele>
        <time>2022-12-25T10:10:18Z</time>
      </trkpt>
      <trkpt lat="48.43766" lon="7.29519">
        <ele>1017.4</ele>
        <time>2022-12-25T10:10:20Z</time>
      </trkpt>
      <trkpt lat="48.43754" lon="7.29523">
        <ele>1017</ele>
        <time>2022-12-25T10:10:21Z</time>
      </trkpt>
      <trkpt lat="48.43742" lon="7.29528">
        <ele>1015.8</ele>
        <time>2022-12-25T10:10:22Z</time>
      </trkpt>
      <trkpt lat="48.43719" lon="7.29536">
        <ele>1014.2</ele>
        <time>2022-12-25T10:10:24Z</time>
      </trkpt>
      <trkpt lat="48.43696" lon="7.29545">
        <ele>1012.6</ele>
        <time>2022-12-25T10:10:26Z</time>
      </trkpt>
      <trkpt lat="48.43663" lon="7.29558">
        <ele>1011.6</ele>
        <time>2022-12-25T10:10:29Z</time>
      </trkpt>
      <trkpt lat="48.43632" lon="7.29571">
        <ele>1010.4</ele>
        <time>2022-12-25T10:10:32Z</time>
      </trkpt>
      <trkpt lat="48.43604" lon="7.29583">
        <ele>1010.2</ele>
        <time>2022-12-25T10:10:35Z</time>
      </trkpt>
      <trkpt lat="48.43595" lon="7.29587">
        <ele>1010</ele>
        <time>2022-12-25T10:10:36Z</time>
      </trkpt>
      <trkpt lat="48.43554" lon="7.29606">
        <ele>1009.6</ele>
        <time>2022-12-25T10:10:41Z</time>
      </trkpt>
      <trkpt lat="48.43523" lon="7.29623">
        <ele>1010</ele>
        <time>2022-12-25T10:10:46Z</time>
      </trkpt>
      <trkpt lat="48.43495" lon="7.29637">
        <ele>1011.4</ele>
        <time>2022-12-25T10:10:52Z</time>
      </trkpt>
      <trkpt lat="48.43491" lon="7.29639">
        <ele>1011.8</ele>
        <time>2022-12-25T10:10:53Z</time>
      </trkpt>
      <trkpt lat="48.43477" lon="7.29646">
        <ele>1012.6</ele>
        <time>2022-12-25T10:10:57Z</time>
      </trkpt>
      <trkpt lat="48.43473" lon="7.29648">
        <ele>1013.2</ele>
        <time>2022-12-25T10:10:58Z</time>
      </trkpt>
      <trkpt lat="48.43457" lon="7.29657">
        <ele>1013.8</ele>
        <time>2022-12-25T10:11:03Z</time>
      </trkpt>
      <trkpt lat="48.43454" lon="7.2966">
        <ele>1014.2</ele>
        <time>2022-12-25T10:11:04Z</time>
      </trkpt>
      <trkpt lat="48.43441" lon="7.29668">
        <ele>1015.4</ele>
        <time>2022-12-25T10:11:08Z</time>
      </trkpt>
      <trkpt lat="48.4343" lon="7.29674">
        <ele>1016.4</ele>
        <time>2022-12-25T10:11:11Z</time>
      </trkpt>
      <trkpt lat="48.43427" lon="7.29675">
        <ele>1016.4</ele>
        <time>2022-12-25T10:11:12Z</time>
      </trkpt>
      <trkpt lat="48.43417" lon="7.2968">
        <ele>1017.6</ele>
        <time>2022-12-25T10:11:15Z</time>
      </trkpt>
      <trkpt lat="48.43411" lon="7.29683">
        <ele>1018</ele>
        <time>2022-12-25T10:11:17Z</time>
      </trkpt>
      <trkpt lat="48.43405" lon="7.29687">
        <ele>1018.6</ele>
        <time>2022-12-25T10:11:19Z</time>
      </trkpt>
      <trkpt lat="48.43393" lon="7.29695">
        <ele>1019.8</ele>
        <time>2022-12-25T10:11:23Z</time>
      </trkpt>
      <trkpt lat="48.4339" lon="7.29697">
        <ele>1019.8</ele>
        <time>2022-12-25T10:11:24Z</time>
      </trkpt>
      <trkpt lat="48.43374" lon="7.29708">
        <ele>1020.8</ele>
        <time>2022-12-25T10:11:29Z</time>
      </trkpt>
      <trkpt lat="48.43371" lon="7.2971">
        <ele>1020.8</ele>
        <time>2022-12-25T10:11:30Z</time>
      </trkpt>
      <trkpt lat="48.43365" lon="7.29714">
        <ele>1021</ele>
        <time>2022-12-25T10:11:32Z</time>
      </trkpt>
      <trkpt lat="48.43359" lon="7.29719">
        <ele>1021.2</ele>
        <time>2022-12-25T10:11:34Z</time>
      </trkpt>
      <trkpt lat="48.43346" lon="7.29729">
        <ele>1021.6</ele>
        <time>2022-12-25T10:11:38Z</time>
      </trkpt>
      <trkpt lat="48.43343" lon="7.29731">
        <ele>1021.6</ele>
        <time>2022-12-25T10:11:39Z</time>
      </trkpt>
      <trkpt lat="48.4334" lon="7.29733">
        <ele>1021.6</ele>
        <time>2022-12-25T10:11:40Z</time>
      </trkpt>
      <trkpt lat="48.43332" lon="7.29738">
        <ele>1021.6</ele>
        <time>2022-12-25T10:11:42Z</time>
      </trkpt>
      <trkpt lat="48.4332" lon="7.29747">
        <ele>1021.6</ele>
        <time>2022-12-25T10:11:45Z</time>
      </trkpt>
      <trkpt lat="48.43316" lon="7.2975">
        <ele>1021.6</ele>
        <time>2022-12-25T10:11:46Z</time>
      </trkpt>
      <trkpt lat="48.43281" lon="7.29779">
        <ele>1020.8</ele>
        <time>2022-12-25T10:11:53Z</time>
      </trkpt>
      <trkpt lat="48.43259" lon="7.29798">
        <ele>1019.4</ele>
        <time>2022-12-25T10:11:57Z</time>
      </trkpt>
      <trkpt lat="48.43237" lon="7.29816">
        <ele>1018.8</ele>
        <time>2022-12-25T10:12:01Z</time>
      </trkpt>
      <trkpt lat="48.43222" lon="7.2983">
        <ele>1018.4</ele>
        <time>2022-12-25T10:12:04Z</time>
      </trkpt>
      <trkpt lat="48.43203" lon="7.29848">
        <ele>1017.4</ele>
        <time>2022-12-25T10:12:08Z</time>
      </trkpt>
      <trkpt lat="48.43198" lon="7.29852">
        <ele>1017.2</ele>
        <time>2022-12-25T10:12:09Z</time>
      </trkpt>
      <trkpt lat="48.43193" lon="7.29856">
        <ele>1017.2</ele>
        <time>2022-12-25T10:12:10Z</time>
      </trkpt>
      <trkpt lat="48.43175" lon="7.29873">
        <ele>1017.2</ele>
        <time>2022-12-25T10:12:14Z</time>
      </trkpt>
      <trkpt lat="48.43162" lon="7.29886">
        <ele>1017.2</ele>
        <time>2022-12-25T10:12:17Z</time>
      </trkpt>
      <trkpt lat="48.43158" lon="7.2989">
        <ele>1017.2</ele>
        <time>2022-12-25T10:12:18Z</time>
      </trkpt>
      <trkpt lat="48.43146" lon="7.29903">
        <ele>1017.2</ele>
        <time>2022-12-25T10:12:21Z</time>
      </trkpt>
      <trkpt lat="48.43138" lon="7.29911">
        <ele>1017.2</ele>
        <time>2022-12-25T10:12:23Z</time>
      </trkpt>
      <trkpt lat="48.43122" lon="7.29926">
        <ele>1017.6</ele>
        <time>2022-12-25T10:12:27Z</time>
      </trkpt>
      <trkpt lat="48.43106" lon="7.29942">
        <ele>1017.6</ele>
        <time>2022-12-25T10:12:31Z</time>
      </trkpt>
      <trkpt lat="48.43075" lon="7.29977">
        <ele>1018</ele>
        <time>2022-12-25T10:12:39Z</time>
      </trkpt>
      <trkpt lat="48.43051" lon="7.30003">
        <ele>1018.6</ele>
        <time>2022-12-25T10:12:46Z</time>
      </trkpt>
      <trkpt lat="48.4304" lon="7.30017">
        <ele>1019</ele>
        <time>2022-12-25T10:12:50Z</time>
      </trkpt>
      <trkpt lat="48.43037" lon="7.3002">
        <ele>1019.2</ele>
        <time>2022-12-25T10:12:51Z</time>
      </trkpt>
      <trkpt lat="48.43028" lon="7.30031">
        <ele>1019.8</ele>
        <time>2022-12-25T10:12:54Z</time>
      </trkpt>
      <trkpt lat="48.4301" lon="7.30052">
        <ele>1020.8</ele>
        <time>2022-12-25T10:13:00Z</time>
      </trkpt>
      <trkpt lat="48.43007" lon="7.30056">
        <ele>1021</ele>
        <time>2022-12-25T10:13:01Z</time>
      </trkpt>
      <trkpt lat="48.4299" lon="7.30076">
        <ele>1021.6</ele>
        <time>2022-12-25T10:13:07Z</time>
      </trkpt>
      <trkpt lat="48.42977" lon="7.3009">
        <ele>1022</ele>
        <time>2022-12-25T10:13:11Z</time>
      </trkpt>
      <trkpt lat="48.42961" lon="7.30111">
        <ele>1022.2</ele>
        <time>2022-12-25T10:13:16Z</time>
      </trkpt>
      <trkpt lat="48.42947" lon="7.30129">
        <ele>1022.2</ele>
        <time>2022-12-25T10:13:20Z</time>
      </trkpt>
      <trkpt lat="48.42932" lon="7.30148">
        <ele>1022.4</ele>
        <time>2022-12-25T10:13:24Z</time>
      </trkpt>
      <trkpt lat="48.42909" lon="7.30184">
        <ele>1022.4</ele>
        <time>2022-12-25T10:13:30Z</time>
      </trkpt>
      <trkpt lat="48.42882" lon="7.30228">
        <ele>1021.4</ele>
        <time>2022-12-25T10:13:36Z</time>
      </trkpt>
      <trkpt lat="48.42867" lon="7.30253">
        <ele>1020.8</ele>
        <time>2022-12-25T10:13:39Z</time>
      </trkpt>
      <trkpt lat="48.42849" lon="7.30286">
        <ele>1020</ele>
        <time>2022-12-25T10:13:43Z</time>
      </trkpt>
      <trkpt lat="48.42844" lon="7.30294">
        <ele>1019.8</ele>
        <time>2022-12-25T10:13:44Z</time>
      </trkpt>
      <trkpt lat="48.42823" lon="7.30332">
        <ele>1019.4</ele>
        <time>2022-12-25T10:13:49Z</time>
      </trkpt>
      <trkpt lat="48.42814" lon="7.30347">
        <ele>1019.4</ele>
        <time>2022-12-25T10:13:51Z</time>
      </trkpt>
      <trkpt lat="48.42775" lon="7.30407">
        <ele>1018.6</ele>
        <time>2022-12-25T10:13:59Z</time>
      </trkpt>
      <trkpt lat="48.42769" lon="7.30414">
        <ele>1018.4</ele>
        <time>2022-12-25T10:14:00Z</time>
      </trkpt>
      <trkpt lat="48.42744" lon="7.30444">
        <ele>1018</ele>
        <time>2022-12-25T10:14:05Z</time>
      </trkpt>
      <trkpt lat="48.4274" lon="7.30449">
        <ele>1018</ele>
        <time>2022-12-25T10:14:06Z</time>
      </trkpt>
      <trkpt lat="48.42721" lon="7.30472">
        <ele>1017.6</ele>
        <time>2022-12-25T10:14:10Z</time>
      </trkpt>
      <trkpt lat="48.42716" lon="7.30477">
        <ele>1017.6</ele>
        <time>2022-12-25T10:14:11Z</time>
      </trkpt>
      <trkpt lat="48.42695" lon="7.30498">
        <ele>1017.2</ele>
        <time>2022-12-25T10:14:15Z</time>
      </trkpt>
      <trkpt lat="48.42678" lon="7.30516">
        <ele>1016.6</ele>
        <time>2022-12-25T10:14:18Z</time>
      </trkpt>
      <trkpt lat="48.42672" lon="7.3052">
        <ele>1016.6</ele>
        <time>2022-12-25T10:14:19Z</time>
      </trkpt>
      <trkpt lat="48.42665" lon="7.30523">
        <ele>1016.2</ele>
        <time>2022-12-25T10:14:20Z</time>
      </trkpt>
      <trkpt lat="48.42659" lon="7.30525">
        <ele>1016</ele>
        <time>2022-12-25T10:14:21Z</time>
      </trkpt>
      <trkpt lat="48.42652" lon="7.30525">
        <ele>1015.8</ele>
        <time>2022-12-25T10:14:22Z</time>
      </trkpt>
      <trkpt lat="48.42646" lon="7.30524">
        <ele>1015.6</ele>
        <time>2022-12-25T10:14:23Z</time>
      </trkpt>
      <trkpt lat="48.42637" lon="7.30515">
        <ele>1015.2</ele>
        <time>2022-12-25T10:14:25Z</time>
      </trkpt>
      <trkpt lat="48.4263" lon="7.30502">
        <ele>1015</ele>
        <time>2022-12-25T10:14:27Z</time>
      </trkpt>
      <trkpt lat="48.42626" lon="7.30489">
        <ele>1014.8</ele>
        <time>2022-12-25T10:14:29Z</time>
      </trkpt>
      <trkpt lat="48.42613" lon="7.30448">
        <ele>1014.8</ele>
        <time>2022-12-25T10:14:35Z</time>
      </trkpt>
      <trkpt lat="48.42611" lon="7.30442">
        <ele>1014.8</ele>
        <time>2022-12-25T10:14:36Z</time>
      </trkpt>
      <trkpt lat="48.42599" lon="7.30416">
        <ele>1014.8</ele>
        <time>2022-12-25T10:14:40Z</time>
      </trkpt>
      <trkpt lat="48.42594" lon="7.30403">
        <ele>1014.8</ele>
        <time>2022-12-25T10:14:42Z</time>
      </trkpt>
      <trkpt lat="48.42591" lon="7.30396">
        <ele>1015</ele>
        <time>2022-12-25T10:14:43Z</time>
      </trkpt>
      <trkpt lat="48.42574" lon="7.30362">
        <ele>1015.6</ele>
        <time>2022-12-25T10:14:49Z</time>
      </trkpt>
      <trkpt lat="48.42562" lon="7.3034">
        <ele>1016</ele>
        <time>2022-12-25T10:14:53Z</time>
      </trkpt>
      <trkpt lat="48.42557" lon="7.30329">
        <ele>1016.2</ele>
        <time>2022-12-25T10:14:55Z</time>
      </trkpt>
      <trkpt lat="48.42549" lon="7.30313">
        <ele>1016.4</ele>
        <time>2022-12-25T10:14:58Z</time>
      </trkpt>
      <trkpt lat="48.42542" lon="7.30302">
        <ele>1016.4</ele>
        <time>2022-12-25T10:15:00Z</time>
      </trkpt>
      <trkpt lat="48.42539" lon="7.30297">
        <ele>1016.4</ele>
        <time>2022-12-25T10:15:01Z</time>
      </trkpt>
      <trkpt lat="48.42536" lon="7.30291">
        <ele>1016.6</ele>
        <time>2022-12-25T10:15:02Z</time>
      </trkpt>
      <trkpt lat="48.42526" lon="7.30271">
        <ele>1017.2</ele>
        <time>2022-12-25T10:15:06Z</time>
      </trkpt>
      <trkpt lat="48.42523" lon="7.30266">
        <ele>1017.2</ele>
        <time>2022-12-25T10:15:07Z</time>
      </trkpt>
      <trkpt lat="48.42517" lon="7.30257">
        <ele>1017.6</ele>
        <time>2022-12-25T10:15:09Z</time>
      </trkpt>
      <trkpt lat="48.42509" lon="7.30243">
        <ele>1018.2</ele>
        <time>2022-12-25T10:15:12Z</time>
      </trkpt>
      <trkpt lat="48.42507" lon="7.3024">
        <ele>1018.2</ele>
        <time>2022-12-25T10:15:13Z</time>
      </trkpt>
      <trkpt lat="48.4249" lon="7.30216">
        <ele>1019</ele>
        <time>2022-12-25T10:15:19Z</time>
      </trkpt>
      <trkpt lat="48.42487" lon="7.30212">
        <ele>1019.4</ele>
        <time>2022-12-25T10:15:20Z</time>
      </trkpt>
      <trkpt lat="48.42474" lon="7.30199">
        <ele>1020.2</ele>
        <time>2022-12-25T10:15:24Z</time>
      </trkpt>
      <trkpt lat="48.42472" lon="7.30196">
        <ele>1020.4</ele>
        <time>2022-12-25T10:15:25Z</time>
      </trkpt>
      <trkpt lat="48.42462" lon="7.30185">
        <ele>1021</ele>
        <time>2022-12-25T10:15:29Z</time>
      </trkpt>
      <trkpt lat="48.42447" lon="7.30167">
        <ele>1021.2</ele>
        <time>2022-12-25T10:15:34Z</time>
      </trkpt>
      <trkpt lat="48.42444" lon="7.30164">
        <ele>1021.6</ele>
        <time>2022-12-25T10:15:35Z</time>
      </trkpt>
      <trkpt lat="48.42435" lon="7.30149">
        <ele>1022.4</ele>
        <time>2022-12-25T10:15:39Z</time>
      </trkpt>
      <trkpt lat="48.42428" lon="7.30142">
        <ele>1022.6</ele>
        <time>2022-12-25T10:15:41Z</time>
      </trkpt>
      <trkpt lat="48.42409" lon="7.30123">
        <ele>1023.6</ele>
        <time>2022-12-25T10:15:48Z</time>
      </trkpt>
      <trkpt lat="48.42395" lon="7.30107">
        <ele>1024.6</ele>
        <time>2022-12-25T10:15:54Z</time>
      </trkpt>
      <trkpt lat="48.42388" lon="7.30096">
        <ele>1025.2</ele>
        <time>2022-12-25T10:15:57Z</time>
      </trkpt>
      <trkpt lat="48.42374" lon="7.3008">
        <ele>1025.6</ele>
        <time>2022-12-25T10:16:02Z</time>
      </trkpt>
      <trkpt lat="48.42371" lon="7.30076">
        <ele>1025.6</ele>
        <time>2022-12-25T10:16:03Z</time>
      </trkpt>
      <trkpt lat="48.42352" lon="7.30055">
        <ele>1026.2</ele>
        <time>2022-12-25T10:16:10Z</time>
      </trkpt>
      <trkpt lat="48.42341" lon="7.30044">
        <ele>1026.6</ele>
        <time>2022-12-25T10:16:14Z</time>
      </trkpt>
      <trkpt lat="48.42328" lon="7.30029">
        <ele>1027.2</ele>
        <time>2022-12-25T10:16:19Z</time>
      </trkpt>
      <trkpt lat="48.42314" lon="7.30012">
        <ele>1027.6</ele>
        <time>2022-12-25T10:16:24Z</time>
      </trkpt>
      <trkpt lat="48.42306" lon="7.30002">
        <ele>1027.8</ele>
        <time>2022-12-25T10:16:27Z</time>
      </trkpt>
      <trkpt lat="48.42302" lon="7.29998">
        <ele>1027.8</ele>
        <time>2022-12-25T10:16:28Z</time>
      </trkpt>
      <trkpt lat="48.4228" lon="7.29969">
        <ele>1028.6</ele>
        <time>2022-12-25T10:16:36Z</time>
      </trkpt>
      <trkpt lat="48.42276" lon="7.29964">
        <ele>1028.6</ele>
        <time>2022-12-25T10:16:37Z</time>
      </trkpt>
      <trkpt lat="48.42253" lon="7.29933">
        <ele>1029.2</ele>
        <time>2022-12-25T10:16:45Z</time>
      </trkpt>
      <trkpt lat="48.42239" lon="7.29908">
        <ele>1029.4</ele>
        <time>2022-12-25T10:16:50Z</time>
      </trkpt>
      <trkpt lat="48.42236" lon="7.29901">
        <ele>1029.2</ele>
        <time>2022-12-25T10:16:51Z</time>
      </trkpt>
      <trkpt lat="48.42231" lon="7.29889">
        <ele>1029.2</ele>
        <time>2022-12-25T10:16:53Z</time>
      </trkpt>
      <trkpt lat="48.42222" lon="7.29871">
        <ele>1029.2</ele>
        <time>2022-12-25T10:16:56Z</time>
      </trkpt>
      <trkpt lat="48.42204" lon="7.2983">
        <ele>1028.8</ele>
        <time>2022-12-25T10:17:02Z</time>
      </trkpt>
      <trkpt lat="48.42197" lon="7.29816">
        <ele>1028.6</ele>
        <time>2022-12-25T10:17:04Z</time>
      </trkpt>
      <trkpt lat="48.42185" lon="7.29792">
        <ele>1028.4</ele>
        <time>2022-12-25T10:17:07Z</time>
      </trkpt>
      <trkpt lat="48.42162" lon="7.29759">
        <ele>1027.8</ele>
        <time>2022-12-25T10:17:12Z</time>
      </trkpt>
      <trkpt lat="48.42148" lon="7.29738">
        <ele>1027.4</ele>
        <time>2022-12-25T10:17:15Z</time>
      </trkpt>
      <trkpt lat="48.42132" lon="7.2972">
        <ele>1026.8</ele>
        <time>2022-12-25T10:17:18Z</time>
      </trkpt>
      <trkpt lat="48.42121" lon="7.29707">
        <ele>1026.6</ele>
        <time>2022-12-25T10:17:20Z</time>
      </trkpt>
      <trkpt lat="48.42111" lon="7.29696">
        <ele>1026.2</ele>
        <time>2022-12-25T10:17:22Z</time>
      </trkpt>
      <trkpt lat="48.42085" lon="7.29664">
        <ele>1025.8</ele>
        <time>2022-12-25T10:17:27Z</time>
      </trkpt>
      <trkpt lat="48.42079" lon="7.29656">
        <ele>1025.8</ele>
        <time>2022-12-25T10:17:28Z</time>
      </trkpt>
      <trkpt lat="48.42064" lon="7.2964">
        <ele>1025.6</ele>
        <time>2022-12-25T10:17:31Z</time>
      </trkpt>
      <trkpt lat="48.42039" lon="7.29608">
        <ele>1025</ele>
        <time>2022-12-25T10:17:36Z</time>
      </trkpt>
      <trkpt lat="48.42029" lon="7.29597">
        <ele>1025</ele>
        <time>2022-12-25T10:17:38Z</time>
      </trkpt>
      <trkpt lat="48.42005" lon="7.29567">
        <ele>1024</ele>
        <time>2022-12-25T10:17:43Z</time>
      </trkpt>
      <trkpt lat="48.41984" lon="7.2954">
        <ele>1023.4</ele>
        <time>2022-12-25T10:17:47Z</time>
      </trkpt>
      <trkpt lat="48.41963" lon="7.29512">
        <ele>1022.6</ele>
        <time>2022-12-25T10:17:51Z</time>
      </trkpt>
      <trkpt lat="48.41947" lon="7.29491">
        <ele>1022.2</ele>
        <time>2022-12-25T10:17:54Z</time>
      </trkpt>
      <trkpt lat="48.41934" lon="7.29476">
        <ele>1021.6</ele>
        <time>2022-12-25T10:17:56Z</time>
      </trkpt>
      <trkpt lat="48.41915" lon="7.29452">
        <ele>1020.2</ele>
        <time>2022-12-25T10:17:59Z</time>
      </trkpt>
      <trkpt lat="48.41901" lon="7.29433">
        <ele>1019.2</ele>
        <time>2022-12-25T10:18:01Z</time>
      </trkpt>
      <trkpt lat="48.41892" lon="7.29424">
        <ele>1018.6</ele>
        <time>2022-12-25T10:18:02Z</time>
      </trkpt>
      <trkpt lat="48.41876" lon="7.29407">
        <ele>1017.4</ele>
        <time>2022-12-25T10:18:04Z</time>
      </trkpt>
      <trkpt lat="48.41865" lon="7.29397">
        <ele>1017</ele>
        <time>2022-12-25T10:18:05Z</time>
      </trkpt>
      <trkpt lat="48.41856" lon="7.29389">
        <ele>1015.8</ele>
        <time>2022-12-25T10:18:06Z</time>
      </trkpt>
      <trkpt lat="48.4184" lon="7.29375">
        <ele>1014.4</ele>
        <time>2022-12-25T10:18:08Z</time>
      </trkpt>
      <trkpt lat="48.4183" lon="7.29366">
        <ele>1014</ele>
        <time>2022-12-25T10:18:09Z</time>
      </trkpt>
      <trkpt lat="48.41822" lon="7.29358">
        <ele>1013.2</ele>
        <time>2022-12-25T10:18:10Z</time>
      </trkpt>
      <trkpt lat="48.41804" lon="7.29337">
        <ele>1012.2</ele>
        <time>2022-12-25T10:18:13Z</time>
      </trkpt>
      <trkpt lat="48.41798" lon="7.29329">
        <ele>1012.2</ele>
        <time>2022-12-25T10:18:14Z</time>
      </trkpt>
      <trkpt lat="48.41777" lon="7.293">
        <ele>1012</ele>
        <time>2022-12-25T10:18:18Z</time>
      </trkpt>
      <trkpt lat="48.41738" lon="7.2925">
        <ele>1012.4</ele>
        <time>2022-12-25T10:18:26Z</time>
      </trkpt>
      <trkpt lat="48.41701" lon="7.29203">
        <ele>1010.8</ele>
        <time>2022-12-25T10:18:33Z</time>
      </trkpt>
      <trkpt lat="48.4167" lon="7.29165">
        <ele>1010.2</ele>
        <time>2022-12-25T10:18:39Z</time>
      </trkpt>
      <trkpt lat="48.41665" lon="7.29159">
        <ele>1010</ele>
        <time>2022-12-25T10:18:40Z</time>
      </trkpt>
      <trkpt lat="48.41646" lon="7.29138">
        <ele>1010</ele>
        <time>2022-12-25T10:18:44Z</time>
      </trkpt>
      <trkpt lat="48.41642" lon="7.29134">
        <ele>1010.2</ele>
        <time>2022-12-25T10:18:45Z</time>
      </trkpt>
      <trkpt lat="48.41625" lon="7.29115">
        <ele>1011</ele>
        <time>2022-12-25T10:18:50Z</time>
      </trkpt>
      <trkpt lat="48.41613" lon="7.29102">
        <ele>1012.2</ele>
        <time>2022-12-25T10:18:54Z</time>
      </trkpt>
      <trkpt lat="48.41607" lon="7.29097">
        <ele>1012.8</ele>
        <time>2022-12-25T10:18:56Z</time>
      </trkpt>
      <trkpt lat="48.41605" lon="7.29094">
        <ele>1013</ele>
        <time>2022-12-25T10:18:57Z</time>
      </trkpt>
      <trkpt lat="48.41601" lon="7.29091">
        <ele>1013.2</ele>
        <time>2022-12-25T10:18:58Z</time>
      </trkpt>
      <trkpt lat="48.41585" lon="7.29073">
        <ele>1014.4</ele>
        <time>2022-12-25T10:19:04Z</time>
      </trkpt>
      <trkpt lat="48.41575" lon="7.29062">
        <ele>1014.8</ele>
        <time>2022-12-25T10:19:07Z</time>
      </trkpt>
      <trkpt lat="48.41553" lon="7.29038">
        <ele>1015.2</ele>
        <time>2022-12-25T10:19:14Z</time>
      </trkpt>
      <trkpt lat="48.41536" lon="7.2902">
        <ele>1015.2</ele>
        <time>2022-12-25T10:19:19Z</time>
      </trkpt>
      <trkpt lat="48.41529" lon="7.29013">
        <ele>1015.2</ele>
        <time>2022-12-25T10:19:21Z</time>
      </trkpt>
      <trkpt lat="48.41516" lon="7.28999">
        <ele>1015.2</ele>
        <time>2022-12-25T10:19:25Z</time>
      </trkpt>
      <trkpt lat="48.41505" lon="7.28987">
        <ele>1015.4</ele>
        <time>2022-12-25T10:19:29Z</time>
      </trkpt>
      <trkpt lat="48.41487" lon="7.28969">
        <ele>1016.2</ele>
        <time>2022-12-25T10:19:36Z</time>
      </trkpt>
      <trkpt lat="48.41484" lon="7.28966">
        <ele>1016.4</ele>
        <time>2022-12-25T10:19:37Z</time>
      </trkpt>
      <trkpt lat="48.41469" lon="7.28951">
        <ele>1017.4</ele>
        <time>2022-12-25T10:19:44Z</time>
      </trkpt>
      <trkpt lat="48.41468" lon="7.28949">
        <ele>1017.6</ele>
        <time>2022-12-25T10:19:45Z</time>
      </trkpt>
      <trkpt lat="48.41455" lon="7.28939">
        <ele>1018.6</ele>
        <time>2022-12-25T10:19:50Z</time>
      </trkpt>
      <trkpt lat="48.41451" lon="7.28935">
        <ele>1019</ele>
        <time>2022-12-25T10:19:52Z</time>
      </trkpt>
      <trkpt lat="48.41444" lon="7.28929">
        <ele>1019.8</ele>
        <time>2022-12-25T10:19:55Z</time>
      </trkpt>
      <trkpt lat="48.41436" lon="7.28918">
        <ele>1020.6</ele>
        <time>2022-12-25T10:19:59Z</time>
      </trkpt>
      <trkpt lat="48.41435" lon="7.28917">
        <ele>1020.8</ele>
        <time>2022-12-25T10:20:00Z</time>
      </trkpt>
      <trkpt lat="48.41428" lon="7.28909">
        <ele>1021.8</ele>
        <time>2022-12-25T10:20:04Z</time>
      </trkpt>
      <trkpt lat="48.41426" lon="7.28906">
        <ele>1022.2</ele>
        <time>2022-12-25T10:20:05Z</time>
      </trkpt>
      <trkpt lat="48.41413" lon="7.28892">
        <ele>1023</ele>
        <time>2022-12-25T10:20:10Z</time>
      </trkpt>
      <trkpt lat="48.4141" lon="7.28889">
        <ele>1023.2</ele>
        <time>2022-12-25T10:20:11Z</time>
      </trkpt>
      <trkpt lat="48.41402" lon="7.28878">
        <ele>1024</ele>
        <time>2022-12-25T10:20:15Z</time>
      </trkpt>
      <trkpt lat="48.41398" lon="7.28868">
        <ele>1024.8</ele>
        <time>2022-12-25T10:20:18Z</time>
      </trkpt>
      <trkpt lat="48.41393" lon="7.28864">
        <ele>1025.2</ele>
        <time>2022-12-25T10:20:20Z</time>
      </trkpt>
      <trkpt lat="48.41384" lon="7.28855">
        <ele>1026</ele>
        <time>2022-12-25T10:20:24Z</time>
      </trkpt>
      <trkpt lat="48.4138" lon="7.2885">
        <ele>1026.2</ele>
        <time>2022-12-25T10:20:26Z</time>
      </trkpt>
      <trkpt lat="48.41366" lon="7.28837">
        <ele>1026.8</ele>
        <time>2022-12-25T10:20:32Z</time>
      </trkpt>
      <trkpt lat="48.41359" lon="7.28831">
        <ele>1027.4</ele>
        <time>2022-12-25T10:20:35Z</time>
      </trkpt>
      <trkpt lat="48.41354" lon="7.28826">
        <ele>1027.8</ele>
        <time>2022-12-25T10:20:37Z</time>
      </trkpt>
      <trkpt lat="48.41345" lon="7.28814">
        <ele>1028.2</ele>
        <time>2022-12-25T10:20:41Z</time>
      </trkpt>
      <trkpt lat="48.41332" lon="7.288">
        <ele>1028.8</ele>
        <time>2022-12-25T10:20:46Z</time>
      </trkpt>
      <trkpt lat="48.4132" lon="7.28789">
        <ele>1029.2</ele>
        <time>2022-12-25T10:20:50Z</time>
      </trkpt>
      <trkpt lat="48.41315" lon="7.28783">
        <ele>1029.2</ele>
        <time>2022-12-25T10:20:52Z</time>
      </trkpt>
      <trkpt lat="48.41312" lon="7.2878">
        <ele>1029.4</ele>
        <time>2022-12-25T10:20:53Z</time>
      </trkpt>
      <trkpt lat="48.41291" lon="7.28753">
        <ele>1029.8</ele>
        <time>2022-12-25T10:21:01Z</time>
      </trkpt>
      <trkpt lat="48.41264" lon="7.28728">
        <ele>1030</ele>
        <time>2022-12-25T10:21:09Z</time>
      </trkpt>
      <trkpt lat="48.41258" lon="7.28722">
        <ele>1030</ele>
        <time>2022-12-25T10:21:11Z</time>
      </trkpt>
      <trkpt lat="48.41247" lon="7.28709">
        <ele>1030.4</ele>
        <time>2022-12-25T10:21:14Z</time>
      </trkpt>
      <trkpt lat="48.41236" lon="7.28698">
        <ele>1030.6</ele>
        <time>2022-12-25T10:21:17Z</time>
      </trkpt>
      <trkpt lat="48.41221" lon="7.28681">
        <ele>1030.4</ele>
        <time>2022-12-25T10:21:21Z</time>
      </trkpt>
      <trkpt lat="48.41208" lon="7.28666">
        <ele>1030.4</ele>
        <time>2022-12-25T10:21:25Z</time>
      </trkpt>
      <trkpt lat="48.41186" lon="7.28641">
        <ele>1030.6</ele>
        <time>2022-12-25T10:21:32Z</time>
      </trkpt>
      <trkpt lat="48.41174" lon="7.28627">
        <ele>1031.4</ele>
        <time>2022-12-25T10:21:37Z</time>
      </trkpt>
      <trkpt lat="48.41166" lon="7.28617">
        <ele>1032</ele>
        <time>2022-12-25T10:21:40Z</time>
      </trkpt>
      <trkpt lat="48.41156" lon="7.28605">
        <ele>1032.4</ele>
        <time>2022-12-25T10:21:44Z</time>
      </trkpt>
      <trkpt lat="48.41149" lon="7.28595">
        <ele>1032.8</ele>
        <time>2022-12-25T10:21:47Z</time>
      </trkpt>
      <trkpt lat="48.41139" lon="7.28579">
        <ele>1033.8</ele>
        <time>2022-12-25T10:21:53Z</time>
      </trkpt>
      <trkpt lat="48.4113" lon="7.28563">
        <ele>1034.6</ele>
        <time>2022-12-25T10:21:58Z</time>
      </trkpt>
      <trkpt lat="48.41127" lon="7.28559">
        <ele>1034.6</ele>
        <time>2022-12-25T10:21:59Z</time>
      </trkpt>
      <trkpt lat="48.41113" lon="7.28533">
        <ele>1035.6</ele>
        <time>2022-12-25T10:22:06Z</time>
      </trkpt>
      <trkpt lat="48.41111" lon="7.28529">
        <ele>1035.6</ele>
        <time>2022-12-25T10:22:07Z</time>
      </trkpt>
      <trkpt lat="48.41099" lon="7.28505">
        <ele>1036.6</ele>
        <time>2022-12-25T10:22:14Z</time>
      </trkpt>
      <trkpt lat="48.41095" lon="7.28498">
        <ele>1036.8</ele>
        <time>2022-12-25T10:22:16Z</time>
      </trkpt>
      <trkpt lat="48.41086" lon="7.28483">
        <ele>1037.2</ele>
        <time>2022-12-25T10:22:21Z</time>
      </trkpt>
      <trkpt lat="48.41079" lon="7.2847">
        <ele>1037.8</ele>
        <time>2022-12-25T10:22:25Z</time>
      </trkpt>
      <trkpt lat="48.41074" lon="7.28462">
        <ele>1038.2</ele>
        <time>2022-12-25T10:22:28Z</time>
      </trkpt>
      <trkpt lat="48.41065" lon="7.28448">
        <ele>1039.2</ele>
        <time>2022-12-25T10:22:33Z</time>
      </trkpt>
      <trkpt lat="48.41061" lon="7.2844">
        <ele>1039.4</ele>
        <time>2022-12-25T10:22:35Z</time>
      </trkpt>
      <trkpt lat="48.41055" lon="7.28427">
        <ele>1040.2</ele>
        <time>2022-12-25T10:22:39Z</time>
      </trkpt>
      <trkpt lat="48.41049" lon="7.28416">
        <ele>1041</ele>
        <time>2022-12-25T10:22:42Z</time>
      </trkpt>
      <trkpt lat="48.41046" lon="7.28409">
        <ele>1041.4</ele>
        <time>2022-12-25T10:22:44Z</time>
      </trkpt>
      <trkpt lat="48.41036" lon="7.28393">
        <ele>1042.4</ele>
        <time>2022-12-25T10:22:49Z</time>
      </trkpt>
      <trkpt lat="48.41035" lon="7.28389">
        <ele>1042.8</ele>
        <time>2022-12-25T10:22:50Z</time>
      </trkpt>
      <trkpt lat="48.4103" lon="7.28379">
        <ele>1043.6</ele>
        <time>2022-12-25T10:22:53Z</time>
      </trkpt>
      <trkpt lat="48.41021" lon="7.28362">
        <ele>1044.4</ele>
        <time>2022-12-25T10:22:59Z</time>
      </trkpt>
      <trkpt lat="48.41019" lon="7.28358">
        <ele>1044.6</ele>
        <time>2022-12-25T10:23:00Z</time>
      </trkpt>
      <trkpt lat="48.41008" lon="7.28337">
        <ele>1045.6</ele>
        <time>2022-12-25T10:23:07Z</time>
      </trkpt>
      <trkpt lat="48.40994" lon="7.28311">
        <ele>1046.6</ele>
        <time>2022-12-25T10:23:15Z</time>
      </trkpt>
      <trkpt lat="48.40992" lon="7.28305">
        <ele>1046.8</ele>
        <time>2022-12-25T10:23:17Z</time>
      </trkpt>
      <trkpt lat="48.40983" lon="7.28284">
        <ele>1047.4</ele>
        <time>2022-12-25T10:23:23Z</time>
      </trkpt>
      <trkpt lat="48.40978" lon="7.28269">
        <ele>1047.8</ele>
        <time>2022-12-25T10:23:27Z</time>
      </trkpt>
      <trkpt lat="48.40975" lon="7.28259">
        <ele>1047.8</ele>
        <time>2022-12-25T10:23:30Z</time>
      </trkpt>
      <trkpt lat="48.40965" lon="7.28228">
        <ele>1048.4</ele>
        <time>2022-12-25T10:23:38Z</time>
      </trkpt>
      <trkpt lat="48.40964" lon="7.28221">
        <ele>1048.8</ele>
        <time>2022-12-25T10:23:40Z</time>
      </trkpt>
      <trkpt lat="48.40959" lon="7.28205">
        <ele>1049</ele>
        <time>2022-12-25T10:23:44Z</time>
      </trkpt>
      <trkpt lat="48.40956" lon="7.28182">
        <ele>1049.8</ele>
        <time>2022-12-25T10:23:49Z</time>
      </trkpt>
      <trkpt lat="48.40953" lon="7.28173">
        <ele>1050</ele>
        <time>2022-12-25T10:23:51Z</time>
      </trkpt>
      <trkpt lat="48.40943" lon="7.28143">
        <ele>1050.8</ele>
        <time>2022-12-25T10:23:59Z</time>
      </trkpt>
      <trkpt lat="48.40934" lon="7.28121">
        <ele>1051.8</ele>
        <time>2022-12-25T10:24:05Z</time>
      </trkpt>
      <trkpt lat="48.40927" lon="7.28103">
        <ele>1053</ele>
        <time>2022-12-25T10:24:10Z</time>
      </trkpt>
      <trkpt lat="48.40915" lon="7.28079">
        <ele>1054</ele>
        <time>2022-12-25T10:24:17Z</time>
      </trkpt>
      <trkpt lat="48.40911" lon="7.28073">
        <ele>1054.6</ele>
        <time>2022-12-25T10:24:19Z</time>
      </trkpt>
      <trkpt lat="48.40906" lon="7.28062">
        <ele>1055.2</ele>
        <time>2022-12-25T10:24:22Z</time>
      </trkpt>
      <trkpt lat="48.40898" lon="7.28049">
        <ele>1056.2</ele>
        <time>2022-12-25T10:24:26Z</time>
      </trkpt>
      <trkpt lat="48.40896" lon="7.28046">
        <ele>1056.2</ele>
        <time>2022-12-25T10:24:27Z</time>
      </trkpt>
      <trkpt lat="48.40889" lon="7.28033">
        <ele>1057.2</ele>
        <time>2022-12-25T10:24:31Z</time>
      </trkpt>
      <trkpt lat="48.40884" lon="7.28023">
        <ele>1057.8</ele>
        <time>2022-12-25T10:24:34Z</time>
      </trkpt>
      <trkpt lat="48.40879" lon="7.28014">
        <ele>1058.4</ele>
        <time>2022-12-25T10:24:37Z</time>
      </trkpt>
      <trkpt lat="48.40872" lon="7.27999">
        <ele>1059.2</ele>
        <time>2022-12-25T10:24:41Z</time>
      </trkpt>
      <trkpt lat="48.40869" lon="7.2799">
        <ele>1059.4</ele>
        <time>2022-12-25T10:24:43Z</time>
      </trkpt>
      <trkpt lat="48.40866" lon="7.27972">
        <ele>1059.8</ele>
        <time>2022-12-25T10:24:47Z</time>
      </trkpt>
      <trkpt lat="48.40861" lon="7.27936">
        <ele>1060.2</ele>
        <time>2022-12-25T10:24:54Z</time>
      </trkpt>
      <trkpt lat="48.40857" lon="7.27899">
        <ele>1060.4</ele>
        <time>2022-12-25T10:25:00Z</time>
      </trkpt>
      <trkpt lat="48.40855" lon="7.27886">
        <ele>1060.4</ele>
        <time>2022-12-25T10:25:02Z</time>
      </trkpt>
      <trkpt lat="48.40855" lon="7.27849">
        <ele>1060.2</ele>
        <time>2022-12-25T10:25:07Z</time>
      </trkpt>
      <trkpt lat="48.40852" lon="7.27805">
        <ele>1060.2</ele>
        <time>2022-12-25T10:25:13Z</time>
      </trkpt>
      <trkpt lat="48.40852" lon="7.27795">
        <ele>1060.2</ele>
        <time>2022-12-25T10:25:14Z</time>
      </trkpt>
      <trkpt lat="48.40851" lon="7.27766">
        <ele>1060.2</ele>
        <time>2022-12-25T10:25:18Z</time>
      </trkpt>
      <trkpt lat="48.40849" lon="7.27736">
        <ele>1060.2</ele>
        <time>2022-12-25T10:25:22Z</time>
      </trkpt>
      <trkpt lat="48.40849" lon="7.27708">
        <ele>1060.2</ele>
        <time>2022-12-25T10:25:26Z</time>
      </trkpt>
      <trkpt lat="48.40848" lon="7.27686">
        <ele>1060.2</ele>
        <time>2022-12-25T10:25:29Z</time>
      </trkpt>
      <trkpt lat="48.40847" lon="7.27657">
        <ele>1060.2</ele>
        <time>2022-12-25T10:25:33Z</time>
      </trkpt>
      <trkpt lat="48.40845" lon="7.27618">
        <ele>1060.2</ele>
        <time>2022-12-25T10:25:38Z</time>
      </trkpt>
      <trkpt lat="48.40843" lon="7.27596">
        <ele>1060.2</ele>
        <time>2022-12-25T10:25:41Z</time>
      </trkpt>
      <trkpt lat="48.40837" lon="7.2755">
        <ele>1059.8</ele>
        <time>2022-12-25T10:25:47Z</time>
      </trkpt>
      <trkpt lat="48.40833" lon="7.27536">
        <ele>1059.8</ele>
        <time>2022-12-25T10:25:49Z</time>
      </trkpt>
      <trkpt lat="48.40832" lon="7.27527">
        <ele>1059.8</ele>
        <time>2022-12-25T10:25:50Z</time>
      </trkpt>
      <trkpt lat="48.40826" lon="7.27491">
        <ele>1059.8</ele>
        <time>2022-12-25T10:25:55Z</time>
      </trkpt>
      <trkpt lat="48.4082" lon="7.27463">
        <ele>1059.8</ele>
        <time>2022-12-25T10:25:59Z</time>
      </trkpt>
      <trkpt lat="48.40818" lon="7.27452">
        <ele>1060</ele>
        <time>2022-12-25T10:26:01Z</time>
      </trkpt>
      <trkpt lat="48.40816" lon="7.27445">
        <ele>1060</ele>
        <time>2022-12-25T10:26:02Z</time>
      </trkpt>
      <trkpt lat="48.40813" lon="7.27423">
        <ele>1060.2</ele>
        <time>2022-12-25T10:26:05Z</time>
      </trkpt>
      <trkpt lat="48.40812" lon="7.27417">
        <ele>1060.2</ele>
        <time>2022-12-25T10:26:06Z</time>
      </trkpt>
      <trkpt lat="48.40811" lon="7.27411">
        <ele>1060.2</ele>
        <time>2022-12-25T10:26:07Z</time>
      </trkpt>
      <trkpt lat="48.40809" lon="7.27397">
        <ele>1060.4</ele>
        <time>2022-12-25T10:26:09Z</time>
      </trkpt>
      <trkpt lat="48.40804" lon="7.27367">
        <ele>1060.6</ele>
        <time>2022-12-25T10:26:14Z</time>
      </trkpt>
      <trkpt lat="48.40794" lon="7.27321">
        <ele>1061.4</ele>
        <time>2022-12-25T10:26:22Z</time>
      </trkpt>
      <trkpt lat="48.40793" lon="7.27315">
        <ele>1061.4</ele>
        <time>2022-12-25T10:26:23Z</time>
      </trkpt>
      <trkpt lat="48.40777" lon="7.27267">
        <ele>1062.4</ele>
        <time>2022-12-25T10:26:33Z</time>
      </trkpt>
      <trkpt lat="48.40775" lon="7.27262">
        <ele>1062.6</ele>
        <time>2022-12-25T10:26:34Z</time>
      </trkpt>
      <trkpt lat="48.40756" lon="7.27217">
        <ele>1063.6</ele>
        <time>2022-12-25T10:26:44Z</time>
      </trkpt>
      <trkpt lat="48.40753" lon="7.27213">
        <ele>1063.8</ele>
        <time>2022-12-25T10:26:45Z</time>
      </trkpt>
      <trkpt lat="48.40738" lon="7.27184">
        <ele>1064.4</ele>
        <time>2022-12-25T10:26:52Z</time>
      </trkpt>
      <trkpt lat="48.40732" lon="7.27172">
        <ele>1064.8</ele>
        <time>2022-12-25T10:26:55Z</time>
      </trkpt>
      <trkpt lat="48.40718" lon="7.27152">
        <ele>1065.6</ele>
        <time>2022-12-25T10:27:01Z</time>
      </trkpt>
      <trkpt lat="48.40717" lon="7.27149">
        <ele>1066</ele>
        <time>2022-12-25T10:27:02Z</time>
      </trkpt>
      <trkpt lat="48.40702" lon="7.2713">
        <ele>1067</ele>
        <time>2022-12-25T10:27:09Z</time>
      </trkpt>
      <trkpt lat="48.40699" lon="7.27127">
        <ele>1067</ele>
        <time>2022-12-25T10:27:10Z</time>
      </trkpt>
      <trkpt lat="48.40685" lon="7.27113">
        <ele>1068.2</ele>
        <time>2022-12-25T10:27:16Z</time>
      </trkpt>
      <trkpt lat="48.40679" lon="7.27106">
        <ele>1068.8</ele>
        <time>2022-12-25T10:27:19Z</time>
      </trkpt>
      <trkpt lat="48.40674" lon="7.27102">
        <ele>1069.2</ele>
        <time>2022-12-25T10:27:21Z</time>
      </trkpt>
      <trkpt lat="48.40664" lon="7.27091">
        <ele>1070.2</ele>
        <time>2022-12-25T10:27:25Z</time>
      </trkpt>
      <trkpt lat="48.40662" lon="7.27089">
        <ele>1070.4</ele>
        <time>2022-12-25T10:27:26Z</time>
      </trkpt>
      <trkpt lat="48.40645" lon="7.27075">
        <ele>1071.6</ele>
        <time>2022-12-25T10:27:33Z</time>
      </trkpt>
      <trkpt lat="48.40642" lon="7.27072">
        <ele>1071.8</ele>
        <time>2022-12-25T10:27:34Z</time>
      </trkpt>
      <trkpt lat="48.40629" lon="7.27064">
        <ele>1072.8</ele>
        <time>2022-12-25T10:27:39Z</time>
      </trkpt>
      <trkpt lat="48.40619" lon="7.27058">
        <ele>1073.4</ele>
        <time>2022-12-25T10:27:43Z</time>
      </trkpt>
      <trkpt lat="48.40611" lon="7.27053">
        <ele>1074</ele>
        <time>2022-12-25T10:27:46Z</time>
      </trkpt>
      <trkpt lat="48.40601" lon="7.27047">
        <ele>1075</ele>
        <time>2022-12-25T10:27:50Z</time>
      </trkpt>
      <trkpt lat="48.40595" lon="7.27043">
        <ele>1075.2</ele>
        <time>2022-12-25T10:27:52Z</time>
      </trkpt>
      <trkpt lat="48.40579" lon="7.27035">
        <ele>1076.6</ele>
        <time>2022-12-25T10:27:58Z</time>
      </trkpt>
      <trkpt lat="48.40577" lon="7.27034">
        <ele>1076.6</ele>
        <time>2022-12-25T10:27:59Z</time>
      </trkpt>
      <trkpt lat="48.40564" lon="7.27026">
        <ele>1077.8</ele>
        <time>2022-12-25T10:28:04Z</time>
      </trkpt>
      <trkpt lat="48.40559" lon="7.27022">
        <ele>1078</ele>
        <time>2022-12-25T10:28:06Z</time>
      </trkpt>
      <trkpt lat="48.40546" lon="7.27015">
        <ele>1078.8</ele>
        <time>2022-12-25T10:28:11Z</time>
      </trkpt>
      <trkpt lat="48.40533" lon="7.27008">
        <ele>1079.6</ele>
        <time>2022-12-25T10:28:16Z</time>
      </trkpt>
      <trkpt lat="48.40527" lon="7.27005">
        <ele>1080</ele>
        <time>2022-12-25T10:28:18Z</time>
      </trkpt>
      <trkpt lat="48.40505" lon="7.26995">
        <ele>1080.8</ele>
        <time>2022-12-25T10:28:26Z</time>
      </trkpt>
      <trkpt lat="48.40499" lon="7.26993">
        <ele>1081</ele>
        <time>2022-12-25T10:28:28Z</time>
      </trkpt>
      <trkpt lat="48.40475" lon="7.26987">
        <ele>1082</ele>
        <time>2022-12-25T10:28:36Z</time>
      </trkpt>
      <trkpt lat="48.40465" lon="7.26986">
        <ele>1082</ele>
        <time>2022-12-25T10:28:39Z</time>
      </trkpt>
      <trkpt lat="48.40446" lon="7.26984">
        <ele>1082.6</ele>
        <time>2022-12-25T10:28:45Z</time>
      </trkpt>
      <trkpt lat="48.4042" lon="7.26983">
        <ele>1083</ele>
        <time>2022-12-25T10:28:53Z</time>
      </trkpt>
      <trkpt lat="48.40395" lon="7.26984">
        <ele>1083</ele>
        <time>2022-12-25T10:29:00Z</time>
      </trkpt>
      <trkpt lat="48.40383" lon="7.26984">
        <ele>1082.8</ele>
        <time>2022-12-25T10:29:03Z</time>
      </trkpt>
      <trkpt lat="48.40377" lon="7.26984">
        <ele>1082.8</ele>
        <time>2022-12-25T10:29:04Z</time>
      </trkpt>
      <trkpt lat="48.40354" lon="7.26984">
        <ele>1082.4</ele>
        <time>2022-12-25T10:29:09Z</time>
      </trkpt>
      <trkpt lat="48.40328" lon="7.26985">
        <ele>1081.6</ele>
        <time>2022-12-25T10:29:14Z</time>
      </trkpt>
      <trkpt lat="48.40317" lon="7.26985">
        <ele>1081.2</ele>
        <time>2022-12-25T10:29:16Z</time>
      </trkpt>
      <trkpt lat="48.40311" lon="7.26985">
        <ele>1081</ele>
        <time>2022-12-25T10:29:17Z</time>
      </trkpt>
      <trkpt lat="48.40295" lon="7.26982">
        <ele>1080.6</ele>
        <time>2022-12-25T10:29:20Z</time>
      </trkpt>
      <trkpt lat="48.40285" lon="7.26981">
        <ele>1080.2</ele>
        <time>2022-12-25T10:29:22Z</time>
      </trkpt>
      <trkpt lat="48.40275" lon="7.2698">
        <ele>1080</ele>
        <time>2022-12-25T10:29:24Z</time>
      </trkpt>
      <trkpt lat="48.4026" lon="7.26977">
        <ele>1079.4</ele>
        <time>2022-12-25T10:29:27Z</time>
      </trkpt>
      <trkpt lat="48.40245" lon="7.26973">
        <ele>1079.2</ele>
        <time>2022-12-25T10:29:30Z</time>
      </trkpt>
      <trkpt lat="48.40235" lon="7.2697">
        <ele>1079</ele>
        <time>2022-12-25T10:29:32Z</time>
      </trkpt>
      <trkpt lat="48.40225" lon="7.26966">
        <ele>1078.8</ele>
        <time>2022-12-25T10:29:34Z</time>
      </trkpt>
      <trkpt lat="48.4022" lon="7.26962">
        <ele>1078.8</ele>
        <time>2022-12-25T10:29:35Z</time>
      </trkpt>
      <trkpt lat="48.40217" lon="7.26957">
        <ele>1078.8</ele>
        <time>2022-12-25T10:29:36Z</time>
      </trkpt>
      <trkpt lat="48.40215" lon="7.26951">
        <ele>1078.6</ele>
        <time>2022-12-25T10:29:37Z</time>
      </trkpt>
      <trkpt lat="48.40212" lon="7.26934">
        <ele>1078.4</ele>
        <time>2022-12-25T10:29:39Z</time>
      </trkpt>
      <trkpt lat="48.40217" lon="7.26914">
        <ele>1078.2</ele>
        <time>2022-12-25T10:29:41Z</time>
      </trkpt>
      <trkpt lat="48.40221" lon="7.26904">
        <ele>1078.2</ele>
        <time>2022-12-25T10:29:42Z</time>
      </trkpt>
      <trkpt lat="48.40232" lon="7.26884">
        <ele>1077.8</ele>
        <time>2022-12-25T10:29:44Z</time>
      </trkpt>
      <trkpt lat="48.40252" lon="7.26849">
        <ele>1076.2</ele>
        <time>2022-12-25T10:29:47Z</time>
      </trkpt>
      <trkpt lat="48.40264" lon="7.26826">
        <ele>1074.8</ele>
        <time>2022-12-25T10:29:49Z</time>
      </trkpt>
      <trkpt lat="48.40277" lon="7.26799">
        <ele>1073.2</ele>
        <time>2022-12-25T10:29:51Z</time>
      </trkpt>
      <trkpt lat="48.40284" lon="7.26785">
        <ele>1072.8</ele>
        <time>2022-12-25T10:29:52Z</time>
      </trkpt>
      <trkpt lat="48.40292" lon="7.26768">
        <ele>1072</ele>
        <time>2022-12-25T10:29:53Z</time>
      </trkpt>
      <trkpt lat="48.40298" lon="7.26755">
        <ele>1070.4</ele>
        <time>2022-12-25T10:29:54Z</time>
      </trkpt>
      <trkpt lat="48.40313" lon="7.26722">
        <ele>1068.2</ele>
        <time>2022-12-25T10:29:56Z</time>
      </trkpt>
      <trkpt lat="48.40329" lon="7.26691">
        <ele>1066.8</ele>
        <time>2022-12-25T10:29:58Z</time>
      </trkpt>
      <trkpt lat="48.40342" lon="7.26663">
        <ele>1065</ele>
        <time>2022-12-25T10:30:00Z</time>
      </trkpt>
      <trkpt lat="48.40359" lon="7.26628">
        <ele>1062.6</ele>
        <time>2022-12-25T10:30:02Z</time>
      </trkpt>
      <trkpt lat="48.40374" lon="7.26598">
        <ele>1061.2</ele>
        <time>2022-12-25T10:30:04Z</time>
      </trkpt>
      <trkpt lat="48.40383" lon="7.26579">
        <ele>1060.6</ele>
        <time>2022-12-25T10:30:05Z</time>
      </trkpt>
      <trkpt lat="48.40389" lon="7.26565">
        <ele>1059.4</ele>
        <time>2022-12-25T10:30:06Z</time>
      </trkpt>
      <trkpt lat="48.40406" lon="7.26531">
        <ele>1057.6</ele>
        <time>2022-12-25T10:30:08Z</time>
      </trkpt>
      <trkpt lat="48.40422" lon="7.26497">
        <ele>1055.6</ele>
        <time>2022-12-25T10:30:10Z</time>
      </trkpt>
      <trkpt lat="48.40438" lon="7.26462">
        <ele>1053.4</ele>
        <time>2022-12-25T10:30:12Z</time>
      </trkpt>
      <trkpt lat="48.40447" lon="7.26444">
        <ele>1052.6</ele>
        <time>2022-12-25T10:30:13Z</time>
      </trkpt>
      <trkpt lat="48.40455" lon="7.26427">
        <ele>1051.4</ele>
        <time>2022-12-25T10:30:14Z</time>
      </trkpt>
      <trkpt lat="48.40473" lon="7.2639">
        <ele>1049.2</ele>
        <time>2022-12-25T10:30:16Z</time>
      </trkpt>
      <trkpt lat="48.40482" lon="7.26372">
        <ele>1048.2</ele>
        <time>2022-12-25T10:30:17Z</time>
      </trkpt>
      <trkpt lat="48.40499" lon="7.26337">
        <ele>1045.6</ele>
        <time>2022-12-25T10:30:19Z</time>
      </trkpt>
      <trkpt lat="48.40507" lon="7.26319">
        <ele>1044.4</ele>
        <time>2022-12-25T10:30:20Z</time>
      </trkpt>
      <trkpt lat="48.40516" lon="7.26302">
        <ele>1043</ele>
        <time>2022-12-25T10:30:21Z</time>
      </trkpt>
      <trkpt lat="48.40534" lon="7.26267">
        <ele>1041.2</ele>
        <time>2022-12-25T10:30:23Z</time>
      </trkpt>
      <trkpt lat="48.40554" lon="7.26233">
        <ele>1039.2</ele>
        <time>2022-12-25T10:30:25Z</time>
      </trkpt>
      <trkpt lat="48.40565" lon="7.26218">
        <ele>1038.4</ele>
        <time>2022-12-25T10:30:26Z</time>
      </trkpt>
      <trkpt lat="48.40576" lon="7.26204">
        <ele>1037.2</ele>
        <time>2022-12-25T10:30:27Z</time>
      </trkpt>
      <trkpt lat="48.406" lon="7.26179">
        <ele>1034.6</ele>
        <time>2022-12-25T10:30:29Z</time>
      </trkpt>
      <trkpt lat="48.40612" lon="7.26169">
        <ele>1033.8</ele>
        <time>2022-12-25T10:30:30Z</time>
      </trkpt>
      <trkpt lat="48.40625" lon="7.2616">
        <ele>1032</ele>
        <time>2022-12-25T10:30:31Z</time>
      </trkpt>
      <trkpt lat="48.40652" lon="7.26148">
        <ele>1030</ele>
        <time>2022-12-25T10:30:33Z</time>
      </trkpt>
      <trkpt lat="48.40679" lon="7.26146">
        <ele>1028</ele>
        <time>2022-12-25T10:30:35Z</time>
      </trkpt>
      <trkpt lat="48.40692" lon="7.26146">
        <ele>1027.2</ele>
        <time>2022-12-25T10:30:36Z</time>
      </trkpt>
      <trkpt lat="48.40703" lon="7.26147">
        <ele>1026</ele>
        <time>2022-12-25T10:30:37Z</time>
      </trkpt>
      <trkpt lat="48.40714" lon="7.26147">
        <ele>1024.4</ele>
        <time>2022-12-25T10:30:38Z</time>
      </trkpt>
      <trkpt lat="48.40724" lon="7.26147">
        <ele>1023.8</ele>
        <time>2022-12-25T10:30:39Z</time>
      </trkpt>
      <trkpt lat="48.40734" lon="7.26143">
        <ele>1022.6</ele>
        <time>2022-12-25T10:30:40Z</time>
      </trkpt>
      <trkpt lat="48.40744" lon="7.26137">
        <ele>1022</ele>
        <time>2022-12-25T10:30:41Z</time>
      </trkpt>
      <trkpt lat="48.40752" lon="7.26128">
        <ele>1020.8</ele>
        <time>2022-12-25T10:30:42Z</time>
      </trkpt>
      <trkpt lat="48.40758" lon="7.26115">
        <ele>1020.2</ele>
        <time>2022-12-25T10:30:43Z</time>
      </trkpt>
      <trkpt lat="48.4076" lon="7.261">
        <ele>1018.8</ele>
        <time>2022-12-25T10:30:44Z</time>
      </trkpt>
      <trkpt lat="48.40759" lon="7.26083">
        <ele>1018.2</ele>
        <time>2022-12-25T10:30:45Z</time>
      </trkpt>
      <trkpt lat="48.40756" lon="7.26066">
        <ele>1017</ele>
        <time>2022-12-25T10:30:46Z</time>
      </trkpt>
      <trkpt lat="48.40751" lon="7.26051">
        <ele>1016.4</ele>
        <time>2022-12-25T10:30:47Z</time>
      </trkpt>
      <trkpt lat="48.40745" lon="7.26035">
        <ele>1015.2</ele>
        <time>2022-12-25T10:30:48Z</time>
      </trkpt>
      <trkpt lat="48.40737" lon="7.26021">
        <ele>1014.4</ele>
        <time>2022-12-25T10:30:49Z</time>
      </trkpt>
      <trkpt lat="48.40728" lon="7.26009">
        <ele>1013.4</ele>
        <time>2022-12-25T10:30:50Z</time>
      </trkpt>
      <trkpt lat="48.40719" lon="7.25996">
        <ele>1012.6</ele>
        <time>2022-12-25T10:30:51Z</time>
      </trkpt>
      <trkpt lat="48.40712" lon="7.25982">
        <ele>1011.6</ele>
        <time>2022-12-25T10:30:52Z</time>
      </trkpt>
      <trkpt lat="48.40707" lon="7.25967">
        <ele>1010.8</ele>
        <time>2022-12-25T10:30:53Z</time>
      </trkpt>
      <trkpt lat="48.40703" lon="7.25951">
        <ele>1009.8</ele>
        <time>2022-12-25T10:30:54Z</time>
      </trkpt>
      <trkpt lat="48.40702" lon="7.25933">
        <ele>1009</ele>
        <time>2022-12-25T10:30:55Z</time>
      </trkpt>
      <trkpt lat="48.40703" lon="7.25918">
        <ele>1007.8</ele>
        <time>2022-12-25T10:30:56Z</time>
      </trkpt>
      <trkpt lat="48.40705" lon="7.25902">
        <ele>1007.2</ele>
        <time>2022-12-25T10:30:57Z</time>
      </trkpt>
      <trkpt lat="48.40709" lon="7.25888">
        <ele>1006</ele>
        <time>2022-12-25T10:30:58Z</time>
      </trkpt>
      <trkpt lat="48.40719" lon="7.25849">
        <ele>1005</ele>
        <time>2022-12-25T10:31:01Z</time>
      </trkpt>
      <trkpt lat="48.40723" lon="7.25835">
        <ele>1005</ele>
        <time>2022-12-25T10:31:02Z</time>
      </trkpt>
      <trkpt lat="48.40733" lon="7.25793">
        <ele>1005</ele>
        <time>2022-12-25T10:31:06Z</time>
      </trkpt>
      <trkpt lat="48.40743" lon="7.25733">
        <ele>1005.2</ele>
        <time>2022-12-25T10:31:12Z</time>
      </trkpt>
      <trkpt lat="48.40747" lon="7.25678">
        <ele>1005.4</ele>
        <time>2022-12-25T10:31:18Z</time>
      </trkpt>
      <trkpt lat="48.40752" lon="7.25619">
        <ele>1005.6</ele>
        <time>2022-12-25T10:31:24Z</time>
      </trkpt>
      <trkpt lat="48.40755" lon="7.25591">
        <ele>1005.6</ele>
        <time>2022-12-25T10:31:27Z</time>
      </trkpt>
      <trkpt lat="48.40758" lon="7.25544">
        <ele>1005</ele>
        <time>2022-12-25T10:31:32Z</time>
      </trkpt>
      <trkpt lat="48.40765" lon="7.25478">
        <ele>1004.2</ele>
        <time>2022-12-25T10:31:39Z</time>
      </trkpt>
      <trkpt lat="48.40767" lon="7.25462">
        <ele>1004</ele>
        <time>2022-12-25T10:31:41Z</time>
      </trkpt>
      <trkpt lat="48.40768" lon="7.25453">
        <ele>1003.8</ele>
        <time>2022-12-25T10:31:42Z</time>
      </trkpt>
      <trkpt lat="48.40769" lon="7.25443">
        <ele>1003.8</ele>
        <time>2022-12-25T10:31:43Z</time>
      </trkpt>
      <trkpt lat="48.4077" lon="7.25434">
        <ele>1003.8</ele>
        <time>2022-12-25T10:31:44Z</time>
      </trkpt>
      <trkpt lat="48.40778" lon="7.25385">
        <ele>1003.2</ele>
        <time>2022-12-25T10:31:49Z</time>
      </trkpt>
      <trkpt lat="48.40781" lon="7.25364">
        <ele>1002.8</ele>
        <time>2022-12-25T10:31:51Z</time>
      </trkpt>
      <trkpt lat="48.40781" lon="7.25353">
        <ele>1002.6</ele>
        <time>2022-12-25T10:31:52Z</time>
      </trkpt>
      <trkpt lat="48.40778" lon="7.25332">
        <ele>1002.4</ele>
        <time>2022-12-25T10:31:54Z</time>
      </trkpt>
      <trkpt lat="48.40765" lon="7.25313">
        <ele>1002.2</ele>
        <time>2022-12-25T10:31:57Z</time>
      </trkpt>
      <trkpt lat="48.40754" lon="7.25302">
        <ele>1002.2</ele>
        <time>2022-12-25T10:32:01Z</time>
      </trkpt>
      <trkpt lat="48.40746" lon="7.25296">
        <ele>1002.8</ele>
        <time>2022-12-25T10:32:05Z</time>
      </trkpt>
      <trkpt lat="48.40742" lon="7.25294">
        <ele>1002.8</ele>
        <time>2022-12-25T10:32:07Z</time>
      </trkpt>
      <trkpt lat="48.4074" lon="7.25294">
        <ele>1003</ele>
        <time>2022-12-25T10:32:08Z</time>
      </trkpt>
      <trkpt lat="48.40733" lon="7.25291">
        <ele>1004</ele>
        <time>2022-12-25T10:32:12Z</time>
      </trkpt>
      <trkpt lat="48.40729" lon="7.2529">
        <ele>1004.6</ele>
        <time>2022-12-25T10:32:14Z</time>
      </trkpt>
      <trkpt lat="48.40726" lon="7.25289">
        <ele>1005</ele>
        <time>2022-12-25T10:32:16Z</time>
      </trkpt>
      <trkpt lat="48.40714" lon="7.25288">
        <ele>1006.2</ele>
        <time>2022-12-25T10:32:23Z</time>
      </trkpt>
      <trkpt lat="48.4071" lon="7.2529">
        <ele>1007.2</ele>
        <time>2022-12-25T10:32:26Z</time>
      </trkpt>
      <trkpt lat="48.40701" lon="7.25289">
        <ele>1008.4</ele>
        <time>2022-12-25T10:32:31Z</time>
      </trkpt>
      <trkpt lat="48.40689" lon="7.25297">
        <ele>1009.6</ele>
        <time>2022-12-25T10:32:38Z</time>
      </trkpt>
      <trkpt lat="48.40686" lon="7.25299">
        <ele>1010.4</ele>
        <time>2022-12-25T10:32:40Z</time>
      </trkpt>
      <trkpt lat="48.40685" lon="7.25301">
        <ele>1010.8</ele>
        <time>2022-12-25T10:32:42Z</time>
      </trkpt>
      <trkpt lat="48.40683" lon="7.25302">
        <ele>1011</ele>
        <time>2022-12-25T10:32:43Z</time>
      </trkpt>
      <trkpt lat="48.40681" lon="7.25303">
        <ele>1011.4</ele>
        <time>2022-12-25T10:32:45Z</time>
      </trkpt>
      <trkpt lat="48.40677" lon="7.25305">
        <ele>1012</ele>
        <time>2022-12-25T10:32:47Z</time>
      </trkpt>
      <trkpt lat="48.40675" lon="7.25306">
        <ele>1012.2</ele>
        <time>2022-12-25T10:32:48Z</time>
      </trkpt>
      <trkpt lat="48.40674" lon="7.25307">
        <ele>1012.4</ele>
        <time>2022-12-25T10:32:49Z</time>
      </trkpt>
      <trkpt lat="48.40672" lon="7.25308">
        <ele>1012.4</ele>
        <time>2022-12-25T10:32:50Z</time>
      </trkpt>
      <trkpt lat="48.40671" lon="7.25308">
        <ele>1013</ele>
        <time>2022-12-25T10:32:51Z</time>
      </trkpt>
      <trkpt lat="48.4067" lon="7.25308">
        <ele>1013.2</ele>
        <time>2022-12-25T10:32:52Z</time>
      </trkpt>
      <trkpt lat="48.40668" lon="7.25309">
        <ele>1013.2</ele>
        <time>2022-12-25T10:32:53Z</time>
      </trkpt>
      <trkpt lat="48.40666" lon="7.25309">
        <ele>1013.4</ele>
        <time>2022-12-25T10:32:54Z</time>
      </trkpt>
      <trkpt lat="48.4066" lon="7.25313">
        <ele>1014</ele>
        <time>2022-12-25T10:32:57Z</time>
      </trkpt>
      <trkpt lat="48.40659" lon="7.25313">
        <ele>1014.2</ele>
        <time>2022-12-25T10:32:58Z</time>
      </trkpt>
      <trkpt lat="48.4065" lon="7.25317">
        <ele>1014.6</ele>
        <time>2022-12-25T10:33:02Z</time>
      </trkpt>
      <trkpt lat="48.40639" lon="7.25326">
        <ele>1015.2</ele>
        <time>2022-12-25T10:33:07Z</time>
      </trkpt>
      <trkpt lat="48.40627" lon="7.25334">
        <ele>1015.2</ele>
        <time>2022-12-25T10:33:12Z</time>
      </trkpt>
      <trkpt lat="48.40622" lon="7.25339">
        <ele>1015.6</ele>
        <time>2022-12-25T10:33:14Z</time>
      </trkpt>
      <trkpt lat="48.40615" lon="7.25343">
        <ele>1015.6</ele>
        <time>2022-12-25T10:33:16Z</time>
      </trkpt>
      <trkpt lat="48.40605" lon="7.25346">
        <ele>1015.8</ele>
        <time>2022-12-25T10:33:19Z</time>
      </trkpt>
      <trkpt lat="48.40583" lon="7.25352">
        <ele>1015.8</ele>
        <time>2022-12-25T10:33:27Z</time>
      </trkpt>
      <trkpt lat="48.40569" lon="7.25352">
        <ele>1016.2</ele>
        <time>2022-12-25T10:33:32Z</time>
      </trkpt>
      <trkpt lat="48.4056" lon="7.25353">
        <ele>1016.4</ele>
        <time>2022-12-25T10:33:35Z</time>
      </trkpt>
      <trkpt lat="48.40552" lon="7.25353">
        <ele>1016.4</ele>
        <time>2022-12-25T10:33:38Z</time>
      </trkpt>
      <trkpt lat="48.40537" lon="7.25349">
        <ele>1016.2</ele>
        <time>2022-12-25T10:33:43Z</time>
      </trkpt>
      <trkpt lat="48.40511" lon="7.25331">
        <ele>1015.8</ele>
        <time>2022-12-25T10:33:51Z</time>
      </trkpt>
      <trkpt lat="48.40491" lon="7.25314">
        <ele>1015.2</ele>
        <time>2022-12-25T10:33:57Z</time>
      </trkpt>
      <trkpt lat="48.40488" lon="7.25311">
        <ele>1015.2</ele>
        <time>2022-12-25T10:33:58Z</time>
      </trkpt>
      <trkpt lat="48.4048" lon="7.25306">
        <ele>1015</ele>
        <time>2022-12-25T10:34:00Z</time>
      </trkpt>
      <trkpt lat="48.40465" lon="7.25296">
        <ele>1014.6</ele>
        <time>2022-12-25T10:34:04Z</time>
      </trkpt>
      <trkpt lat="48.40454" lon="7.25289">
        <ele>1014.4</ele>
        <time>2022-12-25T10:34:07Z</time>
      </trkpt>
      <trkpt lat="48.40436" lon="7.2527">
        <ele>1014.2</ele>
        <time>2022-12-25T10:34:13Z</time>
      </trkpt>
      <trkpt lat="48.40423" lon="7.25249">
        <ele>1014.2</ele>
        <time>2022-12-25T10:34:18Z</time>
      </trkpt>
      <trkpt lat="48.40421" lon="7.25243">
        <ele>1014</ele>
        <time>2022-12-25T10:34:19Z</time>
      </trkpt>
      <trkpt lat="48.40418" lon="7.25232">
        <ele>1013.8</ele>
        <time>2022-12-25T10:34:21Z</time>
      </trkpt>
      <trkpt lat="48.40412" lon="7.25223">
        <ele>1013.6</ele>
        <time>2022-12-25T10:34:23Z</time>
      </trkpt>
      <trkpt lat="48.40404" lon="7.25216">
        <ele>1013.6</ele>
        <time>2022-12-25T10:34:25Z</time>
      </trkpt>
      <trkpt lat="48.40386" lon="7.25203">
        <ele>1013.6</ele>
        <time>2022-12-25T10:34:30Z</time>
      </trkpt>
      <trkpt lat="48.4037" lon="7.25194">
        <ele>1013.2</ele>
        <time>2022-12-25T10:34:34Z</time>
      </trkpt>
      <trkpt lat="48.40355" lon="7.25181">
        <ele>1012.8</ele>
        <time>2022-12-25T10:34:38Z</time>
      </trkpt>
      <trkpt lat="48.40351" lon="7.25176">
        <ele>1012.8</ele>
        <time>2022-12-25T10:34:39Z</time>
      </trkpt>
      <trkpt lat="48.40348" lon="7.25171">
        <ele>1012.8</ele>
        <time>2022-12-25T10:34:40Z</time>
      </trkpt>
      <trkpt lat="48.40345" lon="7.25166">
        <ele>1012.8</ele>
        <time>2022-12-25T10:34:41Z</time>
      </trkpt>
      <trkpt lat="48.40333" lon="7.25148">
        <ele>1012.2</ele>
        <time>2022-12-25T10:34:44Z</time>
      </trkpt>
      <trkpt lat="48.40322" lon="7.25132">
        <ele>1011.8</ele>
        <time>2022-12-25T10:34:47Z</time>
      </trkpt>
      <trkpt lat="48.40319" lon="7.25126">
        <ele>1011.6</ele>
        <time>2022-12-25T10:34:48Z</time>
      </trkpt>
      <trkpt lat="48.40316" lon="7.2512">
        <ele>1011.6</ele>
        <time>2022-12-25T10:34:49Z</time>
      </trkpt>
      <trkpt lat="48.40313" lon="7.25113">
        <ele>1011.4</ele>
        <time>2022-12-25T10:34:50Z</time>
      </trkpt>
      <trkpt lat="48.40303" lon="7.25096">
        <ele>1011.2</ele>
        <time>2022-12-25T10:34:53Z</time>
      </trkpt>
      <trkpt lat="48.40295" lon="7.25085">
        <ele>1011.2</ele>
        <time>2022-12-25T10:34:55Z</time>
      </trkpt>
      <trkpt lat="48.40283" lon="7.25067">
        <ele>1011.2</ele>
        <time>2022-12-25T10:34:58Z</time>
      </trkpt>
      <trkpt lat="48.40281" lon="7.2506">
        <ele>1011.2</ele>
        <time>2022-12-25T10:34:59Z</time>
      </trkpt>
      <trkpt lat="48.40272" lon="7.25038">
        <ele>1011.2</ele>
        <time>2022-12-25T10:35:02Z</time>
      </trkpt>
      <trkpt lat="48.40266" lon="7.25023">
        <ele>1010.8</ele>
        <time>2022-12-25T10:35:04Z</time>
      </trkpt>
      <trkpt lat="48.40263" lon="7.25016">
        <ele>1010.6</ele>
        <time>2022-12-25T10:35:05Z</time>
      </trkpt>
      <trkpt lat="48.40257" lon="7.25001">
        <ele>1010.4</ele>
        <time>2022-12-25T10:35:07Z</time>
      </trkpt>
      <trkpt lat="48.40255" lon="7.24995">
        <ele>1010.2</ele>
        <time>2022-12-25T10:35:08Z</time>
      </trkpt>
      <trkpt lat="48.40245" lon="7.24968">
        <ele>1010.2</ele>
        <time>2022-12-25T10:35:12Z</time>
      </trkpt>
      <trkpt lat="48.40237" lon="7.24952">
        <ele>1010</ele>
        <time>2022-12-25T10:35:15Z</time>
      </trkpt>
      <trkpt lat="48.40233" lon="7.24939">
        <ele>1009.8</ele>
        <time>2022-12-25T10:35:17Z</time>
      </trkpt>
      <trkpt lat="48.40231" lon="7.24931">
        <ele>1009.6</ele>
        <time>2022-12-25T10:35:18Z</time>
      </trkpt>
      <trkpt lat="48.40224" lon="7.24902">
        <ele>1009.2</ele>
        <time>2022-12-25T10:35:22Z</time>
      </trkpt>
      <trkpt lat="48.40218" lon="7.24889">
        <ele>1009</ele>
        <time>2022-12-25T10:35:24Z</time>
      </trkpt>
      <trkpt lat="48.40212" lon="7.24878">
        <ele>1008.8</ele>
        <time>2022-12-25T10:35:26Z</time>
      </trkpt>
      <trkpt lat="48.40207" lon="7.24867">
        <ele>1008.6</ele>
        <time>2022-12-25T10:35:28Z</time>
      </trkpt>
      <trkpt lat="48.40204" lon="7.24862">
        <ele>1008.6</ele>
        <time>2022-12-25T10:35:29Z</time>
      </trkpt>
      <trkpt lat="48.40198" lon="7.24852">
        <ele>1008.4</ele>
        <time>2022-12-25T10:35:31Z</time>
      </trkpt>
      <trkpt lat="48.40193" lon="7.24847">
        <ele>1008.4</ele>
        <time>2022-12-25T10:35:32Z</time>
      </trkpt>
      <trkpt lat="48.40166" lon="7.24817">
        <ele>1008.2</ele>
        <time>2022-12-25T10:35:38Z</time>
      </trkpt>
      <trkpt lat="48.40156" lon="7.24807">
        <ele>1008</ele>
        <time>2022-12-25T10:35:40Z</time>
      </trkpt>
      <trkpt lat="48.40147" lon="7.24803">
        <ele>1007.8</ele>
        <time>2022-12-25T10:35:42Z</time>
      </trkpt>
      <trkpt lat="48.40141" lon="7.24803">
        <ele>1007.4</ele>
        <time>2022-12-25T10:35:43Z</time>
      </trkpt>
      <trkpt lat="48.40132" lon="7.24805">
        <ele>1007.2</ele>
        <time>2022-12-25T10:35:45Z</time>
      </trkpt>
      <trkpt lat="48.4012" lon="7.24812">
        <ele>1006.8</ele>
        <time>2022-12-25T10:35:47Z</time>
      </trkpt>
      <trkpt lat="48.40115" lon="7.24816">
        <ele>1006.6</ele>
        <time>2022-12-25T10:35:48Z</time>
      </trkpt>
      <trkpt lat="48.4011" lon="7.24821">
        <ele>1006.2</ele>
        <time>2022-12-25T10:35:49Z</time>
      </trkpt>
      <trkpt lat="48.401" lon="7.24833">
        <ele>1006</ele>
        <time>2022-12-25T10:35:51Z</time>
      </trkpt>
      <trkpt lat="48.40089" lon="7.24851">
        <ele>1005.2</ele>
        <time>2022-12-25T10:35:54Z</time>
      </trkpt>
      <trkpt lat="48.40086" lon="7.24857">
        <ele>1005</ele>
        <time>2022-12-25T10:35:55Z</time>
      </trkpt>
      <trkpt lat="48.40083" lon="7.24862">
        <ele>1004.8</ele>
        <time>2022-12-25T10:35:56Z</time>
      </trkpt>
      <trkpt lat="48.40075" lon="7.2488">
        <ele>1004.6</ele>
        <time>2022-12-25T10:35:59Z</time>
      </trkpt>
      <trkpt lat="48.40069" lon="7.24893">
        <ele>1004.4</ele>
        <time>2022-12-25T10:36:01Z</time>
      </trkpt>
      <trkpt lat="48.40049" lon="7.24931">
        <ele>1004.4</ele>
        <time>2022-12-25T10:36:08Z</time>
      </trkpt>
      <trkpt lat="48.40045" lon="7.24947">
        <ele>1004.4</ele>
        <time>2022-12-25T10:36:10Z</time>
      </trkpt>
      <trkpt lat="48.40041" lon="7.24972">
        <ele>1004.6</ele>
        <time>2022-12-25T10:36:13Z</time>
      </trkpt>
      <trkpt lat="48.40036" lon="7.25034">
        <ele>1004.2</ele>
        <time>2022-12-25T10:36:20Z</time>
      </trkpt>
      <trkpt lat="48.40035" lon="7.25043">
        <ele>1004.2</ele>
        <time>2022-12-25T10:36:21Z</time>
      </trkpt>
      <trkpt lat="48.40033" lon="7.25059">
        <ele>1004.2</ele>
        <time>2022-12-25T10:36:23Z</time>
      </trkpt>
      <trkpt lat="48.4003" lon="7.25075">
        <ele>1004.2</ele>
        <time>2022-12-25T10:36:25Z</time>
      </trkpt>
      <trkpt lat="48.40027" lon="7.25091">
        <ele>1004</ele>
        <time>2022-12-25T10:36:27Z</time>
      </trkpt>
      <trkpt lat="48.40021" lon="7.25107">
        <ele>1004</ele>
        <time>2022-12-25T10:36:29Z</time>
      </trkpt>
      <trkpt lat="48.40019" lon="7.25115">
        <ele>1004</ele>
        <time>2022-12-25T10:36:30Z</time>
      </trkpt>
      <trkpt lat="48.40016" lon="7.25123">
        <ele>1003.6</ele>
        <time>2022-12-25T10:36:31Z</time>
      </trkpt>
      <trkpt lat="48.40003" lon="7.25152">
        <ele>1003.4</ele>
        <time>2022-12-25T10:36:35Z</time>
      </trkpt>
      <trkpt lat="48.39986" lon="7.25175">
        <ele>1002.6</ele>
        <time>2022-12-25T10:36:39Z</time>
      </trkpt>
      <trkpt lat="48.39982" lon="7.25179">
        <ele>1002.4</ele>
        <time>2022-12-25T10:36:40Z</time>
      </trkpt>
      <trkpt lat="48.39967" lon="7.252">
        <ele>1002.8</ele>
        <time>2022-12-25T10:36:44Z</time>
      </trkpt>
      <trkpt lat="48.3996" lon="7.25209">
        <ele>1002.6</ele>
        <time>2022-12-25T10:36:46Z</time>
      </trkpt>
      <trkpt lat="48.39953" lon="7.25219">
        <ele>1002.8</ele>
        <time>2022-12-25T10:36:48Z</time>
      </trkpt>
      <trkpt lat="48.39941" lon="7.2523">
        <ele>1003.2</ele>
        <time>2022-12-25T10:36:51Z</time>
      </trkpt>
      <trkpt lat="48.39908" lon="7.25261">
        <ele>1003.6</ele>
        <time>2022-12-25T10:37:00Z</time>
      </trkpt>
      <trkpt lat="48.39888" lon="7.25282">
        <ele>1003.4</ele>
        <time>2022-12-25T10:37:05Z</time>
      </trkpt>
      <trkpt lat="48.39877" lon="7.25294">
        <ele>1003.4</ele>
        <time>2022-12-25T10:37:08Z</time>
      </trkpt>
      <trkpt lat="48.39847" lon="7.25319">
        <ele>1003</ele>
        <time>2022-12-25T10:37:15Z</time>
      </trkpt>
      <trkpt lat="48.39836" lon="7.2533">
        <ele>1002.8</ele>
        <time>2022-12-25T10:37:17Z</time>
      </trkpt>
      <trkpt lat="48.39821" lon="7.25345">
        <ele>1002.6</ele>
        <time>2022-12-25T10:37:20Z</time>
      </trkpt>
      <trkpt lat="48.39816" lon="7.2535">
        <ele>1002.4</ele>
        <time>2022-12-25T10:37:21Z</time>
      </trkpt>
      <trkpt lat="48.39806" lon="7.25359">
        <ele>1002.2</ele>
        <time>2022-12-25T10:37:23Z</time>
      </trkpt>
      <trkpt lat="48.39791" lon="7.25373">
        <ele>1001.6</ele>
        <time>2022-12-25T10:37:26Z</time>
      </trkpt>
      <trkpt lat="48.39782" lon="7.25378">
        <ele>1001.2</ele>
        <time>2022-12-25T10:37:28Z</time>
      </trkpt>
      <trkpt lat="48.39772" lon="7.25387">
        <ele>1001</ele>
        <time>2022-12-25T10:37:30Z</time>
      </trkpt>
      <trkpt lat="48.39758" lon="7.25398">
        <ele>1001</ele>
        <time>2022-12-25T10:37:33Z</time>
      </trkpt>
      <trkpt lat="48.39743" lon="7.25411">
        <ele>1000.8</ele>
        <time>2022-12-25T10:37:36Z</time>
      </trkpt>
      <trkpt lat="48.39738" lon="7.25414">
        <ele>1000.8</ele>
        <time>2022-12-25T10:37:37Z</time>
      </trkpt>
      <trkpt lat="48.39708" lon="7.25439">
        <ele>1000.6</ele>
        <time>2022-12-25T10:37:44Z</time>
      </trkpt>
      <trkpt lat="48.39674" lon="7.25463">
        <ele>1000.4</ele>
        <time>2022-12-25T10:37:51Z</time>
      </trkpt>
      <trkpt lat="48.39659" lon="7.25471">
        <ele>1000.2</ele>
        <time>2022-12-25T10:37:54Z</time>
      </trkpt>
      <trkpt lat="48.3965" lon="7.25477">
        <ele>1000.2</ele>
        <time>2022-12-25T10:37:56Z</time>
      </trkpt>
      <trkpt lat="48.39645" lon="7.25479">
        <ele>1000</ele>
        <time>2022-12-25T10:37:57Z</time>
      </trkpt>
      <trkpt lat="48.39628" lon="7.25483">
        <ele>999.6</ele>
        <time>2022-12-25T10:38:00Z</time>
      </trkpt>
      <trkpt lat="48.396" lon="7.25495">
        <ele>999</ele>
        <time>2022-12-25T10:38:05Z</time>
      </trkpt>
      <trkpt lat="48.39594" lon="7.25498">
        <ele>999</ele>
        <time>2022-12-25T10:38:06Z</time>
      </trkpt>
      <trkpt lat="48.39552" lon="7.25522">
        <ele>998.6</ele>
        <time>2022-12-25T10:38:14Z</time>
      </trkpt>
      <trkpt lat="48.39542" lon="7.2553">
        <ele>998.4</ele>
        <time>2022-12-25T10:38:16Z</time>
      </trkpt>
      <trkpt lat="48.39529" lon="7.25548">
        <ele>998.2</ele>
        <time>2022-12-25T10:38:19Z</time>
      </trkpt>
      <trkpt lat="48.39521" lon="7.25561">
        <ele>998.2</ele>
        <time>2022-12-25T10:38:21Z</time>
      </trkpt>
      <trkpt lat="48.39515" lon="7.25574">
        <ele>998</ele>
        <time>2022-12-25T10:38:23Z</time>
      </trkpt>
      <trkpt lat="48.39511" lon="7.25582">
        <ele>997.8</ele>
        <time>2022-12-25T10:38:24Z</time>
      </trkpt>
      <trkpt lat="48.395" lon="7.25615">
        <ele>997.4</ele>
        <time>2022-12-25T10:38:28Z</time>
      </trkpt>
      <trkpt lat="48.39493" lon="7.2563">
        <ele>997.4</ele>
        <time>2022-12-25T10:38:30Z</time>
      </trkpt>
      <trkpt lat="48.39474" lon="7.25663">
        <ele>996.8</ele>
        <time>2022-12-25T10:38:35Z</time>
      </trkpt>
      <trkpt lat="48.3947" lon="7.25669">
        <ele>996.8</ele>
        <time>2022-12-25T10:38:36Z</time>
      </trkpt>
      <trkpt lat="48.39454" lon="7.25705">
        <ele>996.6</ele>
        <time>2022-12-25T10:38:41Z</time>
      </trkpt>
      <trkpt lat="48.39449" lon="7.25719">
        <ele>996.6</ele>
        <time>2022-12-25T10:38:43Z</time>
      </trkpt>
      <trkpt lat="48.39442" lon="7.25739">
        <ele>996.4</ele>
        <time>2022-12-25T10:38:46Z</time>
      </trkpt>
      <trkpt lat="48.39435" lon="7.2575">
        <ele>996.4</ele>
        <time>2022-12-25T10:38:48Z</time>
      </trkpt>
      <trkpt lat="48.39423" lon="7.25766">
        <ele>996.2</ele>
        <time>2022-12-25T10:38:51Z</time>
      </trkpt>
      <trkpt lat="48.39416" lon="7.25777">
        <ele>996.2</ele>
        <time>2022-12-25T10:38:53Z</time>
      </trkpt>
      <trkpt lat="48.39408" lon="7.25788">
        <ele>996</ele>
        <time>2022-12-25T10:38:55Z</time>
      </trkpt>
      <trkpt lat="48.39402" lon="7.258">
        <ele>995.8</ele>
        <time>2022-12-25T10:38:57Z</time>
      </trkpt>
      <trkpt lat="48.39398" lon="7.25806">
        <ele>995.8</ele>
        <time>2022-12-25T10:38:58Z</time>
      </trkpt>
      <trkpt lat="48.39395" lon="7.25811">
        <ele>995.8</ele>
        <time>2022-12-25T10:38:59Z</time>
      </trkpt>
      <trkpt lat="48.39385" lon="7.25831">
        <ele>995.8</ele>
        <time>2022-12-25T10:39:02Z</time>
      </trkpt>
      <trkpt lat="48.39372" lon="7.25855">
        <ele>995.6</ele>
        <time>2022-12-25T10:39:06Z</time>
      </trkpt>
      <trkpt lat="48.39369" lon="7.25862">
        <ele>995.6</ele>
        <time>2022-12-25T10:39:07Z</time>
      </trkpt>
      <trkpt lat="48.39366" lon="7.25869">
        <ele>995.6</ele>
        <time>2022-12-25T10:39:08Z</time>
      </trkpt>
      <trkpt lat="48.39362" lon="7.25875">
        <ele>995.6</ele>
        <time>2022-12-25T10:39:09Z</time>
      </trkpt>
      <trkpt lat="48.39359" lon="7.2588">
        <ele>995.6</ele>
        <time>2022-12-25T10:39:10Z</time>
      </trkpt>
      <trkpt lat="48.39344" lon="7.25906">
        <ele>995.4</ele>
        <time>2022-12-25T10:39:14Z</time>
      </trkpt>
      <trkpt lat="48.39333" lon="7.25925">
        <ele>995.4</ele>
        <time>2022-12-25T10:39:17Z</time>
      </trkpt>
      <trkpt lat="48.39327" lon="7.25939">
        <ele>995.4</ele>
        <time>2022-12-25T10:39:19Z</time>
      </trkpt>
      <trkpt lat="48.39294" lon="7.26003">
        <ele>995</ele>
        <time>2022-12-25T10:39:28Z</time>
      </trkpt>
      <trkpt lat="48.39276" lon="7.26037">
        <ele>995</ele>
        <time>2022-12-25T10:39:33Z</time>
      </trkpt>
      <trkpt lat="48.39267" lon="7.26056">
        <ele>994.8</ele>
        <time>2022-12-25T10:39:36Z</time>
      </trkpt>
      <trkpt lat="48.39247" lon="7.261">
        <ele>994.4</ele>
        <time>2022-12-25T10:39:42Z</time>
      </trkpt>
      <trkpt lat="48.39245" lon="7.26108">
        <ele>994.4</ele>
        <time>2022-12-25T10:39:43Z</time>
      </trkpt>
      <trkpt lat="48.39233" lon="7.26135">
        <ele>994.2</ele>
        <time>2022-12-25T10:39:47Z</time>
      </trkpt>
      <trkpt lat="48.39223" lon="7.26157">
        <ele>994</ele>
        <time>2022-12-25T10:39:50Z</time>
      </trkpt>
      <trkpt lat="48.39213" lon="7.26179">
        <ele>993.8</ele>
        <time>2022-12-25T10:39:53Z</time>
      </trkpt>
      <trkpt lat="48.39208" lon="7.26193">
        <ele>993.8</ele>
        <time>2022-12-25T10:39:55Z</time>
      </trkpt>
      <trkpt lat="48.39204" lon="7.26201">
        <ele>993.8</ele>
        <time>2022-12-25T10:39:56Z</time>
      </trkpt>
      <trkpt lat="48.39178" lon="7.2625">
        <ele>993.4</ele>
        <time>2022-12-25T10:40:03Z</time>
      </trkpt>
      <trkpt lat="48.3917" lon="7.26264">
        <ele>993.2</ele>
        <time>2022-12-25T10:40:05Z</time>
      </trkpt>
      <trkpt lat="48.39165" lon="7.2627">
        <ele>993.2</ele>
        <time>2022-12-25T10:40:06Z</time>
      </trkpt>
      <trkpt lat="48.39155" lon="7.26278">
        <ele>992.8</ele>
        <time>2022-12-25T10:40:08Z</time>
      </trkpt>
      <trkpt lat="48.39132" lon="7.26293">
        <ele>992</ele>
        <time>2022-12-25T10:40:13Z</time>
      </trkpt>
      <trkpt lat="48.39127" lon="7.26296">
        <ele>991.8</ele>
        <time>2022-12-25T10:40:14Z</time>
      </trkpt>
      <trkpt lat="48.39096" lon="7.26318">
        <ele>991.6</ele>
        <time>2022-12-25T10:40:20Z</time>
      </trkpt>
      <trkpt lat="48.39089" lon="7.26321">
        <ele>991.6</ele>
        <time>2022-12-25T10:40:21Z</time>
      </trkpt>
      <trkpt lat="48.39077" lon="7.26325">
        <ele>991.4</ele>
        <time>2022-12-25T10:40:23Z</time>
      </trkpt>
      <trkpt lat="48.39066" lon="7.26327">
        <ele>991.2</ele>
        <time>2022-12-25T10:40:25Z</time>
      </trkpt>
      <trkpt lat="48.39045" lon="7.26316">
        <ele>990.8</ele>
        <time>2022-12-25T10:40:29Z</time>
      </trkpt>
      <trkpt lat="48.39024" lon="7.263">
        <ele>990.4</ele>
        <time>2022-12-25T10:40:33Z</time>
      </trkpt>
      <trkpt lat="48.39014" lon="7.26293">
        <ele>990</ele>
        <time>2022-12-25T10:40:35Z</time>
      </trkpt>
      <trkpt lat="48.38993" lon="7.26273">
        <ele>989.8</ele>
        <time>2022-12-25T10:40:39Z</time>
      </trkpt>
      <trkpt lat="48.38987" lon="7.26269">
        <ele>989.8</ele>
        <time>2022-12-25T10:40:40Z</time>
      </trkpt>
      <trkpt lat="48.38966" lon="7.2624">
        <ele>989.4</ele>
        <time>2022-12-25T10:40:45Z</time>
      </trkpt>
      <trkpt lat="48.38957" lon="7.26225">
        <ele>989.2</ele>
        <time>2022-12-25T10:40:47Z</time>
      </trkpt>
      <trkpt lat="48.38932" lon="7.26177">
        <ele>988.8</ele>
        <time>2022-12-25T10:40:54Z</time>
      </trkpt>
      <trkpt lat="48.38927" lon="7.26164">
        <ele>988.4</ele>
        <time>2022-12-25T10:40:56Z</time>
      </trkpt>
      <trkpt lat="48.38921" lon="7.2615">
        <ele>988.4</ele>
        <time>2022-12-25T10:40:58Z</time>
      </trkpt>
      <trkpt lat="48.38919" lon="7.26142">
        <ele>988.2</ele>
        <time>2022-12-25T10:40:59Z</time>
      </trkpt>
      <trkpt lat="48.38917" lon="7.26136">
        <ele>988</ele>
        <time>2022-12-25T10:41:00Z</time>
      </trkpt>
      <trkpt lat="48.38914" lon="7.26124">
        <ele>988.2</ele>
        <time>2022-12-25T10:41:02Z</time>
      </trkpt>
      <trkpt lat="48.38908" lon="7.26113">
        <ele>988</ele>
        <time>2022-12-25T10:41:04Z</time>
      </trkpt>
      <trkpt lat="48.38905" lon="7.26106">
        <ele>987.8</ele>
        <time>2022-12-25T10:41:05Z</time>
      </trkpt>
      <trkpt lat="48.38893" lon="7.26074">
        <ele>987.8</ele>
        <time>2022-12-25T10:41:10Z</time>
      </trkpt>
      <trkpt lat="48.3889" lon="7.26067">
        <ele>987.4</ele>
        <time>2022-12-25T10:41:11Z</time>
      </trkpt>
      <trkpt lat="48.38885" lon="7.26054">
        <ele>987.2</ele>
        <time>2022-12-25T10:41:13Z</time>
      </trkpt>
      <trkpt lat="48.38879" lon="7.26045">
        <ele>987.2</ele>
        <time>2022-12-25T10:41:15Z</time>
      </trkpt>
      <trkpt lat="48.38866" lon="7.26018">
        <ele>987.2</ele>
        <time>2022-12-25T10:41:19Z</time>
      </trkpt>
      <trkpt lat="48.38861" lon="7.26007">
        <ele>987.2</ele>
        <time>2022-12-25T10:41:21Z</time>
      </trkpt>
      <trkpt lat="48.38849" lon="7.25986">
        <ele>986.8</ele>
        <time>2022-12-25T10:41:25Z</time>
      </trkpt>
      <trkpt lat="48.38841" lon="7.25966">
        <ele>986.8</ele>
        <time>2022-12-25T10:41:28Z</time>
      </trkpt>
      <trkpt lat="48.38837" lon="7.25952">
        <ele>986.6</ele>
        <time>2022-12-25T10:41:30Z</time>
      </trkpt>
      <trkpt lat="48.38834" lon="7.25945">
        <ele>986.6</ele>
        <time>2022-12-25T10:41:31Z</time>
      </trkpt>
      <trkpt lat="48.38833" lon="7.25937">
        <ele>986.6</ele>
        <time>2022-12-25T10:41:32Z</time>
      </trkpt>
      <trkpt lat="48.38826" lon="7.25913">
        <ele>986.6</ele>
        <time>2022-12-25T10:41:36Z</time>
      </trkpt>
      <trkpt lat="48.38823" lon="7.25904">
        <ele>986.2</ele>
        <time>2022-12-25T10:41:38Z</time>
      </trkpt>
      <trkpt lat="48.38811" lon="7.25888">
        <ele>985.6</ele>
        <time>2022-12-25T10:41:41Z</time>
      </trkpt>
      <trkpt lat="48.38803" lon="7.2588">
        <ele>985.4</ele>
        <time>2022-12-25T10:41:43Z</time>
      </trkpt>
      <trkpt lat="48.38798" lon="7.25877">
        <ele>985</ele>
        <time>2022-12-25T10:41:44Z</time>
      </trkpt>
      <trkpt lat="48.38787" lon="7.25872">
        <ele>985</ele>
        <time>2022-12-25T10:41:46Z</time>
      </trkpt>
      <trkpt lat="48.38768" lon="7.2586">
        <ele>985</ele>
        <time>2022-12-25T10:41:50Z</time>
      </trkpt>
      <trkpt lat="48.38762" lon="7.25857">
        <ele>984.8</ele>
        <time>2022-12-25T10:41:51Z</time>
      </trkpt>
      <trkpt lat="48.38757" lon="7.25856">
        <ele>984.8</ele>
        <time>2022-12-25T10:41:52Z</time>
      </trkpt>
      <trkpt lat="48.38733" lon="7.2585">
        <ele>984.8</ele>
        <time>2022-12-25T10:41:56Z</time>
      </trkpt>
      <trkpt lat="48.38699" lon="7.2583">
        <ele>984</ele>
        <time>2022-12-25T10:42:02Z</time>
      </trkpt>
      <trkpt lat="48.38668" lon="7.25806">
        <ele>983.8</ele>
        <time>2022-12-25T10:42:08Z</time>
      </trkpt>
      <trkpt lat="48.38644" lon="7.25786">
        <ele>983.6</ele>
        <time>2022-12-25T10:42:13Z</time>
      </trkpt>
      <trkpt lat="48.38634" lon="7.25779">
        <ele>983.4</ele>
        <time>2022-12-25T10:42:15Z</time>
      </trkpt>
      <trkpt lat="48.3862" lon="7.25769">
        <ele>983.2</ele>
        <time>2022-12-25T10:42:18Z</time>
      </trkpt>
      <trkpt lat="48.38611" lon="7.25765">
        <ele>983</ele>
        <time>2022-12-25T10:42:20Z</time>
      </trkpt>
      <trkpt lat="48.38593" lon="7.25761">
        <ele>982.8</ele>
        <time>2022-12-25T10:42:24Z</time>
      </trkpt>
      <trkpt lat="48.38588" lon="7.2576">
        <ele>982.8</ele>
        <time>2022-12-25T10:42:25Z</time>
      </trkpt>
      <trkpt lat="48.38578" lon="7.25761">
        <ele>982.4</ele>
        <time>2022-12-25T10:42:27Z</time>
      </trkpt>
      <trkpt lat="48.3857" lon="7.25762">
        <ele>982</ele>
        <time>2022-12-25T10:42:29Z</time>
      </trkpt>
      <trkpt lat="48.38565" lon="7.25761">
        <ele>981.8</ele>
        <time>2022-12-25T10:42:30Z</time>
      </trkpt>
      <trkpt lat="48.38561" lon="7.25761">
        <ele>981.8</ele>
        <time>2022-12-25T10:42:31Z</time>
      </trkpt>
      <trkpt lat="48.3855" lon="7.25764">
        <ele>981.2</ele>
        <time>2022-12-25T10:42:34Z</time>
      </trkpt>
      <trkpt lat="48.38531" lon="7.25768">
        <ele>980.4</ele>
        <time>2022-12-25T10:42:38Z</time>
      </trkpt>
      <trkpt lat="48.3852" lon="7.25769">
        <ele>980.2</ele>
        <time>2022-12-25T10:42:40Z</time>
      </trkpt>
      <trkpt lat="48.38514" lon="7.25771">
        <ele>980</ele>
        <time>2022-12-25T10:42:41Z</time>
      </trkpt>
      <trkpt lat="48.38488" lon="7.2577">
        <ele>979.8</ele>
        <time>2022-12-25T10:42:44Z</time>
      </trkpt>
      <trkpt lat="48.38469" lon="7.25768">
        <ele>979.4</ele>
        <time>2022-12-25T10:42:46Z</time>
      </trkpt>
      <trkpt lat="48.38451" lon="7.25766">
        <ele>978.4</ele>
        <time>2022-12-25T10:42:48Z</time>
      </trkpt>
      <trkpt lat="48.38441" lon="7.25767">
        <ele>977.8</ele>
        <time>2022-12-25T10:42:49Z</time>
      </trkpt>
      <trkpt lat="48.38417" lon="7.25772">
        <ele>976.6</ele>
        <time>2022-12-25T10:42:51Z</time>
      </trkpt>
      <trkpt lat="48.38396" lon="7.25775">
        <ele>975</ele>
        <time>2022-12-25T10:42:53Z</time>
      </trkpt>
      <trkpt lat="48.38382" lon="7.2577">
        <ele>973.6</ele>
        <time>2022-12-25T10:42:55Z</time>
      </trkpt>
      <trkpt lat="48.38373" lon="7.25762">
        <ele>971.8</ele>
        <time>2022-12-25T10:42:57Z</time>
      </trkpt>
      <trkpt lat="48.3837" lon="7.2576">
        <ele>971.2</ele>
        <time>2022-12-25T10:42:58Z</time>
      </trkpt>
      <trkpt lat="48.38367" lon="7.25757">
        <ele>970</ele>
        <time>2022-12-25T10:42:59Z</time>
      </trkpt>
      <trkpt lat="48.38364" lon="7.25754">
        <ele>968</ele>
        <time>2022-12-25T10:43:01Z</time>
      </trkpt>
      <trkpt lat="48.38363" lon="7.25753">
        <ele>964</ele>
        <time>2022-12-25T10:44:03Z</time>
      </trkpt>
      <trkpt lat="48.38363" lon="7.25753">
        <ele>964</ele>
        <time>2022-12-25T10:44:04Z</time>
      </trkpt>
      <trkpt lat="48.38361" lon="7.25749">
        <ele>964</ele>
        <time>2022-12-25T10:44:06Z</time>
      </trkpt>
      <trkpt lat="48.38353" lon="7.25732">
        <ele>964</ele>
        <time>2022-12-25T10:44:11Z</time>
      </trkpt>
      <trkpt lat="48.38348" lon="7.25727">
        <ele>963.8</ele>
        <time>2022-12-25T10:44:13Z</time>
      </trkpt>
      <trkpt lat="48.3834" lon="7.25722">
        <ele>963.8</ele>
        <time>2022-12-25T10:44:16Z</time>
      </trkpt>
      <trkpt lat="48.3833" lon="7.25704">
        <ele>964.6</ele>
        <time>2022-12-25T10:44:22Z</time>
      </trkpt>
      <trkpt lat="48.38326" lon="7.25695">
        <ele>965.2</ele>
        <time>2022-12-25T10:44:25Z</time>
      </trkpt>
      <trkpt lat="48.38321" lon="7.25687">
        <ele>965.8</ele>
        <time>2022-12-25T10:44:28Z</time>
      </trkpt>
      <trkpt lat="48.38316" lon="7.25679">
        <ele>966.4</ele>
        <time>2022-12-25T10:44:31Z</time>
      </trkpt>
      <trkpt lat="48.38311" lon="7.25671">
        <ele>967.2</ele>
        <time>2022-12-25T10:44:34Z</time>
      </trkpt>
      <trkpt lat="48.38308" lon="7.25666">
        <ele>967.6</ele>
        <time>2022-12-25T10:44:36Z</time>
      </trkpt>
      <trkpt lat="48.38301" lon="7.25654">
        <ele>968.6</ele>
        <time>2022-12-25T10:44:41Z</time>
      </trkpt>
      <trkpt lat="48.38299" lon="7.25648">
        <ele>969.6</ele>
        <time>2022-12-25T10:44:43Z</time>
      </trkpt>
      <trkpt lat="48.38295" lon="7.25641">
        <ele>970.4</ele>
        <time>2022-12-25T10:44:46Z</time>
      </trkpt>
      <trkpt lat="48.38293" lon="7.25638">
        <ele>970.6</ele>
        <time>2022-12-25T10:44:47Z</time>
      </trkpt>
      <trkpt lat="48.38292" lon="7.25636">
        <ele>970.8</ele>
        <time>2022-12-25T10:44:48Z</time>
      </trkpt>
      <trkpt lat="48.38288" lon="7.25628">
        <ele>971.4</ele>
        <time>2022-12-25T10:44:51Z</time>
      </trkpt>
      <trkpt lat="48.38286" lon="7.25625">
        <ele>971.8</ele>
        <time>2022-12-25T10:44:53Z</time>
      </trkpt>
      <trkpt lat="48.38286" lon="7.25625">
        <ele>973.4</ele>
        <time>2022-12-25T10:45:47Z</time>
      </trkpt>
      <trkpt lat="48.38286" lon="7.25625">
        <ele>973.2</ele>
        <time>2022-12-25T10:45:48Z</time>
      </trkpt>
      <trkpt lat="48.38282" lon="7.25619">
        <ele>973.4</ele>
        <time>2022-12-25T10:45:54Z</time>
      </trkpt>
      <trkpt lat="48.38276" lon="7.2561">
        <ele>973.6</ele>
        <time>2022-12-25T10:45:57Z</time>
      </trkpt>
      <trkpt lat="48.38272" lon="7.25604">
        <ele>973.8</ele>
        <time>2022-12-25T10:45:59Z</time>
      </trkpt>
      <trkpt lat="48.38268" lon="7.25594">
        <ele>974.2</ele>
        <time>2022-12-25T10:46:02Z</time>
      </trkpt>
      <trkpt lat="48.38266" lon="7.25591">
        <ele>974.4</ele>
        <time>2022-12-25T10:46:03Z</time>
      </trkpt>
      <trkpt lat="48.38256" lon="7.25571">
        <ele>975.2</ele>
        <time>2022-12-25T10:46:08Z</time>
      </trkpt>
      <trkpt lat="48.38251" lon="7.25563">
        <ele>975.4</ele>
        <time>2022-12-25T10:46:10Z</time>
      </trkpt>
      <trkpt lat="48.38246" lon="7.25553">
        <ele>975.6</ele>
        <time>2022-12-25T10:46:12Z</time>
      </trkpt>
      <trkpt lat="48.38239" lon="7.25538">
        <ele>976.4</ele>
        <time>2022-12-25T10:46:15Z</time>
      </trkpt>
      <trkpt lat="48.38233" lon="7.25523">
        <ele>976.8</ele>
        <time>2022-12-25T10:46:18Z</time>
      </trkpt>
      <trkpt lat="48.38229" lon="7.25508">
        <ele>977.4</ele>
        <time>2022-12-25T10:46:21Z</time>
      </trkpt>
      <trkpt lat="48.38224" lon="7.25495">
        <ele>977.8</ele>
        <time>2022-12-25T10:46:24Z</time>
      </trkpt>
      <trkpt lat="48.38218" lon="7.25477">
        <ele>978.6</ele>
        <time>2022-12-25T10:46:28Z</time>
      </trkpt>
      <trkpt lat="48.38214" lon="7.25468">
        <ele>978.8</ele>
        <time>2022-12-25T10:46:30Z</time>
      </trkpt>
      <trkpt lat="48.38207" lon="7.2545">
        <ele>979.6</ele>
        <time>2022-12-25T10:46:34Z</time>
      </trkpt>
      <trkpt lat="48.38203" lon="7.25441">
        <ele>980</ele>
        <time>2022-12-25T10:46:36Z</time>
      </trkpt>
      <trkpt lat="48.38194" lon="7.25416">
        <ele>980.6</ele>
        <time>2022-12-25T10:46:41Z</time>
      </trkpt>
      <trkpt lat="48.38193" lon="7.25411">
        <ele>980.8</ele>
        <time>2022-12-25T10:46:42Z</time>
      </trkpt>
      <trkpt lat="48.38184" lon="7.25385">
        <ele>981.4</ele>
        <time>2022-12-25T10:46:47Z</time>
      </trkpt>
      <trkpt lat="48.38181" lon="7.25374">
        <ele>981.8</ele>
        <time>2022-12-25T10:46:49Z</time>
      </trkpt>
      <trkpt lat="48.38173" lon="7.25345">
        <ele>982.2</ele>
        <time>2022-12-25T10:46:54Z</time>
      </trkpt>
      <trkpt lat="48.38164" lon="7.25318">
        <ele>982.6</ele>
        <time>2022-12-25T10:46:59Z</time>
      </trkpt>
      <trkpt lat="48.38157" lon="7.25295">
        <ele>982.8</ele>
        <time>2022-12-25T10:47:03Z</time>
      </trkpt>
      <trkpt lat="48.3815" lon="7.25276">
        <ele>983</ele>
        <time>2022-12-25T10:47:07Z</time>
      </trkpt>
      <trkpt lat="48.3813" lon="7.25246">
        <ele>983.6</ele>
        <time>2022-12-25T10:47:15Z</time>
      </trkpt>
      <trkpt lat="48.38122" lon="7.25234">
        <ele>984</ele>
        <time>2022-12-25T10:47:18Z</time>
      </trkpt>
      <trkpt lat="48.3811" lon="7.25219">
        <ele>984.2</ele>
        <time>2022-12-25T10:47:22Z</time>
      </trkpt>
      <trkpt lat="48.38082" lon="7.25191">
        <ele>984.6</ele>
        <time>2022-12-25T10:47:31Z</time>
      </trkpt>
      <trkpt lat="48.3807" lon="7.25177">
        <ele>985</ele>
        <time>2022-12-25T10:47:35Z</time>
      </trkpt>
      <trkpt lat="48.38046" lon="7.25151">
        <ele>985.6</ele>
        <time>2022-12-25T10:47:43Z</time>
      </trkpt>
      <trkpt lat="48.38035" lon="7.25141">
        <ele>986</ele>
        <time>2022-12-25T10:47:47Z</time>
      </trkpt>
      <trkpt lat="48.38023" lon="7.25128">
        <ele>986.8</ele>
        <time>2022-12-25T10:47:52Z</time>
      </trkpt>
      <trkpt lat="48.38018" lon="7.25124">
        <ele>987</ele>
        <time>2022-12-25T10:47:54Z</time>
      </trkpt>
      <trkpt lat="48.3801" lon="7.25115">
        <ele>988</ele>
        <time>2022-12-25T10:47:58Z</time>
      </trkpt>
      <trkpt lat="48.38006" lon="7.25109">
        <ele>988.6</ele>
        <time>2022-12-25T10:48:00Z</time>
      </trkpt>
      <trkpt lat="48.37998" lon="7.25098">
        <ele>989.4</ele>
        <time>2022-12-25T10:48:04Z</time>
      </trkpt>
      <trkpt lat="48.37996" lon="7.25094">
        <ele>989.6</ele>
        <time>2022-12-25T10:48:05Z</time>
      </trkpt>
      <trkpt lat="48.37987" lon="7.25074">
        <ele>990.8</ele>
        <time>2022-12-25T10:48:11Z</time>
      </trkpt>
      <trkpt lat="48.37979" lon="7.25058">
        <ele>991.8</ele>
        <time>2022-12-25T10:48:16Z</time>
      </trkpt>
      <trkpt lat="48.37974" lon="7.25041">
        <ele>992.8</ele>
        <time>2022-12-25T10:48:21Z</time>
      </trkpt>
      <trkpt lat="48.37973" lon="7.25037">
        <ele>993</ele>
        <time>2022-12-25T10:48:22Z</time>
      </trkpt>
      <trkpt lat="48.37969" lon="7.2502">
        <ele>994</ele>
        <time>2022-12-25T10:48:28Z</time>
      </trkpt>
      <trkpt lat="48.37967" lon="7.25013">
        <ele>994.4</ele>
        <time>2022-12-25T10:48:30Z</time>
      </trkpt>
      <trkpt lat="48.37965" lon="7.25004">
        <ele>995</ele>
        <time>2022-12-25T10:48:33Z</time>
      </trkpt>
      <trkpt lat="48.37963" lon="7.24989">
        <ele>995.8</ele>
        <time>2022-12-25T10:48:38Z</time>
      </trkpt>
      <trkpt lat="48.37962" lon="7.24982">
        <ele>996.2</ele>
        <time>2022-12-25T10:48:40Z</time>
      </trkpt>
      <trkpt lat="48.37962" lon="7.24968">
        <ele>997.2</ele>
        <time>2022-12-25T10:48:45Z</time>
      </trkpt>
      <trkpt lat="48.37963" lon="7.24966">
        <ele>997.2</ele>
        <time>2022-12-25T10:48:46Z</time>
      </trkpt>
      <trkpt lat="48.37964" lon="7.24951">
        <ele>998.4</ele>
        <time>2022-12-25T10:48:51Z</time>
      </trkpt>
      <trkpt lat="48.37965" lon="7.24931">
        <ele>999.4</ele>
        <time>2022-12-25T10:48:56Z</time>
      </trkpt>
      <trkpt lat="48.37966" lon="7.24914">
        <ele>1000</ele>
        <time>2022-12-25T10:49:00Z</time>
      </trkpt>
      <trkpt lat="48.3797" lon="7.24894">
        <ele>1000.6</ele>
        <time>2022-12-25T10:49:05Z</time>
      </trkpt>
      <trkpt lat="48.37972" lon="7.24891">
        <ele>1000.8</ele>
        <time>2022-12-25T10:49:06Z</time>
      </trkpt>
      <trkpt lat="48.37976" lon="7.24881">
        <ele>1001.6</ele>
        <time>2022-12-25T10:49:09Z</time>
      </trkpt>
      <trkpt lat="48.37983" lon="7.24866">
        <ele>1002.6</ele>
        <time>2022-12-25T10:49:14Z</time>
      </trkpt>
      <trkpt lat="48.37985" lon="7.24864">
        <ele>1002.8</ele>
        <time>2022-12-25T10:49:15Z</time>
      </trkpt>
      <trkpt lat="48.37992" lon="7.24845">
        <ele>1004</ele>
        <time>2022-12-25T10:49:21Z</time>
      </trkpt>
      <trkpt lat="48.38004" lon="7.2483">
        <ele>1005.2</ele>
        <time>2022-12-25T10:49:27Z</time>
      </trkpt>
      <trkpt lat="48.38006" lon="7.24828">
        <ele>1005.4</ele>
        <time>2022-12-25T10:49:28Z</time>
      </trkpt>
      <trkpt lat="48.38013" lon="7.24814">
        <ele>1006.2</ele>
        <time>2022-12-25T10:49:33Z</time>
      </trkpt>
      <trkpt lat="48.38018" lon="7.24807">
        <ele>1006.6</ele>
        <time>2022-12-25T10:49:36Z</time>
      </trkpt>
      <trkpt lat="48.38026" lon="7.24797">
        <ele>1007.4</ele>
        <time>2022-12-25T10:49:40Z</time>
      </trkpt>
      <trkpt lat="48.38034" lon="7.24788">
        <ele>1007.8</ele>
        <time>2022-12-25T10:49:44Z</time>
      </trkpt>
      <trkpt lat="48.38041" lon="7.2478">
        <ele>1008.6</ele>
        <time>2022-12-25T10:49:47Z</time>
      </trkpt>
      <trkpt lat="48.38051" lon="7.24768">
        <ele>1009.6</ele>
        <time>2022-12-25T10:49:52Z</time>
      </trkpt>
      <trkpt lat="48.38061" lon="7.24757">
        <ele>1010.4</ele>
        <time>2022-12-25T10:49:57Z</time>
      </trkpt>
      <trkpt lat="48.38066" lon="7.24752">
        <ele>1010.6</ele>
        <time>2022-12-25T10:49:59Z</time>
      </trkpt>
      <trkpt lat="48.38078" lon="7.24738">
        <ele>1011.4</ele>
        <time>2022-12-25T10:50:05Z</time>
      </trkpt>
      <trkpt lat="48.38082" lon="7.24734">
        <ele>1011.8</ele>
        <time>2022-12-25T10:50:07Z</time>
      </trkpt>
      <trkpt lat="48.38095" lon="7.24721">
        <ele>1012.2</ele>
        <time>2022-12-25T10:50:12Z</time>
      </trkpt>
      <trkpt lat="48.38117" lon="7.24694">
        <ele>1012.6</ele>
        <time>2022-12-25T10:50:21Z</time>
      </trkpt>
      <trkpt lat="48.3812" lon="7.2469">
        <ele>1012.8</ele>
        <time>2022-12-25T10:50:22Z</time>
      </trkpt>
      <trkpt lat="48.3814" lon="7.2466">
        <ele>1013</ele>
        <time>2022-12-25T10:50:30Z</time>
      </trkpt>
      <trkpt lat="48.38149" lon="7.24646">
        <ele>1013.4</ele>
        <time>2022-12-25T10:50:35Z</time>
      </trkpt>
      <trkpt lat="48.38151" lon="7.24641">
        <ele>1013.6</ele>
        <time>2022-12-25T10:50:36Z</time>
      </trkpt>
      <trkpt lat="48.38155" lon="7.24636">
        <ele>1013.6</ele>
        <time>2022-12-25T10:50:39Z</time>
      </trkpt>
      <trkpt lat="48.38157" lon="7.24636">
        <ele>1013.6</ele>
        <time>2022-12-25T10:50:40Z</time>
      </trkpt>
      <trkpt lat="48.38162" lon="7.24636">
        <ele>1013.6</ele>
        <time>2022-12-25T10:50:44Z</time>
      </trkpt>
      <trkpt lat="48.38165" lon="7.24638">
        <ele>1014.4</ele>
        <time>2022-12-25T10:50:46Z</time>
      </trkpt>
      <trkpt lat="48.38166" lon="7.24639">
        <ele>1014.6</ele>
        <time>2022-12-25T10:50:47Z</time>
      </trkpt>
      <trkpt lat="48.38168" lon="7.24642">
        <ele>1014.6</ele>
        <time>2022-12-25T10:50:49Z</time>
      </trkpt>
      <trkpt lat="48.3817" lon="7.24645">
        <ele>1015.4</ele>
        <time>2022-12-25T10:50:51Z</time>
      </trkpt>
      <trkpt lat="48.38171" lon="7.24647">
        <ele>1016</ele>
        <time>2022-12-25T10:50:52Z</time>
      </trkpt>
      <trkpt lat="48.38175" lon="7.2465">
        <ele>1016.6</ele>
        <time>2022-12-25T10:50:55Z</time>
      </trkpt>
      <trkpt lat="48.38176" lon="7.24651">
        <ele>1016.8</ele>
        <time>2022-12-25T10:50:56Z</time>
      </trkpt>
      <trkpt lat="48.38177" lon="7.24644">
        <ele>1017.4</ele>
        <time>2022-12-25T10:51:00Z</time>
      </trkpt>
      <trkpt lat="48.38166" lon="7.24639">
        <ele>1017.4</ele>
        <time>2022-12-25T10:51:05Z</time>
      </trkpt>
      <trkpt lat="48.38161" lon="7.24637">
        <ele>1017.2</ele>
        <time>2022-12-25T10:51:07Z</time>
      </trkpt>
      <trkpt lat="48.38156" lon="7.24628">
        <ele>1017</ele>
        <time>2022-12-25T10:51:09Z</time>
      </trkpt>
      <trkpt lat="48.38156" lon="7.24613">
        <ele>1016</ele>
        <time>2022-12-25T10:51:11Z</time>
      </trkpt>
      <trkpt lat="48.38157" lon="7.24606">
        <ele>1015.6</ele>
        <time>2022-12-25T10:51:12Z</time>
      </trkpt>
      <trkpt lat="48.38158" lon="7.24601">
        <ele>1015</ele>
        <time>2022-12-25T10:51:13Z</time>
      </trkpt>
      <trkpt lat="48.38158" lon="7.24587">
        <ele>1014.4</ele>
        <time>2022-12-25T10:51:15Z</time>
      </trkpt>
      <trkpt lat="48.38157" lon="7.24581">
        <ele>1014.4</ele>
        <time>2022-12-25T10:51:16Z</time>
      </trkpt>
      <trkpt lat="48.38153" lon="7.24552">
        <ele>1014.2</ele>
        <time>2022-12-25T10:51:20Z</time>
      </trkpt>
      <trkpt lat="48.38151" lon="7.24539">
        <ele>1014.2</ele>
        <time>2022-12-25T10:51:22Z</time>
      </trkpt>
      <trkpt lat="48.38143" lon="7.24497">
        <ele>1013.8</ele>
        <time>2022-12-25T10:51:27Z</time>
      </trkpt>
      <trkpt lat="48.38141" lon="7.2449">
        <ele>1013.6</ele>
        <time>2022-12-25T10:51:28Z</time>
      </trkpt>
      <trkpt lat="48.38135" lon="7.24465">
        <ele>1013.6</ele>
        <time>2022-12-25T10:51:31Z</time>
      </trkpt>
      <trkpt lat="48.38133" lon="7.24457">
        <ele>1013.4</ele>
        <time>2022-12-25T10:51:32Z</time>
      </trkpt>
      <trkpt lat="48.38125" lon="7.24433">
        <ele>1013</ele>
        <time>2022-12-25T10:51:35Z</time>
      </trkpt>
      <trkpt lat="48.38114" lon="7.24398">
        <ele>1012.2</ele>
        <time>2022-12-25T10:51:39Z</time>
      </trkpt>
      <trkpt lat="48.38109" lon="7.24377">
        <ele>1011.8</ele>
        <time>2022-12-25T10:51:41Z</time>
      </trkpt>
      <trkpt lat="48.38103" lon="7.24355">
        <ele>1011</ele>
        <time>2022-12-25T10:51:43Z</time>
      </trkpt>
      <trkpt lat="48.38098" lon="7.24331">
        <ele>1010.2</ele>
        <time>2022-12-25T10:51:45Z</time>
      </trkpt>
      <trkpt lat="48.38095" lon="7.24317">
        <ele>1010</ele>
        <time>2022-12-25T10:51:46Z</time>
      </trkpt>
      <trkpt lat="48.38093" lon="7.24304">
        <ele>1009.6</ele>
        <time>2022-12-25T10:51:47Z</time>
      </trkpt>
      <trkpt lat="48.38088" lon="7.24259">
        <ele>1008.4</ele>
        <time>2022-12-25T10:51:50Z</time>
      </trkpt>
      <trkpt lat="48.38087" lon="7.24244">
        <ele>1007.8</ele>
        <time>2022-12-25T10:51:51Z</time>
      </trkpt>
      <trkpt lat="48.38087" lon="7.24227">
        <ele>1007.4</ele>
        <time>2022-12-25T10:51:52Z</time>
      </trkpt>
      <trkpt lat="48.38091" lon="7.24193">
        <ele>1005.4</ele>
        <time>2022-12-25T10:51:54Z</time>
      </trkpt>
      <trkpt lat="48.38103" lon="7.24162">
        <ele>1004</ele>
        <time>2022-12-25T10:51:56Z</time>
      </trkpt>
      <trkpt lat="48.3811" lon="7.24151">
        <ele>1003.4</ele>
        <time>2022-12-25T10:51:57Z</time>
      </trkpt>
      <trkpt lat="48.38121" lon="7.24137">
        <ele>1002.6</ele>
        <time>2022-12-25T10:51:58Z</time>
      </trkpt>
      <trkpt lat="48.38143" lon="7.24118">
        <ele>1000.6</ele>
        <time>2022-12-25T10:52:00Z</time>
      </trkpt>
      <trkpt lat="48.38168" lon="7.24103">
        <ele>998.6</ele>
        <time>2022-12-25T10:52:02Z</time>
      </trkpt>
      <trkpt lat="48.38194" lon="7.24086">
        <ele>996.8</ele>
        <time>2022-12-25T10:52:04Z</time>
      </trkpt>
      <trkpt lat="48.38208" lon="7.24077">
        <ele>996</ele>
        <time>2022-12-25T10:52:05Z</time>
      </trkpt>
      <trkpt lat="48.3822" lon="7.24068">
        <ele>994.6</ele>
        <time>2022-12-25T10:52:06Z</time>
      </trkpt>
      <trkpt lat="48.38233" lon="7.24058">
        <ele>993.6</ele>
        <time>2022-12-25T10:52:07Z</time>
      </trkpt>
      <trkpt lat="48.38245" lon="7.24047">
        <ele>992.2</ele>
        <time>2022-12-25T10:52:08Z</time>
      </trkpt>
      <trkpt lat="48.38257" lon="7.24033">
        <ele>991.4</ele>
        <time>2022-12-25T10:52:09Z</time>
      </trkpt>
      <trkpt lat="48.38266" lon="7.24018">
        <ele>990</ele>
        <time>2022-12-25T10:52:10Z</time>
      </trkpt>
      <trkpt lat="48.38281" lon="7.23984">
        <ele>988</ele>
        <time>2022-12-25T10:52:12Z</time>
      </trkpt>
      <trkpt lat="48.38285" lon="7.23965">
        <ele>986.4</ele>
        <time>2022-12-25T10:52:13Z</time>
      </trkpt>
      <trkpt lat="48.38288" lon="7.23944">
        <ele>985.8</ele>
        <time>2022-12-25T10:52:14Z</time>
      </trkpt>
      <trkpt lat="48.3829" lon="7.23923">
        <ele>984.4</ele>
        <time>2022-12-25T10:52:15Z</time>
      </trkpt>
      <trkpt lat="48.38293" lon="7.23882">
        <ele>982.8</ele>
        <time>2022-12-25T10:52:17Z</time>
      </trkpt>
      <trkpt lat="48.38296" lon="7.2384">
        <ele>981.4</ele>
        <time>2022-12-25T10:52:19Z</time>
      </trkpt>
      <trkpt lat="48.383" lon="7.23819">
        <ele>980.8</ele>
        <time>2022-12-25T10:52:20Z</time>
      </trkpt>
      <trkpt lat="48.38305" lon="7.238">
        <ele>979.4</ele>
        <time>2022-12-25T10:52:21Z</time>
      </trkpt>
      <trkpt lat="48.38311" lon="7.23781">
        <ele>978.8</ele>
        <time>2022-12-25T10:52:22Z</time>
      </trkpt>
      <trkpt lat="48.38318" lon="7.23763">
        <ele>977.8</ele>
        <time>2022-12-25T10:52:23Z</time>
      </trkpt>
      <trkpt lat="48.38337" lon="7.2373">
        <ele>975.8</ele>
        <time>2022-12-25T10:52:25Z</time>
      </trkpt>
      <trkpt lat="48.38347" lon="7.23717">
        <ele>975.2</ele>
        <time>2022-12-25T10:52:26Z</time>
      </trkpt>
      <trkpt lat="48.38359" lon="7.23704">
        <ele>973.6</ele>
        <time>2022-12-25T10:52:27Z</time>
      </trkpt>
      <trkpt lat="48.38382" lon="7.23677">
        <ele>970.8</ele>
        <time>2022-12-25T10:52:29Z</time>
      </trkpt>
      <trkpt lat="48.38393" lon="7.23663">
        <ele>969.2</ele>
        <time>2022-12-25T10:52:30Z</time>
      </trkpt>
      <trkpt lat="48.38414" lon="7.23636">
        <ele>967.4</ele>
        <time>2022-12-25T10:52:32Z</time>
      </trkpt>
      <trkpt lat="48.38436" lon="7.23614">
        <ele>965.6</ele>
        <time>2022-12-25T10:52:34Z</time>
      </trkpt>
      <trkpt lat="48.38448" lon="7.23603">
        <ele>965</ele>
        <time>2022-12-25T10:52:35Z</time>
      </trkpt>
      <trkpt lat="48.38461" lon="7.23593">
        <ele>964</ele>
        <time>2022-12-25T10:52:36Z</time>
      </trkpt>
      <trkpt lat="48.38474" lon="7.23587">
        <ele>963.4</ele>
        <time>2022-12-25T10:52:37Z</time>
      </trkpt>
      <trkpt lat="48.38487" lon="7.23582">
        <ele>962.6</ele>
        <time>2022-12-25T10:52:38Z</time>
      </trkpt>
      <trkpt lat="48.38501" lon="7.23578">
        <ele>961.8</ele>
        <time>2022-12-25T10:52:39Z</time>
      </trkpt>
      <trkpt lat="48.38515" lon="7.23573">
        <ele>960.2</ele>
        <time>2022-12-25T10:52:40Z</time>
      </trkpt>
      <trkpt lat="48.38543" lon="7.23563">
        <ele>958.6</ele>
        <time>2022-12-25T10:52:42Z</time>
      </trkpt>
      <trkpt lat="48.38572" lon="7.23553">
        <ele>956.8</ele>
        <time>2022-12-25T10:52:44Z</time>
      </trkpt>
      <trkpt lat="48.38587" lon="7.23549">
        <ele>955.6</ele>
        <time>2022-12-25T10:52:45Z</time>
      </trkpt>
      <trkpt lat="48.38616" lon="7.23538">
        <ele>953.6</ele>
        <time>2022-12-25T10:52:47Z</time>
      </trkpt>
      <trkpt lat="48.38644" lon="7.23527">
        <ele>951.2</ele>
        <time>2022-12-25T10:52:49Z</time>
      </trkpt>
      <trkpt lat="48.38673" lon="7.23516">
        <ele>948.8</ele>
        <time>2022-12-25T10:52:51Z</time>
      </trkpt>
      <trkpt lat="48.38701" lon="7.23505">
        <ele>947.2</ele>
        <time>2022-12-25T10:52:53Z</time>
      </trkpt>
      <trkpt lat="48.3873" lon="7.23494">
        <ele>945</ele>
        <time>2022-12-25T10:52:55Z</time>
      </trkpt>
      <trkpt lat="48.38756" lon="7.23478">
        <ele>942.4</ele>
        <time>2022-12-25T10:52:57Z</time>
      </trkpt>
      <trkpt lat="48.38767" lon="7.23468">
        <ele>941.6</ele>
        <time>2022-12-25T10:52:58Z</time>
      </trkpt>
      <trkpt lat="48.38777" lon="7.23456">
        <ele>940</ele>
        <time>2022-12-25T10:52:59Z</time>
      </trkpt>
      <trkpt lat="48.38785" lon="7.23443">
        <ele>939.4</ele>
        <time>2022-12-25T10:53:00Z</time>
      </trkpt>
      <trkpt lat="48.38793" lon="7.2343">
        <ele>938.6</ele>
        <time>2022-12-25T10:53:01Z</time>
      </trkpt>
      <trkpt lat="48.3882" lon="7.23377">
        <ele>937.6</ele>
        <time>2022-12-25T10:53:05Z</time>
      </trkpt>
      <trkpt lat="48.38827" lon="7.23363">
        <ele>936.8</ele>
        <time>2022-12-25T10:53:06Z</time>
      </trkpt>
      <trkpt lat="48.38842" lon="7.23338">
        <ele>936.2</ele>
        <time>2022-12-25T10:53:08Z</time>
      </trkpt>
      <trkpt lat="48.38857" lon="7.23311">
        <ele>935</ele>
        <time>2022-12-25T10:53:10Z</time>
      </trkpt>
      <trkpt lat="48.38872" lon="7.23283">
        <ele>934</ele>
        <time>2022-12-25T10:53:12Z</time>
      </trkpt>
      <trkpt lat="48.38893" lon="7.23241">
        <ele>932.6</ele>
        <time>2022-12-25T10:53:15Z</time>
      </trkpt>
      <trkpt lat="48.38899" lon="7.23226">
        <ele>931.6</ele>
        <time>2022-12-25T10:53:16Z</time>
      </trkpt>
      <trkpt lat="48.38905" lon="7.23211">
        <ele>931.2</ele>
        <time>2022-12-25T10:53:17Z</time>
      </trkpt>
      <trkpt lat="48.38909" lon="7.23196">
        <ele>930.2</ele>
        <time>2022-12-25T10:53:18Z</time>
      </trkpt>
      <trkpt lat="48.38917" lon="7.23168">
        <ele>929</ele>
        <time>2022-12-25T10:53:20Z</time>
      </trkpt>
      <trkpt lat="48.3892" lon="7.23156">
        <ele>928.2</ele>
        <time>2022-12-25T10:53:21Z</time>
      </trkpt>
      <trkpt lat="48.38924" lon="7.23134">
        <ele>926.8</ele>
        <time>2022-12-25T10:53:23Z</time>
      </trkpt>
      <trkpt lat="48.38927" lon="7.23119">
        <ele>925.2</ele>
        <time>2022-12-25T10:53:25Z</time>
      </trkpt>
      <trkpt lat="48.38929" lon="7.2311">
        <ele>925</ele>
        <time>2022-12-25T10:53:26Z</time>
      </trkpt>
      <trkpt lat="48.3893" lon="7.23097">
        <ele>924.2</ele>
        <time>2022-12-25T10:53:28Z</time>
      </trkpt>
      <trkpt lat="48.38931" lon="7.23092">
        <ele>923.4</ele>
        <time>2022-12-25T10:53:29Z</time>
      </trkpt>
      <trkpt lat="48.38933" lon="7.23088">
        <ele>922.4</ele>
        <time>2022-12-25T10:53:31Z</time>
      </trkpt>
      <trkpt lat="48.38934" lon="7.23088">
        <ele>922</ele>
        <time>2022-12-25T10:53:32Z</time>
      </trkpt>
      <trkpt lat="48.38933" lon="7.23087">
        <ele>921.4</ele>
        <time>2022-12-25T10:53:34Z</time>
      </trkpt>
      <trkpt lat="48.38932" lon="7.23084">
        <ele>920.8</ele>
        <time>2022-12-25T10:53:36Z</time>
      </trkpt>
      <trkpt lat="48.38932" lon="7.23082">
        <ele>920.8</ele>
        <time>2022-12-25T10:53:37Z</time>
      </trkpt>
      <trkpt lat="48.38934" lon="7.23063">
        <ele>920.4</ele>
        <time>2022-12-25T10:53:42Z</time>
      </trkpt>
      <trkpt lat="48.38935" lon="7.23058">
        <ele>920.4</ele>
        <time>2022-12-25T10:53:43Z</time>
      </trkpt>
      <trkpt lat="48.38936" lon="7.23051">
        <ele>920.2</ele>
        <time>2022-12-25T10:53:44Z</time>
      </trkpt>
      <trkpt lat="48.38936" lon="7.2304">
        <ele>920.2</ele>
        <time>2022-12-25T10:53:46Z</time>
      </trkpt>
      <trkpt lat="48.38936" lon="7.23017">
        <ele>919.8</ele>
        <time>2022-12-25T10:53:50Z</time>
      </trkpt>
      <trkpt lat="48.38936" lon="7.23009">
        <ele>919.6</ele>
        <time>2022-12-25T10:53:51Z</time>
      </trkpt>
      <trkpt lat="48.38937" lon="7.23001">
        <ele>919.4</ele>
        <time>2022-12-25T10:53:52Z</time>
      </trkpt>
      <trkpt lat="48.38937" lon="7.22987">
        <ele>919.2</ele>
        <time>2022-12-25T10:53:54Z</time>
      </trkpt>
      <trkpt lat="48.38934" lon="7.22978">
        <ele>919</ele>
        <time>2022-12-25T10:53:55Z</time>
      </trkpt>
      <trkpt lat="48.38932" lon="7.22967">
        <ele>918.8</ele>
        <time>2022-12-25T10:53:56Z</time>
      </trkpt>
      <trkpt lat="48.38927" lon="7.22948">
        <ele>918.8</ele>
        <time>2022-12-25T10:53:58Z</time>
      </trkpt>
      <trkpt lat="48.38924" lon="7.22938">
        <ele>918.6</ele>
        <time>2022-12-25T10:53:59Z</time>
      </trkpt>
      <trkpt lat="48.38919" lon="7.22928">
        <ele>918.6</ele>
        <time>2022-12-25T10:54:00Z</time>
      </trkpt>
      <trkpt lat="48.3891" lon="7.22913">
        <ele>918.4</ele>
        <time>2022-12-25T10:54:02Z</time>
      </trkpt>
      <trkpt lat="48.38904" lon="7.22907">
        <ele>918.2</ele>
        <time>2022-12-25T10:54:03Z</time>
      </trkpt>
      <trkpt lat="48.38893" lon="7.22898">
        <ele>917.8</ele>
        <time>2022-12-25T10:54:05Z</time>
      </trkpt>
      <trkpt lat="48.38883" lon="7.22892">
        <ele>917.6</ele>
        <time>2022-12-25T10:54:07Z</time>
      </trkpt>
      <trkpt lat="48.38877" lon="7.22891">
        <ele>917.4</ele>
        <time>2022-12-25T10:54:08Z</time>
      </trkpt>
      <trkpt lat="48.38865" lon="7.2289">
        <ele>917.2</ele>
        <time>2022-12-25T10:54:10Z</time>
      </trkpt>
      <trkpt lat="48.38858" lon="7.22891">
        <ele>917</ele>
        <time>2022-12-25T10:54:11Z</time>
      </trkpt>
      <trkpt lat="48.38851" lon="7.22893">
        <ele>916.8</ele>
        <time>2022-12-25T10:54:12Z</time>
      </trkpt>
      <trkpt lat="48.38829" lon="7.22907">
        <ele>916.2</ele>
        <time>2022-12-25T10:54:15Z</time>
      </trkpt>
      <trkpt lat="48.38822" lon="7.22913">
        <ele>915.8</ele>
        <time>2022-12-25T10:54:16Z</time>
      </trkpt>
      <trkpt lat="48.38807" lon="7.22931">
        <ele>915</ele>
        <time>2022-12-25T10:54:18Z</time>
      </trkpt>
      <trkpt lat="48.38799" lon="7.22941">
        <ele>914.6</ele>
        <time>2022-12-25T10:54:19Z</time>
      </trkpt>
      <trkpt lat="48.38783" lon="7.22963">
        <ele>913.4</ele>
        <time>2022-12-25T10:54:21Z</time>
      </trkpt>
      <trkpt lat="48.38773" lon="7.22973">
        <ele>912.4</ele>
        <time>2022-12-25T10:54:22Z</time>
      </trkpt>
      <trkpt lat="48.38763" lon="7.22982">
        <ele>912</ele>
        <time>2022-12-25T10:54:23Z</time>
      </trkpt>
      <trkpt lat="48.38741" lon="7.22996">
        <ele>911.2</ele>
        <time>2022-12-25T10:54:25Z</time>
      </trkpt>
      <trkpt lat="48.38729" lon="7.23">
        <ele>910.2</ele>
        <time>2022-12-25T10:54:26Z</time>
      </trkpt>
      <trkpt lat="48.38707" lon="7.23007">
        <ele>908.2</ele>
        <time>2022-12-25T10:54:28Z</time>
      </trkpt>
      <trkpt lat="48.38678" lon="7.23015">
        <ele>906.6</ele>
        <time>2022-12-25T10:54:30Z</time>
      </trkpt>
      <trkpt lat="48.38665" lon="7.23018">
        <ele>905.6</ele>
        <time>2022-12-25T10:54:31Z</time>
      </trkpt>
      <trkpt lat="48.38652" lon="7.23021">
        <ele>904.8</ele>
        <time>2022-12-25T10:54:32Z</time>
      </trkpt>
      <trkpt lat="48.38639" lon="7.23024">
        <ele>903.2</ele>
        <time>2022-12-25T10:54:33Z</time>
      </trkpt>
      <trkpt lat="48.38614" lon="7.23034">
        <ele>900.6</ele>
        <time>2022-12-25T10:54:35Z</time>
      </trkpt>
      <trkpt lat="48.38602" lon="7.23042">
        <ele>899.8</ele>
        <time>2022-12-25T10:54:36Z</time>
      </trkpt>
      <trkpt lat="48.38591" lon="7.23051">
        <ele>898.4</ele>
        <time>2022-12-25T10:54:37Z</time>
      </trkpt>
      <trkpt lat="48.38581" lon="7.23063">
        <ele>897.2</ele>
        <time>2022-12-25T10:54:38Z</time>
      </trkpt>
      <trkpt lat="48.38571" lon="7.23077">
        <ele>895.8</ele>
        <time>2022-12-25T10:54:39Z</time>
      </trkpt>
      <trkpt lat="48.38558" lon="7.23108">
        <ele>893.6</ele>
        <time>2022-12-25T10:54:41Z</time>
      </trkpt>
      <trkpt lat="48.38553" lon="7.23126">
        <ele>893</ele>
        <time>2022-12-25T10:54:42Z</time>
      </trkpt>
      <trkpt lat="48.3855" lon="7.23144">
        <ele>891.2</ele>
        <time>2022-12-25T10:54:43Z</time>
      </trkpt>
      <trkpt lat="48.3855" lon="7.23183">
        <ele>889</ele>
        <time>2022-12-25T10:54:45Z</time>
      </trkpt>
      <trkpt lat="48.38552" lon="7.2322">
        <ele>887.4</ele>
        <time>2022-12-25T10:54:47Z</time>
      </trkpt>
      <trkpt lat="48.38552" lon="7.23236">
        <ele>886.4</ele>
        <time>2022-12-25T10:54:48Z</time>
      </trkpt>
      <trkpt lat="48.38549" lon="7.23252">
        <ele>885.2</ele>
        <time>2022-12-25T10:54:49Z</time>
      </trkpt>
      <trkpt lat="48.38545" lon="7.23266">
        <ele>884</ele>
        <time>2022-12-25T10:54:50Z</time>
      </trkpt>
      <trkpt lat="48.38538" lon="7.23278">
        <ele>883</ele>
        <time>2022-12-25T10:54:51Z</time>
      </trkpt>
      <trkpt lat="48.38529" lon="7.23287">
        <ele>881.4</ele>
        <time>2022-12-25T10:54:52Z</time>
      </trkpt>
      <trkpt lat="48.38505" lon="7.23295">
        <ele>879.6</ele>
        <time>2022-12-25T10:54:54Z</time>
      </trkpt>
      <trkpt lat="48.38485" lon="7.23297">
        <ele>877.8</ele>
        <time>2022-12-25T10:54:56Z</time>
      </trkpt>
      <trkpt lat="48.38469" lon="7.23299">
        <ele>876.4</ele>
        <time>2022-12-25T10:54:58Z</time>
      </trkpt>
      <trkpt lat="48.38459" lon="7.23299">
        <ele>875</ele>
        <time>2022-12-25T10:55:00Z</time>
      </trkpt>
      <trkpt lat="48.38455" lon="7.23297">
        <ele>874.4</ele>
        <time>2022-12-25T10:55:01Z</time>
      </trkpt>
      <trkpt lat="48.38454" lon="7.23295">
        <ele>873</ele>
        <time>2022-12-25T10:55:02Z</time>
      </trkpt>
      <trkpt lat="48.38454" lon="7.23293">
        <ele>872.2</ele>
        <time>2022-12-25T10:55:03Z</time>
      </trkpt>
      <trkpt lat="48.38455" lon="7.2329">
        <ele>871</ele>
        <time>2022-12-25T10:55:04Z</time>
      </trkpt>
      <trkpt lat="48.3846" lon="7.23287">
        <ele>869.2</ele>
        <time>2022-12-25T10:55:06Z</time>
      </trkpt>
      <trkpt lat="48.38462" lon="7.23284">
        <ele>868.4</ele>
        <time>2022-12-25T10:55:07Z</time>
      </trkpt>
      <trkpt lat="48.3847" lon="7.23276">
        <ele>867.8</ele>
        <time>2022-12-25T10:55:09Z</time>
      </trkpt>
      <trkpt lat="48.38474" lon="7.23271">
        <ele>867.6</ele>
        <time>2022-12-25T10:55:10Z</time>
      </trkpt>
      <trkpt lat="48.38479" lon="7.23268">
        <ele>867.4</ele>
        <time>2022-12-25T10:55:11Z</time>
      </trkpt>
      <trkpt lat="48.38493" lon="7.23259">
        <ele>867</ele>
        <time>2022-12-25T10:55:13Z</time>
      </trkpt>
      <trkpt lat="48.385" lon="7.23251">
        <ele>866.8</ele>
        <time>2022-12-25T10:55:14Z</time>
      </trkpt>
      <trkpt lat="48.38507" lon="7.23242">
        <ele>866.2</ele>
        <time>2022-12-25T10:55:15Z</time>
      </trkpt>
      <trkpt lat="48.38512" lon="7.2323">
        <ele>865.6</ele>
        <time>2022-12-25T10:55:16Z</time>
      </trkpt>
      <trkpt lat="48.38514" lon="7.23218">
        <ele>864.8</ele>
        <time>2022-12-25T10:55:17Z</time>
      </trkpt>
      <trkpt lat="48.38509" lon="7.23192">
        <ele>863</ele>
        <time>2022-12-25T10:55:19Z</time>
      </trkpt>
      <trkpt lat="48.38502" lon="7.23178">
        <ele>862.2</ele>
        <time>2022-12-25T10:55:20Z</time>
      </trkpt>
      <trkpt lat="48.38497" lon="7.23164">
        <ele>861.2</ele>
        <time>2022-12-25T10:55:21Z</time>
      </trkpt>
      <trkpt lat="48.38486" lon="7.2314">
        <ele>860.2</ele>
        <time>2022-12-25T10:55:23Z</time>
      </trkpt>
      <trkpt lat="48.38482" lon="7.23128">
        <ele>859.4</ele>
        <time>2022-12-25T10:55:24Z</time>
      </trkpt>
      <trkpt lat="48.38478" lon="7.23116">
        <ele>858.8</ele>
        <time>2022-12-25T10:55:25Z</time>
      </trkpt>
      <trkpt lat="48.3847" lon="7.23092">
        <ele>857.8</ele>
        <time>2022-12-25T10:55:27Z</time>
      </trkpt>
      <trkpt lat="48.38468" lon="7.2308">
        <ele>857</ele>
        <time>2022-12-25T10:55:28Z</time>
      </trkpt>
      <trkpt lat="48.38466" lon="7.23068">
        <ele>856.6</ele>
        <time>2022-12-25T10:55:29Z</time>
      </trkpt>
      <trkpt lat="48.38466" lon="7.23053">
        <ele>855.8</ele>
        <time>2022-12-25T10:55:30Z</time>
      </trkpt>
      <trkpt lat="48.38467" lon="7.23042">
        <ele>855.2</ele>
        <time>2022-12-25T10:55:31Z</time>
      </trkpt>
      <trkpt lat="48.3847" lon="7.23028">
        <ele>854.4</ele>
        <time>2022-12-25T10:55:32Z</time>
      </trkpt>
      <trkpt lat="48.38473" lon="7.23014">
        <ele>853.6</ele>
        <time>2022-12-25T10:55:33Z</time>
      </trkpt>
      <trkpt lat="48.38479" lon="7.22988">
        <ele>852.2</ele>
        <time>2022-12-25T10:55:35Z</time>
      </trkpt>
      <trkpt lat="48.38484" lon="7.22975">
        <ele>851.2</ele>
        <time>2022-12-25T10:55:36Z</time>
      </trkpt>
      <trkpt lat="48.38492" lon="7.2295">
        <ele>849.6</ele>
        <time>2022-12-25T10:55:38Z</time>
      </trkpt>
      <trkpt lat="48.38495" lon="7.22938">
        <ele>849.2</ele>
        <time>2022-12-25T10:55:39Z</time>
      </trkpt>
      <trkpt lat="48.38496" lon="7.22927">
        <ele>848</ele>
        <time>2022-12-25T10:55:40Z</time>
      </trkpt>
      <trkpt lat="48.38496" lon="7.22915">
        <ele>847.2</ele>
        <time>2022-12-25T10:55:41Z</time>
      </trkpt>
      <trkpt lat="48.38494" lon="7.22903">
        <ele>846.6</ele>
        <time>2022-12-25T10:55:42Z</time>
      </trkpt>
      <trkpt lat="48.38491" lon="7.22891">
        <ele>845.4</ele>
        <time>2022-12-25T10:55:43Z</time>
      </trkpt>
      <trkpt lat="48.3848" lon="7.22877">
        <ele>844.2</ele>
        <time>2022-12-25T10:55:45Z</time>
      </trkpt>
      <trkpt lat="48.38473" lon="7.22869">
        <ele>843.8</ele>
        <time>2022-12-25T10:55:46Z</time>
      </trkpt>
      <trkpt lat="48.38465" lon="7.2286">
        <ele>842.6</ele>
        <time>2022-12-25T10:55:47Z</time>
      </trkpt>
      <trkpt lat="48.38452" lon="7.22841">
        <ele>841.2</ele>
        <time>2022-12-25T10:55:49Z</time>
      </trkpt>
      <trkpt lat="48.38448" lon="7.22832">
        <ele>840.6</ele>
        <time>2022-12-25T10:55:50Z</time>
      </trkpt>
      <trkpt lat="48.38443" lon="7.2282">
        <ele>840</ele>
        <time>2022-12-25T10:55:51Z</time>
      </trkpt>
      <trkpt lat="48.38437" lon="7.22793">
        <ele>839</ele>
        <time>2022-12-25T10:55:53Z</time>
      </trkpt>
      <trkpt lat="48.38433" lon="7.22776">
        <ele>838.2</ele>
        <time>2022-12-25T10:55:54Z</time>
      </trkpt>
      <trkpt lat="48.38432" lon="7.22765">
        <ele>837.2</ele>
        <time>2022-12-25T10:55:55Z</time>
      </trkpt>
      <trkpt lat="48.38426" lon="7.22734">
        <ele>835.8</ele>
        <time>2022-12-25T10:55:57Z</time>
      </trkpt>
      <trkpt lat="48.38423" lon="7.22721">
        <ele>834.8</ele>
        <time>2022-12-25T10:55:58Z</time>
      </trkpt>
      <trkpt lat="48.38422" lon="7.22711">
        <ele>834.4</ele>
        <time>2022-12-25T10:55:59Z</time>
      </trkpt>
      <trkpt lat="48.38419" lon="7.22682">
        <ele>832.6</ele>
        <time>2022-12-25T10:56:01Z</time>
      </trkpt>
      <trkpt lat="48.38418" lon="7.2267">
        <ele>831.4</ele>
        <time>2022-12-25T10:56:02Z</time>
      </trkpt>
      <trkpt lat="48.38417" lon="7.22658">
        <ele>830.8</ele>
        <time>2022-12-25T10:56:03Z</time>
      </trkpt>
      <trkpt lat="48.38417" lon="7.22648">
        <ele>829.6</ele>
        <time>2022-12-25T10:56:04Z</time>
      </trkpt>
      <trkpt lat="48.38417" lon="7.22636">
        <ele>828.6</ele>
        <time>2022-12-25T10:56:05Z</time>
      </trkpt>
      <trkpt lat="48.38418" lon="7.22624">
        <ele>827.4</ele>
        <time>2022-12-25T10:56:06Z</time>
      </trkpt>
      <trkpt lat="48.3842" lon="7.22603">
        <ele>826.2</ele>
        <time>2022-12-25T10:56:08Z</time>
      </trkpt>
      <trkpt lat="48.38422" lon="7.22591">
        <ele>825.8</ele>
        <time>2022-12-25T10:56:09Z</time>
      </trkpt>
      <trkpt lat="48.38427" lon="7.22565">
        <ele>824.6</ele>
        <time>2022-12-25T10:56:11Z</time>
      </trkpt>
      <trkpt lat="48.3843" lon="7.22551">
        <ele>823.4</ele>
        <time>2022-12-25T10:56:12Z</time>
      </trkpt>
      <trkpt lat="48.38432" lon="7.22531">
        <ele>821.8</ele>
        <time>2022-12-25T10:56:14Z</time>
      </trkpt>
      <trkpt lat="48.38434" lon="7.22519">
        <ele>820.6</ele>
        <time>2022-12-25T10:56:15Z</time>
      </trkpt>
      <trkpt lat="48.38439" lon="7.22482">
        <ele>819.2</ele>
        <time>2022-12-25T10:56:18Z</time>
      </trkpt>
      <trkpt lat="48.38442" lon="7.22469">
        <ele>818.4</ele>
        <time>2022-12-25T10:56:19Z</time>
      </trkpt>
      <trkpt lat="48.38448" lon="7.22445">
        <ele>817.4</ele>
        <time>2022-12-25T10:56:21Z</time>
      </trkpt>
      <trkpt lat="48.38455" lon="7.2242">
        <ele>816.4</ele>
        <time>2022-12-25T10:56:23Z</time>
      </trkpt>
      <trkpt lat="48.38462" lon="7.22391">
        <ele>814.6</ele>
        <time>2022-12-25T10:56:25Z</time>
      </trkpt>
      <trkpt lat="48.38468" lon="7.22369">
        <ele>813.6</ele>
        <time>2022-12-25T10:56:27Z</time>
      </trkpt>
      <trkpt lat="48.38478" lon="7.22324">
        <ele>812.4</ele>
        <time>2022-12-25T10:56:30Z</time>
      </trkpt>
      <trkpt lat="48.38479" lon="7.22309">
        <ele>812</ele>
        <time>2022-12-25T10:56:31Z</time>
      </trkpt>
      <trkpt lat="48.38486" lon="7.22281">
        <ele>811.2</ele>
        <time>2022-12-25T10:56:33Z</time>
      </trkpt>
      <trkpt lat="48.38493" lon="7.22253">
        <ele>810.4</ele>
        <time>2022-12-25T10:56:35Z</time>
      </trkpt>
      <trkpt lat="48.38494" lon="7.22241">
        <ele>809.4</ele>
        <time>2022-12-25T10:56:36Z</time>
      </trkpt>
      <trkpt lat="48.38494" lon="7.22228">
        <ele>809</ele>
        <time>2022-12-25T10:56:37Z</time>
      </trkpt>
      <trkpt lat="48.38496" lon="7.22215">
        <ele>808.4</ele>
        <time>2022-12-25T10:56:38Z</time>
      </trkpt>
      <trkpt lat="48.38496" lon="7.222">
        <ele>808.2</ele>
        <time>2022-12-25T10:56:39Z</time>
      </trkpt>
      <trkpt lat="48.38497" lon="7.22187">
        <ele>807.2</ele>
        <time>2022-12-25T10:56:40Z</time>
      </trkpt>
      <trkpt lat="48.38501" lon="7.22164">
        <ele>805.6</ele>
        <time>2022-12-25T10:56:42Z</time>
      </trkpt>
      <trkpt lat="48.38503" lon="7.22135">
        <ele>804.6</ele>
        <time>2022-12-25T10:56:44Z</time>
      </trkpt>
      <trkpt lat="48.38499" lon="7.22104">
        <ele>803.8</ele>
        <time>2022-12-25T10:56:46Z</time>
      </trkpt>
      <trkpt lat="48.38496" lon="7.22077">
        <ele>803.2</ele>
        <time>2022-12-25T10:56:48Z</time>
      </trkpt>
      <trkpt lat="48.38494" lon="7.22046">
        <ele>802</ele>
        <time>2022-12-25T10:56:50Z</time>
      </trkpt>
      <trkpt lat="48.38492" lon="7.22017">
        <ele>800.8</ele>
        <time>2022-12-25T10:56:52Z</time>
      </trkpt>
      <trkpt lat="48.38491" lon="7.21993">
        <ele>799.8</ele>
        <time>2022-12-25T10:56:54Z</time>
      </trkpt>
      <trkpt lat="48.38492" lon="7.21979">
        <ele>798.4</ele>
        <time>2022-12-25T10:56:55Z</time>
      </trkpt>
      <trkpt lat="48.38493" lon="7.2195">
        <ele>797.4</ele>
        <time>2022-12-25T10:56:57Z</time>
      </trkpt>
      <trkpt lat="48.38494" lon="7.21936">
        <ele>797.2</ele>
        <time>2022-12-25T10:56:58Z</time>
      </trkpt>
      <trkpt lat="48.38496" lon="7.21907">
        <ele>796</ele>
        <time>2022-12-25T10:57:00Z</time>
      </trkpt>
      <trkpt lat="48.38498" lon="7.21893">
        <ele>795</ele>
        <time>2022-12-25T10:57:01Z</time>
      </trkpt>
      <trkpt lat="48.38504" lon="7.21866">
        <ele>793.8</ele>
        <time>2022-12-25T10:57:03Z</time>
      </trkpt>
      <trkpt lat="48.38507" lon="7.21854">
        <ele>793.6</ele>
        <time>2022-12-25T10:57:04Z</time>
      </trkpt>
      <trkpt lat="48.38512" lon="7.21842">
        <ele>792.8</ele>
        <time>2022-12-25T10:57:05Z</time>
      </trkpt>
      <trkpt lat="48.38517" lon="7.21831">
        <ele>791.8</ele>
        <time>2022-12-25T10:57:06Z</time>
      </trkpt>
      <trkpt lat="48.38522" lon="7.2182">
        <ele>791.4</ele>
        <time>2022-12-25T10:57:07Z</time>
      </trkpt>
      <trkpt lat="48.38524" lon="7.21796">
        <ele>790.2</ele>
        <time>2022-12-25T10:57:09Z</time>
      </trkpt>
      <trkpt lat="48.38525" lon="7.21784">
        <ele>789</ele>
        <time>2022-12-25T10:57:10Z</time>
      </trkpt>
      <trkpt lat="48.38528" lon="7.2176">
        <ele>787.2</ele>
        <time>2022-12-25T10:57:12Z</time>
      </trkpt>
      <trkpt lat="48.38529" lon="7.21742">
        <ele>785.4</ele>
        <time>2022-12-25T10:57:14Z</time>
      </trkpt>
      <trkpt lat="48.38531" lon="7.21732">
        <ele>785.2</ele>
        <time>2022-12-25T10:57:15Z</time>
      </trkpt>
      <trkpt lat="48.38533" lon="7.21722">
        <ele>784</ele>
        <time>2022-12-25T10:57:16Z</time>
      </trkpt>
      <trkpt lat="48.38537" lon="7.21711">
        <ele>783.8</ele>
        <time>2022-12-25T10:57:17Z</time>
      </trkpt>
      <trkpt lat="48.38539" lon="7.217">
        <ele>782.6</ele>
        <time>2022-12-25T10:57:18Z</time>
      </trkpt>
      <trkpt lat="48.38543" lon="7.21681">
        <ele>781.6</ele>
        <time>2022-12-25T10:57:20Z</time>
      </trkpt>
      <trkpt lat="48.38545" lon="7.21672">
        <ele>781.2</ele>
        <time>2022-12-25T10:57:21Z</time>
      </trkpt>
      <trkpt lat="48.38548" lon="7.21662">
        <ele>780.2</ele>
        <time>2022-12-25T10:57:22Z</time>
      </trkpt>
      <trkpt lat="48.38553" lon="7.21639">
        <ele>779</ele>
        <time>2022-12-25T10:57:24Z</time>
      </trkpt>
      <trkpt lat="48.38555" lon="7.21625">
        <ele>778</ele>
        <time>2022-12-25T10:57:25Z</time>
      </trkpt>
      <trkpt lat="48.38561" lon="7.21584">
        <ele>776.6</ele>
        <time>2022-12-25T10:57:28Z</time>
      </trkpt>
      <trkpt lat="48.38564" lon="7.21574">
        <ele>775.8</ele>
        <time>2022-12-25T10:57:29Z</time>
      </trkpt>
      <trkpt lat="48.38568" lon="7.21566">
        <ele>775.4</ele>
        <time>2022-12-25T10:57:30Z</time>
      </trkpt>
      <trkpt lat="48.38572" lon="7.21561">
        <ele>774.6</ele>
        <time>2022-12-25T10:57:31Z</time>
      </trkpt>
      <trkpt lat="48.38576" lon="7.21557">
        <ele>774</ele>
        <time>2022-12-25T10:57:32Z</time>
      </trkpt>
      <trkpt lat="48.38582" lon="7.21556">
        <ele>772.8</ele>
        <time>2022-12-25T10:57:34Z</time>
      </trkpt>
      <trkpt lat="48.38584" lon="7.21556">
        <ele>772.4</ele>
        <time>2022-12-25T10:57:35Z</time>
      </trkpt>
      <trkpt lat="48.38587" lon="7.21555">
        <ele>772.2</ele>
        <time>2022-12-25T10:57:37Z</time>
      </trkpt>
      <trkpt lat="48.38588" lon="7.21553">
        <ele>772</ele>
        <time>2022-12-25T10:57:39Z</time>
      </trkpt>
      <trkpt lat="48.38589" lon="7.21549">
        <ele>772</ele>
        <time>2022-12-25T10:57:44Z</time>
      </trkpt>
      <trkpt lat="48.38589" lon="7.2155">
        <ele>772</ele>
        <time>2022-12-25T10:57:48Z</time>
      </trkpt>
      <trkpt lat="48.3859" lon="7.21553">
        <ele>772</ele>
        <time>2022-12-25T10:57:51Z</time>
      </trkpt>
      <trkpt lat="48.38593" lon="7.21556">
        <ele>772.2</ele>
        <time>2022-12-25T10:57:53Z</time>
      </trkpt>
      <trkpt lat="48.38597" lon="7.21556">
        <ele>772.4</ele>
        <time>2022-12-25T10:57:57Z</time>
      </trkpt>
      <trkpt lat="48.38602" lon="7.21554">
        <ele>773.4</ele>
        <time>2022-12-25T10:58:01Z</time>
      </trkpt>
      <trkpt lat="48.38608" lon="7.21554">
        <ele>774.2</ele>
        <time>2022-12-25T10:58:05Z</time>
      </trkpt>
      <trkpt lat="48.38612" lon="7.21555">
        <ele>774.8</ele>
        <time>2022-12-25T10:58:07Z</time>
      </trkpt>
      <trkpt lat="48.38615" lon="7.21555">
        <ele>775.4</ele>
        <time>2022-12-25T10:58:09Z</time>
      </trkpt>
      <trkpt lat="48.38622" lon="7.21555">
        <ele>776.6</ele>
        <time>2022-12-25T10:58:13Z</time>
      </trkpt>
      <trkpt lat="48.38626" lon="7.21556">
        <ele>777</ele>
        <time>2022-12-25T10:58:15Z</time>
      </trkpt>
      <trkpt lat="48.38633" lon="7.21557">
        <ele>777.8</ele>
        <time>2022-12-25T10:58:18Z</time>
      </trkpt>
      <trkpt lat="48.38638" lon="7.21557">
        <ele>778.2</ele>
        <time>2022-12-25T10:58:21Z</time>
      </trkpt>
      <trkpt lat="48.38643" lon="7.21557">
        <ele>778.4</ele>
        <time>2022-12-25T10:58:23Z</time>
      </trkpt>
      <trkpt lat="48.38645" lon="7.21556">
        <ele>778.8</ele>
        <time>2022-12-25T10:58:24Z</time>
      </trkpt>
      <trkpt lat="48.38661" lon="7.21553">
        <ele>779.8</ele>
        <time>2022-12-25T10:58:31Z</time>
      </trkpt>
      <trkpt lat="48.38663" lon="7.21553">
        <ele>780</ele>
        <time>2022-12-25T10:58:32Z</time>
      </trkpt>
      <trkpt lat="48.38668" lon="7.21552">
        <ele>780.2</ele>
        <time>2022-12-25T10:58:34Z</time>
      </trkpt>
      <trkpt lat="48.38676" lon="7.21546">
        <ele>780.4</ele>
        <time>2022-12-25T10:58:38Z</time>
      </trkpt>
      <trkpt lat="48.38688" lon="7.21537">
        <ele>780.6</ele>
        <time>2022-12-25T10:58:42Z</time>
      </trkpt>
      <trkpt lat="48.38696" lon="7.21531">
        <ele>780.4</ele>
        <time>2022-12-25T10:58:44Z</time>
      </trkpt>
      <trkpt lat="48.38723" lon="7.21506">
        <ele>779.8</ele>
        <time>2022-12-25T10:58:52Z</time>
      </trkpt>
      <trkpt lat="48.38731" lon="7.215">
        <ele>779.6</ele>
        <time>2022-12-25T10:58:54Z</time>
      </trkpt>
      <trkpt lat="48.38739" lon="7.21494">
        <ele>779.2</ele>
        <time>2022-12-25T10:58:56Z</time>
      </trkpt>
      <trkpt lat="48.38749" lon="7.21487">
        <ele>779</ele>
        <time>2022-12-25T10:58:59Z</time>
      </trkpt>
      <trkpt lat="48.38758" lon="7.21481">
        <ele>779.4</ele>
        <time>2022-12-25T10:59:03Z</time>
      </trkpt>
      <trkpt lat="48.38768" lon="7.21477">
        <ele>779.6</ele>
        <time>2022-12-25T10:59:07Z</time>
      </trkpt>
      <trkpt lat="48.38775" lon="7.21472">
        <ele>779.8</ele>
        <time>2022-12-25T10:59:10Z</time>
      </trkpt>
      <trkpt lat="48.38783" lon="7.21466">
        <ele>780</ele>
        <time>2022-12-25T10:59:14Z</time>
      </trkpt>
      <trkpt lat="48.38786" lon="7.21463">
        <ele>780.2</ele>
        <time>2022-12-25T10:59:16Z</time>
      </trkpt>
      <trkpt lat="48.38788" lon="7.2146">
        <ele>780.4</ele>
        <time>2022-12-25T10:59:17Z</time>
      </trkpt>
      <trkpt lat="48.38793" lon="7.21455">
        <ele>780.4</ele>
        <time>2022-12-25T10:59:19Z</time>
      </trkpt>
      <trkpt lat="48.38797" lon="7.2145">
        <ele>780.6</ele>
        <time>2022-12-25T10:59:21Z</time>
      </trkpt>
      <trkpt lat="48.38802" lon="7.21445">
        <ele>780.8</ele>
        <time>2022-12-25T10:59:23Z</time>
      </trkpt>
      <trkpt lat="48.38804" lon="7.21441">
        <ele>781.4</ele>
        <time>2022-12-25T10:59:24Z</time>
      </trkpt>
      <trkpt lat="48.38817" lon="7.21423">
        <ele>782.4</ele>
        <time>2022-12-25T10:59:30Z</time>
      </trkpt>
      <trkpt lat="48.38819" lon="7.21419">
        <ele>782.6</ele>
        <time>2022-12-25T10:59:31Z</time>
      </trkpt>
      <trkpt lat="48.38832" lon="7.21384">
        <ele>782.8</ele>
        <time>2022-12-25T10:59:38Z</time>
      </trkpt>
      <trkpt lat="48.38833" lon="7.21377">
        <ele>782.8</ele>
        <time>2022-12-25T10:59:39Z</time>
      </trkpt>
      <trkpt lat="48.38835" lon="7.21354">
        <ele>782.4</ele>
        <time>2022-12-25T10:59:42Z</time>
      </trkpt>
      <trkpt lat="48.3884" lon="7.21333">
        <ele>782</ele>
        <time>2022-12-25T10:59:45Z</time>
      </trkpt>
      <trkpt lat="48.38842" lon="7.21317">
        <ele>781.6</ele>
        <time>2022-12-25T10:59:47Z</time>
      </trkpt>
      <trkpt lat="48.38842" lon="7.21311">
        <ele>781.6</ele>
        <time>2022-12-25T10:59:48Z</time>
      </trkpt>
      <trkpt lat="48.38842" lon="7.21302">
        <ele>781.4</ele>
        <time>2022-12-25T10:59:49Z</time>
      </trkpt>
      <trkpt lat="48.38844" lon="7.21294">
        <ele>781</ele>
        <time>2022-12-25T10:59:50Z</time>
      </trkpt>
      <trkpt lat="48.38847" lon="7.21276">
        <ele>780.4</ele>
        <time>2022-12-25T10:59:52Z</time>
      </trkpt>
      <trkpt lat="48.38854" lon="7.21245">
        <ele>779.8</ele>
        <time>2022-12-25T10:59:55Z</time>
      </trkpt>
      <trkpt lat="48.3886" lon="7.2121">
        <ele>779.2</ele>
        <time>2022-12-25T10:59:58Z</time>
      </trkpt>
      <trkpt lat="48.38865" lon="7.21188">
        <ele>778.6</ele>
        <time>2022-12-25T11:00:00Z</time>
      </trkpt>
      <trkpt lat="48.38866" lon="7.21146">
        <ele>777.4</ele>
        <time>2022-12-25T11:00:04Z</time>
      </trkpt>
      <trkpt lat="48.38861" lon="7.21098">
        <ele>776.4</ele>
        <time>2022-12-25T11:00:09Z</time>
      </trkpt>
      <trkpt lat="48.38859" lon="7.2108">
        <ele>776.4</ele>
        <time>2022-12-25T11:00:11Z</time>
      </trkpt>
      <trkpt lat="48.38858" lon="7.21055">
        <ele>776.4</ele>
        <time>2022-12-25T11:00:14Z</time>
      </trkpt>
      <trkpt lat="48.38858" lon="7.21047">
        <ele>776.4</ele>
        <time>2022-12-25T11:00:15Z</time>
      </trkpt>
      <trkpt lat="48.38856" lon="7.21027">
        <ele>776.8</ele>
        <time>2022-12-25T11:00:18Z</time>
      </trkpt>
      <trkpt lat="48.38856" lon="7.21022">
        <ele>777</ele>
        <time>2022-12-25T11:00:19Z</time>
      </trkpt>
      <trkpt lat="48.38856" lon="7.21014">
        <ele>777.4</ele>
        <time>2022-12-25T11:00:20Z</time>
      </trkpt>
      <trkpt lat="48.38854" lon="7.21006">
        <ele>777.6</ele>
        <time>2022-12-25T11:00:21Z</time>
      </trkpt>
      <trkpt lat="48.38853" lon="7.20994">
        <ele>777.8</ele>
        <time>2022-12-25T11:00:23Z</time>
      </trkpt>
      <trkpt lat="48.38843" lon="7.20955">
        <ele>778.2</ele>
        <time>2022-12-25T11:00:29Z</time>
      </trkpt>
      <trkpt lat="48.38841" lon="7.20949">
        <ele>778.4</ele>
        <time>2022-12-25T11:00:30Z</time>
      </trkpt>
      <trkpt lat="48.38837" lon="7.20936">
        <ele>778.8</ele>
        <time>2022-12-25T11:00:32Z</time>
      </trkpt>
      <trkpt lat="48.38827" lon="7.20906">
        <ele>779.8</ele>
        <time>2022-12-25T11:00:37Z</time>
      </trkpt>
      <trkpt lat="48.38825" lon="7.20894">
        <ele>780</ele>
        <time>2022-12-25T11:00:39Z</time>
      </trkpt>
      <trkpt lat="48.38824" lon="7.20888">
        <ele>780.2</ele>
        <time>2022-12-25T11:00:40Z</time>
      </trkpt>
      <trkpt lat="48.38821" lon="7.2087">
        <ele>780.8</ele>
        <time>2022-12-25T11:00:43Z</time>
      </trkpt>
      <trkpt lat="48.3882" lon="7.20864">
        <ele>780.8</ele>
        <time>2022-12-25T11:00:44Z</time>
      </trkpt>
      <trkpt lat="48.38819" lon="7.20857">
        <ele>780.8</ele>
        <time>2022-12-25T11:00:45Z</time>
      </trkpt>
      <trkpt lat="48.38814" lon="7.20828">
        <ele>781</ele>
        <time>2022-12-25T11:00:49Z</time>
      </trkpt>
      <trkpt lat="48.38813" lon="7.20813">
        <ele>780.8</ele>
        <time>2022-12-25T11:00:51Z</time>
      </trkpt>
      <trkpt lat="48.38813" lon="7.20804">
        <ele>780.4</ele>
        <time>2022-12-25T11:00:52Z</time>
      </trkpt>
      <trkpt lat="48.38816" lon="7.20769">
        <ele>779.8</ele>
        <time>2022-12-25T11:00:56Z</time>
      </trkpt>
      <trkpt lat="48.38817" lon="7.2076">
        <ele>779.8</ele>
        <time>2022-12-25T11:00:57Z</time>
      </trkpt>
      <trkpt lat="48.38823" lon="7.2073">
        <ele>778.8</ele>
        <time>2022-12-25T11:01:00Z</time>
      </trkpt>
      <trkpt lat="48.38827" lon="7.20711">
        <ele>778.2</ele>
        <time>2022-12-25T11:01:02Z</time>
      </trkpt>
      <trkpt lat="48.38832" lon="7.20692">
        <ele>777.6</ele>
        <time>2022-12-25T11:01:04Z</time>
      </trkpt>
      <trkpt lat="48.38838" lon="7.20673">
        <ele>776.4</ele>
        <time>2022-12-25T11:01:06Z</time>
      </trkpt>
      <trkpt lat="48.38841" lon="7.20664">
        <ele>776</ele>
        <time>2022-12-25T11:01:07Z</time>
      </trkpt>
      <trkpt lat="48.38847" lon="7.20647">
        <ele>775.2</ele>
        <time>2022-12-25T11:01:09Z</time>
      </trkpt>
      <trkpt lat="48.38853" lon="7.20631">
        <ele>774</ele>
        <time>2022-12-25T11:01:11Z</time>
      </trkpt>
      <trkpt lat="48.38858" lon="7.20618">
        <ele>772.8</ele>
        <time>2022-12-25T11:01:13Z</time>
      </trkpt>
      <trkpt lat="48.38859" lon="7.20613">
        <ele>772.4</ele>
        <time>2022-12-25T11:01:14Z</time>
      </trkpt>
      <trkpt lat="48.3886" lon="7.20608">
        <ele>771.8</ele>
        <time>2022-12-25T11:01:15Z</time>
      </trkpt>
      <trkpt lat="48.38861" lon="7.20598">
        <ele>770.2</ele>
        <time>2022-12-25T11:01:17Z</time>
      </trkpt>
      <trkpt lat="48.38863" lon="7.20592">
        <ele>769.8</ele>
        <time>2022-12-25T11:01:18Z</time>
      </trkpt>
      <trkpt lat="48.38865" lon="7.20578">
        <ele>769.2</ele>
        <time>2022-12-25T11:01:20Z</time>
      </trkpt>
      <trkpt lat="48.3886" lon="7.20561">
        <ele>768.2</ele>
        <time>2022-12-25T11:01:22Z</time>
      </trkpt>
      <trkpt lat="48.38861" lon="7.20552">
        <ele>768</ele>
        <time>2022-12-25T11:01:23Z</time>
      </trkpt>
      <trkpt lat="48.38858" lon="7.20523">
        <ele>766.6</ele>
        <time>2022-12-25T11:01:26Z</time>
      </trkpt>
      <trkpt lat="48.38856" lon="7.20515">
        <ele>766.2</ele>
        <time>2022-12-25T11:01:27Z</time>
      </trkpt>
      <trkpt lat="48.38856" lon="7.20508">
        <ele>765</ele>
        <time>2022-12-25T11:01:28Z</time>
      </trkpt>
      <trkpt lat="48.38855" lon="7.205">
        <ele>764.6</ele>
        <time>2022-12-25T11:01:29Z</time>
      </trkpt>
      <trkpt lat="48.38853" lon="7.20492">
        <ele>763.8</ele>
        <time>2022-12-25T11:01:30Z</time>
      </trkpt>
      <trkpt lat="48.38851" lon="7.20485">
        <ele>763.4</ele>
        <time>2022-12-25T11:01:31Z</time>
      </trkpt>
      <trkpt lat="48.38851" lon="7.20478">
        <ele>763</ele>
        <time>2022-12-25T11:01:32Z</time>
      </trkpt>
      <trkpt lat="48.38852" lon="7.20472">
        <ele>762</ele>
        <time>2022-12-25T11:01:33Z</time>
      </trkpt>
      <trkpt lat="48.38857" lon="7.20458">
        <ele>761</ele>
        <time>2022-12-25T11:01:35Z</time>
      </trkpt>
      <trkpt lat="48.38859" lon="7.20452">
        <ele>760.6</ele>
        <time>2022-12-25T11:01:36Z</time>
      </trkpt>
      <trkpt lat="48.38863" lon="7.20435">
        <ele>759.4</ele>
        <time>2022-12-25T11:01:38Z</time>
      </trkpt>
      <trkpt lat="48.38863" lon="7.20419">
        <ele>758.6</ele>
        <time>2022-12-25T11:01:40Z</time>
      </trkpt>
      <trkpt lat="48.38864" lon="7.20412">
        <ele>758.2</ele>
        <time>2022-12-25T11:01:41Z</time>
      </trkpt>
      <trkpt lat="48.38867" lon="7.20388">
        <ele>757.2</ele>
        <time>2022-12-25T11:01:44Z</time>
      </trkpt>
      <trkpt lat="48.38866" lon="7.20374">
        <ele>756.2</ele>
        <time>2022-12-25T11:01:46Z</time>
      </trkpt>
      <trkpt lat="48.38869" lon="7.20356">
        <ele>754.6</ele>
        <time>2022-12-25T11:01:48Z</time>
      </trkpt>
      <trkpt lat="48.3887" lon="7.20349">
        <ele>753.8</ele>
        <time>2022-12-25T11:01:49Z</time>
      </trkpt>
      <trkpt lat="48.38872" lon="7.2034">
        <ele>752.4</ele>
        <time>2022-12-25T11:01:50Z</time>
      </trkpt>
      <trkpt lat="48.3887" lon="7.2032">
        <ele>751.6</ele>
        <time>2022-12-25T11:01:52Z</time>
      </trkpt>
      <trkpt lat="48.38869" lon="7.20314">
        <ele>751.2</ele>
        <time>2022-12-25T11:01:53Z</time>
      </trkpt>
      <trkpt lat="48.38868" lon="7.20309">
        <ele>750.6</ele>
        <time>2022-12-25T11:01:54Z</time>
      </trkpt>
      <trkpt lat="48.38866" lon="7.20295">
        <ele>749.8</ele>
        <time>2022-12-25T11:01:56Z</time>
      </trkpt>
      <trkpt lat="48.38866" lon="7.20288">
        <ele>749.4</ele>
        <time>2022-12-25T11:01:57Z</time>
      </trkpt>
      <trkpt lat="48.38868" lon="7.20283">
        <ele>748.6</ele>
        <time>2022-12-25T11:01:58Z</time>
      </trkpt>
      <trkpt lat="48.38869" lon="7.20279">
        <ele>748</ele>
        <time>2022-12-25T11:01:59Z</time>
      </trkpt>
      <trkpt lat="48.38869" lon="7.20273">
        <ele>747</ele>
        <time>2022-12-25T11:02:00Z</time>
      </trkpt>
      <trkpt lat="48.3887" lon="7.20266">
        <ele>746.8</ele>
        <time>2022-12-25T11:02:01Z</time>
      </trkpt>
      <trkpt lat="48.38863" lon="7.20242">
        <ele>745.6</ele>
        <time>2022-12-25T11:02:04Z</time>
      </trkpt>
      <trkpt lat="48.38863" lon="7.20235">
        <ele>744.6</ele>
        <time>2022-12-25T11:02:05Z</time>
      </trkpt>
      <trkpt lat="48.38863" lon="7.20227">
        <ele>744.4</ele>
        <time>2022-12-25T11:02:06Z</time>
      </trkpt>
      <trkpt lat="48.38867" lon="7.20216">
        <ele>742.6</ele>
        <time>2022-12-25T11:02:09Z</time>
      </trkpt>
      <trkpt lat="48.3887" lon="7.20214">
        <ele>742.4</ele>
        <time>2022-12-25T11:02:10Z</time>
      </trkpt>
      <trkpt lat="48.38877" lon="7.20216">
        <ele>741.4</ele>
        <time>2022-12-25T11:02:12Z</time>
      </trkpt>
      <trkpt lat="48.3888" lon="7.2022">
        <ele>740.8</ele>
        <time>2022-12-25T11:02:14Z</time>
      </trkpt>
      <trkpt lat="48.38883" lon="7.20223">
        <ele>740.8</ele>
        <time>2022-12-25T11:02:15Z</time>
      </trkpt>
      <trkpt lat="48.38885" lon="7.20226">
        <ele>740.6</ele>
        <time>2022-12-25T11:02:16Z</time>
      </trkpt>
      <trkpt lat="48.38892" lon="7.20233">
        <ele>740.6</ele>
        <time>2022-12-25T11:02:18Z</time>
      </trkpt>
      <trkpt lat="48.38903" lon="7.20247">
        <ele>740.6</ele>
        <time>2022-12-25T11:02:21Z</time>
      </trkpt>
      <trkpt lat="48.38907" lon="7.20253">
        <ele>740.4</ele>
        <time>2022-12-25T11:02:22Z</time>
      </trkpt>
      <trkpt lat="48.38913" lon="7.20265">
        <ele>740.4</ele>
        <time>2022-12-25T11:02:24Z</time>
      </trkpt>
      <trkpt lat="48.3892" lon="7.2028">
        <ele>740.4</ele>
        <time>2022-12-25T11:02:26Z</time>
      </trkpt>
      <trkpt lat="48.38924" lon="7.20286">
        <ele>740.4</ele>
        <time>2022-12-25T11:02:27Z</time>
      </trkpt>
      <trkpt lat="48.38933" lon="7.20304">
        <ele>739.8</ele>
        <time>2022-12-25T11:02:30Z</time>
      </trkpt>
      <trkpt lat="48.38941" lon="7.20315">
        <ele>739.6</ele>
        <time>2022-12-25T11:02:32Z</time>
      </trkpt>
      <trkpt lat="48.38946" lon="7.2032">
        <ele>739.6</ele>
        <time>2022-12-25T11:02:33Z</time>
      </trkpt>
      <trkpt lat="48.38963" lon="7.20345">
        <ele>739.4</ele>
        <time>2022-12-25T11:02:37Z</time>
      </trkpt>
      <trkpt lat="48.38972" lon="7.20359">
        <ele>739.2</ele>
        <time>2022-12-25T11:02:39Z</time>
      </trkpt>
      <trkpt lat="48.38977" lon="7.20372">
        <ele>739.2</ele>
        <time>2022-12-25T11:02:41Z</time>
      </trkpt>
      <trkpt lat="48.38986" lon="7.20403">
        <ele>739</ele>
        <time>2022-12-25T11:02:45Z</time>
      </trkpt>
      <trkpt lat="48.38989" lon="7.2041">
        <ele>739</ele>
        <time>2022-12-25T11:02:46Z</time>
      </trkpt>
      <trkpt lat="48.38997" lon="7.20447">
        <ele>738.6</ele>
        <time>2022-12-25T11:02:51Z</time>
      </trkpt>
      <trkpt lat="48.38998" lon="7.20454">
        <ele>738.6</ele>
        <time>2022-12-25T11:02:52Z</time>
      </trkpt>
      <trkpt lat="48.39" lon="7.20477">
        <ele>737.4</ele>
        <time>2022-12-25T11:02:55Z</time>
      </trkpt>
      <trkpt lat="48.38998" lon="7.20492">
        <ele>737</ele>
        <time>2022-12-25T11:02:57Z</time>
      </trkpt>
      <trkpt lat="48.39" lon="7.20504">
        <ele>736.8</ele>
        <time>2022-12-25T11:02:59Z</time>
      </trkpt>
      <trkpt lat="48.39003" lon="7.2052">
        <ele>736.4</ele>
        <time>2022-12-25T11:03:01Z</time>
      </trkpt>
      <trkpt lat="48.39004" lon="7.20528">
        <ele>736.4</ele>
        <time>2022-12-25T11:03:02Z</time>
      </trkpt>
      <trkpt lat="48.39006" lon="7.20543">
        <ele>736.2</ele>
        <time>2022-12-25T11:03:04Z</time>
      </trkpt>
      <trkpt lat="48.3902" lon="7.20573">
        <ele>735.8</ele>
        <time>2022-12-25T11:03:08Z</time>
      </trkpt>
      <trkpt lat="48.39024" lon="7.2058">
        <ele>735.8</ele>
        <time>2022-12-25T11:03:09Z</time>
      </trkpt>
      <trkpt lat="48.39033" lon="7.206">
        <ele>735.2</ele>
        <time>2022-12-25T11:03:12Z</time>
      </trkpt>
      <trkpt lat="48.39036" lon="7.20604">
        <ele>735</ele>
        <time>2022-12-25T11:03:13Z</time>
      </trkpt>
      <trkpt lat="48.39038" lon="7.2061">
        <ele>735</ele>
        <time>2022-12-25T11:03:14Z</time>
      </trkpt>
      <trkpt lat="48.39045" lon="7.20624">
        <ele>734.6</ele>
        <time>2022-12-25T11:03:16Z</time>
      </trkpt>
      <trkpt lat="48.39051" lon="7.20637">
        <ele>734.4</ele>
        <time>2022-12-25T11:03:18Z</time>
      </trkpt>
      <trkpt lat="48.39056" lon="7.20649">
        <ele>734.2</ele>
        <time>2022-12-25T11:03:20Z</time>
      </trkpt>
      <trkpt lat="48.3906" lon="7.20654">
        <ele>734</ele>
        <time>2022-12-25T11:03:21Z</time>
      </trkpt>
      <trkpt lat="48.39066" lon="7.20663">
        <ele>733.8</ele>
        <time>2022-12-25T11:03:23Z</time>
      </trkpt>
      <trkpt lat="48.39075" lon="7.20675">
        <ele>733.6</ele>
        <time>2022-12-25T11:03:25Z</time>
      </trkpt>
      <trkpt lat="48.3908" lon="7.20682">
        <ele>733.6</ele>
        <time>2022-12-25T11:03:26Z</time>
      </trkpt>
      <trkpt lat="48.39084" lon="7.20691">
        <ele>733.6</ele>
        <time>2022-12-25T11:03:27Z</time>
      </trkpt>
      <trkpt lat="48.39089" lon="7.20704">
        <ele>733.6</ele>
        <time>2022-12-25T11:03:29Z</time>
      </trkpt>
      <trkpt lat="48.39091" lon="7.20717">
        <ele>733.4</ele>
        <time>2022-12-25T11:03:31Z</time>
      </trkpt>
      <trkpt lat="48.39092" lon="7.20731">
        <ele>733.4</ele>
        <time>2022-12-25T11:03:33Z</time>
      </trkpt>
      <trkpt lat="48.39094" lon="7.20751">
        <ele>733.4</ele>
        <time>2022-12-25T11:03:36Z</time>
      </trkpt>
      <trkpt lat="48.39099" lon="7.20763">
        <ele>733.2</ele>
        <time>2022-12-25T11:03:38Z</time>
      </trkpt>
      <trkpt lat="48.3911" lon="7.20775">
        <ele>733.2</ele>
        <time>2022-12-25T11:03:41Z</time>
      </trkpt>
      <trkpt lat="48.39123" lon="7.20791">
        <ele>732.8</ele>
        <time>2022-12-25T11:03:46Z</time>
      </trkpt>
      <trkpt lat="48.39135" lon="7.20811">
        <ele>733</ele>
        <time>2022-12-25T11:03:51Z</time>
      </trkpt>
      <trkpt lat="48.39146" lon="7.20825">
        <ele>733.2</ele>
        <time>2022-12-25T11:03:57Z</time>
      </trkpt>
      <trkpt lat="48.39146" lon="7.20825">
        <ele>733</ele>
        <time>2022-12-25T11:04:07Z</time>
      </trkpt>
      <trkpt lat="48.39146" lon="7.20825">
        <ele>733</ele>
        <time>2022-12-25T11:04:09Z</time>
      </trkpt>
      <trkpt lat="48.39146" lon="7.20825">
        <ele>732.8</ele>
        <time>2022-12-25T11:04:19Z</time>
      </trkpt>
      <trkpt lat="48.39149" lon="7.20827">
        <ele>732.8</ele>
        <time>2022-12-25T11:04:32Z</time>
      </trkpt>
      <trkpt lat="48.39151" lon="7.20829">
        <ele>732.8</ele>
        <time>2022-12-25T11:04:33Z</time>
      </trkpt>
      <trkpt lat="48.39153" lon="7.20833">
        <ele>732.8</ele>
        <time>2022-12-25T11:04:35Z</time>
      </trkpt>
      <trkpt lat="48.39161" lon="7.2084">
        <ele>732.8</ele>
        <time>2022-12-25T11:04:38Z</time>
      </trkpt>
      <trkpt lat="48.39173" lon="7.20854">
        <ele>733</ele>
        <time>2022-12-25T11:04:42Z</time>
      </trkpt>
      <trkpt lat="48.39193" lon="7.20873">
        <ele>733.8</ele>
        <time>2022-12-25T11:04:48Z</time>
      </trkpt>
      <trkpt lat="48.39206" lon="7.20886">
        <ele>734.2</ele>
        <time>2022-12-25T11:04:52Z</time>
      </trkpt>
      <trkpt lat="48.39209" lon="7.2089">
        <ele>734.2</ele>
        <time>2022-12-25T11:04:53Z</time>
      </trkpt>
      <trkpt lat="48.39215" lon="7.20898">
        <ele>734.6</ele>
        <time>2022-12-25T11:04:55Z</time>
      </trkpt>
      <trkpt lat="48.39227" lon="7.20911">
        <ele>734.8</ele>
        <time>2022-12-25T11:04:59Z</time>
      </trkpt>
      <trkpt lat="48.39238" lon="7.20924">
        <ele>735</ele>
        <time>2022-12-25T11:05:03Z</time>
      </trkpt>
      <trkpt lat="48.39241" lon="7.20928">
        <ele>735.2</ele>
        <time>2022-12-25T11:05:04Z</time>
      </trkpt>
      <trkpt lat="48.39246" lon="7.20935">
        <ele>735.4</ele>
        <time>2022-12-25T11:05:06Z</time>
      </trkpt>
      <trkpt lat="48.39257" lon="7.20946">
        <ele>736</ele>
        <time>2022-12-25T11:05:10Z</time>
      </trkpt>
      <trkpt lat="48.39274" lon="7.20961">
        <ele>736.4</ele>
        <time>2022-12-25T11:05:16Z</time>
      </trkpt>
      <trkpt lat="48.39277" lon="7.20962">
        <ele>736.6</ele>
        <time>2022-12-25T11:05:17Z</time>
      </trkpt>
      <trkpt lat="48.39285" lon="7.20969">
        <ele>736.8</ele>
        <time>2022-12-25T11:05:20Z</time>
      </trkpt>
      <trkpt lat="48.39293" lon="7.20978">
        <ele>737.2</ele>
        <time>2022-12-25T11:05:23Z</time>
      </trkpt>
      <trkpt lat="48.39303" lon="7.20992">
        <ele>737.2</ele>
        <time>2022-12-25T11:05:28Z</time>
      </trkpt>
      <trkpt lat="48.39313" lon="7.21007">
        <ele>737.6</ele>
        <time>2022-12-25T11:05:32Z</time>
      </trkpt>
      <trkpt lat="48.39318" lon="7.21012">
        <ele>737.8</ele>
        <time>2022-12-25T11:05:34Z</time>
      </trkpt>
      <trkpt lat="48.39323" lon="7.21016">
        <ele>737.8</ele>
        <time>2022-12-25T11:05:36Z</time>
      </trkpt>
      <trkpt lat="48.39331" lon="7.21019">
        <ele>738</ele>
        <time>2022-12-25T11:05:38Z</time>
      </trkpt>
      <trkpt lat="48.39335" lon="7.2102">
        <ele>738</ele>
        <time>2022-12-25T11:05:39Z</time>
      </trkpt>
      <trkpt lat="48.39339" lon="7.2102">
        <ele>738</ele>
        <time>2022-12-25T11:05:40Z</time>
      </trkpt>
      <trkpt lat="48.3935" lon="7.21009">
        <ele>737.8</ele>
        <time>2022-12-25T11:05:43Z</time>
      </trkpt>
      <trkpt lat="48.39354" lon="7.21004">
        <ele>737.8</ele>
        <time>2022-12-25T11:05:44Z</time>
      </trkpt>
      <trkpt lat="48.39365" lon="7.20987">
        <ele>735.6</ele>
        <time>2022-12-25T11:05:47Z</time>
      </trkpt>
      <trkpt lat="48.39371" lon="7.20977">
        <ele>734.6</ele>
        <time>2022-12-25T11:05:49Z</time>
      </trkpt>
      <trkpt lat="48.39374" lon="7.20973">
        <ele>733.8</ele>
        <time>2022-12-25T11:05:50Z</time>
      </trkpt>
      <trkpt lat="48.39377" lon="7.20969">
        <ele>733</ele>
        <time>2022-12-25T11:05:51Z</time>
      </trkpt>
      <trkpt lat="48.39381" lon="7.20957">
        <ele>731.6</ele>
        <time>2022-12-25T11:05:53Z</time>
      </trkpt>
      <trkpt lat="48.39383" lon="7.20944">
        <ele>730.6</ele>
        <time>2022-12-25T11:05:55Z</time>
      </trkpt>
      <trkpt lat="48.39384" lon="7.20937">
        <ele>729.6</ele>
        <time>2022-12-25T11:05:56Z</time>
      </trkpt>
      <trkpt lat="48.39388" lon="7.20925">
        <ele>728.2</ele>
        <time>2022-12-25T11:05:58Z</time>
      </trkpt>
      <trkpt lat="48.39388" lon="7.20921">
        <ele>727.8</ele>
        <time>2022-12-25T11:05:59Z</time>
      </trkpt>
      <trkpt lat="48.39388" lon="7.20917">
        <ele>726.6</ele>
        <time>2022-12-25T11:06:00Z</time>
      </trkpt>
      <trkpt lat="48.39388" lon="7.2091">
        <ele>726.2</ele>
        <time>2022-12-25T11:06:01Z</time>
      </trkpt>
      <trkpt lat="48.39389" lon="7.20903">
        <ele>725.6</ele>
        <time>2022-12-25T11:06:02Z</time>
      </trkpt>
      <trkpt lat="48.39392" lon="7.20887">
        <ele>724.2</ele>
        <time>2022-12-25T11:06:05Z</time>
      </trkpt>
      <trkpt lat="48.39394" lon="7.20883">
        <ele>723.6</ele>
        <time>2022-12-25T11:06:06Z</time>
      </trkpt>
      <trkpt lat="48.39398" lon="7.20875">
        <ele>722</ele>
        <time>2022-12-25T11:06:08Z</time>
      </trkpt>
      <trkpt lat="48.39403" lon="7.20872">
        <ele>720.8</ele>
        <time>2022-12-25T11:06:10Z</time>
      </trkpt>
      <trkpt lat="48.39414" lon="7.20868">
        <ele>720.6</ele>
        <time>2022-12-25T11:06:16Z</time>
      </trkpt>
      <trkpt lat="48.3942" lon="7.20864">
        <ele>720.8</ele>
        <time>2022-12-25T11:06:20Z</time>
      </trkpt>
      <trkpt lat="48.39424" lon="7.20863">
        <ele>721.4</ele>
        <time>2022-12-25T11:06:23Z</time>
      </trkpt>
      <trkpt lat="48.39429" lon="7.20862">
        <ele>722.2</ele>
        <time>2022-12-25T11:06:26Z</time>
      </trkpt>
      <trkpt lat="48.39436" lon="7.20859">
        <ele>723.2</ele>
        <time>2022-12-25T11:06:30Z</time>
      </trkpt>
      <trkpt lat="48.39437" lon="7.20859">
        <ele>723.4</ele>
        <time>2022-12-25T11:06:31Z</time>
      </trkpt>
      <trkpt lat="48.39444" lon="7.20856">
        <ele>724.2</ele>
        <time>2022-12-25T11:06:35Z</time>
      </trkpt>
      <trkpt lat="48.39446" lon="7.20855">
        <ele>724.4</ele>
        <time>2022-12-25T11:06:36Z</time>
      </trkpt>
      <trkpt lat="48.39449" lon="7.20856">
        <ele>724.8</ele>
        <time>2022-12-25T11:06:38Z</time>
      </trkpt>
      <trkpt lat="48.39451" lon="7.20856">
        <ele>725</ele>
        <time>2022-12-25T11:06:39Z</time>
      </trkpt>
      <trkpt lat="48.39456" lon="7.20854">
        <ele>725.6</ele>
        <time>2022-12-25T11:06:42Z</time>
      </trkpt>
      <trkpt lat="48.39459" lon="7.20854">
        <ele>726</ele>
        <time>2022-12-25T11:06:44Z</time>
      </trkpt>
      <trkpt lat="48.39465" lon="7.20854">
        <ele>726.6</ele>
        <time>2022-12-25T11:06:48Z</time>
      </trkpt>
      <trkpt lat="48.3947" lon="7.20855">
        <ele>727.4</ele>
        <time>2022-12-25T11:06:52Z</time>
      </trkpt>
      <trkpt lat="48.39473" lon="7.20854">
        <ele>727.8</ele>
        <time>2022-12-25T11:06:54Z</time>
      </trkpt>
      <trkpt lat="48.39474" lon="7.20854">
        <ele>728</ele>
        <time>2022-12-25T11:06:55Z</time>
      </trkpt>
      <trkpt lat="48.39478" lon="7.20855">
        <ele>728.6</ele>
        <time>2022-12-25T11:06:58Z</time>
      </trkpt>
      <trkpt lat="48.3948" lon="7.20855">
        <ele>728.8</ele>
        <time>2022-12-25T11:07:00Z</time>
      </trkpt>
      <trkpt lat="48.39486" lon="7.20853">
        <ele>729.8</ele>
        <time>2022-12-25T11:07:06Z</time>
      </trkpt>
      <trkpt lat="48.39488" lon="7.20853">
        <ele>730</ele>
        <time>2022-12-25T11:07:07Z</time>
      </trkpt>
      <trkpt lat="48.39497" lon="7.20849">
        <ele>730.8</ele>
        <time>2022-12-25T11:07:12Z</time>
      </trkpt>
      <trkpt lat="48.395" lon="7.2085">
        <ele>731.2</ele>
        <time>2022-12-25T11:07:14Z</time>
      </trkpt>
      <trkpt lat="48.39508" lon="7.20847">
        <ele>731.8</ele>
        <time>2022-12-25T11:07:19Z</time>
      </trkpt>
      <trkpt lat="48.39512" lon="7.20848">
        <ele>732.4</ele>
        <time>2022-12-25T11:07:22Z</time>
      </trkpt>
      <trkpt lat="48.39521" lon="7.20848">
        <ele>733</ele>
        <time>2022-12-25T11:07:27Z</time>
      </trkpt>
      <trkpt lat="48.39524" lon="7.20846">
        <ele>733.6</ele>
        <time>2022-12-25T11:07:29Z</time>
      </trkpt>
      <trkpt lat="48.39527" lon="7.20844">
        <ele>734</ele>
        <time>2022-12-25T11:07:31Z</time>
      </trkpt>
      <trkpt lat="48.39536" lon="7.20844">
        <ele>734.8</ele>
        <time>2022-12-25T11:07:35Z</time>
      </trkpt>
      <trkpt lat="48.39542" lon="7.20844">
        <ele>735.2</ele>
        <time>2022-12-25T11:07:38Z</time>
      </trkpt>
      <trkpt lat="48.39546" lon="7.20845">
        <ele>735.2</ele>
        <time>2022-12-25T11:07:40Z</time>
      </trkpt>
      <trkpt lat="48.39546" lon="7.20845">
        <ele>735.4</ele>
        <time>2022-12-25T11:07:41Z</time>
      </trkpt>
      <trkpt lat="48.3955" lon="7.20843">
        <ele>736.2</ele>
        <time>2022-12-25T11:07:44Z</time>
      </trkpt>
      <trkpt lat="48.39554" lon="7.20844">
        <ele>737</ele>
        <time>2022-12-25T11:07:47Z</time>
      </trkpt>
      <trkpt lat="48.39558" lon="7.20843">
        <ele>737.2</ele>
        <time>2022-12-25T11:07:49Z</time>
      </trkpt>
      <trkpt lat="48.39561" lon="7.20843">
        <ele>737.6</ele>
        <time>2022-12-25T11:07:51Z</time>
      </trkpt>
      <trkpt lat="48.39563" lon="7.20843">
        <ele>737.6</ele>
        <time>2022-12-25T11:07:52Z</time>
      </trkpt>
      <trkpt lat="48.39566" lon="7.20842">
        <ele>738</ele>
        <time>2022-12-25T11:07:54Z</time>
      </trkpt>
      <trkpt lat="48.39571" lon="7.20843">
        <ele>738.8</ele>
        <time>2022-12-25T11:07:57Z</time>
      </trkpt>
      <trkpt lat="48.39582" lon="7.20845">
        <ele>739.8</ele>
        <time>2022-12-25T11:08:03Z</time>
      </trkpt>
      <trkpt lat="48.39585" lon="7.20845">
        <ele>740</ele>
        <time>2022-12-25T11:08:04Z</time>
      </trkpt>
      <trkpt lat="48.39598" lon="7.20844">
        <ele>740.8</ele>
        <time>2022-12-25T11:08:11Z</time>
      </trkpt>
      <trkpt lat="48.39599" lon="7.20845">
        <ele>740.8</ele>
        <time>2022-12-25T11:08:12Z</time>
      </trkpt>
      <trkpt lat="48.39611" lon="7.20848">
        <ele>741.2</ele>
        <time>2022-12-25T11:08:18Z</time>
      </trkpt>
      <trkpt lat="48.39627" lon="7.20849">
        <ele>741.2</ele>
        <time>2022-12-25T11:08:25Z</time>
      </trkpt>
      <trkpt lat="48.39648" lon="7.20857">
        <ele>741</ele>
        <time>2022-12-25T11:08:31Z</time>
      </trkpt>
      <trkpt lat="48.39651" lon="7.20859">
        <ele>740.8</ele>
        <time>2022-12-25T11:08:32Z</time>
      </trkpt>
      <trkpt lat="48.39669" lon="7.2087">
        <ele>740.2</ele>
        <time>2022-12-25T11:08:36Z</time>
      </trkpt>
      <trkpt lat="48.39674" lon="7.20873">
        <ele>739.8</ele>
        <time>2022-12-25T11:08:37Z</time>
      </trkpt>
      <trkpt lat="48.39692" lon="7.20879">
        <ele>739</ele>
        <time>2022-12-25T11:08:41Z</time>
      </trkpt>
      <trkpt lat="48.39696" lon="7.20881">
        <ele>739</ele>
        <time>2022-12-25T11:08:42Z</time>
      </trkpt>
      <trkpt lat="48.397" lon="7.20883">
        <ele>738.6</ele>
        <time>2022-12-25T11:08:43Z</time>
      </trkpt>
      <trkpt lat="48.39715" lon="7.20889">
        <ele>737.8</ele>
        <time>2022-12-25T11:08:47Z</time>
      </trkpt>
      <trkpt lat="48.39719" lon="7.2089">
        <ele>737.2</ele>
        <time>2022-12-25T11:08:48Z</time>
      </trkpt>
      <trkpt lat="48.3973" lon="7.20893">
        <ele>736</ele>
        <time>2022-12-25T11:08:51Z</time>
      </trkpt>
      <trkpt lat="48.39741" lon="7.20896">
        <ele>735.8</ele>
        <time>2022-12-25T11:08:54Z</time>
      </trkpt>
      <trkpt lat="48.39745" lon="7.20894">
        <ele>735.6</ele>
        <time>2022-12-25T11:08:55Z</time>
      </trkpt>
      <trkpt lat="48.39747" lon="7.20892">
        <ele>735.6</ele>
        <time>2022-12-25T11:08:56Z</time>
      </trkpt>
      <trkpt lat="48.3975" lon="7.20888">
        <ele>735.6</ele>
        <time>2022-12-25T11:08:57Z</time>
      </trkpt>
      <trkpt lat="48.39752" lon="7.2088">
        <ele>735.2</ele>
        <time>2022-12-25T11:08:59Z</time>
      </trkpt>
      <trkpt lat="48.39752" lon="7.20873">
        <ele>735</ele>
        <time>2022-12-25T11:09:01Z</time>
      </trkpt>
      <trkpt lat="48.39752" lon="7.20842">
        <ele>734.8</ele>
        <time>2022-12-25T11:09:08Z</time>
      </trkpt>
      <trkpt lat="48.39752" lon="7.20832">
        <ele>734.8</ele>
        <time>2022-12-25T11:09:10Z</time>
      </trkpt>
      <trkpt lat="48.39754" lon="7.20803">
        <ele>735.4</ele>
        <time>2022-12-25T11:09:16Z</time>
      </trkpt>
      <trkpt lat="48.39765" lon="7.20769">
        <ele>736</ele>
        <time>2022-12-25T11:09:25Z</time>
      </trkpt>
      <trkpt lat="48.39768" lon="7.20763">
        <ele>736</ele>
        <time>2022-12-25T11:09:27Z</time>
      </trkpt>
      <trkpt lat="48.39772" lon="7.20761">
        <ele>736.2</ele>
        <time>2022-12-25T11:09:29Z</time>
      </trkpt>
      <trkpt lat="48.39784" lon="7.20746">
        <ele>736.8</ele>
        <time>2022-12-25T11:09:36Z</time>
      </trkpt>
      <trkpt lat="48.39795" lon="7.20726">
        <ele>737.6</ele>
        <time>2022-12-25T11:09:43Z</time>
      </trkpt>
      <trkpt lat="48.39798" lon="7.2072">
        <ele>738</ele>
        <time>2022-12-25T11:09:45Z</time>
      </trkpt>
      <trkpt lat="48.39801" lon="7.20714">
        <ele>738.6</ele>
        <time>2022-12-25T11:09:47Z</time>
      </trkpt>
      <trkpt lat="48.39806" lon="7.20706">
        <ele>739.4</ele>
        <time>2022-12-25T11:09:50Z</time>
      </trkpt>
      <trkpt lat="48.39807" lon="7.20702">
        <ele>739.6</ele>
        <time>2022-12-25T11:09:51Z</time>
      </trkpt>
      <trkpt lat="48.3981" lon="7.20695">
        <ele>740</ele>
        <time>2022-12-25T11:09:53Z</time>
      </trkpt>
      <trkpt lat="48.39818" lon="7.20673">
        <ele>740.6</ele>
        <time>2022-12-25T11:09:59Z</time>
      </trkpt>
      <trkpt lat="48.39819" lon="7.20669">
        <ele>740.6</ele>
        <time>2022-12-25T11:10:00Z</time>
      </trkpt>
      <trkpt lat="48.39822" lon="7.20661">
        <ele>741</ele>
        <time>2022-12-25T11:10:02Z</time>
      </trkpt>
      <trkpt lat="48.39825" lon="7.20648">
        <ele>741.4</ele>
        <time>2022-12-25T11:10:05Z</time>
      </trkpt>
      <trkpt lat="48.39827" lon="7.20639">
        <ele>742</ele>
        <time>2022-12-25T11:10:07Z</time>
      </trkpt>
      <trkpt lat="48.39828" lon="7.20622">
        <ele>742.6</ele>
        <time>2022-12-25T11:10:11Z</time>
      </trkpt>
      <trkpt lat="48.39829" lon="7.20617">
        <ele>743</ele>
        <time>2022-12-25T11:10:13Z</time>
      </trkpt>
      <trkpt lat="48.39832" lon="7.20611">
        <ele>743</ele>
        <time>2022-12-25T11:10:17Z</time>
      </trkpt>
      <trkpt lat="48.39832" lon="7.20609">
        <ele>743.2</ele>
        <time>2022-12-25T11:10:18Z</time>
      </trkpt>
      <trkpt lat="48.39833" lon="7.20603">
        <ele>743.6</ele>
        <time>2022-12-25T11:10:22Z</time>
      </trkpt>
      <trkpt lat="48.39829" lon="7.20585">
        <ele>743</ele>
        <time>2022-12-25T11:10:29Z</time>
      </trkpt>
      <trkpt lat="48.39828" lon="7.20564">
        <ele>742.8</ele>
        <time>2022-12-25T11:10:34Z</time>
      </trkpt>
      <trkpt lat="48.39828" lon="7.20541">
        <ele>743.2</ele>
        <time>2022-12-25T11:10:39Z</time>
      </trkpt>
      <trkpt lat="48.39826" lon="7.20512">
        <ele>743.2</ele>
        <time>2022-12-25T11:10:46Z</time>
      </trkpt>
      <trkpt lat="48.39821" lon="7.20484">
        <ele>743.2</ele>
        <time>2022-12-25T11:10:52Z</time>
      </trkpt>
      <trkpt lat="48.3982" lon="7.20479">
        <ele>743.2</ele>
        <time>2022-12-25T11:10:53Z</time>
      </trkpt>
      <trkpt lat="48.39819" lon="7.20446">
        <ele>742.8</ele>
        <time>2022-12-25T11:10:59Z</time>
      </trkpt>
      <trkpt lat="48.39812" lon="7.20414">
        <ele>742.6</ele>
        <time>2022-12-25T11:11:05Z</time>
      </trkpt>
      <trkpt lat="48.39811" lon="7.20409">
        <ele>742.2</ele>
        <time>2022-12-25T11:11:06Z</time>
      </trkpt>
      <trkpt lat="48.39806" lon="7.20387">
        <ele>741.8</ele>
        <time>2022-12-25T11:11:11Z</time>
      </trkpt>
      <trkpt lat="48.39803" lon="7.20372">
        <ele>741.4</ele>
        <time>2022-12-25T11:11:14Z</time>
      </trkpt>
      <trkpt lat="48.398" lon="7.20355">
        <ele>741</ele>
        <time>2022-12-25T11:11:17Z</time>
      </trkpt>
      <trkpt lat="48.39794" lon="7.20334">
        <ele>740.2</ele>
        <time>2022-12-25T11:11:21Z</time>
      </trkpt>
      <trkpt lat="48.39792" lon="7.20324">
        <ele>739.8</ele>
        <time>2022-12-25T11:11:23Z</time>
      </trkpt>
      <trkpt lat="48.39791" lon="7.20308">
        <ele>739.2</ele>
        <time>2022-12-25T11:11:26Z</time>
      </trkpt>
      <trkpt lat="48.39791" lon="7.20292">
        <ele>738.4</ele>
        <time>2022-12-25T11:11:29Z</time>
      </trkpt>
      <trkpt lat="48.3979" lon="7.20285">
        <ele>738.2</ele>
        <time>2022-12-25T11:11:30Z</time>
      </trkpt>
      <trkpt lat="48.39791" lon="7.20266">
        <ele>737.6</ele>
        <time>2022-12-25T11:11:33Z</time>
      </trkpt>
      <trkpt lat="48.39791" lon="7.20259">
        <ele>737.6</ele>
        <time>2022-12-25T11:11:34Z</time>
      </trkpt>
      <trkpt lat="48.39792" lon="7.20252">
        <ele>736.2</ele>
        <time>2022-12-25T11:11:35Z</time>
      </trkpt>
      <trkpt lat="48.39794" lon="7.20239">
        <ele>735</ele>
        <time>2022-12-25T11:11:37Z</time>
      </trkpt>
      <trkpt lat="48.39797" lon="7.2022">
        <ele>733.6</ele>
        <time>2022-12-25T11:11:40Z</time>
      </trkpt>
      <trkpt lat="48.39797" lon="7.20213">
        <ele>733.4</ele>
        <time>2022-12-25T11:11:41Z</time>
      </trkpt>
      <trkpt lat="48.39798" lon="7.20207">
        <ele>733</ele>
        <time>2022-12-25T11:11:42Z</time>
      </trkpt>
      <trkpt lat="48.398" lon="7.20195">
        <ele>732.4</ele>
        <time>2022-12-25T11:11:44Z</time>
      </trkpt>
      <trkpt lat="48.39804" lon="7.20184">
        <ele>731.2</ele>
        <time>2022-12-25T11:11:46Z</time>
      </trkpt>
      <trkpt lat="48.39805" lon="7.20174">
        <ele>730.2</ele>
        <time>2022-12-25T11:11:48Z</time>
      </trkpt>
      <trkpt lat="48.39805" lon="7.20167">
        <ele>729.6</ele>
        <time>2022-12-25T11:11:49Z</time>
      </trkpt>
      <trkpt lat="48.39804" lon="7.20161">
        <ele>729</ele>
        <time>2022-12-25T11:11:50Z</time>
      </trkpt>
      <trkpt lat="48.39804" lon="7.20149">
        <ele>728.2</ele>
        <time>2022-12-25T11:11:52Z</time>
      </trkpt>
      <trkpt lat="48.39806" lon="7.20144">
        <ele>727.8</ele>
        <time>2022-12-25T11:11:53Z</time>
      </trkpt>
      <trkpt lat="48.39809" lon="7.20135">
        <ele>726.8</ele>
        <time>2022-12-25T11:11:55Z</time>
      </trkpt>
      <trkpt lat="48.3981" lon="7.20123">
        <ele>726</ele>
        <time>2022-12-25T11:11:57Z</time>
      </trkpt>
      <trkpt lat="48.3981" lon="7.20119">
        <ele>725.6</ele>
        <time>2022-12-25T11:11:58Z</time>
      </trkpt>
      <trkpt lat="48.39812" lon="7.20096">
        <ele>724.4</ele>
        <time>2022-12-25T11:12:02Z</time>
      </trkpt>
      <trkpt lat="48.39813" lon="7.20088">
        <ele>723.8</ele>
        <time>2022-12-25T11:12:03Z</time>
      </trkpt>
      <trkpt lat="48.39815" lon="7.2008">
        <ele>723.6</ele>
        <time>2022-12-25T11:12:04Z</time>
      </trkpt>
      <trkpt lat="48.39816" lon="7.20074">
        <ele>723.2</ele>
        <time>2022-12-25T11:12:05Z</time>
      </trkpt>
      <trkpt lat="48.39817" lon="7.20061">
        <ele>722</ele>
        <time>2022-12-25T11:12:07Z</time>
      </trkpt>
      <trkpt lat="48.39814" lon="7.20039">
        <ele>720.6</ele>
        <time>2022-12-25T11:12:10Z</time>
      </trkpt>
      <trkpt lat="48.39815" lon="7.20032">
        <ele>720</ele>
        <time>2022-12-25T11:12:11Z</time>
      </trkpt>
      <trkpt lat="48.39816" lon="7.20024">
        <ele>719.2</ele>
        <time>2022-12-25T11:12:12Z</time>
      </trkpt>
      <trkpt lat="48.39815" lon="7.20009">
        <ele>718.2</ele>
        <time>2022-12-25T11:12:14Z</time>
      </trkpt>
      <trkpt lat="48.39814" lon="7.19995">
        <ele>717.2</ele>
        <time>2022-12-25T11:12:16Z</time>
      </trkpt>
      <trkpt lat="48.39814" lon="7.19988">
        <ele>716.4</ele>
        <time>2022-12-25T11:12:17Z</time>
      </trkpt>
      <trkpt lat="48.39813" lon="7.19981">
        <ele>716</ele>
        <time>2022-12-25T11:12:18Z</time>
      </trkpt>
      <trkpt lat="48.39813" lon="7.19974">
        <ele>715.8</ele>
        <time>2022-12-25T11:12:19Z</time>
      </trkpt>
      <trkpt lat="48.39815" lon="7.19961">
        <ele>714.6</ele>
        <time>2022-12-25T11:12:21Z</time>
      </trkpt>
      <trkpt lat="48.39815" lon="7.19955">
        <ele>713.8</ele>
        <time>2022-12-25T11:12:22Z</time>
      </trkpt>
      <trkpt lat="48.39815" lon="7.19949">
        <ele>712.8</ele>
        <time>2022-12-25T11:12:23Z</time>
      </trkpt>
      <trkpt lat="48.39814" lon="7.19934">
        <ele>711.4</ele>
        <time>2022-12-25T11:12:25Z</time>
      </trkpt>
      <trkpt lat="48.39813" lon="7.19929">
        <ele>711.2</ele>
        <time>2022-12-25T11:12:26Z</time>
      </trkpt>
      <trkpt lat="48.39811" lon="7.19915">
        <ele>710.2</ele>
        <time>2022-12-25T11:12:28Z</time>
      </trkpt>
      <trkpt lat="48.3981" lon="7.19906">
        <ele>709.6</ele>
        <time>2022-12-25T11:12:29Z</time>
      </trkpt>
      <trkpt lat="48.39811" lon="7.19893">
        <ele>708.8</ele>
        <time>2022-12-25T11:12:31Z</time>
      </trkpt>
      <trkpt lat="48.39812" lon="7.19886">
        <ele>708.8</ele>
        <time>2022-12-25T11:12:32Z</time>
      </trkpt>
      <trkpt lat="48.3981" lon="7.1986">
        <ele>707.2</ele>
        <time>2022-12-25T11:12:35Z</time>
      </trkpt>
      <trkpt lat="48.39809" lon="7.19843">
        <ele>706.2</ele>
        <time>2022-12-25T11:12:37Z</time>
      </trkpt>
      <trkpt lat="48.39805" lon="7.19812">
        <ele>704.8</ele>
        <time>2022-12-25T11:12:40Z</time>
      </trkpt>
      <trkpt lat="48.39799" lon="7.1978">
        <ele>703.8</ele>
        <time>2022-12-25T11:12:43Z</time>
      </trkpt>
      <trkpt lat="48.39796" lon="7.1977">
        <ele>703.4</ele>
        <time>2022-12-25T11:12:44Z</time>
      </trkpt>
      <trkpt lat="48.39789" lon="7.19728">
        <ele>702.6</ele>
        <time>2022-12-25T11:12:48Z</time>
      </trkpt>
      <trkpt lat="48.39788" lon="7.19717">
        <ele>702.2</ele>
        <time>2022-12-25T11:12:49Z</time>
      </trkpt>
      <trkpt lat="48.39786" lon="7.19695">
        <ele>701.2</ele>
        <time>2022-12-25T11:12:51Z</time>
      </trkpt>
      <trkpt lat="48.3978" lon="7.19648">
        <ele>699.8</ele>
        <time>2022-12-25T11:12:55Z</time>
      </trkpt>
      <trkpt lat="48.39777" lon="7.19631">
        <ele>699</ele>
        <time>2022-12-25T11:12:57Z</time>
      </trkpt>
      <trkpt lat="48.39775" lon="7.1962">
        <ele>698.6</ele>
        <time>2022-12-25T11:12:58Z</time>
      </trkpt>
      <trkpt lat="48.39774" lon="7.19613">
        <ele>698.2</ele>
        <time>2022-12-25T11:12:59Z</time>
      </trkpt>
      <trkpt lat="48.39772" lon="7.19594">
        <ele>697.6</ele>
        <time>2022-12-25T11:13:01Z</time>
      </trkpt>
      <trkpt lat="48.39772" lon="7.19583">
        <ele>697.2</ele>
        <time>2022-12-25T11:13:02Z</time>
      </trkpt>
      <trkpt lat="48.39774" lon="7.19569">
        <ele>696</ele>
        <time>2022-12-25T11:13:03Z</time>
      </trkpt>
      <trkpt lat="48.39777" lon="7.19546">
        <ele>694.8</ele>
        <time>2022-12-25T11:13:05Z</time>
      </trkpt>
      <trkpt lat="48.39779" lon="7.19537">
        <ele>693.8</ele>
        <time>2022-12-25T11:13:06Z</time>
      </trkpt>
      <trkpt lat="48.39781" lon="7.19509">
        <ele>692.8</ele>
        <time>2022-12-25T11:13:08Z</time>
      </trkpt>
      <trkpt lat="48.39782" lon="7.19486">
        <ele>691.8</ele>
        <time>2022-12-25T11:13:10Z</time>
      </trkpt>
      <trkpt lat="48.39785" lon="7.19461">
        <ele>689.8</ele>
        <time>2022-12-25T11:13:12Z</time>
      </trkpt>
      <trkpt lat="48.39787" lon="7.19432">
        <ele>688.8</ele>
        <time>2022-12-25T11:13:14Z</time>
      </trkpt>
      <trkpt lat="48.39788" lon="7.19421">
        <ele>688.4</ele>
        <time>2022-12-25T11:13:15Z</time>
      </trkpt>
      <trkpt lat="48.39793" lon="7.19393">
        <ele>687.6</ele>
        <time>2022-12-25T11:13:17Z</time>
      </trkpt>
      <trkpt lat="48.39797" lon="7.19369">
        <ele>686.2</ele>
        <time>2022-12-25T11:13:19Z</time>
      </trkpt>
      <trkpt lat="48.398" lon="7.19357">
        <ele>686</ele>
        <time>2022-12-25T11:13:20Z</time>
      </trkpt>
      <trkpt lat="48.39804" lon="7.19345">
        <ele>685.8</ele>
        <time>2022-12-25T11:13:21Z</time>
      </trkpt>
      <trkpt lat="48.39815" lon="7.19307">
        <ele>685.2</ele>
        <time>2022-12-25T11:13:24Z</time>
      </trkpt>
      <trkpt lat="48.3982" lon="7.19282">
        <ele>684.8</ele>
        <time>2022-12-25T11:13:26Z</time>
      </trkpt>
      <trkpt lat="48.39823" lon="7.19257">
        <ele>684.2</ele>
        <time>2022-12-25T11:13:28Z</time>
      </trkpt>
      <trkpt lat="48.39823" lon="7.19235">
        <ele>683.8</ele>
        <time>2022-12-25T11:13:30Z</time>
      </trkpt>
      <trkpt lat="48.39822" lon="7.19223">
        <ele>683.8</ele>
        <time>2022-12-25T11:13:31Z</time>
      </trkpt>
      <trkpt lat="48.3982" lon="7.19164">
        <ele>683.2</ele>
        <time>2022-12-25T11:13:36Z</time>
      </trkpt>
      <trkpt lat="48.3982" lon="7.1915">
        <ele>683.2</ele>
        <time>2022-12-25T11:13:37Z</time>
      </trkpt>
      <trkpt lat="48.39821" lon="7.1913">
        <ele>683</ele>
        <time>2022-12-25T11:13:39Z</time>
      </trkpt>
      <trkpt lat="48.39826" lon="7.1911">
        <ele>682.8</ele>
        <time>2022-12-25T11:13:41Z</time>
      </trkpt>
      <trkpt lat="48.39834" lon="7.19083">
        <ele>682.8</ele>
        <time>2022-12-25T11:13:44Z</time>
      </trkpt>
      <trkpt lat="48.39842" lon="7.19068">
        <ele>682.6</ele>
        <time>2022-12-25T11:13:46Z</time>
      </trkpt>
      <trkpt lat="48.39847" lon="7.1906">
        <ele>682.4</ele>
        <time>2022-12-25T11:13:47Z</time>
      </trkpt>
      <trkpt lat="48.39852" lon="7.19049">
        <ele>682.2</ele>
        <time>2022-12-25T11:13:49Z</time>
      </trkpt>
      <trkpt lat="48.39853" lon="7.19041">
        <ele>681.8</ele>
        <time>2022-12-25T11:13:51Z</time>
      </trkpt>
      <trkpt lat="48.39854" lon="7.19037">
        <ele>681.4</ele>
        <time>2022-12-25T11:13:52Z</time>
      </trkpt>
      <trkpt lat="48.39857" lon="7.19028">
        <ele>681.4</ele>
        <time>2022-12-25T11:13:54Z</time>
      </trkpt>
      <trkpt lat="48.39863" lon="7.19016">
        <ele>680.8</ele>
        <time>2022-12-25T11:13:56Z</time>
      </trkpt>
      <trkpt lat="48.3987" lon="7.18998">
        <ele>680</ele>
        <time>2022-12-25T11:13:58Z</time>
      </trkpt>
      <trkpt lat="48.39875" lon="7.18988">
        <ele>679.6</ele>
        <time>2022-12-25T11:13:59Z</time>
      </trkpt>
      <trkpt lat="48.3988" lon="7.18978">
        <ele>679.4</ele>
        <time>2022-12-25T11:14:00Z</time>
      </trkpt>
      <trkpt lat="48.39894" lon="7.18953">
        <ele>678.2</ele>
        <time>2022-12-25T11:14:02Z</time>
      </trkpt>
      <trkpt lat="48.39921" lon="7.18907">
        <ele>677.2</ele>
        <time>2022-12-25T11:14:06Z</time>
      </trkpt>
      <trkpt lat="48.39961" lon="7.18839">
        <ele>676.2</ele>
        <time>2022-12-25T11:14:12Z</time>
      </trkpt>
      <trkpt lat="48.39967" lon="7.18824">
        <ele>676.2</ele>
        <time>2022-12-25T11:14:13Z</time>
      </trkpt>
      <trkpt lat="48.39983" lon="7.18772">
        <ele>674.6</ele>
        <time>2022-12-25T11:14:17Z</time>
      </trkpt>
      <trkpt lat="48.39987" lon="7.1876">
        <ele>674.4</ele>
        <time>2022-12-25T11:14:18Z</time>
      </trkpt>
      <trkpt lat="48.39998" lon="7.18727">
        <ele>673.4</ele>
        <time>2022-12-25T11:14:21Z</time>
      </trkpt>
      <trkpt lat="48.40015" lon="7.18672">
        <ele>673</ele>
        <time>2022-12-25T11:14:26Z</time>
      </trkpt>
      <trkpt lat="48.40034" lon="7.18606">
        <ele>672.2</ele>
        <time>2022-12-25T11:14:32Z</time>
      </trkpt>
      <trkpt lat="48.40036" lon="7.18595">
        <ele>671.8</ele>
        <time>2022-12-25T11:14:33Z</time>
      </trkpt>
      <trkpt lat="48.40042" lon="7.18573">
        <ele>671</ele>
        <time>2022-12-25T11:14:35Z</time>
      </trkpt>
      <trkpt lat="48.40048" lon="7.18542">
        <ele>670</ele>
        <time>2022-12-25T11:14:38Z</time>
      </trkpt>
      <trkpt lat="48.4005" lon="7.18526">
        <ele>669.4</ele>
        <time>2022-12-25T11:14:40Z</time>
      </trkpt>
      <trkpt lat="48.40051" lon="7.18509">
        <ele>668.6</ele>
        <time>2022-12-25T11:14:42Z</time>
      </trkpt>
      <trkpt lat="48.40055" lon="7.18496">
        <ele>667.8</ele>
        <time>2022-12-25T11:14:44Z</time>
      </trkpt>
      <trkpt lat="48.40062" lon="7.18493">
        <ele>667.2</ele>
        <time>2022-12-25T11:14:46Z</time>
      </trkpt>
      <trkpt lat="48.40075" lon="7.18497">
        <ele>666.2</ele>
        <time>2022-12-25T11:14:49Z</time>
      </trkpt>
      <trkpt lat="48.4008" lon="7.18497">
        <ele>666.2</ele>
        <time>2022-12-25T11:14:50Z</time>
      </trkpt>
      <trkpt lat="48.40084" lon="7.18497">
        <ele>666</ele>
        <time>2022-12-25T11:14:51Z</time>
      </trkpt>
      <trkpt lat="48.40102" lon="7.18497">
        <ele>665.8</ele>
        <time>2022-12-25T11:14:55Z</time>
      </trkpt>
      <trkpt lat="48.4011" lon="7.18497">
        <ele>665.8</ele>
        <time>2022-12-25T11:14:57Z</time>
      </trkpt>
      <trkpt lat="48.40113" lon="7.18497">
        <ele>665.8</ele>
        <time>2022-12-25T11:14:58Z</time>
      </trkpt>
      <trkpt lat="48.40116" lon="7.18497">
        <ele>666.2</ele>
        <time>2022-12-25T11:14:59Z</time>
      </trkpt>
      <trkpt lat="48.40122" lon="7.18498">
        <ele>666.2</ele>
        <time>2022-12-25T11:15:01Z</time>
      </trkpt>
      <trkpt lat="48.40128" lon="7.18497">
        <ele>666.4</ele>
        <time>2022-12-25T11:15:03Z</time>
      </trkpt>
      <trkpt lat="48.40133" lon="7.18497">
        <ele>666.6</ele>
        <time>2022-12-25T11:15:05Z</time>
      </trkpt>
      <trkpt lat="48.40138" lon="7.18496">
        <ele>666.6</ele>
        <time>2022-12-25T11:15:07Z</time>
      </trkpt>
      <trkpt lat="48.40142" lon="7.18496">
        <ele>666.8</ele>
        <time>2022-12-25T11:15:08Z</time>
      </trkpt>
      <trkpt lat="48.40157" lon="7.18495">
        <ele>667</ele>
        <time>2022-12-25T11:15:11Z</time>
      </trkpt>
      <trkpt lat="48.40175" lon="7.18495">
        <ele>667</ele>
        <time>2022-12-25T11:15:15Z</time>
      </trkpt>
      <trkpt lat="48.40184" lon="7.18497">
        <ele>666.6</ele>
        <time>2022-12-25T11:15:17Z</time>
      </trkpt>
      <trkpt lat="48.4023" lon="7.18503">
        <ele>666.2</ele>
        <time>2022-12-25T11:15:23Z</time>
      </trkpt>
      <trkpt lat="48.4024" lon="7.18507">
        <ele>666.2</ele>
        <time>2022-12-25T11:15:25Z</time>
      </trkpt>
      <trkpt lat="48.40253" lon="7.18514">
        <ele>666.2</ele>
        <time>2022-12-25T11:15:27Z</time>
      </trkpt>
      <trkpt lat="48.40264" lon="7.18518">
        <ele>666</ele>
        <time>2022-12-25T11:15:28Z</time>
      </trkpt>
      <trkpt lat="48.40269" lon="7.1852">
        <ele>666</ele>
        <time>2022-12-25T11:15:29Z</time>
      </trkpt>
      <trkpt lat="48.40292" lon="7.18532">
        <ele>665.6</ele>
        <time>2022-12-25T11:15:32Z</time>
      </trkpt>
      <trkpt lat="48.40306" lon="7.18539">
        <ele>665</ele>
        <time>2022-12-25T11:15:34Z</time>
      </trkpt>
      <trkpt lat="48.40322" lon="7.18545">
        <ele>664.2</ele>
        <time>2022-12-25T11:15:36Z</time>
      </trkpt>
      <trkpt lat="48.40329" lon="7.1855">
        <ele>663.8</ele>
        <time>2022-12-25T11:15:37Z</time>
      </trkpt>
      <trkpt lat="48.40338" lon="7.1856">
        <ele>662.6</ele>
        <time>2022-12-25T11:15:39Z</time>
      </trkpt>
      <trkpt lat="48.40352" lon="7.1857">
        <ele>661.8</ele>
        <time>2022-12-25T11:15:41Z</time>
      </trkpt>
      <trkpt lat="48.40356" lon="7.18575">
        <ele>661.4</ele>
        <time>2022-12-25T11:15:42Z</time>
      </trkpt>
      <trkpt lat="48.40365" lon="7.1858">
        <ele>660.4</ele>
        <time>2022-12-25T11:15:44Z</time>
      </trkpt>
      <trkpt lat="48.40368" lon="7.18583">
        <ele>659.8</ele>
        <time>2022-12-25T11:15:45Z</time>
      </trkpt>
      <trkpt lat="48.40372" lon="7.18587">
        <ele>659.2</ele>
        <time>2022-12-25T11:15:46Z</time>
      </trkpt>
      <trkpt lat="48.40377" lon="7.18589">
        <ele>658.8</ele>
        <time>2022-12-25T11:15:47Z</time>
      </trkpt>
      <trkpt lat="48.40379" lon="7.18589">
        <ele>658</ele>
        <time>2022-12-25T11:15:48Z</time>
      </trkpt>
      <trkpt lat="48.40385" lon="7.18587">
        <ele>657.6</ele>
        <time>2022-12-25T11:15:49Z</time>
      </trkpt>
      <trkpt lat="48.40388" lon="7.18584">
        <ele>657.4</ele>
        <time>2022-12-25T11:15:50Z</time>
      </trkpt>
      <trkpt lat="48.40391" lon="7.18579">
        <ele>656.6</ele>
        <time>2022-12-25T11:15:51Z</time>
      </trkpt>
      <trkpt lat="48.40402" lon="7.18558">
        <ele>655.2</ele>
        <time>2022-12-25T11:15:54Z</time>
      </trkpt>
      <trkpt lat="48.40406" lon="7.18551">
        <ele>654.6</ele>
        <time>2022-12-25T11:15:55Z</time>
      </trkpt>
      <trkpt lat="48.40411" lon="7.18545">
        <ele>654.2</ele>
        <time>2022-12-25T11:15:56Z</time>
      </trkpt>
      <trkpt lat="48.40418" lon="7.18537">
        <ele>653.4</ele>
        <time>2022-12-25T11:15:57Z</time>
      </trkpt>
      <trkpt lat="48.40424" lon="7.18531">
        <ele>653.2</ele>
        <time>2022-12-25T11:15:58Z</time>
      </trkpt>
      <trkpt lat="48.40431" lon="7.18523">
        <ele>652.8</ele>
        <time>2022-12-25T11:15:59Z</time>
      </trkpt>
      <trkpt lat="48.40442" lon="7.18511">
        <ele>651.8</ele>
        <time>2022-12-25T11:16:01Z</time>
      </trkpt>
      <trkpt lat="48.40455" lon="7.18496">
        <ele>650.4</ele>
        <time>2022-12-25T11:16:03Z</time>
      </trkpt>
      <trkpt lat="48.40461" lon="7.18489">
        <ele>650</ele>
        <time>2022-12-25T11:16:04Z</time>
      </trkpt>
      <trkpt lat="48.40474" lon="7.18475">
        <ele>649.6</ele>
        <time>2022-12-25T11:16:05Z</time>
      </trkpt>
      <trkpt lat="48.40482" lon="7.18469">
        <ele>648.8</ele>
        <time>2022-12-25T11:16:06Z</time>
      </trkpt>
      <trkpt lat="48.40494" lon="7.18453">
        <ele>647.8</ele>
        <time>2022-12-25T11:16:08Z</time>
      </trkpt>
      <trkpt lat="48.40499" lon="7.18446">
        <ele>647.4</ele>
        <time>2022-12-25T11:16:09Z</time>
      </trkpt>
      <trkpt lat="48.40505" lon="7.18439">
        <ele>646.6</ele>
        <time>2022-12-25T11:16:10Z</time>
      </trkpt>
      <trkpt lat="48.40511" lon="7.18431">
        <ele>646.2</ele>
        <time>2022-12-25T11:16:11Z</time>
      </trkpt>
      <trkpt lat="48.40522" lon="7.18419">
        <ele>645.2</ele>
        <time>2022-12-25T11:16:13Z</time>
      </trkpt>
      <trkpt lat="48.40528" lon="7.18413">
        <ele>644</ele>
        <time>2022-12-25T11:16:14Z</time>
      </trkpt>
      <trkpt lat="48.40533" lon="7.18405">
        <ele>642.8</ele>
        <time>2022-12-25T11:16:15Z</time>
      </trkpt>
      <trkpt lat="48.40533" lon="7.18405">
        <ele>641.4</ele>
        <time>2022-12-25T11:16:16Z</time>
      </trkpt>
      <trkpt lat="48.40548" lon="7.18392">
        <ele>641</ele>
        <time>2022-12-25T11:16:17Z</time>
      </trkpt>
      <trkpt lat="48.40554" lon="7.18384">
        <ele>640.2</ele>
        <time>2022-12-25T11:16:18Z</time>
      </trkpt>
      <trkpt lat="48.40559" lon="7.18378">
        <ele>639.4</ele>
        <time>2022-12-25T11:16:19Z</time>
      </trkpt>
      <trkpt lat="48.40565" lon="7.1837">
        <ele>639</ele>
        <time>2022-12-25T11:16:20Z</time>
      </trkpt>
      <trkpt lat="48.40583" lon="7.18345">
        <ele>638</ele>
        <time>2022-12-25T11:16:23Z</time>
      </trkpt>
      <trkpt lat="48.40592" lon="7.18331">
        <ele>637.2</ele>
        <time>2022-12-25T11:16:25Z</time>
      </trkpt>
      <trkpt lat="48.406" lon="7.18315">
        <ele>636.6</ele>
        <time>2022-12-25T11:16:27Z</time>
      </trkpt>
      <trkpt lat="48.40604" lon="7.18297">
        <ele>636.4</ele>
        <time>2022-12-25T11:16:29Z</time>
      </trkpt>
      <trkpt lat="48.40607" lon="7.18286">
        <ele>636</ele>
        <time>2022-12-25T11:16:30Z</time>
      </trkpt>
      <trkpt lat="48.40607" lon="7.18286">
        <ele>635.6</ele>
        <time>2022-12-25T11:16:31Z</time>
      </trkpt>
      <trkpt lat="48.40611" lon="7.18251">
        <ele>634.8</ele>
        <time>2022-12-25T11:16:34Z</time>
      </trkpt>
      <trkpt lat="48.40612" lon="7.18241">
        <ele>634.4</ele>
        <time>2022-12-25T11:16:35Z</time>
      </trkpt>
      <trkpt lat="48.40616" lon="7.18193">
        <ele>633.2</ele>
        <time>2022-12-25T11:16:40Z</time>
      </trkpt>
      <trkpt lat="48.40618" lon="7.1816">
        <ele>632.4</ele>
        <time>2022-12-25T11:16:43Z</time>
      </trkpt>
      <trkpt lat="48.40616" lon="7.18151">
        <ele>631.6</ele>
        <time>2022-12-25T11:16:44Z</time>
      </trkpt>
      <trkpt lat="48.40615" lon="7.18139">
        <ele>631.2</ele>
        <time>2022-12-25T11:16:45Z</time>
      </trkpt>
      <trkpt lat="48.40615" lon="7.18127">
        <ele>630</ele>
        <time>2022-12-25T11:16:46Z</time>
      </trkpt>
      <trkpt lat="48.40612" lon="7.18103">
        <ele>628</ele>
        <time>2022-12-25T11:16:48Z</time>
      </trkpt>
      <trkpt lat="48.40611" lon="7.18094">
        <ele>627.8</ele>
        <time>2022-12-25T11:16:49Z</time>
      </trkpt>
      <trkpt lat="48.40605" lon="7.18075">
        <ele>626</ele>
        <time>2022-12-25T11:16:51Z</time>
      </trkpt>
      <trkpt lat="48.406" lon="7.18058">
        <ele>624.4</ele>
        <time>2022-12-25T11:16:53Z</time>
      </trkpt>
      <trkpt lat="48.40599" lon="7.18049">
        <ele>623.8</ele>
        <time>2022-12-25T11:16:54Z</time>
      </trkpt>
      <trkpt lat="48.40596" lon="7.1804">
        <ele>622</ele>
        <time>2022-12-25T11:16:55Z</time>
      </trkpt>
      <trkpt lat="48.40595" lon="7.18031">
        <ele>621.4</ele>
        <time>2022-12-25T11:16:56Z</time>
      </trkpt>
      <trkpt lat="48.40592" lon="7.18019">
        <ele>620.2</ele>
        <time>2022-12-25T11:16:57Z</time>
      </trkpt>
      <trkpt lat="48.40586" lon="7.18">
        <ele>618.8</ele>
        <time>2022-12-25T11:16:59Z</time>
      </trkpt>
      <trkpt lat="48.40584" lon="7.17989">
        <ele>618.4</ele>
        <time>2022-12-25T11:17:00Z</time>
      </trkpt>
      <trkpt lat="48.40584" lon="7.17989">
        <ele>617.4</ele>
        <time>2022-12-25T11:17:01Z</time>
      </trkpt>
      <trkpt lat="48.40583" lon="7.17969">
        <ele>616.8</ele>
        <time>2022-12-25T11:17:02Z</time>
      </trkpt>
      <trkpt lat="48.4058" lon="7.17956">
        <ele>615.8</ele>
        <time>2022-12-25T11:17:03Z</time>
      </trkpt>
      <trkpt lat="48.40574" lon="7.17935">
        <ele>614</ele>
        <time>2022-12-25T11:17:05Z</time>
      </trkpt>
      <trkpt lat="48.40568" lon="7.17914">
        <ele>611.8</ele>
        <time>2022-12-25T11:17:07Z</time>
      </trkpt>
      <trkpt lat="48.40567" lon="7.17906">
        <ele>610.2</ele>
        <time>2022-12-25T11:17:08Z</time>
      </trkpt>
      <trkpt lat="48.40565" lon="7.17901">
        <ele>609.8</ele>
        <time>2022-12-25T11:17:09Z</time>
      </trkpt>
      <trkpt lat="48.40564" lon="7.17894">
        <ele>608.8</ele>
        <time>2022-12-25T11:17:10Z</time>
      </trkpt>
      <trkpt lat="48.40562" lon="7.17887">
        <ele>607.8</ele>
        <time>2022-12-25T11:17:11Z</time>
      </trkpt>
      <trkpt lat="48.40561" lon="7.1788">
        <ele>605.8</ele>
        <time>2022-12-25T11:17:12Z</time>
      </trkpt>
      <trkpt lat="48.40558" lon="7.17863">
        <ele>604.2</ele>
        <time>2022-12-25T11:17:14Z</time>
      </trkpt>
      <trkpt lat="48.40557" lon="7.17858">
        <ele>604</ele>
        <time>2022-12-25T11:17:15Z</time>
      </trkpt>
      <trkpt lat="48.40555" lon="7.1785">
        <ele>603.2</ele>
        <time>2022-12-25T11:17:16Z</time>
      </trkpt>
      <trkpt lat="48.40553" lon="7.17841">
        <ele>602.2</ele>
        <time>2022-12-25T11:17:17Z</time>
      </trkpt>
      <trkpt lat="48.40553" lon="7.17832">
        <ele>600.8</ele>
        <time>2022-12-25T11:17:18Z</time>
      </trkpt>
      <trkpt lat="48.40552" lon="7.17826">
        <ele>599.4</ele>
        <time>2022-12-25T11:17:20Z</time>
      </trkpt>
      <trkpt lat="48.40551" lon="7.17818">
        <ele>599</ele>
        <time>2022-12-25T11:17:21Z</time>
      </trkpt>
      <trkpt lat="48.40548" lon="7.17801">
        <ele>598</ele>
        <time>2022-12-25T11:17:22Z</time>
      </trkpt>
      <trkpt lat="48.40547" lon="7.17793">
        <ele>597.4</ele>
        <time>2022-12-25T11:17:23Z</time>
      </trkpt>
      <trkpt lat="48.40546" lon="7.17784">
        <ele>596</ele>
        <time>2022-12-25T11:17:24Z</time>
      </trkpt>
      <trkpt lat="48.40544" lon="7.17765">
        <ele>594.6</ele>
        <time>2022-12-25T11:17:26Z</time>
      </trkpt>
      <trkpt lat="48.40542" lon="7.17756">
        <ele>593.2</ele>
        <time>2022-12-25T11:17:27Z</time>
      </trkpt>
      <trkpt lat="48.40537" lon="7.17732">
        <ele>590.8</ele>
        <time>2022-12-25T11:17:29Z</time>
      </trkpt>
      <trkpt lat="48.40533" lon="7.1771">
        <ele>588.6</ele>
        <time>2022-12-25T11:17:31Z</time>
      </trkpt>
      <trkpt lat="48.40528" lon="7.17687">
        <ele>586.6</ele>
        <time>2022-12-25T11:17:33Z</time>
      </trkpt>
      <trkpt lat="48.40525" lon="7.17666">
        <ele>583.2</ele>
        <time>2022-12-25T11:17:35Z</time>
      </trkpt>
      <trkpt lat="48.40525" lon="7.17666">
        <ele>582.4</ele>
        <time>2022-12-25T11:17:36Z</time>
      </trkpt>
      <trkpt lat="48.40523" lon="7.17646">
        <ele>581.6</ele>
        <time>2022-12-25T11:17:37Z</time>
      </trkpt>
      <trkpt lat="48.40522" lon="7.17636">
        <ele>580.6</ele>
        <time>2022-12-25T11:17:38Z</time>
      </trkpt>
      <trkpt lat="48.40522" lon="7.17627">
        <ele>579.6</ele>
        <time>2022-12-25T11:17:39Z</time>
      </trkpt>
      <trkpt lat="48.40523" lon="7.17618">
        <ele>579</ele>
        <time>2022-12-25T11:17:40Z</time>
      </trkpt>
      <trkpt lat="48.40524" lon="7.1761">
        <ele>578.6</ele>
        <time>2022-12-25T11:17:41Z</time>
      </trkpt>
      <trkpt lat="48.40526" lon="7.17602">
        <ele>578.2</ele>
        <time>2022-12-25T11:17:42Z</time>
      </trkpt>
      <trkpt lat="48.40529" lon="7.17585">
        <ele>577.8</ele>
        <time>2022-12-25T11:17:44Z</time>
      </trkpt>
      <trkpt lat="48.40532" lon="7.17577">
        <ele>577.6</ele>
        <time>2022-12-25T11:17:45Z</time>
      </trkpt>
      <trkpt lat="48.40534" lon="7.17561">
        <ele>576.4</ele>
        <time>2022-12-25T11:17:47Z</time>
      </trkpt>
      <trkpt lat="48.40535" lon="7.17554">
        <ele>575.2</ele>
        <time>2022-12-25T11:17:48Z</time>
      </trkpt>
      <trkpt lat="48.40537" lon="7.17539">
        <ele>573.2</ele>
        <time>2022-12-25T11:17:50Z</time>
      </trkpt>
      <trkpt lat="48.40538" lon="7.17523">
        <ele>570.6</ele>
        <time>2022-12-25T11:17:52Z</time>
      </trkpt>
      <trkpt lat="48.40537" lon="7.17505">
        <ele>569</ele>
        <time>2022-12-25T11:17:54Z</time>
      </trkpt>
      <trkpt lat="48.40539" lon="7.17496">
        <ele>568.4</ele>
        <time>2022-12-25T11:17:55Z</time>
      </trkpt>
      <trkpt lat="48.40542" lon="7.1749">
        <ele>567.4</ele>
        <time>2022-12-25T11:17:56Z</time>
      </trkpt>
      <trkpt lat="48.40547" lon="7.17473">
        <ele>566.2</ele>
        <time>2022-12-25T11:17:58Z</time>
      </trkpt>
      <trkpt lat="48.40552" lon="7.17455">
        <ele>565.4</ele>
        <time>2022-12-25T11:18:00Z</time>
      </trkpt>
      <trkpt lat="48.40555" lon="7.17446">
        <ele>564.8</ele>
        <time>2022-12-25T11:18:01Z</time>
      </trkpt>
      <trkpt lat="48.40558" lon="7.17433">
        <ele>564</ele>
        <time>2022-12-25T11:18:02Z</time>
      </trkpt>
      <trkpt lat="48.40558" lon="7.17433">
        <ele>562.6</ele>
        <time>2022-12-25T11:18:03Z</time>
      </trkpt>
      <trkpt lat="48.40563" lon="7.1741">
        <ele>562.2</ele>
        <time>2022-12-25T11:18:04Z</time>
      </trkpt>
      <trkpt lat="48.40566" lon="7.17398">
        <ele>560.8</ele>
        <time>2022-12-25T11:18:05Z</time>
      </trkpt>
      <trkpt lat="48.40568" lon="7.17389">
        <ele>560</ele>
        <time>2022-12-25T11:18:06Z</time>
      </trkpt>
      <trkpt lat="48.4057" lon="7.17373">
        <ele>558</ele>
        <time>2022-12-25T11:18:07Z</time>
      </trkpt>
      <trkpt lat="48.4057" lon="7.17349">
        <ele>555.2</ele>
        <time>2022-12-25T11:18:09Z</time>
      </trkpt>
      <trkpt lat="48.40571" lon="7.17339">
        <ele>554.6</ele>
        <time>2022-12-25T11:18:10Z</time>
      </trkpt>
      <trkpt lat="48.40572" lon="7.17327">
        <ele>553.8</ele>
        <time>2022-12-25T11:18:11Z</time>
      </trkpt>
      <trkpt lat="48.40573" lon="7.17304">
        <ele>552.6</ele>
        <time>2022-12-25T11:18:13Z</time>
      </trkpt>
      <trkpt lat="48.40576" lon="7.17282">
        <ele>551.8</ele>
        <time>2022-12-25T11:18:15Z</time>
      </trkpt>
      <trkpt lat="48.40577" lon="7.17272">
        <ele>551.4</ele>
        <time>2022-12-25T11:18:16Z</time>
      </trkpt>
      <trkpt lat="48.40579" lon="7.17264">
        <ele>551.2</ele>
        <time>2022-12-25T11:18:17Z</time>
      </trkpt>
      <trkpt lat="48.40579" lon="7.17249">
        <ele>550.4</ele>
        <time>2022-12-25T11:18:19Z</time>
      </trkpt>
      <trkpt lat="48.40579" lon="7.17237">
        <ele>548.8</ele>
        <time>2022-12-25T11:18:21Z</time>
      </trkpt>
      <trkpt lat="48.40579" lon="7.17232">
        <ele>547.2</ele>
        <time>2022-12-25T11:18:22Z</time>
      </trkpt>
      <trkpt lat="48.4058" lon="7.17228">
        <ele>546.6</ele>
        <time>2022-12-25T11:18:23Z</time>
      </trkpt>
      <trkpt lat="48.4058" lon="7.17224">
        <ele>545.8</ele>
        <time>2022-12-25T11:18:24Z</time>
      </trkpt>
      <trkpt lat="48.40579" lon="7.17216">
        <ele>544.8</ele>
        <time>2022-12-25T11:18:26Z</time>
      </trkpt>
      <trkpt lat="48.40582" lon="7.17204">
        <ele>544.2</ele>
        <time>2022-12-25T11:18:28Z</time>
      </trkpt>
      <trkpt lat="48.40587" lon="7.1719">
        <ele>543.8</ele>
        <time>2022-12-25T11:18:30Z</time>
      </trkpt>
      <trkpt lat="48.40593" lon="7.17173">
        <ele>543</ele>
        <time>2022-12-25T11:18:32Z</time>
      </trkpt>
      <trkpt lat="48.40596" lon="7.17166">
        <ele>542.4</ele>
        <time>2022-12-25T11:18:33Z</time>
      </trkpt>
      <trkpt lat="48.40598" lon="7.17156">
        <ele>542.2</ele>
        <time>2022-12-25T11:18:34Z</time>
      </trkpt>
      <trkpt lat="48.40597" lon="7.17146">
        <ele>541.2</ele>
        <time>2022-12-25T11:18:36Z</time>
      </trkpt>
      <trkpt lat="48.40605" lon="7.17123">
        <ele>540.2</ele>
        <time>2022-12-25T11:18:38Z</time>
      </trkpt>
      <trkpt lat="48.40605" lon="7.17123">
        <ele>539.2</ele>
        <time>2022-12-25T11:18:39Z</time>
      </trkpt>
      <trkpt lat="48.40605" lon="7.17109">
        <ele>538.8</ele>
        <time>2022-12-25T11:18:40Z</time>
      </trkpt>
      <trkpt lat="48.40604" lon="7.17101">
        <ele>538</ele>
        <time>2022-12-25T11:18:42Z</time>
      </trkpt>
      <trkpt lat="48.40601" lon="7.1708">
        <ele>537.2</ele>
        <time>2022-12-25T11:18:43Z</time>
      </trkpt>
      <trkpt lat="48.40598" lon="7.1707">
        <ele>536.4</ele>
        <time>2022-12-25T11:18:44Z</time>
      </trkpt>
      <trkpt lat="48.40598" lon="7.17061">
        <ele>535.6</ele>
        <time>2022-12-25T11:18:45Z</time>
      </trkpt>
      <trkpt lat="48.40594" lon="7.17051">
        <ele>535</ele>
        <time>2022-12-25T11:18:46Z</time>
      </trkpt>
      <trkpt lat="48.40592" lon="7.17041">
        <ele>534.8</ele>
        <time>2022-12-25T11:18:47Z</time>
      </trkpt>
      <trkpt lat="48.40589" lon="7.1703">
        <ele>534.4</ele>
        <time>2022-12-25T11:18:48Z</time>
      </trkpt>
      <trkpt lat="48.40585" lon="7.17023">
        <ele>533.8</ele>
        <time>2022-12-25T11:18:49Z</time>
      </trkpt>
      <trkpt lat="48.4058" lon="7.17016">
        <ele>532.4</ele>
        <time>2022-12-25T11:18:51Z</time>
      </trkpt>
      <trkpt lat="48.40566" lon="7.16992">
        <ele>531.2</ele>
        <time>2022-12-25T11:18:53Z</time>
      </trkpt>
      <trkpt lat="48.40561" lon="7.16986">
        <ele>529.8</ele>
        <time>2022-12-25T11:18:54Z</time>
      </trkpt>
      <trkpt lat="48.40557" lon="7.16982">
        <ele>529.2</ele>
        <time>2022-12-25T11:18:55Z</time>
      </trkpt>
      <trkpt lat="48.40553" lon="7.16976">
        <ele>528.4</ele>
        <time>2022-12-25T11:18:56Z</time>
      </trkpt>
      <trkpt lat="48.40548" lon="7.16962">
        <ele>526.6</ele>
        <time>2022-12-25T11:18:58Z</time>
      </trkpt>
      <trkpt lat="48.40543" lon="7.16944">
        <ele>525.4</ele>
        <time>2022-12-25T11:19:00Z</time>
      </trkpt>
      <trkpt lat="48.4054" lon="7.16937">
        <ele>523.4</ele>
        <time>2022-12-25T11:19:02Z</time>
      </trkpt>
      <trkpt lat="48.40536" lon="7.16922">
        <ele>522.2</ele>
        <time>2022-12-25T11:19:03Z</time>
      </trkpt>
      <trkpt lat="48.40532" lon="7.16907">
        <ele>520.2</ele>
        <time>2022-12-25T11:19:05Z</time>
      </trkpt>
      <trkpt lat="48.40528" lon="7.16901">
        <ele>519.2</ele>
        <time>2022-12-25T11:19:06Z</time>
      </trkpt>
      <trkpt lat="48.40528" lon="7.16901">
        <ele>517.8</ele>
        <time>2022-12-25T11:19:07Z</time>
      </trkpt>
      <trkpt lat="48.40523" lon="7.1689">
        <ele>517.4</ele>
        <time>2022-12-25T11:19:08Z</time>
      </trkpt>
      <trkpt lat="48.4052" lon="7.16884">
        <ele>516.2</ele>
        <time>2022-12-25T11:19:09Z</time>
      </trkpt>
      <trkpt lat="48.40517" lon="7.1688">
        <ele>515.8</ele>
        <time>2022-12-25T11:19:10Z</time>
      </trkpt>
      <trkpt lat="48.40517" lon="7.1688">
        <ele>514.8</ele>
        <time>2022-12-25T11:19:11Z</time>
      </trkpt>
      <trkpt lat="48.40506" lon="7.16865">
        <ele>512.8</ele>
        <time>2022-12-25T11:19:13Z</time>
      </trkpt>
      <trkpt lat="48.40498" lon="7.16854">
        <ele>511.2</ele>
        <time>2022-12-25T11:19:15Z</time>
      </trkpt>
      <trkpt lat="48.40493" lon="7.16848">
        <ele>510.6</ele>
        <time>2022-12-25T11:19:16Z</time>
      </trkpt>
      <trkpt lat="48.40488" lon="7.16841">
        <ele>509.8</ele>
        <time>2022-12-25T11:19:17Z</time>
      </trkpt>
      <trkpt lat="48.40481" lon="7.1683">
        <ele>509</ele>
        <time>2022-12-25T11:19:19Z</time>
      </trkpt>
      <trkpt lat="48.40478" lon="7.16824">
        <ele>508.2</ele>
        <time>2022-12-25T11:19:20Z</time>
      </trkpt>
      <trkpt lat="48.40473" lon="7.16815">
        <ele>507</ele>
        <time>2022-12-25T11:19:22Z</time>
      </trkpt>
      <trkpt lat="48.40469" lon="7.16807">
        <ele>506.8</ele>
        <time>2022-12-25T11:19:23Z</time>
      </trkpt>
      <trkpt lat="48.40467" lon="7.168">
        <ele>505.6</ele>
        <time>2022-12-25T11:19:24Z</time>
      </trkpt>
      <trkpt lat="48.40466" lon="7.16794">
        <ele>505.4</ele>
        <time>2022-12-25T11:19:25Z</time>
      </trkpt>
      <trkpt lat="48.40464" lon="7.16787">
        <ele>503.8</ele>
        <time>2022-12-25T11:19:26Z</time>
      </trkpt>
      <trkpt lat="48.40461" lon="7.16773">
        <ele>502.6</ele>
        <time>2022-12-25T11:19:28Z</time>
      </trkpt>
      <trkpt lat="48.4046" lon="7.16767">
        <ele>502.2</ele>
        <time>2022-12-25T11:19:29Z</time>
      </trkpt>
      <trkpt lat="48.40459" lon="7.16761">
        <ele>501.2</ele>
        <time>2022-12-25T11:19:30Z</time>
      </trkpt>
      <trkpt lat="48.40457" lon="7.16754">
        <ele>500.8</ele>
        <time>2022-12-25T11:19:31Z</time>
      </trkpt>
      <trkpt lat="48.40457" lon="7.16754">
        <ele>500</ele>
        <time>2022-12-25T11:19:32Z</time>
      </trkpt>
      <trkpt lat="48.40455" lon="7.16739">
        <ele>499.6</ele>
        <time>2022-12-25T11:19:33Z</time>
      </trkpt>
      <trkpt lat="48.40454" lon="7.16733">
        <ele>498.6</ele>
        <time>2022-12-25T11:19:34Z</time>
      </trkpt>
      <trkpt lat="48.40453" lon="7.16729">
        <ele>497.2</ele>
        <time>2022-12-25T11:19:35Z</time>
      </trkpt>
      <trkpt lat="48.40453" lon="7.16718">
        <ele>495.8</ele>
        <time>2022-12-25T11:19:37Z</time>
      </trkpt>
      <trkpt lat="48.40451" lon="7.16707">
        <ele>494</ele>
        <time>2022-12-25T11:19:39Z</time>
      </trkpt>
      <trkpt lat="48.40448" lon="7.16697">
        <ele>492.6</ele>
        <time>2022-12-25T11:19:41Z</time>
      </trkpt>
      <trkpt lat="48.40445" lon="7.16684">
        <ele>491.2</ele>
        <time>2022-12-25T11:19:43Z</time>
      </trkpt>
      <trkpt lat="48.40445" lon="7.16684">
        <ele>490.8</ele>
        <time>2022-12-25T11:19:44Z</time>
      </trkpt>
      <trkpt lat="48.40447" lon="7.16671">
        <ele>489.6</ele>
        <time>2022-12-25T11:19:45Z</time>
      </trkpt>
      <trkpt lat="48.40452" lon="7.16658">
        <ele>488</ele>
        <time>2022-12-25T11:19:47Z</time>
      </trkpt>
      <trkpt lat="48.40455" lon="7.16652">
        <ele>487.8</ele>
        <time>2022-12-25T11:19:48Z</time>
      </trkpt>
      <trkpt lat="48.40459" lon="7.16647">
        <ele>486.4</ele>
        <time>2022-12-25T11:19:49Z</time>
      </trkpt>
      <trkpt lat="48.40463" lon="7.16643">
        <ele>485.4</ele>
        <time>2022-12-25T11:19:50Z</time>
      </trkpt>
      <trkpt lat="48.4047" lon="7.16638">
        <ele>484</ele>
        <time>2022-12-25T11:19:52Z</time>
      </trkpt>
      <trkpt lat="48.40479" lon="7.16634">
        <ele>482.8</ele>
        <time>2022-12-25T11:19:54Z</time>
      </trkpt>
      <trkpt lat="48.40483" lon="7.16631">
        <ele>482.6</ele>
        <time>2022-12-25T11:19:55Z</time>
      </trkpt>
      <trkpt lat="48.40488" lon="7.16628">
        <ele>481.4</ele>
        <time>2022-12-25T11:19:56Z</time>
      </trkpt>
      <trkpt lat="48.40501" lon="7.1662">
        <ele>479.8</ele>
        <time>2022-12-25T11:19:58Z</time>
      </trkpt>
      <trkpt lat="48.40505" lon="7.16615">
        <ele>479.2</ele>
        <time>2022-12-25T11:19:59Z</time>
      </trkpt>
      <trkpt lat="48.40506" lon="7.16605">
        <ele>478.2</ele>
        <time>2022-12-25T11:20:00Z</time>
      </trkpt>
      <trkpt lat="48.40504" lon="7.16596">
        <ele>477.6</ele>
        <time>2022-12-25T11:20:01Z</time>
      </trkpt>
      <trkpt lat="48.40502" lon="7.16586">
        <ele>476.8</ele>
        <time>2022-12-25T11:20:02Z</time>
      </trkpt>
      <trkpt lat="48.40496" lon="7.16568">
        <ele>475</ele>
        <time>2022-12-25T11:20:04Z</time>
      </trkpt>
      <trkpt lat="48.40495" lon="7.16558">
        <ele>472.6</ele>
        <time>2022-12-25T11:20:06Z</time>
      </trkpt>
      <trkpt lat="48.40496" lon="7.16553">
        <ele>470.8</ele>
        <time>2022-12-25T11:20:07Z</time>
      </trkpt>
      <trkpt lat="48.40499" lon="7.16548">
        <ele>470</ele>
        <time>2022-12-25T11:20:08Z</time>
      </trkpt>
      <trkpt lat="48.40503" lon="7.16546">
        <ele>468.8</ele>
        <time>2022-12-25T11:20:09Z</time>
      </trkpt>
      <trkpt lat="48.40514" lon="7.16549">
        <ele>467</ele>
        <time>2022-12-25T11:20:11Z</time>
      </trkpt>
      <trkpt lat="48.40519" lon="7.16552">
        <ele>466.6</ele>
        <time>2022-12-25T11:20:12Z</time>
      </trkpt>
      <trkpt lat="48.40526" lon="7.16555">
        <ele>465.6</ele>
        <time>2022-12-25T11:20:13Z</time>
      </trkpt>
      <trkpt lat="48.40531" lon="7.16558">
        <ele>465.2</ele>
        <time>2022-12-25T11:20:14Z</time>
      </trkpt>
      <trkpt lat="48.40538" lon="7.16558">
        <ele>464.8</ele>
        <time>2022-12-25T11:20:15Z</time>
      </trkpt>
      <trkpt lat="48.40544" lon="7.16557">
        <ele>464.6</ele>
        <time>2022-12-25T11:20:16Z</time>
      </trkpt>
      <trkpt lat="48.4057" lon="7.16545">
        <ele>463.6</ele>
        <time>2022-12-25T11:20:20Z</time>
      </trkpt>
      <trkpt lat="48.40575" lon="7.16544">
        <ele>463.4</ele>
        <time>2022-12-25T11:20:21Z</time>
      </trkpt>
      <trkpt lat="48.40585" lon="7.16538">
        <ele>462.6</ele>
        <time>2022-12-25T11:20:23Z</time>
      </trkpt>
      <trkpt lat="48.4059" lon="7.16534">
        <ele>461.8</ele>
        <time>2022-12-25T11:20:24Z</time>
      </trkpt>
      <trkpt lat="48.40595" lon="7.16528">
        <ele>461.4</ele>
        <time>2022-12-25T11:20:25Z</time>
      </trkpt>
      <trkpt lat="48.40599" lon="7.16522">
        <ele>460.6</ele>
        <time>2022-12-25T11:20:26Z</time>
      </trkpt>
      <trkpt lat="48.40606" lon="7.16505">
        <ele>459</ele>
        <time>2022-12-25T11:20:28Z</time>
      </trkpt>
      <trkpt lat="48.40611" lon="7.16487">
        <ele>457.6</ele>
        <time>2022-12-25T11:20:30Z</time>
      </trkpt>
      <trkpt lat="48.40616" lon="7.16467">
        <ele>455.4</ele>
        <time>2022-12-25T11:20:32Z</time>
      </trkpt>
      <trkpt lat="48.40617" lon="7.16456">
        <ele>454.4</ele>
        <time>2022-12-25T11:20:33Z</time>
      </trkpt>
      <trkpt lat="48.40618" lon="7.16447">
        <ele>453.2</ele>
        <time>2022-12-25T11:20:34Z</time>
      </trkpt>
      <trkpt lat="48.40617" lon="7.1644">
        <ele>452.4</ele>
        <time>2022-12-25T11:20:35Z</time>
      </trkpt>
      <trkpt lat="48.40616" lon="7.16433">
        <ele>450.8</ele>
        <time>2022-12-25T11:20:36Z</time>
      </trkpt>
      <trkpt lat="48.40614" lon="7.16426">
        <ele>450</ele>
        <time>2022-12-25T11:20:37Z</time>
      </trkpt>
      <trkpt lat="48.40609" lon="7.16419">
        <ele>448.4</ele>
        <time>2022-12-25T11:20:38Z</time>
      </trkpt>
      <trkpt lat="48.40606" lon="7.16408">
        <ele>446.4</ele>
        <time>2022-12-25T11:20:40Z</time>
      </trkpt>
      <trkpt lat="48.40606" lon="7.16401">
        <ele>445.2</ele>
        <time>2022-12-25T11:20:41Z</time>
      </trkpt>
      <trkpt lat="48.40606" lon="7.16388">
        <ele>443.4</ele>
        <time>2022-12-25T11:20:43Z</time>
      </trkpt>
      <trkpt lat="48.40607" lon="7.16383">
        <ele>443</ele>
        <time>2022-12-25T11:20:44Z</time>
      </trkpt>
      <trkpt lat="48.40609" lon="7.1638">
        <ele>442</ele>
        <time>2022-12-25T11:20:45Z</time>
      </trkpt>
      <trkpt lat="48.40611" lon="7.16379">
        <ele>441.6</ele>
        <time>2022-12-25T11:20:46Z</time>
      </trkpt>
      <trkpt lat="48.40612" lon="7.16378">
        <ele>441</ele>
        <time>2022-12-25T11:20:47Z</time>
      </trkpt>
      <trkpt lat="48.40613" lon="7.16378">
        <ele>440.6</ele>
        <time>2022-12-25T11:20:48Z</time>
      </trkpt>
      <trkpt lat="48.40613" lon="7.16378">
        <ele>439.8</ele>
        <time>2022-12-25T11:20:49Z</time>
      </trkpt>
      <trkpt lat="48.40613" lon="7.16378">
        <ele>438.8</ele>
        <time>2022-12-25T11:20:51Z</time>
      </trkpt>
      <trkpt lat="48.40613" lon="7.16378">
        <ele>437.8</ele>
        <time>2022-12-25T11:20:55Z</time>
      </trkpt>
      <trkpt lat="48.40613" lon="7.16378">
        <ele>437.6</ele>
        <time>2022-12-25T11:20:57Z</time>
      </trkpt>
      <trkpt lat="48.4062" lon="7.16373">
        <ele>437.6</ele>
        <time>2022-12-25T11:21:02Z</time>
      </trkpt>
      <trkpt lat="48.40623" lon="7.16369">
        <ele>437.6</ele>
        <time>2022-12-25T11:21:03Z</time>
      </trkpt>
      <trkpt lat="48.40631" lon="7.16355">
        <ele>437.6</ele>
        <time>2022-12-25T11:21:06Z</time>
      </trkpt>
      <trkpt lat="48.40648" lon="7.16331">
        <ele>437.6</ele>
        <time>2022-12-25T11:21:10Z</time>
      </trkpt>
      <trkpt lat="48.40674" lon="7.163">
        <ele>437.6</ele>
        <time>2022-12-25T11:21:15Z</time>
      </trkpt>
      <trkpt lat="48.4068" lon="7.16294">
        <ele>437.4</ele>
        <time>2022-12-25T11:21:16Z</time>
      </trkpt>
      <trkpt lat="48.40711" lon="7.16261">
        <ele>437</ele>
        <time>2022-12-25T11:21:21Z</time>
      </trkpt>
      <trkpt lat="48.40726" lon="7.16246">
        <ele>436.8</ele>
        <time>2022-12-25T11:21:23Z</time>
      </trkpt>
      <trkpt lat="48.40753" lon="7.1622">
        <ele>435.8</ele>
        <time>2022-12-25T11:21:27Z</time>
      </trkpt>
      <trkpt lat="48.40762" lon="7.16213">
        <ele>435.4</ele>
        <time>2022-12-25T11:21:28Z</time>
      </trkpt>
      <trkpt lat="48.40787" lon="7.1619">
        <ele>434.4</ele>
        <time>2022-12-25T11:21:32Z</time>
      </trkpt>
      <trkpt lat="48.40794" lon="7.16182">
        <ele>434.2</ele>
        <time>2022-12-25T11:21:33Z</time>
      </trkpt>
      <trkpt lat="48.40813" lon="7.16167">
        <ele>433.8</ele>
        <time>2022-12-25T11:21:36Z</time>
      </trkpt>
      <trkpt lat="48.40829" lon="7.16161">
        <ele>433.8</ele>
        <time>2022-12-25T11:21:38Z</time>
      </trkpt>
      <trkpt lat="48.40845" lon="7.16162">
        <ele>433.6</ele>
        <time>2022-12-25T11:21:40Z</time>
      </trkpt>
      <trkpt lat="48.40859" lon="7.16165">
        <ele>433.6</ele>
        <time>2022-12-25T11:21:42Z</time>
      </trkpt>
      <trkpt lat="48.40873" lon="7.16168">
        <ele>433.4</ele>
        <time>2022-12-25T11:21:44Z</time>
      </trkpt>
      <trkpt lat="48.40893" lon="7.16171">
        <ele>433.4</ele>
        <time>2022-12-25T11:21:47Z</time>
      </trkpt>
      <trkpt lat="48.40914" lon="7.16173">
        <ele>433.8</ele>
        <time>2022-12-25T11:21:50Z</time>
      </trkpt>
      <trkpt lat="48.40925" lon="7.1617">
        <ele>433.8</ele>
        <time>2022-12-25T11:21:52Z</time>
      </trkpt>
      <trkpt lat="48.40968" lon="7.16155">
        <ele>434.2</ele>
        <time>2022-12-25T11:21:59Z</time>
      </trkpt>
      <trkpt lat="48.40973" lon="7.16153">
        <ele>434.2</ele>
        <time>2022-12-25T11:22:00Z</time>
      </trkpt>
      <trkpt lat="48.40999" lon="7.16144">
        <ele>434.8</ele>
        <time>2022-12-25T11:22:05Z</time>
      </trkpt>
      <trkpt lat="48.41007" lon="7.16141">
        <ele>434.8</ele>
        <time>2022-12-25T11:22:07Z</time>
      </trkpt>
      <trkpt lat="48.41013" lon="7.16138">
        <ele>435</ele>
        <time>2022-12-25T11:22:08Z</time>
      </trkpt>
      <trkpt lat="48.41019" lon="7.16129">
        <ele>435.4</ele>
        <time>2022-12-25T11:22:10Z</time>
      </trkpt>
      <trkpt lat="48.41021" lon="7.16124">
        <ele>435.4</ele>
        <time>2022-12-25T11:22:11Z</time>
      </trkpt>
      <trkpt lat="48.41024" lon="7.16117">
        <ele>435.6</ele>
        <time>2022-12-25T11:22:12Z</time>
      </trkpt>
      <trkpt lat="48.41026" lon="7.16105">
        <ele>435.8</ele>
        <time>2022-12-25T11:22:14Z</time>
      </trkpt>
      <trkpt lat="48.41027" lon="7.16099">
        <ele>436</ele>
        <time>2022-12-25T11:22:15Z</time>
      </trkpt>
      <trkpt lat="48.41032" lon="7.16072">
        <ele>436.8</ele>
        <time>2022-12-25T11:22:20Z</time>
      </trkpt>
      <trkpt lat="48.41038" lon="7.16041">
        <ele>438.4</ele>
        <time>2022-12-25T11:22:25Z</time>
      </trkpt>
      <trkpt lat="48.41039" lon="7.16034">
        <ele>438.6</ele>
        <time>2022-12-25T11:22:26Z</time>
      </trkpt>
      <trkpt lat="48.4104" lon="7.1603">
        <ele>438.8</ele>
        <time>2022-12-25T11:22:27Z</time>
      </trkpt>
      <trkpt lat="48.41045" lon="7.16017">
        <ele>439.4</ele>
        <time>2022-12-25T11:22:29Z</time>
      </trkpt>
      <trkpt lat="48.41049" lon="7.16005">
        <ele>439.6</ele>
        <time>2022-12-25T11:22:31Z</time>
      </trkpt>
      <trkpt lat="48.41064" lon="7.1596">
        <ele>440.2</ele>
        <time>2022-12-25T11:22:38Z</time>
      </trkpt>
      <trkpt lat="48.41068" lon="7.1594">
        <ele>440.4</ele>
        <time>2022-12-25T11:22:41Z</time>
      </trkpt>
      <trkpt lat="48.41073" lon="7.15914">
        <ele>440.6</ele>
        <time>2022-12-25T11:22:45Z</time>
      </trkpt>
      <trkpt lat="48.41075" lon="7.15909">
        <ele>440.6</ele>
        <time>2022-12-25T11:22:46Z</time>
      </trkpt>
      <trkpt lat="48.41081" lon="7.15904">
        <ele>440.8</ele>
        <time>2022-12-25T11:22:48Z</time>
      </trkpt>
      <trkpt lat="48.41085" lon="7.15904">
        <ele>440.8</ele>
        <time>2022-12-25T11:22:49Z</time>
      </trkpt>
      <trkpt lat="48.41093" lon="7.15909">
        <ele>441</ele>
        <time>2022-12-25T11:22:51Z</time>
      </trkpt>
      <trkpt lat="48.4111" lon="7.15933">
        <ele>441.4</ele>
        <time>2022-12-25T11:22:57Z</time>
      </trkpt>
      <trkpt lat="48.41113" lon="7.15936">
        <ele>441.4</ele>
        <time>2022-12-25T11:22:58Z</time>
      </trkpt>
      <trkpt lat="48.41128" lon="7.15952">
        <ele>441.8</ele>
        <time>2022-12-25T11:23:04Z</time>
      </trkpt>
      <trkpt lat="48.41134" lon="7.15966">
        <ele>442.6</ele>
        <time>2022-12-25T11:23:08Z</time>
      </trkpt>
      <trkpt lat="48.41135" lon="7.1597">
        <ele>442.8</ele>
        <time>2022-12-25T11:23:09Z</time>
      </trkpt>
      <trkpt lat="48.41136" lon="7.15983">
        <ele>443.8</ele>
        <time>2022-12-25T11:23:13Z</time>
      </trkpt>
      <trkpt lat="48.41137" lon="7.15989">
        <ele>444.4</ele>
        <time>2022-12-25T11:23:15Z</time>
      </trkpt>
      <trkpt lat="48.4114" lon="7.15996">
        <ele>445</ele>
        <time>2022-12-25T11:23:18Z</time>
      </trkpt>
    </trkseg>
  </trk>
</gpx>